<?xml version="1.0" encoding="UTF-8" standalone="no" ?>
<gpx xmlns="http://www.topografix.com/GPX/1/1" xmlns:xsi="http://www.w3.org/2001/XMLSchema-instance" xsi:schemaLocation="http://www.topografix.com/GPX/1/1 http://www.topografix.com/GPX/1/1/gpx.xsd" version="1.1" creator="VisuGPX - https://www.visugpx.com">
  <metadata>
    <name>Pic Couttet</name>
    <desc><![CDATA[

]]></desc>
  </metadata>
  <trk>
    <name><![CDATA[Pic Couttet]]></name>
    <extensions>
      <line xmlns="http://www.topografix.com/GPX/gpx_style/0/2">
        <color>0000FF</color>
        <width>4</width>
      </line>
    </extensions>
    <trkseg>
      <trkpt lat="45.18632" lon="5.91269">
        <ele>1348.4250488281</ele>
        <time>2017-05-05T06:34:19Z</time>
      </trkpt>
      <trkpt lat="45.18638" lon="5.91267">
        <ele>1350.4250488281</ele>
        <time>2017-05-05T06:34:24Z</time>
      </trkpt>
      <trkpt lat="45.18644" lon="5.91267">
        <ele>1355.4250488281</ele>
        <time>2017-05-05T06:34:26Z</time>
      </trkpt>
      <trkpt lat="45.18648" lon="5.91268">
        <ele>1357.4250488281</ele>
        <time>2017-05-05T06:34:31Z</time>
      </trkpt>
      <trkpt lat="45.18653" lon="5.91269">
        <ele>1363.4250488281</ele>
        <time>2017-05-05T06:34:37Z</time>
      </trkpt>
      <trkpt lat="45.18658" lon="5.91273">
        <ele>1364.4250488281</ele>
        <time>2017-05-05T06:34:41Z</time>
      </trkpt>
      <trkpt lat="45.18665" lon="5.91278">
        <ele>1368.4250488281</ele>
        <time>2017-05-05T06:34:44Z</time>
      </trkpt>
      <trkpt lat="45.1867" lon="5.91281">
        <ele>1374.4250488281</ele>
        <time>2017-05-05T06:34:47Z</time>
      </trkpt>
      <trkpt lat="45.18671" lon="5.91287">
        <ele>1375.4250488281</ele>
        <time>2017-05-05T06:34:51Z</time>
      </trkpt>
      <trkpt lat="45.1867" lon="5.91295">
        <ele>1375.4250488281</ele>
        <time>2017-05-05T06:34:55Z</time>
      </trkpt>
      <trkpt lat="45.18667" lon="5.91298">
        <ele>1375.4250488281</ele>
        <time>2017-05-05T06:34:57Z</time>
      </trkpt>
      <trkpt lat="45.18663" lon="5.91302">
        <ele>1380.4250488281</ele>
        <time>2017-05-05T06:35:08Z</time>
      </trkpt>
      <trkpt lat="45.18658" lon="5.91302">
        <ele>1383.4250488281</ele>
        <time>2017-05-05T06:35:13Z</time>
      </trkpt>
      <trkpt lat="45.18652" lon="5.91301">
        <ele>1382.4250488281</ele>
        <time>2017-05-05T06:35:17Z</time>
      </trkpt>
      <trkpt lat="45.18647" lon="5.913">
        <ele>1381.4250488281</ele>
        <time>2017-05-05T06:35:22Z</time>
      </trkpt>
      <trkpt lat="45.18642" lon="5.91302">
        <ele>1382.4250488281</ele>
        <time>2017-05-05T06:35:27Z</time>
      </trkpt>
      <trkpt lat="45.18635" lon="5.91302">
        <ele>1382.4250488281</ele>
        <time>2017-05-05T06:35:33Z</time>
      </trkpt>
      <trkpt lat="45.1863" lon="5.91302">
        <ele>1382.4250488281</ele>
        <time>2017-05-05T06:35:39Z</time>
      </trkpt>
      <trkpt lat="45.18624" lon="5.913">
        <ele>1385.4250488281</ele>
        <time>2017-05-05T06:35:48Z</time>
      </trkpt>
      <trkpt lat="45.18617" lon="5.91302">
        <ele>1383.4250488281</ele>
        <time>2017-05-05T06:35:50Z</time>
      </trkpt>
      <trkpt lat="45.18612" lon="5.91302">
        <ele>1383.4250488281</ele>
        <time>2017-05-05T06:35:53Z</time>
      </trkpt>
      <trkpt lat="45.18606" lon="5.91302">
        <ele>1386.4250488281</ele>
        <time>2017-05-05T06:35:56Z</time>
      </trkpt>
      <trkpt lat="45.18601" lon="5.91302">
        <ele>1388.4250488281</ele>
        <time>2017-05-05T06:36:02Z</time>
      </trkpt>
      <trkpt lat="45.18595" lon="5.91302">
        <ele>1388.4250488281</ele>
        <time>2017-05-05T06:36:05Z</time>
      </trkpt>
      <trkpt lat="45.18591" lon="5.91304">
        <ele>1389.4250488281</ele>
        <time>2017-05-05T06:36:08Z</time>
      </trkpt>
      <trkpt lat="45.18587" lon="5.91309">
        <ele>1388.4250488281</ele>
        <time>2017-05-05T06:36:14Z</time>
      </trkpt>
      <trkpt lat="45.18582" lon="5.91314">
        <ele>1386.4250488281</ele>
        <time>2017-05-05T06:36:18Z</time>
      </trkpt>
      <trkpt lat="45.18578" lon="5.91317">
        <ele>1386.4250488281</ele>
        <time>2017-05-05T06:36:21Z</time>
      </trkpt>
      <trkpt lat="45.18572" lon="5.9132">
        <ele>1388.4250488281</ele>
        <time>2017-05-05T06:36:25Z</time>
      </trkpt>
      <trkpt lat="45.18568" lon="5.91326">
        <ele>1390.4250488281</ele>
        <time>2017-05-05T06:36:30Z</time>
      </trkpt>
      <trkpt lat="45.18564" lon="5.9133">
        <ele>1391.4250488281</ele>
        <time>2017-05-05T06:36:34Z</time>
      </trkpt>
      <trkpt lat="45.1856" lon="5.91333">
        <ele>1393.4250488281</ele>
        <time>2017-05-05T06:36:38Z</time>
      </trkpt>
      <trkpt lat="45.18558" lon="5.91338">
        <ele>1394.4250488281</ele>
        <time>2017-05-05T06:36:42Z</time>
      </trkpt>
      <trkpt lat="45.18556" lon="5.91345">
        <ele>1397.4250488281</ele>
        <time>2017-05-05T06:36:47Z</time>
      </trkpt>
      <trkpt lat="45.1855" lon="5.91347">
        <ele>1398.4250488281</ele>
        <time>2017-05-05T06:36:51Z</time>
      </trkpt>
      <trkpt lat="45.18544" lon="5.91349">
        <ele>1405.4250488281</ele>
        <time>2017-05-05T06:37:02Z</time>
      </trkpt>
      <trkpt lat="45.1854" lon="5.91351">
        <ele>1403.4250488281</ele>
        <time>2017-05-05T06:37:07Z</time>
      </trkpt>
      <trkpt lat="45.18536" lon="5.91353">
        <ele>1406.4250488281</ele>
        <time>2017-05-05T06:37:11Z</time>
      </trkpt>
      <trkpt lat="45.18532" lon="5.91358">
        <ele>1406.4250488281</ele>
        <time>2017-05-05T06:37:15Z</time>
      </trkpt>
      <trkpt lat="45.18528" lon="5.91363">
        <ele>1405.4250488281</ele>
        <time>2017-05-05T06:37:18Z</time>
      </trkpt>
      <trkpt lat="45.18525" lon="5.91369">
        <ele>1404.4250488281</ele>
        <time>2017-05-05T06:37:24Z</time>
      </trkpt>
      <trkpt lat="45.1852" lon="5.91374">
        <ele>1404.4250488281</ele>
        <time>2017-05-05T06:37:28Z</time>
      </trkpt>
      <trkpt lat="45.18515" lon="5.91378">
        <ele>1402.4250488281</ele>
        <time>2017-05-05T06:37:32Z</time>
      </trkpt>
      <trkpt lat="45.1851" lon="5.91381">
        <ele>1403.4250488281</ele>
        <time>2017-05-05T06:37:37Z</time>
      </trkpt>
      <trkpt lat="45.18505" lon="5.91381">
        <ele>1408.4250488281</ele>
        <time>2017-05-05T06:37:48Z</time>
      </trkpt>
      <trkpt lat="45.18499" lon="5.91383">
        <ele>1409.4250488281</ele>
        <time>2017-05-05T06:37:51Z</time>
      </trkpt>
      <trkpt lat="45.18494" lon="5.91382">
        <ele>1410.4250488281</ele>
        <time>2017-05-05T06:37:55Z</time>
      </trkpt>
      <trkpt lat="45.1849" lon="5.91383">
        <ele>1411.4250488281</ele>
        <time>2017-05-05T06:37:59Z</time>
      </trkpt>
      <trkpt lat="45.18485" lon="5.91381">
        <ele>1413.4250488281</ele>
        <time>2017-05-05T06:38:05Z</time>
      </trkpt>
      <trkpt lat="45.1848" lon="5.91379">
        <ele>1416.4250488281</ele>
        <time>2017-05-05T06:38:14Z</time>
      </trkpt>
      <trkpt lat="45.18476" lon="5.91376">
        <ele>1417.4250488281</ele>
        <time>2017-05-05T06:38:17Z</time>
      </trkpt>
      <trkpt lat="45.1847" lon="5.91375">
        <ele>1417.4250488281</ele>
        <time>2017-05-05T06:38:21Z</time>
      </trkpt>
      <trkpt lat="45.18464" lon="5.91373">
        <ele>1421.4250488281</ele>
        <time>2017-05-05T06:38:26Z</time>
      </trkpt>
      <trkpt lat="45.18459" lon="5.91372">
        <ele>1421.4250488281</ele>
        <time>2017-05-05T06:38:32Z</time>
      </trkpt>
      <trkpt lat="45.18454" lon="5.91371">
        <ele>1421.4250488281</ele>
        <time>2017-05-05T06:38:34Z</time>
      </trkpt>
      <trkpt lat="45.18449" lon="5.91371">
        <ele>1425.4250488281</ele>
        <time>2017-05-05T06:38:39Z</time>
      </trkpt>
      <trkpt lat="45.18444" lon="5.9137">
        <ele>1426.4250488281</ele>
        <time>2017-05-05T06:38:44Z</time>
      </trkpt>
      <trkpt lat="45.1844" lon="5.91371">
        <ele>1426.4250488281</ele>
        <time>2017-05-05T06:38:49Z</time>
      </trkpt>
      <trkpt lat="45.18436" lon="5.91375">
        <ele>1426.4250488281</ele>
        <time>2017-05-05T06:38:53Z</time>
      </trkpt>
      <trkpt lat="45.18431" lon="5.91374">
        <ele>1429.4250488281</ele>
        <time>2017-05-05T06:38:58Z</time>
      </trkpt>
      <trkpt lat="45.18426" lon="5.91376">
        <ele>1428.4250488281</ele>
        <time>2017-05-05T06:39:03Z</time>
      </trkpt>
      <trkpt lat="45.18421" lon="5.91376">
        <ele>1432.4250488281</ele>
        <time>2017-05-05T06:39:08Z</time>
      </trkpt>
      <trkpt lat="45.18416" lon="5.91375">
        <ele>1432.4250488281</ele>
        <time>2017-05-05T06:39:14Z</time>
      </trkpt>
      <trkpt lat="45.18411" lon="5.91373">
        <ele>1434.4250488281</ele>
        <time>2017-05-05T06:39:18Z</time>
      </trkpt>
      <trkpt lat="45.18405" lon="5.91374">
        <ele>1434.4250488281</ele>
        <time>2017-05-05T06:39:22Z</time>
      </trkpt>
      <trkpt lat="45.18399" lon="5.91371">
        <ele>1436.4250488281</ele>
        <time>2017-05-05T06:39:27Z</time>
      </trkpt>
      <trkpt lat="45.18394" lon="5.91376">
        <ele>1439.4250488281</ele>
        <time>2017-05-05T06:39:33Z</time>
      </trkpt>
      <trkpt lat="45.18389" lon="5.9138">
        <ele>1439.4250488281</ele>
        <time>2017-05-05T06:39:40Z</time>
      </trkpt>
      <trkpt lat="45.18384" lon="5.91384">
        <ele>1443.4250488281</ele>
        <time>2017-05-05T06:39:47Z</time>
      </trkpt>
      <trkpt lat="45.18379" lon="5.91384">
        <ele>1444.4250488281</ele>
        <time>2017-05-05T06:39:53Z</time>
      </trkpt>
      <trkpt lat="45.18374" lon="5.91385">
        <ele>1445.4250488281</ele>
        <time>2017-05-05T06:39:57Z</time>
      </trkpt>
      <trkpt lat="45.18369" lon="5.91386">
        <ele>1443.4250488281</ele>
        <time>2017-05-05T06:40:01Z</time>
      </trkpt>
      <trkpt lat="45.18365" lon="5.9139">
        <ele>1441.4250488281</ele>
        <time>2017-05-05T06:40:04Z</time>
      </trkpt>
      <trkpt lat="45.1836" lon="5.91389">
        <ele>1444.4250488281</ele>
        <time>2017-05-05T06:40:11Z</time>
      </trkpt>
      <trkpt lat="45.18355" lon="5.9139">
        <ele>1447.4250488281</ele>
        <time>2017-05-05T06:40:15Z</time>
      </trkpt>
      <trkpt lat="45.18352" lon="5.91396">
        <ele>1445.4250488281</ele>
        <time>2017-05-05T06:40:20Z</time>
      </trkpt>
      <trkpt lat="45.18346" lon="5.91396">
        <ele>1445.4250488281</ele>
        <time>2017-05-05T06:40:24Z</time>
      </trkpt>
      <trkpt lat="45.18342" lon="5.91399">
        <ele>1451.4250488281</ele>
        <time>2017-05-05T06:40:31Z</time>
      </trkpt>
      <trkpt lat="45.18337" lon="5.91404">
        <ele>1452.4250488281</ele>
        <time>2017-05-05T06:40:36Z</time>
      </trkpt>
      <trkpt lat="45.18332" lon="5.91408">
        <ele>1451.4250488281</ele>
        <time>2017-05-05T06:40:41Z</time>
      </trkpt>
      <trkpt lat="45.18327" lon="5.91406">
        <ele>1453.4250488281</ele>
        <time>2017-05-05T06:40:46Z</time>
      </trkpt>
      <trkpt lat="45.18321" lon="5.91409">
        <ele>1458.4250488281</ele>
        <time>2017-05-05T06:40:52Z</time>
      </trkpt>
      <trkpt lat="45.18316" lon="5.91409">
        <ele>1462.4250488281</ele>
        <time>2017-05-05T06:40:58Z</time>
      </trkpt>
      <trkpt lat="45.18311" lon="5.9141">
        <ele>1462.4250488281</ele>
        <time>2017-05-05T06:41:03Z</time>
      </trkpt>
      <trkpt lat="45.18306" lon="5.91414">
        <ele>1462.4250488281</ele>
        <time>2017-05-05T06:41:08Z</time>
      </trkpt>
      <trkpt lat="45.18302" lon="5.91412">
        <ele>1465.4250488281</ele>
        <time>2017-05-05T06:41:12Z</time>
      </trkpt>
      <trkpt lat="45.18297" lon="5.91413">
        <ele>1466.4250488281</ele>
        <time>2017-05-05T06:41:19Z</time>
      </trkpt>
      <trkpt lat="45.18292" lon="5.91413">
        <ele>1467.4239501953</ele>
        <time>2017-05-05T06:41:25Z</time>
      </trkpt>
      <trkpt lat="45.18286" lon="5.91414">
        <ele>1465.4239501953</ele>
        <time>2017-05-05T06:41:29Z</time>
      </trkpt>
      <trkpt lat="45.18281" lon="5.91412">
        <ele>1470.4239501953</ele>
        <time>2017-05-05T06:41:35Z</time>
      </trkpt>
      <trkpt lat="45.18276" lon="5.91413">
        <ele>1472.4239501953</ele>
        <time>2017-05-05T06:41:40Z</time>
      </trkpt>
      <trkpt lat="45.18271" lon="5.91413">
        <ele>1474.4239501953</ele>
        <time>2017-05-05T06:41:45Z</time>
      </trkpt>
      <trkpt lat="45.18265" lon="5.91417">
        <ele>1473.4239501953</ele>
        <time>2017-05-05T06:41:51Z</time>
      </trkpt>
      <trkpt lat="45.18261" lon="5.91419">
        <ele>1471.4239501953</ele>
        <time>2017-05-05T06:41:56Z</time>
      </trkpt>
      <trkpt lat="45.18255" lon="5.91418">
        <ele>1471.4239501953</ele>
        <time>2017-05-05T06:41:58Z</time>
      </trkpt>
      <trkpt lat="45.18249" lon="5.91419">
        <ele>1473.4239501953</ele>
        <time>2017-05-05T06:42:03Z</time>
      </trkpt>
      <trkpt lat="45.18245" lon="5.91418">
        <ele>1477.4239501953</ele>
        <time>2017-05-05T06:42:15Z</time>
      </trkpt>
      <trkpt lat="45.18241" lon="5.91423">
        <ele>1479.4239501953</ele>
        <time>2017-05-05T06:42:19Z</time>
      </trkpt>
      <trkpt lat="45.18236" lon="5.91425">
        <ele>1477.4239501953</ele>
        <time>2017-05-05T06:42:22Z</time>
      </trkpt>
      <trkpt lat="45.18232" lon="5.91428">
        <ele>1475.4239501953</ele>
        <time>2017-05-05T06:42:24Z</time>
      </trkpt>
      <trkpt lat="45.18227" lon="5.91429">
        <ele>1476.4239501953</ele>
        <time>2017-05-05T06:42:29Z</time>
      </trkpt>
      <trkpt lat="45.18222" lon="5.9143">
        <ele>1477.4239501953</ele>
        <time>2017-05-05T06:42:36Z</time>
      </trkpt>
      <trkpt lat="45.18217" lon="5.91429">
        <ele>1477.4239501953</ele>
        <time>2017-05-05T06:42:40Z</time>
      </trkpt>
      <trkpt lat="45.18213" lon="5.91434">
        <ele>1476.4239501953</ele>
        <time>2017-05-05T06:42:44Z</time>
      </trkpt>
      <trkpt lat="45.1821" lon="5.91439">
        <ele>1477.4239501953</ele>
        <time>2017-05-05T06:42:49Z</time>
      </trkpt>
      <trkpt lat="45.18205" lon="5.9144">
        <ele>1482.4239501953</ele>
        <time>2017-05-05T06:42:54Z</time>
      </trkpt>
      <trkpt lat="45.182" lon="5.91443">
        <ele>1481.4239501953</ele>
        <time>2017-05-05T06:42:57Z</time>
      </trkpt>
      <trkpt lat="45.18196" lon="5.91445">
        <ele>1482.4239501953</ele>
        <time>2017-05-05T06:43:02Z</time>
      </trkpt>
      <trkpt lat="45.18192" lon="5.91449">
        <ele>1481.4239501953</ele>
        <time>2017-05-05T06:43:06Z</time>
      </trkpt>
      <trkpt lat="45.18188" lon="5.91452">
        <ele>1479.4239501953</ele>
        <time>2017-05-05T06:43:10Z</time>
      </trkpt>
      <trkpt lat="45.18183" lon="5.91454">
        <ele>1479.4239501953</ele>
        <time>2017-05-05T06:43:14Z</time>
      </trkpt>
      <trkpt lat="45.18179" lon="5.91453">
        <ele>1483.4239501953</ele>
        <time>2017-05-05T06:43:21Z</time>
      </trkpt>
      <trkpt lat="45.18173" lon="5.91458">
        <ele>1486.4239501953</ele>
        <time>2017-05-05T06:43:29Z</time>
      </trkpt>
      <trkpt lat="45.18168" lon="5.91458">
        <ele>1486.4239501953</ele>
        <time>2017-05-05T06:43:34Z</time>
      </trkpt>
      <trkpt lat="45.18163" lon="5.91459">
        <ele>1486.4239501953</ele>
        <time>2017-05-05T06:43:38Z</time>
      </trkpt>
      <trkpt lat="45.18158" lon="5.91461">
        <ele>1488.4239501953</ele>
        <time>2017-05-05T06:43:45Z</time>
      </trkpt>
      <trkpt lat="45.18154" lon="5.91464">
        <ele>1489.4239501953</ele>
        <time>2017-05-05T06:43:50Z</time>
      </trkpt>
      <trkpt lat="45.18148" lon="5.91467">
        <ele>1491.4239501953</ele>
        <time>2017-05-05T06:44:02Z</time>
      </trkpt>
      <trkpt lat="45.18143" lon="5.91468">
        <ele>1492.4239501953</ele>
        <time>2017-05-05T06:44:05Z</time>
      </trkpt>
      <trkpt lat="45.18137" lon="5.91468">
        <ele>1498.4239501953</ele>
        <time>2017-05-05T06:44:12Z</time>
      </trkpt>
      <trkpt lat="45.18132" lon="5.9147">
        <ele>1499.4239501953</ele>
        <time>2017-05-05T06:44:17Z</time>
      </trkpt>
      <trkpt lat="45.18127" lon="5.91472">
        <ele>1499.4239501953</ele>
        <time>2017-05-05T06:44:21Z</time>
      </trkpt>
      <trkpt lat="45.18123" lon="5.91478">
        <ele>1500.4239501953</ele>
        <time>2017-05-05T06:44:25Z</time>
      </trkpt>
      <trkpt lat="45.1812" lon="5.91484">
        <ele>1501.4239501953</ele>
        <time>2017-05-05T06:44:29Z</time>
      </trkpt>
      <trkpt lat="45.1812" lon="5.91491">
        <ele>1500.4239501953</ele>
        <time>2017-05-05T06:44:34Z</time>
      </trkpt>
      <trkpt lat="45.18118" lon="5.91499">
        <ele>1502.4239501953</ele>
        <time>2017-05-05T06:44:39Z</time>
      </trkpt>
      <trkpt lat="45.18119" lon="5.91507">
        <ele>1508.4239501953</ele>
        <time>2017-05-05T06:44:44Z</time>
      </trkpt>
      <trkpt lat="45.1812" lon="5.91514">
        <ele>1511.4239501953</ele>
        <time>2017-05-05T06:44:49Z</time>
      </trkpt>
      <trkpt lat="45.18123" lon="5.9152">
        <ele>1512.4239501953</ele>
        <time>2017-05-05T06:44:52Z</time>
      </trkpt>
      <trkpt lat="45.18125" lon="5.91526">
        <ele>1510.4239501953</ele>
        <time>2017-05-05T06:44:57Z</time>
      </trkpt>
      <trkpt lat="45.18126" lon="5.91534">
        <ele>1508.4239501953</ele>
        <time>2017-05-05T06:45:00Z</time>
      </trkpt>
      <trkpt lat="45.18126" lon="5.91542">
        <ele>1508.4239501953</ele>
        <time>2017-05-05T06:45:04Z</time>
      </trkpt>
      <trkpt lat="45.18125" lon="5.91551">
        <ele>1510.4239501953</ele>
        <time>2017-05-05T06:45:10Z</time>
      </trkpt>
      <trkpt lat="45.18121" lon="5.91558">
        <ele>1510.4239501953</ele>
        <time>2017-05-05T06:45:15Z</time>
      </trkpt>
      <trkpt lat="45.18117" lon="5.91562">
        <ele>1508.4239501953</ele>
        <time>2017-05-05T06:45:20Z</time>
      </trkpt>
      <trkpt lat="45.18113" lon="5.91565">
        <ele>1504.4239501953</ele>
        <time>2017-05-05T06:45:27Z</time>
      </trkpt>
      <trkpt lat="45.18107" lon="5.91567">
        <ele>1506.4239501953</ele>
        <time>2017-05-05T06:45:36Z</time>
      </trkpt>
      <trkpt lat="45.18101" lon="5.9157">
        <ele>1504.4239501953</ele>
        <time>2017-05-05T06:45:40Z</time>
      </trkpt>
      <trkpt lat="45.18096" lon="5.91572">
        <ele>1504.4239501953</ele>
        <time>2017-05-05T06:45:44Z</time>
      </trkpt>
      <trkpt lat="45.1809" lon="5.91574">
        <ele>1506.4239501953</ele>
        <time>2017-05-05T06:45:47Z</time>
      </trkpt>
      <trkpt lat="45.18085" lon="5.91574">
        <ele>1507.4239501953</ele>
        <time>2017-05-05T06:45:51Z</time>
      </trkpt>
      <trkpt lat="45.18079" lon="5.91575">
        <ele>1506.4239501953</ele>
        <time>2017-05-05T06:45:55Z</time>
      </trkpt>
      <trkpt lat="45.18074" lon="5.91575">
        <ele>1507.4239501953</ele>
        <time>2017-05-05T06:45:59Z</time>
      </trkpt>
      <trkpt lat="45.1807" lon="5.91578">
        <ele>1505.4239501953</ele>
        <time>2017-05-05T06:46:02Z</time>
      </trkpt>
      <trkpt lat="45.18066" lon="5.9158">
        <ele>1504.4239501953</ele>
        <time>2017-05-05T06:46:05Z</time>
      </trkpt>
      <trkpt lat="45.1806" lon="5.91581">
        <ele>1507.4239501953</ele>
        <time>2017-05-05T06:46:09Z</time>
      </trkpt>
      <trkpt lat="45.18055" lon="5.91584">
        <ele>1508.4239501953</ele>
        <time>2017-05-05T06:46:12Z</time>
      </trkpt>
      <trkpt lat="45.18049" lon="5.91582">
        <ele>1510.4239501953</ele>
        <time>2017-05-05T06:46:16Z</time>
      </trkpt>
      <trkpt lat="45.18043" lon="5.91583">
        <ele>1508.4239501953</ele>
        <time>2017-05-05T06:46:18Z</time>
      </trkpt>
      <trkpt lat="45.18037" lon="5.91585">
        <ele>1506.4239501953</ele>
        <time>2017-05-05T06:46:23Z</time>
      </trkpt>
      <trkpt lat="45.18032" lon="5.91584">
        <ele>1507.4239501953</ele>
        <time>2017-05-05T06:46:27Z</time>
      </trkpt>
      <trkpt lat="45.18026" lon="5.91585">
        <ele>1507.4239501953</ele>
        <time>2017-05-05T06:46:30Z</time>
      </trkpt>
      <trkpt lat="45.18021" lon="5.91584">
        <ele>1506.4239501953</ele>
        <time>2017-05-05T06:46:35Z</time>
      </trkpt>
      <trkpt lat="45.18017" lon="5.91582">
        <ele>1507.4239501953</ele>
        <time>2017-05-05T06:46:39Z</time>
      </trkpt>
      <trkpt lat="45.1801" lon="5.91584">
        <ele>1508.4239501953</ele>
        <time>2017-05-05T06:46:44Z</time>
      </trkpt>
      <trkpt lat="45.18006" lon="5.91584">
        <ele>1509.4239501953</ele>
        <time>2017-05-05T06:46:46Z</time>
      </trkpt>
      <trkpt lat="45.18001" lon="5.91584">
        <ele>1507.4239501953</ele>
        <time>2017-05-05T06:46:51Z</time>
      </trkpt>
      <trkpt lat="45.17996" lon="5.91584">
        <ele>1507.4239501953</ele>
        <time>2017-05-05T06:46:52Z</time>
      </trkpt>
      <trkpt lat="45.17991" lon="5.91586">
        <ele>1509.4239501953</ele>
        <time>2017-05-05T06:46:57Z</time>
      </trkpt>
      <trkpt lat="45.17987" lon="5.91586">
        <ele>1516.4239501953</ele>
        <time>2017-05-05T06:47:03Z</time>
      </trkpt>
      <trkpt lat="45.17982" lon="5.91586">
        <ele>1515.4239501953</ele>
        <time>2017-05-05T06:47:08Z</time>
      </trkpt>
      <trkpt lat="45.17976" lon="5.91587">
        <ele>1519.4239501953</ele>
        <time>2017-05-05T06:47:16Z</time>
      </trkpt>
      <trkpt lat="45.17971" lon="5.91588">
        <ele>1520.4239501953</ele>
        <time>2017-05-05T06:47:21Z</time>
      </trkpt>
      <trkpt lat="45.17966" lon="5.91589">
        <ele>1522.4239501953</ele>
        <time>2017-05-05T06:47:28Z</time>
      </trkpt>
      <trkpt lat="45.17959" lon="5.91588">
        <ele>1528.4239501953</ele>
        <time>2017-05-05T06:47:36Z</time>
      </trkpt>
      <trkpt lat="45.17954" lon="5.91591">
        <ele>1528.4239501953</ele>
        <time>2017-05-05T06:47:42Z</time>
      </trkpt>
      <trkpt lat="45.17949" lon="5.91595">
        <ele>1528.4239501953</ele>
        <time>2017-05-05T06:47:49Z</time>
      </trkpt>
      <trkpt lat="45.17945" lon="5.91598">
        <ele>1525.4239501953</ele>
        <time>2017-05-05T06:47:53Z</time>
      </trkpt>
      <trkpt lat="45.1794" lon="5.91599">
        <ele>1528.4239501953</ele>
        <time>2017-05-05T06:47:57Z</time>
      </trkpt>
      <trkpt lat="45.17935" lon="5.916">
        <ele>1531.4239501953</ele>
        <time>2017-05-05T06:48:00Z</time>
      </trkpt>
      <trkpt lat="45.17929" lon="5.91601">
        <ele>1530.4239501953</ele>
        <time>2017-05-05T06:48:05Z</time>
      </trkpt>
      <trkpt lat="45.17924" lon="5.91599">
        <ele>1532.4239501953</ele>
        <time>2017-05-05T06:48:09Z</time>
      </trkpt>
      <trkpt lat="45.17919" lon="5.91598">
        <ele>1536.4239501953</ele>
        <time>2017-05-05T06:48:19Z</time>
      </trkpt>
      <trkpt lat="45.17914" lon="5.91599">
        <ele>1535.4239501953</ele>
        <time>2017-05-05T06:48:23Z</time>
      </trkpt>
      <trkpt lat="45.17909" lon="5.91601">
        <ele>1537.4239501953</ele>
        <time>2017-05-05T06:48:27Z</time>
      </trkpt>
      <trkpt lat="45.17904" lon="5.91602">
        <ele>1538.4239501953</ele>
        <time>2017-05-05T06:48:35Z</time>
      </trkpt>
      <trkpt lat="45.179" lon="5.91606">
        <ele>1537.4239501953</ele>
        <time>2017-05-05T06:48:39Z</time>
      </trkpt>
      <trkpt lat="45.17894" lon="5.91608">
        <ele>1535.4239501953</ele>
        <time>2017-05-05T06:48:47Z</time>
      </trkpt>
      <trkpt lat="45.17891" lon="5.91613">
        <ele>1535.4239501953</ele>
        <time>2017-05-05T06:48:53Z</time>
      </trkpt>
      <trkpt lat="45.17886" lon="5.91613">
        <ele>1538.4239501953</ele>
        <time>2017-05-05T06:49:00Z</time>
      </trkpt>
      <trkpt lat="45.17882" lon="5.91615">
        <ele>1541.4239501953</ele>
        <time>2017-05-05T06:49:06Z</time>
      </trkpt>
      <trkpt lat="45.17877" lon="5.91619">
        <ele>1541.4239501953</ele>
        <time>2017-05-05T06:49:10Z</time>
      </trkpt>
      <trkpt lat="45.17873" lon="5.91622">
        <ele>1543.4239501953</ele>
        <time>2017-05-05T06:49:16Z</time>
      </trkpt>
      <trkpt lat="45.17869" lon="5.91624">
        <ele>1544.4239501953</ele>
        <time>2017-05-05T06:49:20Z</time>
      </trkpt>
      <trkpt lat="45.17864" lon="5.91627">
        <ele>1544.4239501953</ele>
        <time>2017-05-05T06:49:25Z</time>
      </trkpt>
      <trkpt lat="45.17861" lon="5.91632">
        <ele>1545.4239501953</ele>
        <time>2017-05-05T06:49:30Z</time>
      </trkpt>
      <trkpt lat="45.17856" lon="5.91633">
        <ele>1551.4239501953</ele>
        <time>2017-05-05T06:49:37Z</time>
      </trkpt>
      <trkpt lat="45.17851" lon="5.91637">
        <ele>1553.4239501953</ele>
        <time>2017-05-05T06:49:45Z</time>
      </trkpt>
      <trkpt lat="45.1785" lon="5.91644">
        <ele>1555.4239501953</ele>
        <time>2017-05-05T06:49:51Z</time>
      </trkpt>
      <trkpt lat="45.17846" lon="5.91646">
        <ele>1555.4239501953</ele>
        <time>2017-05-05T06:49:58Z</time>
      </trkpt>
      <trkpt lat="45.1784" lon="5.91645">
        <ele>1558.4239501953</ele>
        <time>2017-05-05T06:50:04Z</time>
      </trkpt>
      <trkpt lat="45.17835" lon="5.91646">
        <ele>1560.4239501953</ele>
        <time>2017-05-05T06:50:10Z</time>
      </trkpt>
      <trkpt lat="45.17832" lon="5.91652">
        <ele>1558.4239501953</ele>
        <time>2017-05-05T06:50:16Z</time>
      </trkpt>
      <trkpt lat="45.17826" lon="5.91655">
        <ele>1558.4239501953</ele>
        <time>2017-05-05T06:50:22Z</time>
      </trkpt>
      <trkpt lat="45.17822" lon="5.91656">
        <ele>1558.4239501953</ele>
        <time>2017-05-05T06:50:30Z</time>
      </trkpt>
      <trkpt lat="45.17816" lon="5.91657">
        <ele>1558.4239501953</ele>
        <time>2017-05-05T06:50:35Z</time>
      </trkpt>
      <trkpt lat="45.17812" lon="5.91659">
        <ele>1558.4239501953</ele>
        <time>2017-05-05T06:50:38Z</time>
      </trkpt>
      <trkpt lat="45.17807" lon="5.91663">
        <ele>1558.4239501953</ele>
        <time>2017-05-05T06:50:44Z</time>
      </trkpt>
      <trkpt lat="45.17802" lon="5.91666">
        <ele>1563.4239501953</ele>
        <time>2017-05-05T06:50:52Z</time>
      </trkpt>
      <trkpt lat="45.17798" lon="5.91667">
        <ele>1564.4239501953</ele>
        <time>2017-05-05T06:50:57Z</time>
      </trkpt>
      <trkpt lat="45.17802" lon="5.9167">
        <ele>1566.4239501953</ele>
        <time>2017-05-05T06:51:03Z</time>
      </trkpt>
      <trkpt lat="45.17806" lon="5.91671">
        <ele>1571.4239501953</ele>
        <time>2017-05-05T06:51:15Z</time>
      </trkpt>
      <trkpt lat="45.17811" lon="5.91674">
        <ele>1573.4239501953</ele>
        <time>2017-05-05T06:51:20Z</time>
      </trkpt>
      <trkpt lat="45.17815" lon="5.91677">
        <ele>1576.4239501953</ele>
        <time>2017-05-05T06:51:26Z</time>
      </trkpt>
      <trkpt lat="45.1782" lon="5.91679">
        <ele>1577.4239501953</ele>
        <time>2017-05-05T06:51:31Z</time>
      </trkpt>
      <trkpt lat="45.17821" lon="5.91685">
        <ele>1571.4239501953</ele>
        <time>2017-05-05T06:51:35Z</time>
      </trkpt>
      <trkpt lat="45.17826" lon="5.91691">
        <ele>1569.4239501953</ele>
        <time>2017-05-05T06:51:39Z</time>
      </trkpt>
      <trkpt lat="45.17829" lon="5.91695">
        <ele>1568.4239501953</ele>
        <time>2017-05-05T06:51:51Z</time>
      </trkpt>
      <trkpt lat="45.17833" lon="5.91698">
        <ele>1570.4239501953</ele>
        <time>2017-05-05T06:51:55Z</time>
      </trkpt>
      <trkpt lat="45.1784" lon="5.917">
        <ele>1572.4239501953</ele>
        <time>2017-05-05T06:51:58Z</time>
      </trkpt>
      <trkpt lat="45.17834" lon="5.91701">
        <ele>1571.4239501953</ele>
        <time>2017-05-05T06:52:05Z</time>
      </trkpt>
      <trkpt lat="45.17829" lon="5.91705">
        <ele>1574.4239501953</ele>
        <time>2017-05-05T06:52:13Z</time>
      </trkpt>
      <trkpt lat="45.17824" lon="5.91707">
        <ele>1578.4239501953</ele>
        <time>2017-05-05T06:52:20Z</time>
      </trkpt>
      <trkpt lat="45.1782" lon="5.91709">
        <ele>1577.4239501953</ele>
        <time>2017-05-05T06:52:23Z</time>
      </trkpt>
      <trkpt lat="45.17818" lon="5.91715">
        <ele>1575.4239501953</ele>
        <time>2017-05-05T06:52:29Z</time>
      </trkpt>
      <trkpt lat="45.17814" lon="5.91718">
        <ele>1579.4239501953</ele>
        <time>2017-05-05T06:52:37Z</time>
      </trkpt>
      <trkpt lat="45.17809" lon="5.91717">
        <ele>1580.4239501953</ele>
        <time>2017-05-05T06:52:41Z</time>
      </trkpt>
      <trkpt lat="45.17804" lon="5.91719">
        <ele>1583.4239501953</ele>
        <time>2017-05-05T06:52:47Z</time>
      </trkpt>
      <trkpt lat="45.17798" lon="5.9172">
        <ele>1582.4239501953</ele>
        <time>2017-05-05T06:52:52Z</time>
      </trkpt>
      <trkpt lat="45.17793" lon="5.91722">
        <ele>1587.4239501953</ele>
        <time>2017-05-05T06:52:58Z</time>
      </trkpt>
      <trkpt lat="45.17788" lon="5.91726">
        <ele>1588.4239501953</ele>
        <time>2017-05-05T06:53:08Z</time>
      </trkpt>
      <trkpt lat="45.17784" lon="5.91729">
        <ele>1589.4239501953</ele>
        <time>2017-05-05T06:53:14Z</time>
      </trkpt>
      <trkpt lat="45.17779" lon="5.91732">
        <ele>1589.4239501953</ele>
        <time>2017-05-05T06:53:19Z</time>
      </trkpt>
      <trkpt lat="45.17775" lon="5.91732">
        <ele>1588.4239501953</ele>
        <time>2017-05-05T06:53:22Z</time>
      </trkpt>
      <trkpt lat="45.1777" lon="5.91736">
        <ele>1590.4239501953</ele>
        <time>2017-05-05T06:53:32Z</time>
      </trkpt>
      <trkpt lat="45.17766" lon="5.91739">
        <ele>1591.4239501953</ele>
        <time>2017-05-05T06:53:36Z</time>
      </trkpt>
      <trkpt lat="45.17761" lon="5.91739">
        <ele>1592.4239501953</ele>
        <time>2017-05-05T06:53:40Z</time>
      </trkpt>
      <trkpt lat="45.17757" lon="5.91742">
        <ele>1589.4239501953</ele>
        <time>2017-05-05T06:53:45Z</time>
      </trkpt>
      <trkpt lat="45.1775" lon="5.91742">
        <ele>1592.4239501953</ele>
        <time>2017-05-05T06:53:53Z</time>
      </trkpt>
      <trkpt lat="45.17747" lon="5.91747">
        <ele>1592.4239501953</ele>
        <time>2017-05-05T06:53:57Z</time>
      </trkpt>
      <trkpt lat="45.17751" lon="5.9175">
        <ele>1594.4239501953</ele>
        <time>2017-05-05T06:54:04Z</time>
      </trkpt>
      <trkpt lat="45.17756" lon="5.91752">
        <ele>1599.4239501953</ele>
        <time>2017-05-05T06:54:11Z</time>
      </trkpt>
      <trkpt lat="45.17759" lon="5.91757">
        <ele>1601.4239501953</ele>
        <time>2017-05-05T06:54:25Z</time>
      </trkpt>
      <trkpt lat="45.17764" lon="5.91759">
        <ele>1605.4239501953</ele>
        <time>2017-05-05T06:54:32Z</time>
      </trkpt>
      <trkpt lat="45.17768" lon="5.9176">
        <ele>1607.4239501953</ele>
        <time>2017-05-05T06:54:43Z</time>
      </trkpt>
      <trkpt lat="45.17773" lon="5.91762">
        <ele>1607.4239501953</ele>
        <time>2017-05-05T06:54:47Z</time>
      </trkpt>
      <trkpt lat="45.17777" lon="5.91767">
        <ele>1607.4239501953</ele>
        <time>2017-05-05T06:54:51Z</time>
      </trkpt>
      <trkpt lat="45.17781" lon="5.91771">
        <ele>1610.4239501953</ele>
        <time>2017-05-05T06:54:56Z</time>
      </trkpt>
      <trkpt lat="45.17788" lon="5.91773">
        <ele>1611.4239501953</ele>
        <time>2017-05-05T06:54:58Z</time>
      </trkpt>
      <trkpt lat="45.17792" lon="5.91777">
        <ele>1609.4239501953</ele>
        <time>2017-05-05T06:55:02Z</time>
      </trkpt>
      <trkpt lat="45.17797" lon="5.91779">
        <ele>1611.4239501953</ele>
        <time>2017-05-05T06:55:05Z</time>
      </trkpt>
      <trkpt lat="45.17802" lon="5.91782">
        <ele>1613.4239501953</ele>
        <time>2017-05-05T06:55:12Z</time>
      </trkpt>
      <trkpt lat="45.17807" lon="5.91785">
        <ele>1616.4239501953</ele>
        <time>2017-05-05T06:55:17Z</time>
      </trkpt>
      <trkpt lat="45.17809" lon="5.91791">
        <ele>1619.4239501953</ele>
        <time>2017-05-05T06:55:24Z</time>
      </trkpt>
      <trkpt lat="45.17804" lon="5.91792">
        <ele>1619.4239501953</ele>
        <time>2017-05-05T06:55:32Z</time>
      </trkpt>
      <trkpt lat="45.17799" lon="5.91791">
        <ele>1626.4239501953</ele>
        <time>2017-05-05T06:55:43Z</time>
      </trkpt>
      <trkpt lat="45.17794" lon="5.91792">
        <ele>1626.4239501953</ele>
        <time>2017-05-05T06:55:47Z</time>
      </trkpt>
      <trkpt lat="45.17789" lon="5.91793">
        <ele>1627.4239501953</ele>
        <time>2017-05-05T06:55:52Z</time>
      </trkpt>
      <trkpt lat="45.17784" lon="5.91794">
        <ele>1626.4239501953</ele>
        <time>2017-05-05T06:55:56Z</time>
      </trkpt>
      <trkpt lat="45.17778" lon="5.91796">
        <ele>1625.4239501953</ele>
        <time>2017-05-05T06:56:01Z</time>
      </trkpt>
      <trkpt lat="45.17773" lon="5.91796">
        <ele>1625.4239501953</ele>
        <time>2017-05-05T06:56:05Z</time>
      </trkpt>
      <trkpt lat="45.17768" lon="5.91799">
        <ele>1621.4239501953</ele>
        <time>2017-05-05T06:56:09Z</time>
      </trkpt>
      <trkpt lat="45.1777" lon="5.91805">
        <ele>1623.4239501953</ele>
        <time>2017-05-05T06:56:21Z</time>
      </trkpt>
      <trkpt lat="45.17775" lon="5.9181">
        <ele>1628.4239501953</ele>
        <time>2017-05-05T06:56:26Z</time>
      </trkpt>
      <trkpt lat="45.17779" lon="5.91814">
        <ele>1626.4239501953</ele>
        <time>2017-05-05T06:56:33Z</time>
      </trkpt>
      <trkpt lat="45.17785" lon="5.91819">
        <ele>1628.4239501953</ele>
        <time>2017-05-05T06:56:38Z</time>
      </trkpt>
      <trkpt lat="45.1779" lon="5.91823">
        <ele>1631.4239501953</ele>
        <time>2017-05-05T06:56:45Z</time>
      </trkpt>
      <trkpt lat="45.17789" lon="5.91829">
        <ele>1632.4239501953</ele>
        <time>2017-05-05T06:56:52Z</time>
      </trkpt>
      <trkpt lat="45.17784" lon="5.91827">
        <ele>1634.4239501953</ele>
        <time>2017-05-05T06:56:56Z</time>
      </trkpt>
      <trkpt lat="45.1778" lon="5.91824">
        <ele>1633.4239501953</ele>
        <time>2017-05-05T06:57:00Z</time>
      </trkpt>
      <trkpt lat="45.17775" lon="5.91823">
        <ele>1634.4239501953</ele>
        <time>2017-05-05T06:57:04Z</time>
      </trkpt>
      <trkpt lat="45.1777" lon="5.91824">
        <ele>1638.4239501953</ele>
        <time>2017-05-05T06:57:13Z</time>
      </trkpt>
      <trkpt lat="45.17766" lon="5.91828">
        <ele>1641.4239501953</ele>
        <time>2017-05-05T06:57:24Z</time>
      </trkpt>
      <trkpt lat="45.17762" lon="5.91831">
        <ele>1641.4239501953</ele>
        <time>2017-05-05T06:57:28Z</time>
      </trkpt>
      <trkpt lat="45.17761" lon="5.91838">
        <ele>1646.4239501953</ele>
        <time>2017-05-05T06:57:40Z</time>
      </trkpt>
      <trkpt lat="45.1776" lon="5.91845">
        <ele>1644.4239501953</ele>
        <time>2017-05-05T06:57:48Z</time>
      </trkpt>
      <trkpt lat="45.17756" lon="5.91852">
        <ele>1647.4239501953</ele>
        <time>2017-05-05T06:58:01Z</time>
      </trkpt>
      <trkpt lat="45.17753" lon="5.91857">
        <ele>1648.4239501953</ele>
        <time>2017-05-05T06:58:19Z</time>
      </trkpt>
      <trkpt lat="45.17748" lon="5.91861">
        <ele>1652.4239501953</ele>
        <time>2017-05-05T06:58:41Z</time>
      </trkpt>
      <trkpt lat="45.17744" lon="5.91866">
        <ele>1654.4239501953</ele>
        <time>2017-05-05T06:58:48Z</time>
      </trkpt>
      <trkpt lat="45.17742" lon="5.91872">
        <ele>1659.4239501953</ele>
        <time>2017-05-05T06:58:53Z</time>
      </trkpt>
      <trkpt lat="45.17737" lon="5.91875">
        <ele>1660.4239501953</ele>
        <time>2017-05-05T06:58:57Z</time>
      </trkpt>
      <trkpt lat="45.17734" lon="5.91881">
        <ele>1662.4239501953</ele>
        <time>2017-05-05T06:59:03Z</time>
      </trkpt>
      <trkpt lat="45.1773" lon="5.91883">
        <ele>1663.4239501953</ele>
        <time>2017-05-05T06:59:09Z</time>
      </trkpt>
      <trkpt lat="45.17727" lon="5.91889">
        <ele>1662.4239501953</ele>
        <time>2017-05-05T06:59:13Z</time>
      </trkpt>
      <trkpt lat="45.17723" lon="5.91893">
        <ele>1664.4239501953</ele>
        <time>2017-05-05T06:59:16Z</time>
      </trkpt>
      <trkpt lat="45.17721" lon="5.91901">
        <ele>1666.4239501953</ele>
        <time>2017-05-05T06:59:23Z</time>
      </trkpt>
      <trkpt lat="45.17718" lon="5.91905">
        <ele>1669.4239501953</ele>
        <time>2017-05-05T06:59:28Z</time>
      </trkpt>
      <trkpt lat="45.17714" lon="5.91911">
        <ele>1673.4239501953</ele>
        <time>2017-05-05T06:59:36Z</time>
      </trkpt>
      <trkpt lat="45.17709" lon="5.91913">
        <ele>1673.4239501953</ele>
        <time>2017-05-05T06:59:43Z</time>
      </trkpt>
      <trkpt lat="45.17709" lon="5.9192">
        <ele>1672.4239501953</ele>
        <time>2017-05-05T06:59:49Z</time>
      </trkpt>
      <trkpt lat="45.17711" lon="5.91927">
        <ele>1674.4239501953</ele>
        <time>2017-05-05T06:59:55Z</time>
      </trkpt>
      <trkpt lat="45.17708" lon="5.91935">
        <ele>1675.4239501953</ele>
        <time>2017-05-05T07:00:01Z</time>
      </trkpt>
      <trkpt lat="45.17708" lon="5.91942">
        <ele>1676.4239501953</ele>
        <time>2017-05-05T07:00:04Z</time>
      </trkpt>
      <trkpt lat="45.17707" lon="5.91949">
        <ele>1678.4239501953</ele>
        <time>2017-05-05T07:00:07Z</time>
      </trkpt>
      <trkpt lat="45.17709" lon="5.91955">
        <ele>1680.4239501953</ele>
        <time>2017-05-05T07:00:11Z</time>
      </trkpt>
      <trkpt lat="45.17707" lon="5.91961">
        <ele>1678.4239501953</ele>
        <time>2017-05-05T07:00:14Z</time>
      </trkpt>
      <trkpt lat="45.17704" lon="5.91967">
        <ele>1678.4239501953</ele>
        <time>2017-05-05T07:00:17Z</time>
      </trkpt>
      <trkpt lat="45.17702" lon="5.91974">
        <ele>1679.4239501953</ele>
        <time>2017-05-05T07:00:21Z</time>
      </trkpt>
      <trkpt lat="45.17698" lon="5.91979">
        <ele>1681.4239501953</ele>
        <time>2017-05-05T07:00:24Z</time>
      </trkpt>
      <trkpt lat="45.17695" lon="5.91985">
        <ele>1682.4239501953</ele>
        <time>2017-05-05T07:00:28Z</time>
      </trkpt>
      <trkpt lat="45.17692" lon="5.9199">
        <ele>1683.4239501953</ele>
        <time>2017-05-05T07:00:31Z</time>
      </trkpt>
      <trkpt lat="45.17687" lon="5.91995">
        <ele>1683.4239501953</ele>
        <time>2017-05-05T07:00:35Z</time>
      </trkpt>
      <trkpt lat="45.17682" lon="5.91997">
        <ele>1684.4239501953</ele>
        <time>2017-05-05T07:00:40Z</time>
      </trkpt>
      <trkpt lat="45.17679" lon="5.92003">
        <ele>1686.4239501953</ele>
        <time>2017-05-05T07:00:45Z</time>
      </trkpt>
      <trkpt lat="45.17678" lon="5.9201">
        <ele>1687.4239501953</ele>
        <time>2017-05-05T07:00:50Z</time>
      </trkpt>
      <trkpt lat="45.17676" lon="5.92016">
        <ele>1687.4239501953</ele>
        <time>2017-05-05T07:00:53Z</time>
      </trkpt>
      <trkpt lat="45.17671" lon="5.92021">
        <ele>1686.4239501953</ele>
        <time>2017-05-05T07:00:58Z</time>
      </trkpt>
      <trkpt lat="45.1767" lon="5.92029">
        <ele>1686.4239501953</ele>
        <time>2017-05-05T07:01:03Z</time>
      </trkpt>
      <trkpt lat="45.17669" lon="5.92037">
        <ele>1686.4239501953</ele>
        <time>2017-05-05T07:01:06Z</time>
      </trkpt>
      <trkpt lat="45.17669" lon="5.92044">
        <ele>1686.4239501953</ele>
        <time>2017-05-05T07:01:10Z</time>
      </trkpt>
      <trkpt lat="45.17669" lon="5.92051">
        <ele>1688.4239501953</ele>
        <time>2017-05-05T07:01:13Z</time>
      </trkpt>
      <trkpt lat="45.17665" lon="5.92057">
        <ele>1688.4239501953</ele>
        <time>2017-05-05T07:01:16Z</time>
      </trkpt>
      <trkpt lat="45.1766" lon="5.92059">
        <ele>1688.4239501953</ele>
        <time>2017-05-05T07:01:20Z</time>
      </trkpt>
      <trkpt lat="45.17656" lon="5.92063">
        <ele>1688.4239501953</ele>
        <time>2017-05-05T07:01:24Z</time>
      </trkpt>
      <trkpt lat="45.17652" lon="5.92067">
        <ele>1688.4239501953</ele>
        <time>2017-05-05T07:01:27Z</time>
      </trkpt>
      <trkpt lat="45.17648" lon="5.92069">
        <ele>1688.4239501953</ele>
        <time>2017-05-05T07:01:30Z</time>
      </trkpt>
      <trkpt lat="45.17643" lon="5.9207">
        <ele>1688.4239501953</ele>
        <time>2017-05-05T07:01:33Z</time>
      </trkpt>
      <trkpt lat="45.17638" lon="5.92072">
        <ele>1688.4239501953</ele>
        <time>2017-05-05T07:01:40Z</time>
      </trkpt>
      <trkpt lat="45.17633" lon="5.92074">
        <ele>1688.4239501953</ele>
        <time>2017-05-05T07:05:14Z</time>
      </trkpt>
      <trkpt lat="45.17631" lon="5.92079">
        <ele>1690.4239501953</ele>
        <time>2017-05-05T07:05:17Z</time>
      </trkpt>
      <trkpt lat="45.17627" lon="5.92084">
        <ele>1690.4239501953</ele>
        <time>2017-05-05T07:05:20Z</time>
      </trkpt>
      <trkpt lat="45.17623" lon="5.9209">
        <ele>1690.4239501953</ele>
        <time>2017-05-05T07:05:24Z</time>
      </trkpt>
      <trkpt lat="45.17618" lon="5.92095">
        <ele>1689.4239501953</ele>
        <time>2017-05-05T07:05:29Z</time>
      </trkpt>
      <trkpt lat="45.17616" lon="5.92101">
        <ele>1691.4239501953</ele>
        <time>2017-05-05T07:05:33Z</time>
      </trkpt>
      <trkpt lat="45.17614" lon="5.92109">
        <ele>1693.4239501953</ele>
        <time>2017-05-05T07:05:38Z</time>
      </trkpt>
      <trkpt lat="45.17611" lon="5.92115">
        <ele>1694.4239501953</ele>
        <time>2017-05-05T07:05:43Z</time>
      </trkpt>
      <trkpt lat="45.17609" lon="5.9212">
        <ele>1692.4239501953</ele>
        <time>2017-05-05T07:05:50Z</time>
      </trkpt>
      <trkpt lat="45.17604" lon="5.92126">
        <ele>1692.4239501953</ele>
        <time>2017-05-05T07:05:55Z</time>
      </trkpt>
      <trkpt lat="45.176" lon="5.9213">
        <ele>1691.4239501953</ele>
        <time>2017-05-05T07:05:58Z</time>
      </trkpt>
      <trkpt lat="45.17596" lon="5.92137">
        <ele>1694.4239501953</ele>
        <time>2017-05-05T07:06:04Z</time>
      </trkpt>
      <trkpt lat="45.17593" lon="5.92143">
        <ele>1693.4239501953</ele>
        <time>2017-05-05T07:06:08Z</time>
      </trkpt>
      <trkpt lat="45.17589" lon="5.92148">
        <ele>1692.4239501953</ele>
        <time>2017-05-05T07:06:12Z</time>
      </trkpt>
      <trkpt lat="45.17586" lon="5.92155">
        <ele>1692.4239501953</ele>
        <time>2017-05-05T07:06:18Z</time>
      </trkpt>
      <trkpt lat="45.17582" lon="5.9216">
        <ele>1692.4239501953</ele>
        <time>2017-05-05T07:06:22Z</time>
      </trkpt>
      <trkpt lat="45.17579" lon="5.92165">
        <ele>1692.4239501953</ele>
        <time>2017-05-05T07:06:28Z</time>
      </trkpt>
      <trkpt lat="45.17577" lon="5.92171">
        <ele>1694.4239501953</ele>
        <time>2017-05-05T07:06:31Z</time>
      </trkpt>
      <trkpt lat="45.17574" lon="5.92177">
        <ele>1696.4239501953</ele>
        <time>2017-05-05T07:06:34Z</time>
      </trkpt>
      <trkpt lat="45.1757" lon="5.92182">
        <ele>1697.4239501953</ele>
        <time>2017-05-05T07:06:38Z</time>
      </trkpt>
      <trkpt lat="45.17567" lon="5.92187">
        <ele>1698.4239501953</ele>
        <time>2017-05-05T07:06:43Z</time>
      </trkpt>
      <trkpt lat="45.17564" lon="5.92192">
        <ele>1700.4239501953</ele>
        <time>2017-05-05T07:06:45Z</time>
      </trkpt>
      <trkpt lat="45.17563" lon="5.92198">
        <ele>1700.4239501953</ele>
        <time>2017-05-05T07:06:48Z</time>
      </trkpt>
      <trkpt lat="45.17558" lon="5.92203">
        <ele>1701.4239501953</ele>
        <time>2017-05-05T07:06:54Z</time>
      </trkpt>
      <trkpt lat="45.17553" lon="5.92207">
        <ele>1701.4239501953</ele>
        <time>2017-05-05T07:06:58Z</time>
      </trkpt>
      <trkpt lat="45.17551" lon="5.92214">
        <ele>1700.4239501953</ele>
        <time>2017-05-05T07:07:02Z</time>
      </trkpt>
      <trkpt lat="45.17548" lon="5.92221">
        <ele>1699.4239501953</ele>
        <time>2017-05-05T07:07:05Z</time>
      </trkpt>
      <trkpt lat="45.17544" lon="5.92227">
        <ele>1699.4239501953</ele>
        <time>2017-05-05T07:07:09Z</time>
      </trkpt>
      <trkpt lat="45.17543" lon="5.92234">
        <ele>1699.4239501953</ele>
        <time>2017-05-05T07:07:15Z</time>
      </trkpt>
      <trkpt lat="45.17542" lon="5.92241">
        <ele>1698.4239501953</ele>
        <time>2017-05-05T07:07:19Z</time>
      </trkpt>
      <trkpt lat="45.17541" lon="5.92248">
        <ele>1700.4239501953</ele>
        <time>2017-05-05T07:07:24Z</time>
      </trkpt>
      <trkpt lat="45.17539" lon="5.92254">
        <ele>1699.4239501953</ele>
        <time>2017-05-05T07:07:29Z</time>
      </trkpt>
      <trkpt lat="45.17538" lon="5.92262">
        <ele>1700.4239501953</ele>
        <time>2017-05-05T07:07:32Z</time>
      </trkpt>
      <trkpt lat="45.17535" lon="5.92268">
        <ele>1700.4239501953</ele>
        <time>2017-05-05T07:07:36Z</time>
      </trkpt>
      <trkpt lat="45.17531" lon="5.92273">
        <ele>1699.4239501953</ele>
        <time>2017-05-05T07:07:47Z</time>
      </trkpt>
      <trkpt lat="45.17529" lon="5.9228">
        <ele>1698.4239501953</ele>
        <time>2017-05-05T07:07:52Z</time>
      </trkpt>
      <trkpt lat="45.17526" lon="5.92285">
        <ele>1699.4239501953</ele>
        <time>2017-05-05T07:07:55Z</time>
      </trkpt>
      <trkpt lat="45.17524" lon="5.92292">
        <ele>1703.4239501953</ele>
        <time>2017-05-05T07:08:00Z</time>
      </trkpt>
      <trkpt lat="45.17524" lon="5.92299">
        <ele>1702.4239501953</ele>
        <time>2017-05-05T07:08:07Z</time>
      </trkpt>
      <trkpt lat="45.17526" lon="5.92308">
        <ele>1699.4239501953</ele>
        <time>2017-05-05T07:08:24Z</time>
      </trkpt>
      <trkpt lat="45.17529" lon="5.92313">
        <ele>1699.4239501953</ele>
        <time>2017-05-05T07:08:27Z</time>
      </trkpt>
      <trkpt lat="45.17534" lon="5.92317">
        <ele>1699.4239501953</ele>
        <time>2017-05-05T07:08:30Z</time>
      </trkpt>
      <trkpt lat="45.17538" lon="5.92321">
        <ele>1697.4239501953</ele>
        <time>2017-05-05T07:08:33Z</time>
      </trkpt>
      <trkpt lat="45.17537" lon="5.92328">
        <ele>1697.4239501953</ele>
        <time>2017-05-05T07:08:37Z</time>
      </trkpt>
      <trkpt lat="45.17537" lon="5.92334">
        <ele>1695.4239501953</ele>
        <time>2017-05-05T07:08:41Z</time>
      </trkpt>
      <trkpt lat="45.17539" lon="5.92342">
        <ele>1695.4239501953</ele>
        <time>2017-05-05T07:08:45Z</time>
      </trkpt>
      <trkpt lat="45.17539" lon="5.9235">
        <ele>1693.4239501953</ele>
        <time>2017-05-05T07:08:50Z</time>
      </trkpt>
      <trkpt lat="45.1754" lon="5.92357">
        <ele>1693.4239501953</ele>
        <time>2017-05-05T07:08:54Z</time>
      </trkpt>
      <trkpt lat="45.17539" lon="5.92364">
        <ele>1696.4239501953</ele>
        <time>2017-05-05T07:08:58Z</time>
      </trkpt>
      <trkpt lat="45.17536" lon="5.9237">
        <ele>1698.4239501953</ele>
        <time>2017-05-05T07:09:04Z</time>
      </trkpt>
      <trkpt lat="45.17531" lon="5.92372">
        <ele>1698.4239501953</ele>
        <time>2017-05-05T07:09:08Z</time>
      </trkpt>
      <trkpt lat="45.17526" lon="5.92373">
        <ele>1697.4239501953</ele>
        <time>2017-05-05T07:09:12Z</time>
      </trkpt>
      <trkpt lat="45.17521" lon="5.92376">
        <ele>1698.4239501953</ele>
        <time>2017-05-05T07:09:17Z</time>
      </trkpt>
      <trkpt lat="45.17516" lon="5.9238">
        <ele>1697.4239501953</ele>
        <time>2017-05-05T07:09:21Z</time>
      </trkpt>
      <trkpt lat="45.17512" lon="5.92383">
        <ele>1699.4239501953</ele>
        <time>2017-05-05T07:09:27Z</time>
      </trkpt>
      <trkpt lat="45.17507" lon="5.92385">
        <ele>1701.4239501953</ele>
        <time>2017-05-05T07:09:34Z</time>
      </trkpt>
      <trkpt lat="45.17502" lon="5.92388">
        <ele>1700.4239501953</ele>
        <time>2017-05-05T07:09:39Z</time>
      </trkpt>
      <trkpt lat="45.17498" lon="5.92392">
        <ele>1700.4239501953</ele>
        <time>2017-05-05T07:09:42Z</time>
      </trkpt>
      <trkpt lat="45.17492" lon="5.92395">
        <ele>1701.4239501953</ele>
        <time>2017-05-05T07:09:46Z</time>
      </trkpt>
      <trkpt lat="45.17488" lon="5.92399">
        <ele>1702.4239501953</ele>
        <time>2017-05-05T07:09:50Z</time>
      </trkpt>
      <trkpt lat="45.17487" lon="5.92406">
        <ele>1702.4239501953</ele>
        <time>2017-05-05T07:09:54Z</time>
      </trkpt>
      <trkpt lat="45.17484" lon="5.92411">
        <ele>1703.4239501953</ele>
        <time>2017-05-05T07:09:59Z</time>
      </trkpt>
      <trkpt lat="45.1748" lon="5.92415">
        <ele>1702.4239501953</ele>
        <time>2017-05-05T07:10:03Z</time>
      </trkpt>
      <trkpt lat="45.17477" lon="5.92423">
        <ele>1700.4239501953</ele>
        <time>2017-05-05T07:10:10Z</time>
      </trkpt>
      <trkpt lat="45.17475" lon="5.92429">
        <ele>1703.4239501953</ele>
        <time>2017-05-05T07:10:15Z</time>
      </trkpt>
      <trkpt lat="45.17474" lon="5.92437">
        <ele>1705.4239501953</ele>
        <time>2017-05-05T07:10:20Z</time>
      </trkpt>
      <trkpt lat="45.17471" lon="5.92444">
        <ele>1708.4239501953</ele>
        <time>2017-05-05T07:10:26Z</time>
      </trkpt>
      <trkpt lat="45.17466" lon="5.92447">
        <ele>1707.4239501953</ele>
        <time>2017-05-05T07:10:30Z</time>
      </trkpt>
      <trkpt lat="45.17463" lon="5.92452">
        <ele>1707.4239501953</ele>
        <time>2017-05-05T07:10:35Z</time>
      </trkpt>
      <trkpt lat="45.17463" lon="5.92459">
        <ele>1710.4239501953</ele>
        <time>2017-05-05T07:10:39Z</time>
      </trkpt>
      <trkpt lat="45.17459" lon="5.92462">
        <ele>1709.4239501953</ele>
        <time>2017-05-05T07:10:45Z</time>
      </trkpt>
      <trkpt lat="45.17455" lon="5.9246">
        <ele>1710.4239501953</ele>
        <time>2017-05-05T07:10:49Z</time>
      </trkpt>
      <trkpt lat="45.1745" lon="5.92457">
        <ele>1712.4239501953</ele>
        <time>2017-05-05T07:10:57Z</time>
      </trkpt>
      <trkpt lat="45.17445" lon="5.92456">
        <ele>1711.4239501953</ele>
        <time>2017-05-05T07:11:02Z</time>
      </trkpt>
      <trkpt lat="45.17439" lon="5.92456">
        <ele>1710.4239501953</ele>
        <time>2017-05-05T07:11:06Z</time>
      </trkpt>
      <trkpt lat="45.17434" lon="5.92456">
        <ele>1710.4239501953</ele>
        <time>2017-05-05T07:11:13Z</time>
      </trkpt>
      <trkpt lat="45.17429" lon="5.9246">
        <ele>1715.4239501953</ele>
        <time>2017-05-05T07:11:19Z</time>
      </trkpt>
      <trkpt lat="45.17423" lon="5.92458">
        <ele>1715.4239501953</ele>
        <time>2017-05-05T07:11:28Z</time>
      </trkpt>
      <trkpt lat="45.17419" lon="5.92456">
        <ele>1711.4239501953</ele>
        <time>2017-05-05T07:11:30Z</time>
      </trkpt>
      <trkpt lat="45.17413" lon="5.92455">
        <ele>1720.4239501953</ele>
        <time>2017-05-05T07:11:43Z</time>
      </trkpt>
      <trkpt lat="45.17409" lon="5.92452">
        <ele>1720.4239501953</ele>
        <time>2017-05-05T07:11:48Z</time>
      </trkpt>
      <trkpt lat="45.17404" lon="5.92457">
        <ele>1720.4239501953</ele>
        <time>2017-05-05T07:11:56Z</time>
      </trkpt>
      <trkpt lat="45.17401" lon="5.92462">
        <ele>1720.4239501953</ele>
        <time>2017-05-05T07:12:01Z</time>
      </trkpt>
      <trkpt lat="45.174" lon="5.9247">
        <ele>1722.4239501953</ele>
        <time>2017-05-05T07:12:11Z</time>
      </trkpt>
      <trkpt lat="45.17397" lon="5.92475">
        <ele>1721.4239501953</ele>
        <time>2017-05-05T07:12:17Z</time>
      </trkpt>
      <trkpt lat="45.17396" lon="5.92482">
        <ele>1723.4239501953</ele>
        <time>2017-05-05T07:12:24Z</time>
      </trkpt>
      <trkpt lat="45.17393" lon="5.92488">
        <ele>1720.4239501953</ele>
        <time>2017-05-05T07:12:32Z</time>
      </trkpt>
      <trkpt lat="45.1739" lon="5.92494">
        <ele>1724.4239501953</ele>
        <time>2017-05-05T07:12:37Z</time>
      </trkpt>
      <trkpt lat="45.17387" lon="5.92501">
        <ele>1725.4239501953</ele>
        <time>2017-05-05T07:12:44Z</time>
      </trkpt>
      <trkpt lat="45.17382" lon="5.92504">
        <ele>1728.4239501953</ele>
        <time>2017-05-05T07:12:48Z</time>
      </trkpt>
      <trkpt lat="45.17378" lon="5.92505">
        <ele>1730.4239501953</ele>
        <time>2017-05-05T07:12:54Z</time>
      </trkpt>
      <trkpt lat="45.17373" lon="5.92506">
        <ele>1732.4239501953</ele>
        <time>2017-05-05T07:12:58Z</time>
      </trkpt>
      <trkpt lat="45.1737" lon="5.92512">
        <ele>1733.4239501953</ele>
        <time>2017-05-05T07:13:04Z</time>
      </trkpt>
      <trkpt lat="45.17374" lon="5.92516">
        <ele>1738.4239501953</ele>
        <time>2017-05-05T07:13:09Z</time>
      </trkpt>
      <trkpt lat="45.1737" lon="5.92519">
        <ele>1737.4239501953</ele>
        <time>2017-05-05T07:13:14Z</time>
      </trkpt>
      <trkpt lat="45.17366" lon="5.92523">
        <ele>1735.4239501953</ele>
        <time>2017-05-05T07:13:21Z</time>
      </trkpt>
      <trkpt lat="45.17362" lon="5.9253">
        <ele>1736.4239501953</ele>
        <time>2017-05-05T07:13:29Z</time>
      </trkpt>
      <trkpt lat="45.17358" lon="5.92535">
        <ele>1739.4239501953</ele>
        <time>2017-05-05T07:13:34Z</time>
      </trkpt>
      <trkpt lat="45.17352" lon="5.92538">
        <ele>1740.4239501953</ele>
        <time>2017-05-05T07:13:42Z</time>
      </trkpt>
      <trkpt lat="45.17347" lon="5.9254">
        <ele>1740.4239501953</ele>
        <time>2017-05-05T07:13:46Z</time>
      </trkpt>
      <trkpt lat="45.17342" lon="5.9254">
        <ele>1739.4239501953</ele>
        <time>2017-05-05T07:13:50Z</time>
      </trkpt>
      <trkpt lat="45.17341" lon="5.92547">
        <ele>1744.4239501953</ele>
        <time>2017-05-05T07:13:57Z</time>
      </trkpt>
      <trkpt lat="45.17337" lon="5.92553">
        <ele>1744.4239501953</ele>
        <time>2017-05-05T07:14:06Z</time>
      </trkpt>
      <trkpt lat="45.17334" lon="5.92559">
        <ele>1743.4239501953</ele>
        <time>2017-05-05T07:14:12Z</time>
      </trkpt>
      <trkpt lat="45.17331" lon="5.92566">
        <ele>1745.4239501953</ele>
        <time>2017-05-05T07:14:16Z</time>
      </trkpt>
      <trkpt lat="45.17327" lon="5.92569">
        <ele>1748.4239501953</ele>
        <time>2017-05-05T07:14:22Z</time>
      </trkpt>
      <trkpt lat="45.17322" lon="5.9257">
        <ele>1748.4239501953</ele>
        <time>2017-05-05T07:14:28Z</time>
      </trkpt>
      <trkpt lat="45.17317" lon="5.92573">
        <ele>1748.4239501953</ele>
        <time>2017-05-05T07:14:36Z</time>
      </trkpt>
      <trkpt lat="45.17314" lon="5.92577">
        <ele>1744.4239501953</ele>
        <time>2017-05-05T07:14:40Z</time>
      </trkpt>
      <trkpt lat="45.17311" lon="5.92583">
        <ele>1749.4239501953</ele>
        <time>2017-05-05T07:14:46Z</time>
      </trkpt>
      <trkpt lat="45.17307" lon="5.92589">
        <ele>1748.4239501953</ele>
        <time>2017-05-05T07:14:52Z</time>
      </trkpt>
      <trkpt lat="45.17304" lon="5.92595">
        <ele>1749.4239501953</ele>
        <time>2017-05-05T07:15:00Z</time>
      </trkpt>
      <trkpt lat="45.173" lon="5.92602">
        <ele>1752.4239501953</ele>
        <time>2017-05-05T07:15:06Z</time>
      </trkpt>
      <trkpt lat="45.17296" lon="5.92607">
        <ele>1753.4239501953</ele>
        <time>2017-05-05T07:15:18Z</time>
      </trkpt>
      <trkpt lat="45.17293" lon="5.92612">
        <ele>1754.4239501953</ele>
        <time>2017-05-05T07:15:26Z</time>
      </trkpt>
      <trkpt lat="45.1729" lon="5.9262">
        <ele>1752.4239501953</ele>
        <time>2017-05-05T07:15:33Z</time>
      </trkpt>
      <trkpt lat="45.1729" lon="5.92626">
        <ele>1753.4239501953</ele>
        <time>2017-05-05T07:15:38Z</time>
      </trkpt>
      <trkpt lat="45.17288" lon="5.92633">
        <ele>1751.4239501953</ele>
        <time>2017-05-05T07:15:41Z</time>
      </trkpt>
      <trkpt lat="45.17286" lon="5.92639">
        <ele>1754.4239501953</ele>
        <time>2017-05-05T07:15:48Z</time>
      </trkpt>
      <trkpt lat="45.17283" lon="5.92645">
        <ele>1759.4239501953</ele>
        <time>2017-05-05T07:15:54Z</time>
      </trkpt>
      <trkpt lat="45.1728" lon="5.92651">
        <ele>1759.4239501953</ele>
        <time>2017-05-05T07:15:59Z</time>
      </trkpt>
      <trkpt lat="45.17278" lon="5.92657">
        <ele>1761.4239501953</ele>
        <time>2017-05-05T07:16:06Z</time>
      </trkpt>
      <trkpt lat="45.17274" lon="5.92663">
        <ele>1762.4239501953</ele>
        <time>2017-05-05T07:16:10Z</time>
      </trkpt>
      <trkpt lat="45.17272" lon="5.9267">
        <ele>1762.4239501953</ele>
        <time>2017-05-05T07:16:18Z</time>
      </trkpt>
      <trkpt lat="45.17274" lon="5.92677">
        <ele>1763.4239501953</ele>
        <time>2017-05-05T07:16:24Z</time>
      </trkpt>
      <trkpt lat="45.17278" lon="5.9268">
        <ele>1764.4239501953</ele>
        <time>2017-05-05T07:16:32Z</time>
      </trkpt>
      <trkpt lat="45.1728" lon="5.92686">
        <ele>1767.4239501953</ele>
        <time>2017-05-05T07:16:43Z</time>
      </trkpt>
      <trkpt lat="45.17283" lon="5.92691">
        <ele>1769.4239501953</ele>
        <time>2017-05-05T07:16:57Z</time>
      </trkpt>
      <trkpt lat="45.17288" lon="5.92694">
        <ele>1773.4239501953</ele>
        <time>2017-05-05T07:17:07Z</time>
      </trkpt>
      <trkpt lat="45.17294" lon="5.92696">
        <ele>1774.4239501953</ele>
        <time>2017-05-05T07:17:19Z</time>
      </trkpt>
      <trkpt lat="45.17298" lon="5.92698">
        <ele>1775.4239501953</ele>
        <time>2017-05-05T07:17:22Z</time>
      </trkpt>
      <trkpt lat="45.17304" lon="5.92698">
        <ele>1779.4239501953</ele>
        <time>2017-05-05T07:17:25Z</time>
      </trkpt>
      <trkpt lat="45.17308" lon="5.92705">
        <ele>1781.4239501953</ele>
        <time>2017-05-05T07:17:39Z</time>
      </trkpt>
      <trkpt lat="45.17311" lon="5.92711">
        <ele>1781.4239501953</ele>
        <time>2017-05-05T07:17:49Z</time>
      </trkpt>
      <trkpt lat="45.17315" lon="5.92714">
        <ele>1784.4239501953</ele>
        <time>2017-05-05T07:17:53Z</time>
      </trkpt>
      <trkpt lat="45.17317" lon="5.92721">
        <ele>1785.4239501953</ele>
        <time>2017-05-05T07:17:59Z</time>
      </trkpt>
      <trkpt lat="45.17318" lon="5.92728">
        <ele>1784.4239501953</ele>
        <time>2017-05-05T07:18:06Z</time>
      </trkpt>
      <trkpt lat="45.17317" lon="5.92735">
        <ele>1785.4239501953</ele>
        <time>2017-05-05T07:18:11Z</time>
      </trkpt>
      <trkpt lat="45.1732" lon="5.9274">
        <ele>1786.4239501953</ele>
        <time>2017-05-05T07:18:15Z</time>
      </trkpt>
      <trkpt lat="45.17319" lon="5.92747">
        <ele>1789.4239501953</ele>
        <time>2017-05-05T07:18:21Z</time>
      </trkpt>
      <trkpt lat="45.17317" lon="5.92754">
        <ele>1790.4239501953</ele>
        <time>2017-05-05T07:18:26Z</time>
      </trkpt>
      <trkpt lat="45.17318" lon="5.92761">
        <ele>1789.4239501953</ele>
        <time>2017-05-05T07:18:33Z</time>
      </trkpt>
      <trkpt lat="45.17319" lon="5.92768">
        <ele>1788.4239501953</ele>
        <time>2017-05-05T07:18:37Z</time>
      </trkpt>
      <trkpt lat="45.17319" lon="5.92774">
        <ele>1789.4239501953</ele>
        <time>2017-05-05T07:18:42Z</time>
      </trkpt>
      <trkpt lat="45.17318" lon="5.92781">
        <ele>1791.4239501953</ele>
        <time>2017-05-05T07:18:48Z</time>
      </trkpt>
      <trkpt lat="45.1732" lon="5.92787">
        <ele>1795.4239501953</ele>
        <time>2017-05-05T07:18:54Z</time>
      </trkpt>
      <trkpt lat="45.17321" lon="5.92794">
        <ele>1794.4239501953</ele>
        <time>2017-05-05T07:18:59Z</time>
      </trkpt>
      <trkpt lat="45.17317" lon="5.9279">
        <ele>1799.4239501953</ele>
        <time>2017-05-05T07:19:13Z</time>
      </trkpt>
      <trkpt lat="45.17312" lon="5.92793">
        <ele>1798.4239501953</ele>
        <time>2017-05-05T07:19:19Z</time>
      </trkpt>
      <trkpt lat="45.17311" lon="5.92799">
        <ele>1799.4239501953</ele>
        <time>2017-05-05T07:19:28Z</time>
      </trkpt>
      <trkpt lat="45.17313" lon="5.92805">
        <ele>1801.4239501953</ele>
        <time>2017-05-05T07:19:33Z</time>
      </trkpt>
      <trkpt lat="45.17309" lon="5.92806">
        <ele>1800.4239501953</ele>
        <time>2017-05-05T07:19:37Z</time>
      </trkpt>
      <trkpt lat="45.17304" lon="5.92804">
        <ele>1803.4239501953</ele>
        <time>2017-05-05T07:19:45Z</time>
      </trkpt>
      <trkpt lat="45.173" lon="5.92802">
        <ele>1804.4239501953</ele>
        <time>2017-05-05T07:19:50Z</time>
      </trkpt>
      <trkpt lat="45.17296" lon="5.92798">
        <ele>1804.4239501953</ele>
        <time>2017-05-05T07:19:56Z</time>
      </trkpt>
      <trkpt lat="45.17291" lon="5.92793">
        <ele>1804.4239501953</ele>
        <time>2017-05-05T07:20:04Z</time>
      </trkpt>
      <trkpt lat="45.17288" lon="5.92799">
        <ele>1802.4239501953</ele>
        <time>2017-05-05T07:20:11Z</time>
      </trkpt>
      <trkpt lat="45.17288" lon="5.92805">
        <ele>1803.4239501953</ele>
        <time>2017-05-05T07:20:15Z</time>
      </trkpt>
      <trkpt lat="45.17289" lon="5.92812">
        <ele>1802.4239501953</ele>
        <time>2017-05-05T07:20:23Z</time>
      </trkpt>
      <trkpt lat="45.17291" lon="5.92819">
        <ele>1804.4239501953</ele>
        <time>2017-05-05T07:20:29Z</time>
      </trkpt>
      <trkpt lat="45.17293" lon="5.92826">
        <ele>1807.4239501953</ele>
        <time>2017-05-05T07:20:36Z</time>
      </trkpt>
      <trkpt lat="45.17288" lon="5.92824">
        <ele>1814.4239501953</ele>
        <time>2017-05-05T07:20:47Z</time>
      </trkpt>
      <trkpt lat="45.17283" lon="5.9282">
        <ele>1817.4239501953</ele>
        <time>2017-05-05T07:20:57Z</time>
      </trkpt>
      <trkpt lat="45.17284" lon="5.92828">
        <ele>1820.4239501953</ele>
        <time>2017-05-05T07:21:16Z</time>
      </trkpt>
      <trkpt lat="45.17279" lon="5.92827">
        <ele>1825.4239501953</ele>
        <time>2017-05-05T07:21:22Z</time>
      </trkpt>
      <trkpt lat="45.17274" lon="5.92828">
        <ele>1825.4239501953</ele>
        <time>2017-05-05T07:21:28Z</time>
      </trkpt>
      <trkpt lat="45.17271" lon="5.92833">
        <ele>1827.4239501953</ele>
        <time>2017-05-05T07:21:40Z</time>
      </trkpt>
      <trkpt lat="45.1727" lon="5.92841">
        <ele>1828.4239501953</ele>
        <time>2017-05-05T07:21:49Z</time>
      </trkpt>
      <trkpt lat="45.1727" lon="5.92847">
        <ele>1830.4239501953</ele>
        <time>2017-05-05T07:21:53Z</time>
      </trkpt>
      <trkpt lat="45.17271" lon="5.92855">
        <ele>1830.4239501953</ele>
        <time>2017-05-05T07:22:02Z</time>
      </trkpt>
      <trkpt lat="45.17273" lon="5.92863">
        <ele>1830.4239501953</ele>
        <time>2017-05-05T07:22:08Z</time>
      </trkpt>
      <trkpt lat="45.17276" lon="5.9287">
        <ele>1828.4239501953</ele>
        <time>2017-05-05T07:22:14Z</time>
      </trkpt>
      <trkpt lat="45.17278" lon="5.92876">
        <ele>1832.4239501953</ele>
        <time>2017-05-05T07:24:15Z</time>
      </trkpt>
      <trkpt lat="45.17279" lon="5.92882">
        <ele>1833.4239501953</ele>
        <time>2017-05-05T07:24:19Z</time>
      </trkpt>
      <trkpt lat="45.1728" lon="5.92888">
        <ele>1834.4250488281</ele>
        <time>2017-05-05T07:24:24Z</time>
      </trkpt>
      <trkpt lat="45.17284" lon="5.92895">
        <ele>1836.4250488281</ele>
        <time>2017-05-05T07:24:28Z</time>
      </trkpt>
      <trkpt lat="45.17287" lon="5.929">
        <ele>1836.4250488281</ele>
        <time>2017-05-05T07:24:32Z</time>
      </trkpt>
      <trkpt lat="45.17293" lon="5.92904">
        <ele>1840.4250488281</ele>
        <time>2017-05-05T07:24:38Z</time>
      </trkpt>
      <trkpt lat="45.17296" lon="5.92911">
        <ele>1840.4250488281</ele>
        <time>2017-05-05T07:24:44Z</time>
      </trkpt>
      <trkpt lat="45.17296" lon="5.92917">
        <ele>1842.4250488281</ele>
        <time>2017-05-05T07:24:50Z</time>
      </trkpt>
      <trkpt lat="45.173" lon="5.92921">
        <ele>1843.4250488281</ele>
        <time>2017-05-05T07:24:55Z</time>
      </trkpt>
      <trkpt lat="45.17305" lon="5.92926">
        <ele>1842.4250488281</ele>
        <time>2017-05-05T07:24:59Z</time>
      </trkpt>
      <trkpt lat="45.17309" lon="5.9293">
        <ele>1843.4250488281</ele>
        <time>2017-05-05T07:25:03Z</time>
      </trkpt>
      <trkpt lat="45.1731" lon="5.92937">
        <ele>1846.4250488281</ele>
        <time>2017-05-05T07:25:09Z</time>
      </trkpt>
      <trkpt lat="45.17315" lon="5.92944">
        <ele>1847.4250488281</ele>
        <time>2017-05-05T07:25:13Z</time>
      </trkpt>
      <trkpt lat="45.17322" lon="5.92947">
        <ele>1853.4250488281</ele>
        <time>2017-05-05T07:25:17Z</time>
      </trkpt>
      <trkpt lat="45.17323" lon="5.92954">
        <ele>1854.4250488281</ele>
        <time>2017-05-05T07:25:23Z</time>
      </trkpt>
      <trkpt lat="45.17326" lon="5.92958">
        <ele>1855.4250488281</ele>
        <time>2017-05-05T07:25:27Z</time>
      </trkpt>
      <trkpt lat="45.1733" lon="5.92962">
        <ele>1855.4250488281</ele>
        <time>2017-05-05T07:25:29Z</time>
      </trkpt>
      <trkpt lat="45.17334" lon="5.92967">
        <ele>1859.4250488281</ele>
        <time>2017-05-05T07:25:33Z</time>
      </trkpt>
      <trkpt lat="45.17336" lon="5.92974">
        <ele>1860.4250488281</ele>
        <time>2017-05-05T07:25:39Z</time>
      </trkpt>
      <trkpt lat="45.17342" lon="5.92979">
        <ele>1865.4250488281</ele>
        <time>2017-05-05T07:25:43Z</time>
      </trkpt>
      <trkpt lat="45.17347" lon="5.92981">
        <ele>1868.4250488281</ele>
        <time>2017-05-05T07:25:45Z</time>
      </trkpt>
      <trkpt lat="45.17349" lon="5.92987">
        <ele>1866.4250488281</ele>
        <time>2017-05-05T07:25:50Z</time>
      </trkpt>
      <trkpt lat="45.17348" lon="5.92993">
        <ele>1864.4250488281</ele>
        <time>2017-05-05T07:25:57Z</time>
      </trkpt>
      <trkpt lat="45.17344" lon="5.92996">
        <ele>1862.4250488281</ele>
        <time>2017-05-05T07:26:05Z</time>
      </trkpt>
      <trkpt lat="45.17341" lon="5.93002">
        <ele>1859.4250488281</ele>
        <time>2017-05-05T07:26:08Z</time>
      </trkpt>
      <trkpt lat="45.17341" lon="5.93009">
        <ele>1860.4250488281</ele>
        <time>2017-05-05T07:26:15Z</time>
      </trkpt>
      <trkpt lat="45.17341" lon="5.93016">
        <ele>1867.4250488281</ele>
        <time>2017-05-05T07:26:26Z</time>
      </trkpt>
      <trkpt lat="45.17344" lon="5.93022">
        <ele>1870.4250488281</ele>
        <time>2017-05-05T07:26:39Z</time>
      </trkpt>
      <trkpt lat="45.1734" lon="5.93026">
        <ele>1871.4250488281</ele>
        <time>2017-05-05T07:26:48Z</time>
      </trkpt>
      <trkpt lat="45.17341" lon="5.93033">
        <ele>1874.4250488281</ele>
        <time>2017-05-05T07:26:59Z</time>
      </trkpt>
      <trkpt lat="45.17343" lon="5.9304">
        <ele>1874.4250488281</ele>
        <time>2017-05-05T07:27:06Z</time>
      </trkpt>
      <trkpt lat="45.17346" lon="5.93045">
        <ele>1875.4250488281</ele>
        <time>2017-05-05T07:27:12Z</time>
      </trkpt>
      <trkpt lat="45.17342" lon="5.93049">
        <ele>1870.4250488281</ele>
        <time>2017-05-05T07:27:29Z</time>
      </trkpt>
      <trkpt lat="45.17341" lon="5.93055">
        <ele>1868.4250488281</ele>
        <time>2017-05-05T07:27:34Z</time>
      </trkpt>
      <trkpt lat="45.17339" lon="5.93061">
        <ele>1868.4250488281</ele>
        <time>2017-05-05T07:27:40Z</time>
      </trkpt>
      <trkpt lat="45.17336" lon="5.93067">
        <ele>1866.4250488281</ele>
        <time>2017-05-05T07:27:43Z</time>
      </trkpt>
      <trkpt lat="45.17337" lon="5.93074">
        <ele>1874.4250488281</ele>
        <time>2017-05-05T07:28:00Z</time>
      </trkpt>
      <trkpt lat="45.1734" lon="5.9308">
        <ele>1876.4250488281</ele>
        <time>2017-05-05T07:28:06Z</time>
      </trkpt>
      <trkpt lat="45.17341" lon="5.93086">
        <ele>1873.4250488281</ele>
        <time>2017-05-05T07:28:12Z</time>
      </trkpt>
      <trkpt lat="45.17343" lon="5.93092">
        <ele>1875.4250488281</ele>
        <time>2017-05-05T07:28:16Z</time>
      </trkpt>
      <trkpt lat="45.17338" lon="5.9309">
        <ele>1882.4250488281</ele>
        <time>2017-05-05T07:28:32Z</time>
      </trkpt>
      <trkpt lat="45.17337" lon="5.93097">
        <ele>1879.4250488281</ele>
        <time>2017-05-05T07:28:54Z</time>
      </trkpt>
      <trkpt lat="45.17338" lon="5.93104">
        <ele>1880.4250488281</ele>
        <time>2017-05-05T07:29:01Z</time>
      </trkpt>
      <trkpt lat="45.17337" lon="5.93111">
        <ele>1880.4250488281</ele>
        <time>2017-05-05T07:29:07Z</time>
      </trkpt>
      <trkpt lat="45.17336" lon="5.93118">
        <ele>1875.4250488281</ele>
        <time>2017-05-05T07:29:13Z</time>
      </trkpt>
      <trkpt lat="45.17337" lon="5.93124">
        <ele>1879.4250488281</ele>
        <time>2017-05-05T07:29:18Z</time>
      </trkpt>
      <trkpt lat="45.1734" lon="5.9313">
        <ele>1884.4250488281</ele>
        <time>2017-05-05T07:29:22Z</time>
      </trkpt>
      <trkpt lat="45.17344" lon="5.93136">
        <ele>1886.4250488281</ele>
        <time>2017-05-05T07:29:26Z</time>
      </trkpt>
      <trkpt lat="45.17345" lon="5.93145">
        <ele>1886.4250488281</ele>
        <time>2017-05-05T07:29:29Z</time>
      </trkpt>
      <trkpt lat="45.17351" lon="5.93151">
        <ele>1887.4250488281</ele>
        <time>2017-05-05T07:29:32Z</time>
      </trkpt>
      <trkpt lat="45.17353" lon="5.93157">
        <ele>1886.4250488281</ele>
        <time>2017-05-05T07:29:36Z</time>
      </trkpt>
      <trkpt lat="45.17356" lon="5.93163">
        <ele>1889.4250488281</ele>
        <time>2017-05-05T07:29:40Z</time>
      </trkpt>
      <trkpt lat="45.17358" lon="5.93169">
        <ele>1889.4250488281</ele>
        <time>2017-05-05T07:29:43Z</time>
      </trkpt>
      <trkpt lat="45.17362" lon="5.93175">
        <ele>1892.4250488281</ele>
        <time>2017-05-05T07:29:46Z</time>
      </trkpt>
      <trkpt lat="45.17363" lon="5.93183">
        <ele>1895.4250488281</ele>
        <time>2017-05-05T07:29:50Z</time>
      </trkpt>
      <trkpt lat="45.17362" lon="5.93189">
        <ele>1895.4250488281</ele>
        <time>2017-05-05T07:29:53Z</time>
      </trkpt>
      <trkpt lat="45.1736" lon="5.93196">
        <ele>1895.4250488281</ele>
        <time>2017-05-05T07:29:57Z</time>
      </trkpt>
      <trkpt lat="45.17361" lon="5.93202">
        <ele>1897.4250488281</ele>
        <time>2017-05-05T07:30:03Z</time>
      </trkpt>
      <trkpt lat="45.1736" lon="5.93209">
        <ele>1897.4250488281</ele>
        <time>2017-05-05T07:30:08Z</time>
      </trkpt>
      <trkpt lat="45.17363" lon="5.93215">
        <ele>1903.4250488281</ele>
        <time>2017-05-05T07:30:12Z</time>
      </trkpt>
      <trkpt lat="45.17366" lon="5.93222">
        <ele>1905.4250488281</ele>
        <time>2017-05-05T07:30:17Z</time>
      </trkpt>
      <trkpt lat="45.17367" lon="5.93229">
        <ele>1908.4250488281</ele>
        <time>2017-05-05T07:30:23Z</time>
      </trkpt>
      <trkpt lat="45.17368" lon="5.93235">
        <ele>1904.4250488281</ele>
        <time>2017-05-05T07:30:28Z</time>
      </trkpt>
      <trkpt lat="45.17367" lon="5.93243">
        <ele>1904.4250488281</ele>
        <time>2017-05-05T07:30:32Z</time>
      </trkpt>
      <trkpt lat="45.17366" lon="5.93251">
        <ele>1904.4250488281</ele>
        <time>2017-05-05T07:30:37Z</time>
      </trkpt>
      <trkpt lat="45.17365" lon="5.93259">
        <ele>1903.4250488281</ele>
        <time>2017-05-05T07:30:39Z</time>
      </trkpt>
      <trkpt lat="45.17365" lon="5.93267">
        <ele>1902.4250488281</ele>
        <time>2017-05-05T07:30:42Z</time>
      </trkpt>
      <trkpt lat="45.17363" lon="5.93273">
        <ele>1902.4250488281</ele>
        <time>2017-05-05T07:30:46Z</time>
      </trkpt>
      <trkpt lat="45.17361" lon="5.93282">
        <ele>1901.4250488281</ele>
        <time>2017-05-05T07:30:51Z</time>
      </trkpt>
      <trkpt lat="45.1736" lon="5.93288">
        <ele>1902.4250488281</ele>
        <time>2017-05-05T07:30:57Z</time>
      </trkpt>
      <trkpt lat="45.17361" lon="5.93295">
        <ele>1903.4250488281</ele>
        <time>2017-05-05T07:31:01Z</time>
      </trkpt>
      <trkpt lat="45.1736" lon="5.93302">
        <ele>1903.4250488281</ele>
        <time>2017-05-05T07:31:05Z</time>
      </trkpt>
      <trkpt lat="45.17356" lon="5.93307">
        <ele>1905.4250488281</ele>
        <time>2017-05-05T07:31:09Z</time>
      </trkpt>
      <trkpt lat="45.17353" lon="5.93313">
        <ele>1904.4250488281</ele>
        <time>2017-05-05T07:31:12Z</time>
      </trkpt>
      <trkpt lat="45.17349" lon="5.93318">
        <ele>1903.4250488281</ele>
        <time>2017-05-05T07:31:15Z</time>
      </trkpt>
      <trkpt lat="45.17346" lon="5.93323">
        <ele>1902.4250488281</ele>
        <time>2017-05-05T07:31:18Z</time>
      </trkpt>
      <trkpt lat="45.17344" lon="5.93329">
        <ele>1904.4250488281</ele>
        <time>2017-05-05T07:31:23Z</time>
      </trkpt>
      <trkpt lat="45.17341" lon="5.93335">
        <ele>1908.4250488281</ele>
        <time>2017-05-05T07:31:32Z</time>
      </trkpt>
      <trkpt lat="45.17337" lon="5.93338">
        <ele>1907.4250488281</ele>
        <time>2017-05-05T07:31:35Z</time>
      </trkpt>
      <trkpt lat="45.17333" lon="5.93342">
        <ele>1909.4250488281</ele>
        <time>2017-05-05T07:31:39Z</time>
      </trkpt>
      <trkpt lat="45.17329" lon="5.93344">
        <ele>1910.4250488281</ele>
        <time>2017-05-05T07:31:45Z</time>
      </trkpt>
      <trkpt lat="45.17326" lon="5.9335">
        <ele>1912.4250488281</ele>
        <time>2017-05-05T07:31:52Z</time>
      </trkpt>
      <trkpt lat="45.17322" lon="5.93354">
        <ele>1910.4250488281</ele>
        <time>2017-05-05T07:31:57Z</time>
      </trkpt>
      <trkpt lat="45.17319" lon="5.93359">
        <ele>1915.4250488281</ele>
        <time>2017-05-05T07:32:03Z</time>
      </trkpt>
      <trkpt lat="45.17314" lon="5.93362">
        <ele>1918.4250488281</ele>
        <time>2017-05-05T07:32:08Z</time>
      </trkpt>
      <trkpt lat="45.17311" lon="5.93368">
        <ele>1916.4250488281</ele>
        <time>2017-05-05T07:32:12Z</time>
      </trkpt>
      <trkpt lat="45.17311" lon="5.93375">
        <ele>1916.4250488281</ele>
        <time>2017-05-05T07:32:18Z</time>
      </trkpt>
      <trkpt lat="45.17311" lon="5.93382">
        <ele>1918.4250488281</ele>
        <time>2017-05-05T07:32:25Z</time>
      </trkpt>
      <trkpt lat="45.1731" lon="5.93388">
        <ele>1918.4250488281</ele>
        <time>2017-05-05T07:32:28Z</time>
      </trkpt>
      <trkpt lat="45.17311" lon="5.93396">
        <ele>1919.4250488281</ele>
        <time>2017-05-05T07:32:33Z</time>
      </trkpt>
      <trkpt lat="45.17311" lon="5.93403">
        <ele>1919.4250488281</ele>
        <time>2017-05-05T07:32:36Z</time>
      </trkpt>
      <trkpt lat="45.17313" lon="5.93412">
        <ele>1920.4250488281</ele>
        <time>2017-05-05T07:32:40Z</time>
      </trkpt>
      <trkpt lat="45.17315" lon="5.93418">
        <ele>1917.4250488281</ele>
        <time>2017-05-05T07:32:46Z</time>
      </trkpt>
      <trkpt lat="45.17318" lon="5.93422">
        <ele>1916.4250488281</ele>
        <time>2017-05-05T07:32:51Z</time>
      </trkpt>
      <trkpt lat="45.17322" lon="5.93426">
        <ele>1919.4250488281</ele>
        <time>2017-05-05T07:32:56Z</time>
      </trkpt>
      <trkpt lat="45.17325" lon="5.93432">
        <ele>1920.4250488281</ele>
        <time>2017-05-05T07:33:01Z</time>
      </trkpt>
      <trkpt lat="45.17327" lon="5.93437">
        <ele>1917.4250488281</ele>
        <time>2017-05-05T07:33:07Z</time>
      </trkpt>
      <trkpt lat="45.1733" lon="5.93443">
        <ele>1919.4250488281</ele>
        <time>2017-05-05T07:33:13Z</time>
      </trkpt>
      <trkpt lat="45.17333" lon="5.93447">
        <ele>1921.4250488281</ele>
        <time>2017-05-05T07:33:17Z</time>
      </trkpt>
      <trkpt lat="45.17335" lon="5.93455">
        <ele>1921.4250488281</ele>
        <time>2017-05-05T07:33:25Z</time>
      </trkpt>
      <trkpt lat="45.17336" lon="5.93462">
        <ele>1921.4250488281</ele>
        <time>2017-05-05T07:33:29Z</time>
      </trkpt>
      <trkpt lat="45.1734" lon="5.93467">
        <ele>1926.4250488281</ele>
        <time>2017-05-05T07:33:33Z</time>
      </trkpt>
      <trkpt lat="45.17343" lon="5.93471">
        <ele>1926.4250488281</ele>
        <time>2017-05-05T07:33:36Z</time>
      </trkpt>
      <trkpt lat="45.17346" lon="5.93477">
        <ele>1926.4250488281</ele>
        <time>2017-05-05T07:33:40Z</time>
      </trkpt>
      <trkpt lat="45.17347" lon="5.93484">
        <ele>1925.4250488281</ele>
        <time>2017-05-05T07:33:43Z</time>
      </trkpt>
      <trkpt lat="45.17348" lon="5.93492">
        <ele>1925.4260253906</ele>
        <time>2017-05-05T07:33:47Z</time>
      </trkpt>
      <trkpt lat="45.17352" lon="5.93497">
        <ele>1929.4260253906</ele>
        <time>2017-05-05T07:33:53Z</time>
      </trkpt>
      <trkpt lat="45.17354" lon="5.93503">
        <ele>1929.4260253906</ele>
        <time>2017-05-05T07:33:57Z</time>
      </trkpt>
      <trkpt lat="45.17358" lon="5.93507">
        <ele>1932.4260253906</ele>
        <time>2017-05-05T07:34:01Z</time>
      </trkpt>
      <trkpt lat="45.1736" lon="5.93513">
        <ele>1931.4260253906</ele>
        <time>2017-05-05T07:34:05Z</time>
      </trkpt>
      <trkpt lat="45.17363" lon="5.93519">
        <ele>1931.4260253906</ele>
        <time>2017-05-05T07:34:12Z</time>
      </trkpt>
      <trkpt lat="45.17367" lon="5.93523">
        <ele>1938.4260253906</ele>
        <time>2017-05-05T07:34:19Z</time>
      </trkpt>
      <trkpt lat="45.1737" lon="5.9353">
        <ele>1935.4260253906</ele>
        <time>2017-05-05T07:34:23Z</time>
      </trkpt>
      <trkpt lat="45.17372" lon="5.93537">
        <ele>1935.4260253906</ele>
        <time>2017-05-05T07:34:29Z</time>
      </trkpt>
      <trkpt lat="45.17369" lon="5.93543">
        <ele>1934.4260253906</ele>
        <time>2017-05-05T07:34:33Z</time>
      </trkpt>
      <trkpt lat="45.17369" lon="5.93549">
        <ele>1931.4260253906</ele>
        <time>2017-05-05T07:34:37Z</time>
      </trkpt>
      <trkpt lat="45.17366" lon="5.93554">
        <ele>1928.4260253906</ele>
        <time>2017-05-05T07:34:42Z</time>
      </trkpt>
      <trkpt lat="45.17369" lon="5.9356">
        <ele>1934.4260253906</ele>
        <time>2017-05-05T07:34:50Z</time>
      </trkpt>
      <trkpt lat="45.17366" lon="5.93567">
        <ele>1933.4260253906</ele>
        <time>2017-05-05T07:34:57Z</time>
      </trkpt>
      <trkpt lat="45.1736" lon="5.93569">
        <ele>1935.4260253906</ele>
        <time>2017-05-05T07:35:06Z</time>
      </trkpt>
      <trkpt lat="45.17356" lon="5.93564">
        <ele>1940.4260253906</ele>
        <time>2017-05-05T07:35:11Z</time>
      </trkpt>
      <trkpt lat="45.17352" lon="5.93561">
        <ele>1937.4260253906</ele>
        <time>2017-05-05T07:35:17Z</time>
      </trkpt>
      <trkpt lat="45.17349" lon="5.93557">
        <ele>1935.4260253906</ele>
        <time>2017-05-05T07:35:23Z</time>
      </trkpt>
      <trkpt lat="45.17345" lon="5.93553">
        <ele>1932.4260253906</ele>
        <time>2017-05-05T07:35:28Z</time>
      </trkpt>
      <trkpt lat="45.17342" lon="5.93547">
        <ele>1932.4260253906</ele>
        <time>2017-05-05T07:35:32Z</time>
      </trkpt>
      <trkpt lat="45.1734" lon="5.93541">
        <ele>1934.4260253906</ele>
        <time>2017-05-05T07:35:39Z</time>
      </trkpt>
      <trkpt lat="45.17335" lon="5.93537">
        <ele>1937.4260253906</ele>
        <time>2017-05-05T07:35:42Z</time>
      </trkpt>
      <trkpt lat="45.17334" lon="5.93531">
        <ele>1944.4260253906</ele>
        <time>2017-05-05T07:35:49Z</time>
      </trkpt>
      <trkpt lat="45.17329" lon="5.93527">
        <ele>1945.4260253906</ele>
        <time>2017-05-05T07:35:54Z</time>
      </trkpt>
      <trkpt lat="45.17324" lon="5.93523">
        <ele>1945.4250488281</ele>
        <time>2017-05-05T07:36:00Z</time>
      </trkpt>
      <trkpt lat="45.17319" lon="5.93521">
        <ele>1947.4250488281</ele>
        <time>2017-05-05T07:36:05Z</time>
      </trkpt>
      <trkpt lat="45.17315" lon="5.93518">
        <ele>1953.4250488281</ele>
        <time>2017-05-05T07:36:15Z</time>
      </trkpt>
      <trkpt lat="45.17311" lon="5.93521">
        <ele>1953.4250488281</ele>
        <time>2017-05-05T07:36:19Z</time>
      </trkpt>
      <trkpt lat="45.17305" lon="5.93521">
        <ele>1955.4250488281</ele>
        <time>2017-05-05T07:36:25Z</time>
      </trkpt>
      <trkpt lat="45.17301" lon="5.93519">
        <ele>1951.4250488281</ele>
        <time>2017-05-05T07:36:32Z</time>
      </trkpt>
      <trkpt lat="45.17295" lon="5.93518">
        <ele>1954.4250488281</ele>
        <time>2017-05-05T07:36:53Z</time>
      </trkpt>
      <trkpt lat="45.1729" lon="5.93518">
        <ele>1953.4250488281</ele>
        <time>2017-05-05T07:36:58Z</time>
      </trkpt>
      <trkpt lat="45.17286" lon="5.93521">
        <ele>1957.4250488281</ele>
        <time>2017-05-05T07:37:06Z</time>
      </trkpt>
      <trkpt lat="45.17282" lon="5.93526">
        <ele>1957.4250488281</ele>
        <time>2017-05-05T07:37:09Z</time>
      </trkpt>
      <trkpt lat="45.17283" lon="5.93534">
        <ele>1964.4250488281</ele>
        <time>2017-05-05T07:37:17Z</time>
      </trkpt>
      <trkpt lat="45.17281" lon="5.93541">
        <ele>1959.4250488281</ele>
        <time>2017-05-05T07:37:23Z</time>
      </trkpt>
      <trkpt lat="45.1728" lon="5.93548">
        <ele>1957.4250488281</ele>
        <time>2017-05-05T07:37:28Z</time>
      </trkpt>
      <trkpt lat="45.17284" lon="5.93552">
        <ele>1963.4250488281</ele>
        <time>2017-05-05T07:37:33Z</time>
      </trkpt>
      <trkpt lat="45.17286" lon="5.93558">
        <ele>1969.4250488281</ele>
        <time>2017-05-05T07:37:41Z</time>
      </trkpt>
      <trkpt lat="45.17289" lon="5.93565">
        <ele>1973.4250488281</ele>
        <time>2017-05-05T07:37:48Z</time>
      </trkpt>
      <trkpt lat="45.17291" lon="5.93571">
        <ele>1973.4250488281</ele>
        <time>2017-05-05T07:37:52Z</time>
      </trkpt>
      <trkpt lat="45.17294" lon="5.93575">
        <ele>1967.4260253906</ele>
        <time>2017-05-05T07:37:59Z</time>
      </trkpt>
      <trkpt lat="45.17294" lon="5.93582">
        <ele>1965.4260253906</ele>
        <time>2017-05-05T07:38:08Z</time>
      </trkpt>
      <trkpt lat="45.17296" lon="5.9359">
        <ele>1965.4260253906</ele>
        <time>2017-05-05T07:38:15Z</time>
      </trkpt>
      <trkpt lat="45.17297" lon="5.93596">
        <ele>1964.4260253906</ele>
        <time>2017-05-05T07:38:20Z</time>
      </trkpt>
      <trkpt lat="45.173" lon="5.93602">
        <ele>1965.4260253906</ele>
        <time>2017-05-05T07:38:24Z</time>
      </trkpt>
      <trkpt lat="45.17298" lon="5.93608">
        <ele>1969.4260253906</ele>
        <time>2017-05-05T07:38:35Z</time>
      </trkpt>
      <trkpt lat="45.17294" lon="5.93614">
        <ele>1968.4260253906</ele>
        <time>2017-05-05T07:38:44Z</time>
      </trkpt>
      <trkpt lat="45.1729" lon="5.93617">
        <ele>1970.4260253906</ele>
        <time>2017-05-05T07:38:50Z</time>
      </trkpt>
      <trkpt lat="45.17286" lon="5.93623">
        <ele>1974.4260253906</ele>
        <time>2017-05-05T07:39:00Z</time>
      </trkpt>
      <trkpt lat="45.17283" lon="5.93627">
        <ele>1976.4260253906</ele>
        <time>2017-05-05T07:39:08Z</time>
      </trkpt>
      <trkpt lat="45.17279" lon="5.93631">
        <ele>1975.4260253906</ele>
        <time>2017-05-05T07:43:18Z</time>
      </trkpt>
      <trkpt lat="45.17275" lon="5.93634">
        <ele>1975.4260253906</ele>
        <time>2017-05-05T07:43:22Z</time>
      </trkpt>
      <trkpt lat="45.17271" lon="5.93639">
        <ele>1972.4260253906</ele>
        <time>2017-05-05T07:43:26Z</time>
      </trkpt>
      <trkpt lat="45.17267" lon="5.93643">
        <ele>1973.4260253906</ele>
        <time>2017-05-05T07:43:31Z</time>
      </trkpt>
      <trkpt lat="45.17262" lon="5.93644">
        <ele>1971.4260253906</ele>
        <time>2017-05-05T07:43:37Z</time>
      </trkpt>
      <trkpt lat="45.17257" lon="5.93644">
        <ele>1973.4260253906</ele>
        <time>2017-05-05T07:43:46Z</time>
      </trkpt>
      <trkpt lat="45.17252" lon="5.93648">
        <ele>1972.4260253906</ele>
        <time>2017-05-05T07:43:53Z</time>
      </trkpt>
      <trkpt lat="45.17247" lon="5.93646">
        <ele>1976.4260253906</ele>
        <time>2017-05-05T07:43:58Z</time>
      </trkpt>
      <trkpt lat="45.17243" lon="5.93647">
        <ele>1976.4260253906</ele>
        <time>2017-05-05T07:44:04Z</time>
      </trkpt>
      <trkpt lat="45.17238" lon="5.9365">
        <ele>1975.4260253906</ele>
        <time>2017-05-05T07:44:09Z</time>
      </trkpt>
      <trkpt lat="45.17233" lon="5.93652">
        <ele>1976.4250488281</ele>
        <time>2017-05-05T07:44:13Z</time>
      </trkpt>
      <trkpt lat="45.17229" lon="5.93652">
        <ele>1977.4250488281</ele>
        <time>2017-05-05T07:44:16Z</time>
      </trkpt>
      <trkpt lat="45.17224" lon="5.93657">
        <ele>1982.4250488281</ele>
        <time>2017-05-05T07:44:24Z</time>
      </trkpt>
      <trkpt lat="45.17219" lon="5.93656">
        <ele>1988.4250488281</ele>
        <time>2017-05-05T07:44:29Z</time>
      </trkpt>
      <trkpt lat="45.17214" lon="5.93657">
        <ele>1989.4250488281</ele>
        <time>2017-05-05T07:44:33Z</time>
      </trkpt>
      <trkpt lat="45.1721" lon="5.93659">
        <ele>1989.4250488281</ele>
        <time>2017-05-05T07:44:38Z</time>
      </trkpt>
      <trkpt lat="45.17204" lon="5.93662">
        <ele>1988.4250488281</ele>
        <time>2017-05-05T07:44:42Z</time>
      </trkpt>
      <trkpt lat="45.17198" lon="5.93662">
        <ele>1988.4250488281</ele>
        <time>2017-05-05T07:44:46Z</time>
      </trkpt>
      <trkpt lat="45.17194" lon="5.93664">
        <ele>1985.4250488281</ele>
        <time>2017-05-05T07:44:50Z</time>
      </trkpt>
      <trkpt lat="45.1719" lon="5.93667">
        <ele>1985.4250488281</ele>
        <time>2017-05-05T07:44:56Z</time>
      </trkpt>
      <trkpt lat="45.17185" lon="5.93669">
        <ele>1985.4250488281</ele>
        <time>2017-05-05T07:45:03Z</time>
      </trkpt>
      <trkpt lat="45.17181" lon="5.93673">
        <ele>1984.4250488281</ele>
        <time>2017-05-05T07:45:10Z</time>
      </trkpt>
      <trkpt lat="45.17176" lon="5.93674">
        <ele>1984.4250488281</ele>
        <time>2017-05-05T07:45:14Z</time>
      </trkpt>
      <trkpt lat="45.17172" lon="5.93676">
        <ele>1988.4250488281</ele>
        <time>2017-05-05T07:45:20Z</time>
      </trkpt>
      <trkpt lat="45.17167" lon="5.93676">
        <ele>1989.4250488281</ele>
        <time>2017-05-05T07:45:26Z</time>
      </trkpt>
      <trkpt lat="45.17162" lon="5.93677">
        <ele>1988.4250488281</ele>
        <time>2017-05-05T07:45:29Z</time>
      </trkpt>
      <trkpt lat="45.17157" lon="5.93678">
        <ele>1992.4250488281</ele>
        <time>2017-05-05T07:45:36Z</time>
      </trkpt>
      <trkpt lat="45.17153" lon="5.93677">
        <ele>1993.4250488281</ele>
        <time>2017-05-05T07:45:44Z</time>
      </trkpt>
      <trkpt lat="45.17147" lon="5.93675">
        <ele>1992.4250488281</ele>
        <time>2017-05-05T07:45:49Z</time>
      </trkpt>
      <trkpt lat="45.17141" lon="5.93672">
        <ele>1993.4250488281</ele>
        <time>2017-05-05T07:45:50Z</time>
      </trkpt>
      <trkpt lat="45.17134" lon="5.93669">
        <ele>1993.4250488281</ele>
        <time>2017-05-05T07:45:52Z</time>
      </trkpt>
      <trkpt lat="45.1713" lon="5.93665">
        <ele>1994.4250488281</ele>
        <time>2017-05-05T07:45:54Z</time>
      </trkpt>
      <trkpt lat="45.17124" lon="5.93661">
        <ele>1997.4250488281</ele>
        <time>2017-05-05T07:45:58Z</time>
      </trkpt>
      <trkpt lat="45.1712" lon="5.93665">
        <ele>1996.4250488281</ele>
        <time>2017-05-05T07:46:01Z</time>
      </trkpt>
      <trkpt lat="45.17115" lon="5.93672">
        <ele>1994.4250488281</ele>
        <time>2017-05-05T07:46:06Z</time>
      </trkpt>
      <trkpt lat="45.1711" lon="5.93677">
        <ele>1990.4250488281</ele>
        <time>2017-05-05T07:46:08Z</time>
      </trkpt>
      <trkpt lat="45.17107" lon="5.93683">
        <ele>1988.4250488281</ele>
        <time>2017-05-05T07:46:14Z</time>
      </trkpt>
      <trkpt lat="45.17104" lon="5.93688">
        <ele>1990.4250488281</ele>
        <time>2017-05-05T07:46:27Z</time>
      </trkpt>
      <trkpt lat="45.171" lon="5.93694">
        <ele>1992.4250488281</ele>
        <time>2017-05-05T07:46:30Z</time>
      </trkpt>
      <trkpt lat="45.17095" lon="5.93697">
        <ele>1990.4250488281</ele>
        <time>2017-05-05T07:46:34Z</time>
      </trkpt>
      <trkpt lat="45.17091" lon="5.93702">
        <ele>1987.4250488281</ele>
        <time>2017-05-05T07:46:37Z</time>
      </trkpt>
      <trkpt lat="45.17086" lon="5.93703">
        <ele>1984.4250488281</ele>
        <time>2017-05-05T07:46:41Z</time>
      </trkpt>
      <trkpt lat="45.17081" lon="5.93708">
        <ele>1983.4250488281</ele>
        <time>2017-05-05T07:46:44Z</time>
      </trkpt>
      <trkpt lat="45.17076" lon="5.93711">
        <ele>1981.4250488281</ele>
        <time>2017-05-05T07:46:46Z</time>
      </trkpt>
      <trkpt lat="45.17072" lon="5.93714">
        <ele>1979.4250488281</ele>
        <time>2017-05-05T07:46:49Z</time>
      </trkpt>
      <trkpt lat="45.17067" lon="5.93718">
        <ele>1977.4250488281</ele>
        <time>2017-05-05T07:46:53Z</time>
      </trkpt>
      <trkpt lat="45.17063" lon="5.93723">
        <ele>1976.4250488281</ele>
        <time>2017-05-05T07:46:58Z</time>
      </trkpt>
      <trkpt lat="45.1706" lon="5.93727">
        <ele>1978.4250488281</ele>
        <time>2017-05-05T07:47:03Z</time>
      </trkpt>
      <trkpt lat="45.17055" lon="5.93731">
        <ele>1976.4250488281</ele>
        <time>2017-05-05T07:47:07Z</time>
      </trkpt>
      <trkpt lat="45.1705" lon="5.93735">
        <ele>1977.4250488281</ele>
        <time>2017-05-05T07:47:13Z</time>
      </trkpt>
      <trkpt lat="45.17045" lon="5.93732">
        <ele>1975.4250488281</ele>
        <time>2017-05-05T07:47:17Z</time>
      </trkpt>
      <trkpt lat="45.17039" lon="5.93727">
        <ele>1977.4250488281</ele>
        <time>2017-05-05T07:47:21Z</time>
      </trkpt>
      <trkpt lat="45.17034" lon="5.93728">
        <ele>1980.4250488281</ele>
        <time>2017-05-05T07:47:27Z</time>
      </trkpt>
      <trkpt lat="45.17029" lon="5.93725">
        <ele>1978.4250488281</ele>
        <time>2017-05-05T07:47:31Z</time>
      </trkpt>
      <trkpt lat="45.17024" lon="5.93725">
        <ele>1976.4250488281</ele>
        <time>2017-05-05T07:47:35Z</time>
      </trkpt>
      <trkpt lat="45.1702" lon="5.93728">
        <ele>1977.4250488281</ele>
        <time>2017-05-05T07:47:39Z</time>
      </trkpt>
      <trkpt lat="45.17015" lon="5.9373">
        <ele>1977.4250488281</ele>
        <time>2017-05-05T07:47:44Z</time>
      </trkpt>
      <trkpt lat="45.17011" lon="5.93735">
        <ele>1978.4250488281</ele>
        <time>2017-05-05T07:47:48Z</time>
      </trkpt>
      <trkpt lat="45.17007" lon="5.93736">
        <ele>1975.4250488281</ele>
        <time>2017-05-05T07:47:53Z</time>
      </trkpt>
      <trkpt lat="45.17001" lon="5.93738">
        <ele>1976.4250488281</ele>
        <time>2017-05-05T07:47:58Z</time>
      </trkpt>
      <trkpt lat="45.16996" lon="5.93739">
        <ele>1971.4250488281</ele>
        <time>2017-05-05T07:48:02Z</time>
      </trkpt>
      <trkpt lat="45.16991" lon="5.93741">
        <ele>1972.4250488281</ele>
        <time>2017-05-05T07:48:06Z</time>
      </trkpt>
      <trkpt lat="45.16986" lon="5.93743">
        <ele>1970.4250488281</ele>
        <time>2017-05-05T07:48:11Z</time>
      </trkpt>
      <trkpt lat="45.16981" lon="5.93747">
        <ele>1971.4250488281</ele>
        <time>2017-05-05T07:48:15Z</time>
      </trkpt>
      <trkpt lat="45.16977" lon="5.93749">
        <ele>1970.4250488281</ele>
        <time>2017-05-05T07:48:19Z</time>
      </trkpt>
      <trkpt lat="45.16972" lon="5.93752">
        <ele>1970.4250488281</ele>
        <time>2017-05-05T07:48:24Z</time>
      </trkpt>
      <trkpt lat="45.16968" lon="5.93751">
        <ele>1970.4250488281</ele>
        <time>2017-05-05T07:48:31Z</time>
      </trkpt>
      <trkpt lat="45.16963" lon="5.93755">
        <ele>1971.4250488281</ele>
        <time>2017-05-05T07:48:36Z</time>
      </trkpt>
      <trkpt lat="45.16959" lon="5.93756">
        <ele>1972.4250488281</ele>
        <time>2017-05-05T07:48:41Z</time>
      </trkpt>
      <trkpt lat="45.16954" lon="5.93759">
        <ele>1972.4250488281</ele>
        <time>2017-05-05T07:48:45Z</time>
      </trkpt>
      <trkpt lat="45.1695" lon="5.93763">
        <ele>1970.4250488281</ele>
        <time>2017-05-05T07:48:49Z</time>
      </trkpt>
      <trkpt lat="45.16946" lon="5.93765">
        <ele>1972.4250488281</ele>
        <time>2017-05-05T07:48:54Z</time>
      </trkpt>
      <trkpt lat="45.16942" lon="5.9377">
        <ele>1974.4250488281</ele>
        <time>2017-05-05T07:48:59Z</time>
      </trkpt>
      <trkpt lat="45.1694" lon="5.93777">
        <ele>1965.4250488281</ele>
        <time>2017-05-05T07:49:05Z</time>
      </trkpt>
      <trkpt lat="45.16936" lon="5.93781">
        <ele>1963.4250488281</ele>
        <time>2017-05-05T07:49:10Z</time>
      </trkpt>
      <trkpt lat="45.16937" lon="5.93788">
        <ele>1984.4250488281</ele>
        <time>2017-05-05T07:49:38Z</time>
      </trkpt>
      <trkpt lat="45.16933" lon="5.93791">
        <ele>1985.4250488281</ele>
        <time>2017-05-05T07:49:49Z</time>
      </trkpt>
      <trkpt lat="45.16929" lon="5.93795">
        <ele>1981.4250488281</ele>
        <time>2017-05-05T07:50:00Z</time>
      </trkpt>
      <trkpt lat="45.16925" lon="5.93802">
        <ele>1977.4250488281</ele>
        <time>2017-05-05T07:50:07Z</time>
      </trkpt>
      <trkpt lat="45.16922" lon="5.93808">
        <ele>1975.4250488281</ele>
        <time>2017-05-05T07:50:11Z</time>
      </trkpt>
      <trkpt lat="45.16919" lon="5.93814">
        <ele>1975.4250488281</ele>
        <time>2017-05-05T07:50:15Z</time>
      </trkpt>
      <trkpt lat="45.16915" lon="5.93819">
        <ele>1975.4250488281</ele>
        <time>2017-05-05T07:50:19Z</time>
      </trkpt>
      <trkpt lat="45.16912" lon="5.93826">
        <ele>1977.4250488281</ele>
        <time>2017-05-05T07:50:24Z</time>
      </trkpt>
      <trkpt lat="45.16908" lon="5.93831">
        <ele>1977.4250488281</ele>
        <time>2017-05-05T07:50:28Z</time>
      </trkpt>
      <trkpt lat="45.16906" lon="5.93839">
        <ele>1972.4250488281</ele>
        <time>2017-05-05T07:50:31Z</time>
      </trkpt>
      <trkpt lat="45.16902" lon="5.93842">
        <ele>1973.4250488281</ele>
        <time>2017-05-05T07:50:35Z</time>
      </trkpt>
      <trkpt lat="45.16897" lon="5.93846">
        <ele>1973.4250488281</ele>
        <time>2017-05-05T07:50:38Z</time>
      </trkpt>
      <trkpt lat="45.16893" lon="5.9385">
        <ele>1973.4250488281</ele>
        <time>2017-05-05T07:50:42Z</time>
      </trkpt>
      <trkpt lat="45.16888" lon="5.93854">
        <ele>1973.4250488281</ele>
        <time>2017-05-05T07:50:46Z</time>
      </trkpt>
      <trkpt lat="45.16885" lon="5.93859">
        <ele>1970.4250488281</ele>
        <time>2017-05-05T07:50:54Z</time>
      </trkpt>
      <trkpt lat="45.16882" lon="5.93865">
        <ele>1967.4250488281</ele>
        <time>2017-05-05T07:50:58Z</time>
      </trkpt>
      <trkpt lat="45.16877" lon="5.93869">
        <ele>1970.4250488281</ele>
        <time>2017-05-05T07:51:03Z</time>
      </trkpt>
      <trkpt lat="45.16875" lon="5.93874">
        <ele>1968.4250488281</ele>
        <time>2017-05-05T07:51:07Z</time>
      </trkpt>
      <trkpt lat="45.16871" lon="5.93879">
        <ele>1968.4250488281</ele>
        <time>2017-05-05T07:51:11Z</time>
      </trkpt>
      <trkpt lat="45.16867" lon="5.93884">
        <ele>1970.4250488281</ele>
        <time>2017-05-05T07:51:18Z</time>
      </trkpt>
      <trkpt lat="45.16864" lon="5.9389">
        <ele>1970.4250488281</ele>
        <time>2017-05-05T07:51:22Z</time>
      </trkpt>
      <trkpt lat="45.16861" lon="5.93895">
        <ele>1967.4250488281</ele>
        <time>2017-05-05T07:51:27Z</time>
      </trkpt>
      <trkpt lat="45.16856" lon="5.93901">
        <ele>1958.4250488281</ele>
        <time>2017-05-05T07:51:35Z</time>
      </trkpt>
      <trkpt lat="45.16852" lon="5.93903">
        <ele>1958.4250488281</ele>
        <time>2017-05-05T07:51:41Z</time>
      </trkpt>
      <trkpt lat="45.16848" lon="5.93906">
        <ele>1958.4250488281</ele>
        <time>2017-05-05T07:51:45Z</time>
      </trkpt>
      <trkpt lat="45.16843" lon="5.9391">
        <ele>1964.4250488281</ele>
        <time>2017-05-05T07:51:49Z</time>
      </trkpt>
      <trkpt lat="45.16838" lon="5.93913">
        <ele>1965.4250488281</ele>
        <time>2017-05-05T07:51:54Z</time>
      </trkpt>
      <trkpt lat="45.16833" lon="5.93913">
        <ele>1974.4250488281</ele>
        <time>2017-05-05T07:51:58Z</time>
      </trkpt>
      <trkpt lat="45.16827" lon="5.93914">
        <ele>1982.4250488281</ele>
        <time>2017-05-05T07:52:03Z</time>
      </trkpt>
      <trkpt lat="45.16822" lon="5.93913">
        <ele>1987.4250488281</ele>
        <time>2017-05-05T07:52:08Z</time>
      </trkpt>
      <trkpt lat="45.16818" lon="5.93909">
        <ele>1988.4250488281</ele>
        <time>2017-05-05T07:52:14Z</time>
      </trkpt>
      <trkpt lat="45.16814" lon="5.93907">
        <ele>1989.4250488281</ele>
        <time>2017-05-05T07:52:19Z</time>
      </trkpt>
      <trkpt lat="45.16809" lon="5.93906">
        <ele>1990.4250488281</ele>
        <time>2017-05-05T07:52:23Z</time>
      </trkpt>
      <trkpt lat="45.16804" lon="5.93903">
        <ele>1993.4250488281</ele>
        <time>2017-05-05T07:52:29Z</time>
      </trkpt>
      <trkpt lat="45.168" lon="5.93899">
        <ele>1998.4250488281</ele>
        <time>2017-05-05T07:52:34Z</time>
      </trkpt>
      <trkpt lat="45.16795" lon="5.93898">
        <ele>2004.4250488281</ele>
        <time>2017-05-05T07:52:41Z</time>
      </trkpt>
      <trkpt lat="45.1679" lon="5.93894">
        <ele>2013.4250488281</ele>
        <time>2017-05-05T07:52:47Z</time>
      </trkpt>
      <trkpt lat="45.16785" lon="5.93897">
        <ele>2015.4250488281</ele>
        <time>2017-05-05T07:52:54Z</time>
      </trkpt>
      <trkpt lat="45.16786" lon="5.93905">
        <ele>2015.4250488281</ele>
        <time>2017-05-05T07:53:01Z</time>
      </trkpt>
      <trkpt lat="45.16782" lon="5.93909">
        <ele>2016.4250488281</ele>
        <time>2017-05-05T07:53:09Z</time>
      </trkpt>
      <trkpt lat="45.16777" lon="5.93911">
        <ele>2019.4250488281</ele>
        <time>2017-05-05T07:53:13Z</time>
      </trkpt>
      <trkpt lat="45.16772" lon="5.93911">
        <ele>2020.4250488281</ele>
        <time>2017-05-05T07:53:19Z</time>
      </trkpt>
      <trkpt lat="45.16768" lon="5.93912">
        <ele>2021.4250488281</ele>
        <time>2017-05-05T07:53:25Z</time>
      </trkpt>
      <trkpt lat="45.16765" lon="5.93918">
        <ele>2026.4250488281</ele>
        <time>2017-05-05T07:53:33Z</time>
      </trkpt>
      <trkpt lat="45.16761" lon="5.93923">
        <ele>2029.4250488281</ele>
        <time>2017-05-05T07:53:42Z</time>
      </trkpt>
      <trkpt lat="45.16758" lon="5.93929">
        <ele>2030.4250488281</ele>
        <time>2017-05-05T07:53:47Z</time>
      </trkpt>
      <trkpt lat="45.16755" lon="5.93935">
        <ele>2029.4250488281</ele>
        <time>2017-05-05T07:53:52Z</time>
      </trkpt>
      <trkpt lat="45.16753" lon="5.93944">
        <ele>2029.4250488281</ele>
        <time>2017-05-05T07:53:57Z</time>
      </trkpt>
      <trkpt lat="45.16751" lon="5.9395">
        <ele>2026.4250488281</ele>
        <time>2017-05-05T07:54:00Z</time>
      </trkpt>
      <trkpt lat="45.16751" lon="5.93957">
        <ele>2026.4250488281</ele>
        <time>2017-05-05T07:54:04Z</time>
      </trkpt>
      <trkpt lat="45.16751" lon="5.93964">
        <ele>2029.4250488281</ele>
        <time>2017-05-05T07:54:09Z</time>
      </trkpt>
      <trkpt lat="45.16749" lon="5.93972">
        <ele>2027.4250488281</ele>
        <time>2017-05-05T07:54:13Z</time>
      </trkpt>
      <trkpt lat="45.16749" lon="5.93979">
        <ele>2027.4250488281</ele>
        <time>2017-05-05T07:54:17Z</time>
      </trkpt>
      <trkpt lat="45.16747" lon="5.93984">
        <ele>2024.4250488281</ele>
        <time>2017-05-05T07:54:23Z</time>
      </trkpt>
      <trkpt lat="45.16745" lon="5.9399">
        <ele>2025.4250488281</ele>
        <time>2017-05-05T07:54:26Z</time>
      </trkpt>
      <trkpt lat="45.16743" lon="5.93996">
        <ele>2023.4250488281</ele>
        <time>2017-05-05T07:54:30Z</time>
      </trkpt>
      <trkpt lat="45.16741" lon="5.94003">
        <ele>2024.4250488281</ele>
        <time>2017-05-05T07:54:34Z</time>
      </trkpt>
      <trkpt lat="45.16738" lon="5.94009">
        <ele>2024.4250488281</ele>
        <time>2017-05-05T07:54:37Z</time>
      </trkpt>
      <trkpt lat="45.16735" lon="5.94018">
        <ele>2022.4250488281</ele>
        <time>2017-05-05T07:54:45Z</time>
      </trkpt>
      <trkpt lat="45.16732" lon="5.94027">
        <ele>2019.4250488281</ele>
        <time>2017-05-05T07:54:49Z</time>
      </trkpt>
      <trkpt lat="45.16729" lon="5.94032">
        <ele>2018.4250488281</ele>
        <time>2017-05-05T07:54:53Z</time>
      </trkpt>
      <trkpt lat="45.16727" lon="5.94039">
        <ele>2018.4250488281</ele>
        <time>2017-05-05T07:54:59Z</time>
      </trkpt>
      <trkpt lat="45.16724" lon="5.94045">
        <ele>2013.4250488281</ele>
        <time>2017-05-05T07:55:03Z</time>
      </trkpt>
      <trkpt lat="45.16723" lon="5.94052">
        <ele>2008.4250488281</ele>
        <time>2017-05-05T07:55:08Z</time>
      </trkpt>
      <trkpt lat="45.16719" lon="5.94057">
        <ele>2011.4250488281</ele>
        <time>2017-05-05T07:55:15Z</time>
      </trkpt>
      <trkpt lat="45.16717" lon="5.94064">
        <ele>2011.4250488281</ele>
        <time>2017-05-05T07:55:22Z</time>
      </trkpt>
      <trkpt lat="45.16715" lon="5.9407">
        <ele>2008.4250488281</ele>
        <time>2017-05-05T07:55:27Z</time>
      </trkpt>
      <trkpt lat="45.16712" lon="5.94074">
        <ele>2010.4250488281</ele>
        <time>2017-05-05T07:55:32Z</time>
      </trkpt>
      <trkpt lat="45.16709" lon="5.9408">
        <ele>2009.4250488281</ele>
        <time>2017-05-05T07:55:36Z</time>
      </trkpt>
      <trkpt lat="45.16705" lon="5.94086">
        <ele>2006.4250488281</ele>
        <time>2017-05-05T07:55:41Z</time>
      </trkpt>
      <trkpt lat="45.16701" lon="5.94091">
        <ele>2002.4250488281</ele>
        <time>2017-05-05T07:55:46Z</time>
      </trkpt>
      <trkpt lat="45.16698" lon="5.94094">
        <ele>2005.4250488281</ele>
        <time>2017-05-05T07:55:49Z</time>
      </trkpt>
      <trkpt lat="45.16693" lon="5.94099">
        <ele>2009.4250488281</ele>
        <time>2017-05-05T07:55:54Z</time>
      </trkpt>
      <trkpt lat="45.16689" lon="5.94104">
        <ele>2009.4250488281</ele>
        <time>2017-05-05T07:55:59Z</time>
      </trkpt>
      <trkpt lat="45.16686" lon="5.9411">
        <ele>2008.4250488281</ele>
        <time>2017-05-05T07:56:03Z</time>
      </trkpt>
      <trkpt lat="45.16681" lon="5.94116">
        <ele>2008.4250488281</ele>
        <time>2017-05-05T07:56:08Z</time>
      </trkpt>
      <trkpt lat="45.16676" lon="5.9412">
        <ele>2008.4250488281</ele>
        <time>2017-05-05T07:56:11Z</time>
      </trkpt>
      <trkpt lat="45.1667" lon="5.94124">
        <ele>2004.4250488281</ele>
        <time>2017-05-05T07:56:19Z</time>
      </trkpt>
      <trkpt lat="45.16665" lon="5.9413">
        <ele>2006.4250488281</ele>
        <time>2017-05-05T07:56:24Z</time>
      </trkpt>
      <trkpt lat="45.1666" lon="5.9413">
        <ele>2004.4250488281</ele>
        <time>2017-05-05T07:56:30Z</time>
      </trkpt>
      <trkpt lat="45.16655" lon="5.9413">
        <ele>2010.4250488281</ele>
        <time>2017-05-05T07:56:35Z</time>
      </trkpt>
      <trkpt lat="45.16649" lon="5.94132">
        <ele>2013.4250488281</ele>
        <time>2017-05-05T07:56:41Z</time>
      </trkpt>
      <trkpt lat="45.16645" lon="5.94133">
        <ele>2013.4250488281</ele>
        <time>2017-05-05T07:56:46Z</time>
      </trkpt>
      <trkpt lat="45.1664" lon="5.94136">
        <ele>2016.4250488281</ele>
        <time>2017-05-05T07:56:53Z</time>
      </trkpt>
      <trkpt lat="45.16634" lon="5.94138">
        <ele>2018.4250488281</ele>
        <time>2017-05-05T07:56:58Z</time>
      </trkpt>
      <trkpt lat="45.1663" lon="5.94139">
        <ele>2023.4250488281</ele>
        <time>2017-05-05T07:57:01Z</time>
      </trkpt>
      <trkpt lat="45.16624" lon="5.94142">
        <ele>2026.4250488281</ele>
        <time>2017-05-05T07:57:06Z</time>
      </trkpt>
      <trkpt lat="45.16619" lon="5.94143">
        <ele>2033.4250488281</ele>
        <time>2017-05-05T07:57:11Z</time>
      </trkpt>
      <trkpt lat="45.16614" lon="5.94144">
        <ele>2037.4250488281</ele>
        <time>2017-05-05T07:57:18Z</time>
      </trkpt>
      <trkpt lat="45.16609" lon="5.94143">
        <ele>2037.4250488281</ele>
        <time>2017-05-05T07:57:24Z</time>
      </trkpt>
      <trkpt lat="45.16604" lon="5.94145">
        <ele>2039.4250488281</ele>
        <time>2017-05-05T07:57:30Z</time>
      </trkpt>
      <trkpt lat="45.16599" lon="5.94144">
        <ele>2040.4250488281</ele>
        <time>2017-05-05T07:57:36Z</time>
      </trkpt>
      <trkpt lat="45.16594" lon="5.94144">
        <ele>2044.4250488281</ele>
        <time>2017-05-05T07:57:42Z</time>
      </trkpt>
      <trkpt lat="45.16589" lon="5.94146">
        <ele>2044.4250488281</ele>
        <time>2017-05-05T07:57:47Z</time>
      </trkpt>
      <trkpt lat="45.16585" lon="5.94145">
        <ele>2046.4250488281</ele>
        <time>2017-05-05T07:57:52Z</time>
      </trkpt>
      <trkpt lat="45.1658" lon="5.94146">
        <ele>2047.4250488281</ele>
        <time>2017-05-05T07:57:57Z</time>
      </trkpt>
      <trkpt lat="45.16575" lon="5.94149">
        <ele>2046.4250488281</ele>
        <time>2017-05-05T07:58:02Z</time>
      </trkpt>
      <trkpt lat="45.1657" lon="5.94152">
        <ele>2047.4250488281</ele>
        <time>2017-05-05T07:58:06Z</time>
      </trkpt>
      <trkpt lat="45.16566" lon="5.94155">
        <ele>2048.4250488281</ele>
        <time>2017-05-05T07:58:11Z</time>
      </trkpt>
      <trkpt lat="45.16562" lon="5.94158">
        <ele>2052.4250488281</ele>
        <time>2017-05-05T07:58:15Z</time>
      </trkpt>
      <trkpt lat="45.1656" lon="5.94165">
        <ele>2054.4250488281</ele>
        <time>2017-05-05T07:58:22Z</time>
      </trkpt>
      <trkpt lat="45.16558" lon="5.94171">
        <ele>2057.4250488281</ele>
        <time>2017-05-05T07:58:27Z</time>
      </trkpt>
      <trkpt lat="45.16557" lon="5.94178">
        <ele>2059.4250488281</ele>
        <time>2017-05-05T07:58:33Z</time>
      </trkpt>
      <trkpt lat="45.16555" lon="5.94185">
        <ele>2061.4250488281</ele>
        <time>2017-05-05T07:58:38Z</time>
      </trkpt>
      <trkpt lat="45.16552" lon="5.94193">
        <ele>2060.4250488281</ele>
        <time>2017-05-05T07:58:44Z</time>
      </trkpt>
      <trkpt lat="45.16551" lon="5.942">
        <ele>2063.4250488281</ele>
        <time>2017-05-05T07:58:53Z</time>
      </trkpt>
      <trkpt lat="45.16549" lon="5.94206">
        <ele>2063.4250488281</ele>
        <time>2017-05-05T07:59:01Z</time>
      </trkpt>
      <trkpt lat="45.16546" lon="5.94213">
        <ele>2065.4250488281</ele>
        <time>2017-05-05T07:59:06Z</time>
      </trkpt>
      <trkpt lat="45.16543" lon="5.94219">
        <ele>2067.4250488281</ele>
        <time>2017-05-05T07:59:11Z</time>
      </trkpt>
      <trkpt lat="45.1654" lon="5.94224">
        <ele>2067.4250488281</ele>
        <time>2017-05-05T07:59:15Z</time>
      </trkpt>
      <trkpt lat="45.16538" lon="5.94232">
        <ele>2069.4250488281</ele>
        <time>2017-05-05T07:59:20Z</time>
      </trkpt>
      <trkpt lat="45.16537" lon="5.94238">
        <ele>2068.4250488281</ele>
        <time>2017-05-05T07:59:24Z</time>
      </trkpt>
      <trkpt lat="45.16534" lon="5.94247">
        <ele>2068.4250488281</ele>
        <time>2017-05-05T07:59:28Z</time>
      </trkpt>
      <trkpt lat="45.16529" lon="5.94251">
        <ele>2065.4250488281</ele>
        <time>2017-05-05T07:59:33Z</time>
      </trkpt>
      <trkpt lat="45.16524" lon="5.94253">
        <ele>2064.4250488281</ele>
        <time>2017-05-05T07:59:37Z</time>
      </trkpt>
      <trkpt lat="45.1652" lon="5.94255">
        <ele>2064.4250488281</ele>
        <time>2017-05-05T07:59:40Z</time>
      </trkpt>
      <trkpt lat="45.16514" lon="5.94255">
        <ele>2062.4250488281</ele>
        <time>2017-05-05T07:59:44Z</time>
      </trkpt>
      <trkpt lat="45.1651" lon="5.94258">
        <ele>2063.4250488281</ele>
        <time>2017-05-05T07:59:47Z</time>
      </trkpt>
      <trkpt lat="45.16505" lon="5.94259">
        <ele>2060.4250488281</ele>
        <time>2017-05-05T07:59:53Z</time>
      </trkpt>
      <trkpt lat="45.165" lon="5.94261">
        <ele>2061.4250488281</ele>
        <time>2017-05-05T07:59:56Z</time>
      </trkpt>
      <trkpt lat="45.16496" lon="5.94264">
        <ele>2059.4250488281</ele>
        <time>2017-05-05T08:00:00Z</time>
      </trkpt>
      <trkpt lat="45.16491" lon="5.94268">
        <ele>2058.4250488281</ele>
        <time>2017-05-05T08:00:04Z</time>
      </trkpt>
      <trkpt lat="45.16487" lon="5.94273">
        <ele>2063.4250488281</ele>
        <time>2017-05-05T08:00:08Z</time>
      </trkpt>
      <trkpt lat="45.16484" lon="5.94277">
        <ele>2063.4250488281</ele>
        <time>2017-05-05T08:00:12Z</time>
      </trkpt>
      <trkpt lat="45.1648" lon="5.94282">
        <ele>2064.4250488281</ele>
        <time>2017-05-05T08:00:18Z</time>
      </trkpt>
      <trkpt lat="45.16475" lon="5.94286">
        <ele>2066.4250488281</ele>
        <time>2017-05-05T08:00:23Z</time>
      </trkpt>
      <trkpt lat="45.16471" lon="5.9429">
        <ele>2070.4250488281</ele>
        <time>2017-05-05T08:00:28Z</time>
      </trkpt>
      <trkpt lat="45.16468" lon="5.94296">
        <ele>2070.4250488281</ele>
        <time>2017-05-05T08:00:34Z</time>
      </trkpt>
      <trkpt lat="45.16464" lon="5.94303">
        <ele>2072.4250488281</ele>
        <time>2017-05-05T08:00:39Z</time>
      </trkpt>
      <trkpt lat="45.16461" lon="5.94307">
        <ele>2075.4250488281</ele>
        <time>2017-05-05T08:00:46Z</time>
      </trkpt>
      <trkpt lat="45.16458" lon="5.94313">
        <ele>2079.4250488281</ele>
        <time>2017-05-05T08:00:52Z</time>
      </trkpt>
      <trkpt lat="45.16456" lon="5.94319">
        <ele>2079.4250488281</ele>
        <time>2017-05-05T08:00:59Z</time>
      </trkpt>
      <trkpt lat="45.16451" lon="5.94318">
        <ele>2083.4250488281</ele>
        <time>2017-05-05T08:01:10Z</time>
      </trkpt>
      <trkpt lat="45.16447" lon="5.94314">
        <ele>2081.4250488281</ele>
        <time>2017-05-05T08:01:17Z</time>
      </trkpt>
      <trkpt lat="45.16444" lon="5.94308">
        <ele>2082.4250488281</ele>
        <time>2017-05-05T08:01:23Z</time>
      </trkpt>
      <trkpt lat="45.16441" lon="5.94304">
        <ele>2082.4250488281</ele>
        <time>2017-05-05T08:01:28Z</time>
      </trkpt>
      <trkpt lat="45.16437" lon="5.943">
        <ele>2082.4250488281</ele>
        <time>2017-05-05T08:01:33Z</time>
      </trkpt>
      <trkpt lat="45.16434" lon="5.94295">
        <ele>2084.4250488281</ele>
        <time>2017-05-05T08:01:41Z</time>
      </trkpt>
      <trkpt lat="45.16433" lon="5.94288">
        <ele>2085.4250488281</ele>
        <time>2017-05-05T08:01:48Z</time>
      </trkpt>
      <trkpt lat="45.16429" lon="5.94291">
        <ele>2093.4250488281</ele>
        <time>2017-05-05T08:03:51Z</time>
      </trkpt>
      <trkpt lat="45.16427" lon="5.94298">
        <ele>2093.4250488281</ele>
        <time>2017-05-05T08:03:57Z</time>
      </trkpt>
      <trkpt lat="45.16424" lon="5.94304">
        <ele>2095.4250488281</ele>
        <time>2017-05-05T08:04:06Z</time>
      </trkpt>
      <trkpt lat="45.16423" lon="5.94312">
        <ele>2098.4250488281</ele>
        <time>2017-05-05T08:04:11Z</time>
      </trkpt>
      <trkpt lat="45.16422" lon="5.94319">
        <ele>2099.4250488281</ele>
        <time>2017-05-05T08:04:18Z</time>
      </trkpt>
      <trkpt lat="45.16424" lon="5.94325">
        <ele>2102.4250488281</ele>
        <time>2017-05-05T08:04:28Z</time>
      </trkpt>
      <trkpt lat="45.16419" lon="5.94322">
        <ele>2100.4250488281</ele>
        <time>2017-05-05T08:04:32Z</time>
      </trkpt>
      <trkpt lat="45.16417" lon="5.94315">
        <ele>2103.4250488281</ele>
        <time>2017-05-05T08:04:38Z</time>
      </trkpt>
      <trkpt lat="45.16414" lon="5.94309">
        <ele>2106.4250488281</ele>
        <time>2017-05-05T08:04:45Z</time>
      </trkpt>
      <trkpt lat="45.1641" lon="5.94303">
        <ele>2105.4250488281</ele>
        <time>2017-05-05T08:04:49Z</time>
      </trkpt>
      <trkpt lat="45.16408" lon="5.94309">
        <ele>2104.4250488281</ele>
        <time>2017-05-05T08:05:02Z</time>
      </trkpt>
      <trkpt lat="45.16406" lon="5.94317">
        <ele>2104.4250488281</ele>
        <time>2017-05-05T08:05:08Z</time>
      </trkpt>
      <trkpt lat="45.16406" lon="5.94324">
        <ele>2104.4250488281</ele>
        <time>2017-05-05T08:05:15Z</time>
      </trkpt>
      <trkpt lat="45.16408" lon="5.9433">
        <ele>2106.4250488281</ele>
        <time>2017-05-05T08:05:20Z</time>
      </trkpt>
      <trkpt lat="45.16408" lon="5.94337">
        <ele>2105.4250488281</ele>
        <time>2017-05-05T08:05:25Z</time>
      </trkpt>
      <trkpt lat="45.16409" lon="5.94345">
        <ele>2108.4250488281</ele>
        <time>2017-05-05T08:05:33Z</time>
      </trkpt>
      <trkpt lat="45.16412" lon="5.94351">
        <ele>2113.4250488281</ele>
        <time>2017-05-05T08:05:38Z</time>
      </trkpt>
      <trkpt lat="45.16408" lon="5.94356">
        <ele>2113.4250488281</ele>
        <time>2017-05-05T08:05:44Z</time>
      </trkpt>
      <trkpt lat="45.1641" lon="5.94364">
        <ele>2116.4250488281</ele>
        <time>2017-05-05T08:05:51Z</time>
      </trkpt>
      <trkpt lat="45.1641" lon="5.94371">
        <ele>2118.4250488281</ele>
        <time>2017-05-05T08:06:00Z</time>
      </trkpt>
      <trkpt lat="45.16408" lon="5.94376">
        <ele>2119.4250488281</ele>
        <time>2017-05-05T08:06:04Z</time>
      </trkpt>
      <trkpt lat="45.16408" lon="5.94383">
        <ele>2119.4250488281</ele>
        <time>2017-05-05T08:06:10Z</time>
      </trkpt>
      <trkpt lat="45.16408" lon="5.9439">
        <ele>2119.4250488281</ele>
        <time>2017-05-05T08:06:18Z</time>
      </trkpt>
      <trkpt lat="45.16406" lon="5.94397">
        <ele>2120.4250488281</ele>
        <time>2017-05-05T08:06:24Z</time>
      </trkpt>
      <trkpt lat="45.16405" lon="5.94403">
        <ele>2120.4250488281</ele>
        <time>2017-05-05T08:06:30Z</time>
      </trkpt>
      <trkpt lat="45.16403" lon="5.9441">
        <ele>2123.4250488281</ele>
        <time>2017-05-05T08:06:35Z</time>
      </trkpt>
      <trkpt lat="45.16403" lon="5.94417">
        <ele>2125.4250488281</ele>
        <time>2017-05-05T08:06:43Z</time>
      </trkpt>
      <trkpt lat="45.16399" lon="5.94414">
        <ele>2126.4250488281</ele>
        <time>2017-05-05T08:06:54Z</time>
      </trkpt>
      <trkpt lat="45.16395" lon="5.94408">
        <ele>2127.4250488281</ele>
        <time>2017-05-05T08:07:00Z</time>
      </trkpt>
      <trkpt lat="45.16391" lon="5.94405">
        <ele>2128.4250488281</ele>
        <time>2017-05-05T08:07:06Z</time>
      </trkpt>
      <trkpt lat="45.16387" lon="5.94402">
        <ele>2129.4250488281</ele>
        <time>2017-05-05T08:07:12Z</time>
      </trkpt>
      <trkpt lat="45.16383" lon="5.94397">
        <ele>2128.4250488281</ele>
        <time>2017-05-05T08:07:17Z</time>
      </trkpt>
      <trkpt lat="45.1638" lon="5.94392">
        <ele>2131.4250488281</ele>
        <time>2017-05-05T08:07:24Z</time>
      </trkpt>
      <trkpt lat="45.16377" lon="5.94398">
        <ele>2134.4250488281</ele>
        <time>2017-05-05T08:07:41Z</time>
      </trkpt>
      <trkpt lat="45.16377" lon="5.94405">
        <ele>2136.4250488281</ele>
        <time>2017-05-05T08:07:47Z</time>
      </trkpt>
      <trkpt lat="45.16377" lon="5.94412">
        <ele>2135.4250488281</ele>
        <time>2017-05-05T08:07:54Z</time>
      </trkpt>
      <trkpt lat="45.16377" lon="5.94419">
        <ele>2137.4250488281</ele>
        <time>2017-05-05T08:07:59Z</time>
      </trkpt>
      <trkpt lat="45.16375" lon="5.94426">
        <ele>2136.4250488281</ele>
        <time>2017-05-05T08:08:04Z</time>
      </trkpt>
      <trkpt lat="45.16376" lon="5.94433">
        <ele>2139.4250488281</ele>
        <time>2017-05-05T08:08:10Z</time>
      </trkpt>
      <trkpt lat="45.16374" lon="5.94438">
        <ele>2138.4250488281</ele>
        <time>2017-05-05T08:08:15Z</time>
      </trkpt>
      <trkpt lat="45.16378" lon="5.94443">
        <ele>2138.4250488281</ele>
        <time>2017-05-05T08:08:20Z</time>
      </trkpt>
      <trkpt lat="45.16378" lon="5.9445">
        <ele>2137.4250488281</ele>
        <time>2017-05-05T08:08:26Z</time>
      </trkpt>
      <trkpt lat="45.1638" lon="5.94456">
        <ele>2141.4250488281</ele>
        <time>2017-05-05T08:08:32Z</time>
      </trkpt>
      <trkpt lat="45.16381" lon="5.94463">
        <ele>2141.4250488281</ele>
        <time>2017-05-05T08:08:38Z</time>
      </trkpt>
      <trkpt lat="45.16381" lon="5.9447">
        <ele>2140.4250488281</ele>
        <time>2017-05-05T08:08:43Z</time>
      </trkpt>
      <trkpt lat="45.16383" lon="5.94477">
        <ele>2144.4250488281</ele>
        <time>2017-05-05T08:08:49Z</time>
      </trkpt>
      <trkpt lat="45.16383" lon="5.94483">
        <ele>2144.4250488281</ele>
        <time>2017-05-05T08:08:54Z</time>
      </trkpt>
      <trkpt lat="45.16385" lon="5.9449">
        <ele>2144.4250488281</ele>
        <time>2017-05-05T08:09:01Z</time>
      </trkpt>
      <trkpt lat="45.16386" lon="5.94496">
        <ele>2145.4250488281</ele>
        <time>2017-05-05T08:09:07Z</time>
      </trkpt>
      <trkpt lat="45.16387" lon="5.94503">
        <ele>2146.4250488281</ele>
        <time>2017-05-05T08:09:12Z</time>
      </trkpt>
      <trkpt lat="45.16389" lon="5.94509">
        <ele>2149.4250488281</ele>
        <time>2017-05-05T08:09:18Z</time>
      </trkpt>
      <trkpt lat="45.1639" lon="5.94516">
        <ele>2151.4250488281</ele>
        <time>2017-05-05T08:09:25Z</time>
      </trkpt>
      <trkpt lat="45.16392" lon="5.94524">
        <ele>2152.4250488281</ele>
        <time>2017-05-05T08:09:33Z</time>
      </trkpt>
      <trkpt lat="45.16394" lon="5.94529">
        <ele>2155.4250488281</ele>
        <time>2017-05-05T08:09:40Z</time>
      </trkpt>
      <trkpt lat="45.16391" lon="5.94535">
        <ele>2155.4250488281</ele>
        <time>2017-05-05T08:09:50Z</time>
      </trkpt>
      <trkpt lat="45.16386" lon="5.94538">
        <ele>2155.4250488281</ele>
        <time>2017-05-05T08:09:56Z</time>
      </trkpt>
      <trkpt lat="45.16381" lon="5.94537">
        <ele>2157.4250488281</ele>
        <time>2017-05-05T08:10:04Z</time>
      </trkpt>
      <trkpt lat="45.16376" lon="5.94538">
        <ele>2160.4250488281</ele>
        <time>2017-05-05T08:10:11Z</time>
      </trkpt>
      <trkpt lat="45.16371" lon="5.94539">
        <ele>2162.4250488281</ele>
        <time>2017-05-05T08:10:17Z</time>
      </trkpt>
      <trkpt lat="45.16366" lon="5.94538">
        <ele>2163.4250488281</ele>
        <time>2017-05-05T08:10:24Z</time>
      </trkpt>
      <trkpt lat="45.16362" lon="5.94537">
        <ele>2165.4250488281</ele>
        <time>2017-05-05T08:10:30Z</time>
      </trkpt>
      <trkpt lat="45.16356" lon="5.94538">
        <ele>2166.4250488281</ele>
        <time>2017-05-05T08:10:37Z</time>
      </trkpt>
      <trkpt lat="45.16352" lon="5.94541">
        <ele>2167.4250488281</ele>
        <time>2017-05-05T08:10:44Z</time>
      </trkpt>
      <trkpt lat="45.16347" lon="5.94544">
        <ele>2171.4250488281</ele>
        <time>2017-05-05T08:11:15Z</time>
      </trkpt>
      <trkpt lat="45.1635" lon="5.94539">
        <ele>2176.4250488281</ele>
        <time>2017-05-05T08:17:01Z</time>
      </trkpt>
      <trkpt lat="45.16354" lon="5.94547">
        <ele>2176.4250488281</ele>
        <time>2017-05-05T08:18:24Z</time>
      </trkpt>
      <trkpt lat="45.16355" lon="5.94554">
        <ele>2175.4250488281</ele>
        <time>2017-05-05T08:18:29Z</time>
      </trkpt>
      <trkpt lat="45.16358" lon="5.9456">
        <ele>2175.4250488281</ele>
        <time>2017-05-05T08:18:36Z</time>
      </trkpt>
      <trkpt lat="45.16362" lon="5.94565">
        <ele>2175.4250488281</ele>
        <time>2017-05-05T08:18:41Z</time>
      </trkpt>
      <trkpt lat="45.16365" lon="5.9457">
        <ele>2176.4250488281</ele>
        <time>2017-05-05T08:18:44Z</time>
      </trkpt>
      <trkpt lat="45.16368" lon="5.94575">
        <ele>2176.4250488281</ele>
        <time>2017-05-05T08:18:48Z</time>
      </trkpt>
      <trkpt lat="45.16372" lon="5.9458">
        <ele>2175.4250488281</ele>
        <time>2017-05-05T08:18:52Z</time>
      </trkpt>
      <trkpt lat="45.16377" lon="5.94584">
        <ele>2176.4250488281</ele>
        <time>2017-05-05T08:18:57Z</time>
      </trkpt>
      <trkpt lat="45.16381" lon="5.94586">
        <ele>2175.4250488281</ele>
        <time>2017-05-05T08:19:03Z</time>
      </trkpt>
      <trkpt lat="45.16385" lon="5.94586">
        <ele>2177.4250488281</ele>
        <time>2017-05-05T08:19:07Z</time>
      </trkpt>
      <trkpt lat="45.1639" lon="5.94589">
        <ele>2176.4250488281</ele>
        <time>2017-05-05T08:19:15Z</time>
      </trkpt>
      <trkpt lat="45.16395" lon="5.9459">
        <ele>2178.4250488281</ele>
        <time>2017-05-05T08:19:19Z</time>
      </trkpt>
      <trkpt lat="45.164" lon="5.94589">
        <ele>2181.4250488281</ele>
        <time>2017-05-05T08:19:24Z</time>
      </trkpt>
      <trkpt lat="45.16405" lon="5.9459">
        <ele>2183.4250488281</ele>
        <time>2017-05-05T08:19:33Z</time>
      </trkpt>
      <trkpt lat="45.16407" lon="5.94596">
        <ele>2185.4250488281</ele>
        <time>2017-05-05T08:19:41Z</time>
      </trkpt>
      <trkpt lat="45.16411" lon="5.946">
        <ele>2185.4250488281</ele>
        <time>2017-05-05T08:19:46Z</time>
      </trkpt>
      <trkpt lat="45.16415" lon="5.946">
        <ele>2185.4250488281</ele>
        <time>2017-05-05T08:19:50Z</time>
      </trkpt>
      <trkpt lat="45.1642" lon="5.946">
        <ele>2188.4250488281</ele>
        <time>2017-05-05T08:19:54Z</time>
      </trkpt>
      <trkpt lat="45.16424" lon="5.94603">
        <ele>2189.4250488281</ele>
        <time>2017-05-05T08:20:02Z</time>
      </trkpt>
      <trkpt lat="45.16429" lon="5.94605">
        <ele>2189.4250488281</ele>
        <time>2017-05-05T08:20:08Z</time>
      </trkpt>
      <trkpt lat="45.16434" lon="5.94608">
        <ele>2189.4250488281</ele>
        <time>2017-05-05T08:20:16Z</time>
      </trkpt>
      <trkpt lat="45.16439" lon="5.94611">
        <ele>2189.4250488281</ele>
        <time>2017-05-05T08:20:22Z</time>
      </trkpt>
      <trkpt lat="45.16443" lon="5.94615">
        <ele>2186.4250488281</ele>
        <time>2017-05-05T08:20:28Z</time>
      </trkpt>
      <trkpt lat="45.16448" lon="5.94617">
        <ele>2186.4250488281</ele>
        <time>2017-05-05T08:20:32Z</time>
      </trkpt>
      <trkpt lat="45.16453" lon="5.94622">
        <ele>2190.4250488281</ele>
        <time>2017-05-05T08:20:39Z</time>
      </trkpt>
      <trkpt lat="45.16457" lon="5.94626">
        <ele>2192.4250488281</ele>
        <time>2017-05-05T08:20:46Z</time>
      </trkpt>
      <trkpt lat="45.16459" lon="5.94632">
        <ele>2195.4250488281</ele>
        <time>2017-05-05T08:20:52Z</time>
      </trkpt>
      <trkpt lat="45.16464" lon="5.94634">
        <ele>2193.4250488281</ele>
        <time>2017-05-05T08:20:58Z</time>
      </trkpt>
      <trkpt lat="45.16468" lon="5.94638">
        <ele>2193.4250488281</ele>
        <time>2017-05-05T08:21:02Z</time>
      </trkpt>
      <trkpt lat="45.16471" lon="5.94644">
        <ele>2195.4250488281</ele>
        <time>2017-05-05T08:21:11Z</time>
      </trkpt>
      <trkpt lat="45.16475" lon="5.9465">
        <ele>2192.4250488281</ele>
        <time>2017-05-05T08:21:19Z</time>
      </trkpt>
      <trkpt lat="45.16475" lon="5.94657">
        <ele>2195.4250488281</ele>
        <time>2017-05-05T08:21:25Z</time>
      </trkpt>
      <trkpt lat="45.16479" lon="5.94661">
        <ele>2197.4250488281</ele>
        <time>2017-05-05T08:21:30Z</time>
      </trkpt>
      <trkpt lat="45.16482" lon="5.94669">
        <ele>2197.4250488281</ele>
        <time>2017-05-05T08:21:36Z</time>
      </trkpt>
      <trkpt lat="45.16485" lon="5.94674">
        <ele>2195.4250488281</ele>
        <time>2017-05-05T08:21:42Z</time>
      </trkpt>
      <trkpt lat="45.16486" lon="5.94681">
        <ele>2194.4250488281</ele>
        <time>2017-05-05T08:21:48Z</time>
      </trkpt>
      <trkpt lat="45.16486" lon="5.9469">
        <ele>2194.4250488281</ele>
        <time>2017-05-05T08:21:52Z</time>
      </trkpt>
      <trkpt lat="45.16486" lon="5.94697">
        <ele>2194.4250488281</ele>
        <time>2017-05-05T08:21:55Z</time>
      </trkpt>
      <trkpt lat="45.16486" lon="5.94707">
        <ele>2193.4250488281</ele>
        <time>2017-05-05T08:21:58Z</time>
      </trkpt>
      <trkpt lat="45.16486" lon="5.94721">
        <ele>2193.4250488281</ele>
        <time>2017-05-05T08:22:01Z</time>
      </trkpt>
      <trkpt lat="45.16483" lon="5.94731">
        <ele>2191.4250488281</ele>
        <time>2017-05-05T08:22:05Z</time>
      </trkpt>
      <trkpt lat="45.16482" lon="5.9474">
        <ele>2193.4260253906</ele>
        <time>2017-05-05T08:22:09Z</time>
      </trkpt>
      <trkpt lat="45.1648" lon="5.94748">
        <ele>2195.4260253906</ele>
        <time>2017-05-05T08:22:12Z</time>
      </trkpt>
      <trkpt lat="45.1648" lon="5.94756">
        <ele>2193.4260253906</ele>
        <time>2017-05-05T08:22:17Z</time>
      </trkpt>
      <trkpt lat="45.16479" lon="5.94764">
        <ele>2196.4260253906</ele>
        <time>2017-05-05T08:22:20Z</time>
      </trkpt>
      <trkpt lat="45.16479" lon="5.94771">
        <ele>2196.4260253906</ele>
        <time>2017-05-05T08:22:26Z</time>
      </trkpt>
      <trkpt lat="45.16475" lon="5.94776">
        <ele>2195.4260253906</ele>
        <time>2017-05-05T08:22:30Z</time>
      </trkpt>
      <trkpt lat="45.16471" lon="5.94779">
        <ele>2192.4260253906</ele>
        <time>2017-05-05T08:22:39Z</time>
      </trkpt>
      <trkpt lat="45.16473" lon="5.94785">
        <ele>2197.4260253906</ele>
        <time>2017-05-05T08:22:52Z</time>
      </trkpt>
      <trkpt lat="45.16477" lon="5.94789">
        <ele>2196.4260253906</ele>
        <time>2017-05-05T08:23:00Z</time>
      </trkpt>
      <trkpt lat="45.1648" lon="5.94795">
        <ele>2194.4260253906</ele>
        <time>2017-05-05T08:23:05Z</time>
      </trkpt>
      <trkpt lat="45.16482" lon="5.948">
        <ele>2197.4260253906</ele>
        <time>2017-05-05T08:23:13Z</time>
      </trkpt>
      <trkpt lat="45.16485" lon="5.94806">
        <ele>2198.4260253906</ele>
        <time>2017-05-05T08:23:20Z</time>
      </trkpt>
      <trkpt lat="45.16489" lon="5.94811">
        <ele>2200.4260253906</ele>
        <time>2017-05-05T08:23:29Z</time>
      </trkpt>
      <trkpt lat="45.16492" lon="5.94817">
        <ele>2195.4260253906</ele>
        <time>2017-05-05T08:23:38Z</time>
      </trkpt>
      <trkpt lat="45.1649" lon="5.94823">
        <ele>2204.4260253906</ele>
        <time>2017-05-05T08:23:53Z</time>
      </trkpt>
      <trkpt lat="45.16485" lon="5.94823">
        <ele>2206.4260253906</ele>
        <time>2017-05-05T08:24:01Z</time>
      </trkpt>
      <trkpt lat="45.1648" lon="5.94824">
        <ele>2203.4260253906</ele>
        <time>2017-05-05T08:24:08Z</time>
      </trkpt>
      <trkpt lat="45.16476" lon="5.94823">
        <ele>2203.4260253906</ele>
        <time>2017-05-05T08:24:12Z</time>
      </trkpt>
      <trkpt lat="45.16471" lon="5.94821">
        <ele>2204.4260253906</ele>
        <time>2017-05-05T08:24:16Z</time>
      </trkpt>
      <trkpt lat="45.16466" lon="5.94823">
        <ele>2203.4260253906</ele>
        <time>2017-05-05T08:24:24Z</time>
      </trkpt>
      <trkpt lat="45.16461" lon="5.94822">
        <ele>2206.4260253906</ele>
        <time>2017-05-05T08:24:28Z</time>
      </trkpt>
      <trkpt lat="45.16456" lon="5.9482">
        <ele>2206.4260253906</ele>
        <time>2017-05-05T08:24:33Z</time>
      </trkpt>
      <trkpt lat="45.16451" lon="5.94818">
        <ele>2206.4260253906</ele>
        <time>2017-05-05T08:24:38Z</time>
      </trkpt>
      <trkpt lat="45.16447" lon="5.94816">
        <ele>2211.4260253906</ele>
        <time>2017-05-05T08:24:42Z</time>
      </trkpt>
      <trkpt lat="45.16443" lon="5.94812">
        <ele>2216.4260253906</ele>
        <time>2017-05-05T08:24:45Z</time>
      </trkpt>
      <trkpt lat="45.16438" lon="5.94816">
        <ele>2216.4260253906</ele>
        <time>2017-05-05T08:24:53Z</time>
      </trkpt>
      <trkpt lat="45.16432" lon="5.94816">
        <ele>2215.4260253906</ele>
        <time>2017-05-05T08:24:57Z</time>
      </trkpt>
      <trkpt lat="45.16427" lon="5.94821">
        <ele>2216.4260253906</ele>
        <time>2017-05-05T08:25:02Z</time>
      </trkpt>
      <trkpt lat="45.16431" lon="5.94826">
        <ele>2216.4260253906</ele>
        <time>2017-05-05T08:25:13Z</time>
      </trkpt>
      <trkpt lat="45.16435" lon="5.94829">
        <ele>2221.4260253906</ele>
        <time>2017-05-05T08:25:21Z</time>
      </trkpt>
      <trkpt lat="45.1644" lon="5.94831">
        <ele>2225.4260253906</ele>
        <time>2017-05-05T08:25:35Z</time>
      </trkpt>
      <trkpt lat="45.16445" lon="5.94831">
        <ele>2227.4260253906</ele>
        <time>2017-05-05T08:25:42Z</time>
      </trkpt>
      <trkpt lat="45.16442" lon="5.94838">
        <ele>2227.4260253906</ele>
        <time>2017-05-05T08:25:51Z</time>
      </trkpt>
      <trkpt lat="45.16438" lon="5.94841">
        <ele>2228.4260253906</ele>
        <time>2017-05-05T08:25:56Z</time>
      </trkpt>
      <trkpt lat="45.16437" lon="5.94847">
        <ele>2233.4260253906</ele>
        <time>2017-05-05T08:26:18Z</time>
      </trkpt>
      <trkpt lat="45.16441" lon="5.94852">
        <ele>2232.4260253906</ele>
        <time>2017-05-05T08:26:23Z</time>
      </trkpt>
      <trkpt lat="45.16446" lon="5.94853">
        <ele>2234.4260253906</ele>
        <time>2017-05-05T08:26:30Z</time>
      </trkpt>
      <trkpt lat="45.16451" lon="5.94854">
        <ele>2231.4260253906</ele>
        <time>2017-05-05T08:26:37Z</time>
      </trkpt>
      <trkpt lat="45.16455" lon="5.94854">
        <ele>2235.4260253906</ele>
        <time>2017-05-05T08:26:42Z</time>
      </trkpt>
      <trkpt lat="45.16459" lon="5.9486">
        <ele>2238.4260253906</ele>
        <time>2017-05-05T08:26:49Z</time>
      </trkpt>
      <trkpt lat="45.16463" lon="5.94863">
        <ele>2243.4260253906</ele>
        <time>2017-05-05T08:26:55Z</time>
      </trkpt>
      <trkpt lat="45.16467" lon="5.94865">
        <ele>2242.4260253906</ele>
        <time>2017-05-05T08:27:03Z</time>
      </trkpt>
      <trkpt lat="45.1647" lon="5.94871">
        <ele>2241.4260253906</ele>
        <time>2017-05-05T08:27:18Z</time>
      </trkpt>
      <trkpt lat="45.16473" lon="5.94876">
        <ele>2242.4260253906</ele>
        <time>2017-05-05T08:27:21Z</time>
      </trkpt>
      <trkpt lat="45.16476" lon="5.94882">
        <ele>2245.4260253906</ele>
        <time>2017-05-05T08:27:27Z</time>
      </trkpt>
      <trkpt lat="45.16478" lon="5.94889">
        <ele>2248.4260253906</ele>
        <time>2017-05-05T08:27:32Z</time>
      </trkpt>
      <trkpt lat="45.16482" lon="5.94893">
        <ele>2248.4260253906</ele>
        <time>2017-05-05T08:27:38Z</time>
      </trkpt>
      <trkpt lat="45.16484" lon="5.949">
        <ele>2250.4260253906</ele>
        <time>2017-05-05T08:27:44Z</time>
      </trkpt>
      <trkpt lat="45.16486" lon="5.94906">
        <ele>2248.4260253906</ele>
        <time>2017-05-05T08:27:51Z</time>
      </trkpt>
      <trkpt lat="45.16491" lon="5.9491">
        <ele>2253.4260253906</ele>
        <time>2017-05-05T08:28:02Z</time>
      </trkpt>
      <trkpt lat="45.16494" lon="5.94914">
        <ele>2253.4260253906</ele>
        <time>2017-05-05T08:28:08Z</time>
      </trkpt>
      <trkpt lat="45.16496" lon="5.94921">
        <ele>2254.4260253906</ele>
        <time>2017-05-05T08:28:12Z</time>
      </trkpt>
      <trkpt lat="45.165" lon="5.94927">
        <ele>2252.4260253906</ele>
        <time>2017-05-05T08:28:20Z</time>
      </trkpt>
      <trkpt lat="45.16504" lon="5.94932">
        <ele>2256.4260253906</ele>
        <time>2017-05-05T08:28:26Z</time>
      </trkpt>
      <trkpt lat="45.16508" lon="5.94934">
        <ele>2258.4260253906</ele>
        <time>2017-05-05T08:28:32Z</time>
      </trkpt>
      <trkpt lat="45.16512" lon="5.9494">
        <ele>2263.4260253906</ele>
        <time>2017-05-05T08:28:41Z</time>
      </trkpt>
      <trkpt lat="45.16517" lon="5.9494">
        <ele>2261.4260253906</ele>
        <time>2017-05-05T08:28:53Z</time>
      </trkpt>
      <trkpt lat="45.16521" lon="5.94945">
        <ele>2262.4260253906</ele>
        <time>2017-05-05T08:29:02Z</time>
      </trkpt>
      <trkpt lat="45.16525" lon="5.9495">
        <ele>2260.4260253906</ele>
        <time>2017-05-05T08:29:08Z</time>
      </trkpt>
      <trkpt lat="45.16525" lon="5.94957">
        <ele>2257.4260253906</ele>
        <time>2017-05-05T08:29:14Z</time>
      </trkpt>
      <trkpt lat="45.16529" lon="5.94961">
        <ele>2257.4260253906</ele>
        <time>2017-05-05T08:29:20Z</time>
      </trkpt>
      <trkpt lat="45.16533" lon="5.94966">
        <ele>2258.4260253906</ele>
        <time>2017-05-05T08:29:28Z</time>
      </trkpt>
      <trkpt lat="45.16534" lon="5.94972">
        <ele>2257.4260253906</ele>
        <time>2017-05-05T08:29:34Z</time>
      </trkpt>
      <trkpt lat="45.16535" lon="5.9498">
        <ele>2259.4260253906</ele>
        <time>2017-05-05T08:29:41Z</time>
      </trkpt>
      <trkpt lat="45.16535" lon="5.94986">
        <ele>2261.4260253906</ele>
        <time>2017-05-05T08:29:48Z</time>
      </trkpt>
      <trkpt lat="45.16538" lon="5.94992">
        <ele>2261.4260253906</ele>
        <time>2017-05-05T08:29:52Z</time>
      </trkpt>
      <trkpt lat="45.16543" lon="5.94996">
        <ele>2266.4260253906</ele>
        <time>2017-05-05T08:29:56Z</time>
      </trkpt>
      <trkpt lat="45.16546" lon="5.95002">
        <ele>2264.4260253906</ele>
        <time>2017-05-05T08:30:03Z</time>
      </trkpt>
      <trkpt lat="45.16546" lon="5.95009">
        <ele>2267.4260253906</ele>
        <time>2017-05-05T08:30:08Z</time>
      </trkpt>
      <trkpt lat="45.16549" lon="5.95016">
        <ele>2270.4260253906</ele>
        <time>2017-05-05T08:30:13Z</time>
      </trkpt>
      <trkpt lat="45.16548" lon="5.95023">
        <ele>2272.4260253906</ele>
        <time>2017-05-05T08:30:18Z</time>
      </trkpt>
      <trkpt lat="45.16549" lon="5.95029">
        <ele>2269.4260253906</ele>
        <time>2017-05-05T08:30:23Z</time>
      </trkpt>
      <trkpt lat="45.16553" lon="5.9502">
        <ele>2269.4260253906</ele>
        <time>2017-05-05T08:30:26Z</time>
      </trkpt>
      <trkpt lat="45.16553" lon="5.95027">
        <ele>2270.4260253906</ele>
        <time>2017-05-05T08:30:30Z</time>
      </trkpt>
      <trkpt lat="45.16552" lon="5.95034">
        <ele>2269.4260253906</ele>
        <time>2017-05-05T08:30:37Z</time>
      </trkpt>
      <trkpt lat="45.16558" lon="5.95035">
        <ele>2269.4260253906</ele>
        <time>2017-05-05T08:30:43Z</time>
      </trkpt>
      <trkpt lat="45.16553" lon="5.95039">
        <ele>2272.4260253906</ele>
        <time>2017-05-05T08:30:48Z</time>
      </trkpt>
      <trkpt lat="45.16556" lon="5.95045">
        <ele>2269.4260253906</ele>
        <time>2017-05-05T08:31:17Z</time>
      </trkpt>
      <trkpt lat="45.1655" lon="5.95046">
        <ele>2269.4260253906</ele>
        <time>2017-05-05T08:31:19Z</time>
      </trkpt>
      <trkpt lat="45.16551" lon="5.95039">
        <ele>2267.4260253906</ele>
        <time>2017-05-05T08:31:21Z</time>
      </trkpt>
      <trkpt lat="45.16544" lon="5.95036">
        <ele>2273.4260253906</ele>
        <time>2017-05-05T08:31:24Z</time>
      </trkpt>
      <trkpt lat="45.16541" lon="5.95041">
        <ele>2276.4260253906</ele>
        <time>2017-05-05T08:31:26Z</time>
      </trkpt>
      <trkpt lat="45.16543" lon="5.95048">
        <ele>2275.4260253906</ele>
        <time>2017-05-05T08:31:32Z</time>
      </trkpt>
      <trkpt lat="45.16538" lon="5.95054">
        <ele>2272.4260253906</ele>
        <time>2017-05-05T08:31:38Z</time>
      </trkpt>
      <trkpt lat="45.16544" lon="5.95055">
        <ele>2273.4260253906</ele>
        <time>2017-05-05T08:31:41Z</time>
      </trkpt>
      <trkpt lat="45.16545" lon="5.95062">
        <ele>2272.4260253906</ele>
        <time>2017-05-05T08:31:48Z</time>
      </trkpt>
      <trkpt lat="45.16544" lon="5.95069">
        <ele>2271.4260253906</ele>
        <time>2017-05-05T08:31:53Z</time>
      </trkpt>
      <trkpt lat="45.16546" lon="5.95075">
        <ele>2272.4260253906</ele>
        <time>2017-05-05T08:31:57Z</time>
      </trkpt>
      <trkpt lat="45.16551" lon="5.95076">
        <ele>2270.4260253906</ele>
        <time>2017-05-05T08:32:02Z</time>
      </trkpt>
      <trkpt lat="45.16555" lon="5.95081">
        <ele>2269.4260253906</ele>
        <time>2017-05-05T08:32:23Z</time>
      </trkpt>
      <trkpt lat="45.16566" lon="5.95084">
        <ele>2267.4260253906</ele>
        <time>2017-05-05T08:32:25Z</time>
      </trkpt>
      <trkpt lat="45.16573" lon="5.95087">
        <ele>2265.4260253906</ele>
        <time>2017-05-05T08:32:26Z</time>
      </trkpt>
      <trkpt lat="45.16588" lon="5.9509">
        <ele>2262.4260253906</ele>
        <time>2017-05-05T08:32:28Z</time>
      </trkpt>
      <trkpt lat="45.16597" lon="5.95088">
        <ele>2259.4260253906</ele>
        <time>2017-05-05T08:32:34Z</time>
      </trkpt>
      <trkpt lat="45.166" lon="5.95083">
        <ele>2261.4260253906</ele>
        <time>2017-05-05T08:32:49Z</time>
      </trkpt>
      <trkpt lat="45.16603" lon="5.95076">
        <ele>2262.4260253906</ele>
        <time>2017-05-05T08:32:54Z</time>
      </trkpt>
      <trkpt lat="45.16607" lon="5.95072">
        <ele>2262.4260253906</ele>
        <time>2017-05-05T08:32:59Z</time>
      </trkpt>
      <trkpt lat="45.16611" lon="5.9507">
        <ele>2264.4260253906</ele>
        <time>2017-05-05T08:33:05Z</time>
      </trkpt>
      <trkpt lat="45.16616" lon="5.95068">
        <ele>2268.4260253906</ele>
        <time>2017-05-05T08:33:09Z</time>
      </trkpt>
      <trkpt lat="45.16622" lon="5.95066">
        <ele>2267.4260253906</ele>
        <time>2017-05-05T08:33:13Z</time>
      </trkpt>
      <trkpt lat="45.16627" lon="5.95067">
        <ele>2266.4260253906</ele>
        <time>2017-05-05T08:33:16Z</time>
      </trkpt>
      <trkpt lat="45.16631" lon="5.95069">
        <ele>2266.4260253906</ele>
        <time>2017-05-05T08:33:19Z</time>
      </trkpt>
      <trkpt lat="45.16636" lon="5.95071">
        <ele>2262.4260253906</ele>
        <time>2017-05-05T08:33:23Z</time>
      </trkpt>
      <trkpt lat="45.1664" lon="5.95073">
        <ele>2259.4260253906</ele>
        <time>2017-05-05T08:33:26Z</time>
      </trkpt>
      <trkpt lat="45.16644" lon="5.95078">
        <ele>2258.4260253906</ele>
        <time>2017-05-05T08:33:29Z</time>
      </trkpt>
      <trkpt lat="45.16648" lon="5.95084">
        <ele>2257.4260253906</ele>
        <time>2017-05-05T08:33:35Z</time>
      </trkpt>
      <trkpt lat="45.16651" lon="5.9509">
        <ele>2260.4260253906</ele>
        <time>2017-05-05T08:33:40Z</time>
      </trkpt>
      <trkpt lat="45.16657" lon="5.95094">
        <ele>2258.4260253906</ele>
        <time>2017-05-05T08:33:45Z</time>
      </trkpt>
      <trkpt lat="45.16661" lon="5.95095">
        <ele>2258.4260253906</ele>
        <time>2017-05-05T08:33:51Z</time>
      </trkpt>
      <trkpt lat="45.16665" lon="5.95099">
        <ele>2255.4260253906</ele>
        <time>2017-05-05T08:33:56Z</time>
      </trkpt>
      <trkpt lat="45.16668" lon="5.95104">
        <ele>2257.4260253906</ele>
        <time>2017-05-05T08:34:02Z</time>
      </trkpt>
      <trkpt lat="45.16671" lon="5.9511">
        <ele>2256.4260253906</ele>
        <time>2017-05-05T08:34:08Z</time>
      </trkpt>
      <trkpt lat="45.16675" lon="5.95113">
        <ele>2252.4260253906</ele>
        <time>2017-05-05T08:34:14Z</time>
      </trkpt>
      <trkpt lat="45.16678" lon="5.95118">
        <ele>2252.4260253906</ele>
        <time>2017-05-05T08:34:20Z</time>
      </trkpt>
      <trkpt lat="45.1668" lon="5.95124">
        <ele>2253.4260253906</ele>
        <time>2017-05-05T08:34:28Z</time>
      </trkpt>
      <trkpt lat="45.16684" lon="5.95129">
        <ele>2252.4260253906</ele>
        <time>2017-05-05T08:34:37Z</time>
      </trkpt>
      <trkpt lat="45.16687" lon="5.95135">
        <ele>2251.4260253906</ele>
        <time>2017-05-05T08:34:44Z</time>
      </trkpt>
      <trkpt lat="45.16686" lon="5.95142">
        <ele>2255.4260253906</ele>
        <time>2017-05-05T08:34:49Z</time>
      </trkpt>
      <trkpt lat="45.16685" lon="5.95148">
        <ele>2263.4270019531</ele>
        <time>2017-05-05T08:35:02Z</time>
      </trkpt>
      <trkpt lat="45.16687" lon="5.95155">
        <ele>2265.4270019531</ele>
        <time>2017-05-05T08:35:12Z</time>
      </trkpt>
      <trkpt lat="45.16688" lon="5.95163">
        <ele>2270.4270019531</ele>
        <time>2017-05-05T08:35:23Z</time>
      </trkpt>
      <trkpt lat="45.16688" lon="5.9517">
        <ele>2272.4270019531</ele>
        <time>2017-05-05T08:35:30Z</time>
      </trkpt>
      <trkpt lat="45.16689" lon="5.95177">
        <ele>2274.4270019531</ele>
        <time>2017-05-05T08:35:36Z</time>
      </trkpt>
      <trkpt lat="45.16689" lon="5.95184">
        <ele>2277.4270019531</ele>
        <time>2017-05-05T08:35:44Z</time>
      </trkpt>
      <trkpt lat="45.16691" lon="5.95191">
        <ele>2283.4270019531</ele>
        <time>2017-05-05T08:35:54Z</time>
      </trkpt>
      <trkpt lat="45.16692" lon="5.95197">
        <ele>2285.4270019531</ele>
        <time>2017-05-05T08:36:03Z</time>
      </trkpt>
      <trkpt lat="45.16693" lon="5.95204">
        <ele>2286.4270019531</ele>
        <time>2017-05-05T08:36:13Z</time>
      </trkpt>
      <trkpt lat="45.16694" lon="5.95212">
        <ele>2288.4270019531</ele>
        <time>2017-05-05T08:36:19Z</time>
      </trkpt>
      <trkpt lat="45.16693" lon="5.9522">
        <ele>2288.4270019531</ele>
        <time>2017-05-05T08:36:25Z</time>
      </trkpt>
      <trkpt lat="45.16694" lon="5.95226">
        <ele>2290.4270019531</ele>
        <time>2017-05-05T08:36:32Z</time>
      </trkpt>
      <trkpt lat="45.16698" lon="5.95223">
        <ele>2289.4270019531</ele>
        <time>2017-05-05T08:36:42Z</time>
      </trkpt>
      <trkpt lat="45.16702" lon="5.95218">
        <ele>2292.4270019531</ele>
        <time>2017-05-05T08:36:49Z</time>
      </trkpt>
      <trkpt lat="45.16706" lon="5.95212">
        <ele>2291.4270019531</ele>
        <time>2017-05-05T08:36:56Z</time>
      </trkpt>
      <trkpt lat="45.16709" lon="5.95207">
        <ele>2294.4270019531</ele>
        <time>2017-05-05T08:37:03Z</time>
      </trkpt>
      <trkpt lat="45.16713" lon="5.95201">
        <ele>2295.4270019531</ele>
        <time>2017-05-05T08:37:11Z</time>
      </trkpt>
      <trkpt lat="45.16715" lon="5.95208">
        <ele>2294.4270019531</ele>
        <time>2017-05-05T08:37:25Z</time>
      </trkpt>
      <trkpt lat="45.16714" lon="5.95215">
        <ele>2297.4270019531</ele>
        <time>2017-05-05T08:37:29Z</time>
      </trkpt>
      <trkpt lat="45.16713" lon="5.95221">
        <ele>2297.4270019531</ele>
        <time>2017-05-05T08:37:33Z</time>
      </trkpt>
      <trkpt lat="45.16711" lon="5.95228">
        <ele>2297.4270019531</ele>
        <time>2017-05-05T08:37:36Z</time>
      </trkpt>
      <trkpt lat="45.16711" lon="5.95235">
        <ele>2297.4270019531</ele>
        <time>2017-05-05T08:37:41Z</time>
      </trkpt>
      <trkpt lat="45.16708" lon="5.9524">
        <ele>2299.4270019531</ele>
        <time>2017-05-05T08:37:45Z</time>
      </trkpt>
      <trkpt lat="45.16705" lon="5.95246">
        <ele>2302.4270019531</ele>
        <time>2017-05-05T08:37:50Z</time>
      </trkpt>
      <trkpt lat="45.16702" lon="5.95252">
        <ele>2300.4270019531</ele>
        <time>2017-05-05T08:37:58Z</time>
      </trkpt>
      <trkpt lat="45.16699" lon="5.95259">
        <ele>2297.4270019531</ele>
        <time>2017-05-05T08:38:03Z</time>
      </trkpt>
      <trkpt lat="45.16696" lon="5.95265">
        <ele>2296.4270019531</ele>
        <time>2017-05-05T08:38:08Z</time>
      </trkpt>
      <trkpt lat="45.16692" lon="5.95267">
        <ele>2300.4270019531</ele>
        <time>2017-05-05T08:38:13Z</time>
      </trkpt>
      <trkpt lat="45.1669" lon="5.95272">
        <ele>2302.4270019531</ele>
        <time>2017-05-05T08:38:21Z</time>
      </trkpt>
      <trkpt lat="45.16686" lon="5.95277">
        <ele>2304.4270019531</ele>
        <time>2017-05-05T08:38:26Z</time>
      </trkpt>
      <trkpt lat="45.16684" lon="5.95283">
        <ele>2305.4270019531</ele>
        <time>2017-05-05T08:38:32Z</time>
      </trkpt>
      <trkpt lat="45.16686" lon="5.9529">
        <ele>2302.4270019531</ele>
        <time>2017-05-05T08:38:38Z</time>
      </trkpt>
      <trkpt lat="45.16688" lon="5.95296">
        <ele>2301.4270019531</ele>
        <time>2017-05-05T08:38:47Z</time>
      </trkpt>
      <trkpt lat="45.16686" lon="5.95302">
        <ele>2301.4270019531</ele>
        <time>2017-05-05T08:38:58Z</time>
      </trkpt>
      <trkpt lat="45.16682" lon="5.95307">
        <ele>2307.4270019531</ele>
        <time>2017-05-05T08:39:03Z</time>
      </trkpt>
      <trkpt lat="45.16679" lon="5.95313">
        <ele>2308.4270019531</ele>
        <time>2017-05-05T08:39:08Z</time>
      </trkpt>
      <trkpt lat="45.16674" lon="5.95315">
        <ele>2312.4270019531</ele>
        <time>2017-05-05T08:39:14Z</time>
      </trkpt>
      <trkpt lat="45.16669" lon="5.95321">
        <ele>2315.4270019531</ele>
        <time>2017-05-05T08:39:17Z</time>
      </trkpt>
      <trkpt lat="45.16664" lon="5.95321">
        <ele>2315.4270019531</ele>
        <time>2017-05-05T08:39:21Z</time>
      </trkpt>
      <trkpt lat="45.1666" lon="5.95324">
        <ele>2316.4270019531</ele>
        <time>2017-05-05T08:39:26Z</time>
      </trkpt>
      <trkpt lat="45.16654" lon="5.95329">
        <ele>2314.4270019531</ele>
        <time>2017-05-05T08:39:30Z</time>
      </trkpt>
      <trkpt lat="45.1665" lon="5.95332">
        <ele>2311.4270019531</ele>
        <time>2017-05-05T08:39:40Z</time>
      </trkpt>
      <trkpt lat="45.16647" lon="5.95338">
        <ele>2306.4270019531</ele>
        <time>2017-05-05T08:39:50Z</time>
      </trkpt>
      <trkpt lat="45.1664" lon="5.95338">
        <ele>2306.4270019531</ele>
        <time>2017-05-05T08:40:00Z</time>
      </trkpt>
      <trkpt lat="45.16634" lon="5.9534">
        <ele>2302.4270019531</ele>
        <time>2017-05-05T08:40:08Z</time>
      </trkpt>
      <trkpt lat="45.16628" lon="5.95341">
        <ele>2299.4270019531</ele>
        <time>2017-05-05T08:40:13Z</time>
      </trkpt>
      <trkpt lat="45.16622" lon="5.95339">
        <ele>2302.4270019531</ele>
        <time>2017-05-05T08:40:16Z</time>
      </trkpt>
      <trkpt lat="45.16616" lon="5.95338">
        <ele>2307.4270019531</ele>
        <time>2017-05-05T08:40:19Z</time>
      </trkpt>
      <trkpt lat="45.16611" lon="5.95336">
        <ele>2313.4270019531</ele>
        <time>2017-05-05T08:40:22Z</time>
      </trkpt>
      <trkpt lat="45.16607" lon="5.95333">
        <ele>2314.4270019531</ele>
        <time>2017-05-05T08:40:28Z</time>
      </trkpt>
      <trkpt lat="45.16605" lon="5.95328">
        <ele>2314.4270019531</ele>
        <time>2017-05-05T08:40:34Z</time>
      </trkpt>
      <trkpt lat="45.166" lon="5.95327">
        <ele>2320.4270019531</ele>
        <time>2017-05-05T08:40:39Z</time>
      </trkpt>
      <trkpt lat="45.16594" lon="5.95325">
        <ele>2319.4270019531</ele>
        <time>2017-05-05T08:40:45Z</time>
      </trkpt>
      <trkpt lat="45.16589" lon="5.95324">
        <ele>2320.4270019531</ele>
        <time>2017-05-05T08:40:48Z</time>
      </trkpt>
      <trkpt lat="45.16584" lon="5.95324">
        <ele>2319.4270019531</ele>
        <time>2017-05-05T08:40:52Z</time>
      </trkpt>
      <trkpt lat="45.16579" lon="5.95326">
        <ele>2315.4270019531</ele>
        <time>2017-05-05T08:40:56Z</time>
      </trkpt>
      <trkpt lat="45.16578" lon="5.9532">
        <ele>2317.4270019531</ele>
        <time>2017-05-05T08:41:04Z</time>
      </trkpt>
      <trkpt lat="45.16573" lon="5.95316">
        <ele>2320.4270019531</ele>
        <time>2017-05-05T08:41:12Z</time>
      </trkpt>
      <trkpt lat="45.16569" lon="5.95312">
        <ele>2324.4260253906</ele>
        <time>2017-05-05T08:41:22Z</time>
      </trkpt>
      <trkpt lat="45.16564" lon="5.95311">
        <ele>2323.4260253906</ele>
        <time>2017-05-05T08:41:29Z</time>
      </trkpt>
      <trkpt lat="45.1656" lon="5.95311">
        <ele>2321.4260253906</ele>
        <time>2017-05-05T08:41:35Z</time>
      </trkpt>
      <trkpt lat="45.16563" lon="5.95314">
        <ele>2331.4260253906</ele>
        <time>2017-05-05T08:41:56Z</time>
      </trkpt>
      <trkpt lat="45.16566" lon="5.9532">
        <ele>2334.4270019531</ele>
        <time>2017-05-05T08:42:03Z</time>
      </trkpt>
      <trkpt lat="45.1657" lon="5.95325">
        <ele>2337.4270019531</ele>
        <time>2017-05-05T08:42:11Z</time>
      </trkpt>
      <trkpt lat="45.16575" lon="5.95327">
        <ele>2343.4270019531</ele>
        <time>2017-05-05T08:42:29Z</time>
      </trkpt>
      <trkpt lat="45.16577" lon="5.95333">
        <ele>2343.4270019531</ele>
        <time>2017-05-05T08:42:40Z</time>
      </trkpt>
      <trkpt lat="45.16581" lon="5.95337">
        <ele>2345.4270019531</ele>
        <time>2017-05-05T08:42:48Z</time>
      </trkpt>
      <trkpt lat="45.16577" lon="5.95341">
        <ele>2343.4270019531</ele>
        <time>2017-05-05T08:42:55Z</time>
      </trkpt>
      <trkpt lat="45.16573" lon="5.95346">
        <ele>2345.4270019531</ele>
        <time>2017-05-05T08:43:05Z</time>
      </trkpt>
      <trkpt lat="45.16569" lon="5.95348">
        <ele>2344.4270019531</ele>
        <time>2017-05-05T08:43:11Z</time>
      </trkpt>
      <trkpt lat="45.16564" lon="5.95349">
        <ele>2348.4270019531</ele>
        <time>2017-05-05T08:43:21Z</time>
      </trkpt>
      <trkpt lat="45.16559" lon="5.9535">
        <ele>2344.4270019531</ele>
        <time>2017-05-05T08:43:31Z</time>
      </trkpt>
      <trkpt lat="45.16554" lon="5.95351">
        <ele>2343.4270019531</ele>
        <time>2017-05-05T08:44:20Z</time>
      </trkpt>
      <trkpt lat="45.1655" lon="5.95352">
        <ele>2342.4270019531</ele>
        <time>2017-05-05T08:44:25Z</time>
      </trkpt>
      <trkpt lat="45.16545" lon="5.95352">
        <ele>2344.4270019531</ele>
        <time>2017-05-05T08:44:32Z</time>
      </trkpt>
      <trkpt lat="45.1654" lon="5.95352">
        <ele>2342.4260253906</ele>
        <time>2017-05-05T08:44:37Z</time>
      </trkpt>
      <trkpt lat="45.16545" lon="5.95354">
        <ele>2350.4270019531</ele>
        <time>2017-05-05T08:44:45Z</time>
      </trkpt>
      <trkpt lat="45.16548" lon="5.95359">
        <ele>2356.4270019531</ele>
        <time>2017-05-05T08:44:52Z</time>
      </trkpt>
      <trkpt lat="45.16543" lon="5.95359">
        <ele>2357.4270019531</ele>
        <time>2017-05-05T08:45:01Z</time>
      </trkpt>
      <trkpt lat="45.16538" lon="5.95356">
        <ele>2356.4260253906</ele>
        <time>2017-05-05T08:45:07Z</time>
      </trkpt>
      <trkpt lat="45.16534" lon="5.9535">
        <ele>2357.4260253906</ele>
        <time>2017-05-05T08:45:19Z</time>
      </trkpt>
      <trkpt lat="45.16532" lon="5.95356">
        <ele>2359.4260253906</ele>
        <time>2017-05-05T08:45:31Z</time>
      </trkpt>
      <trkpt lat="45.1653" lon="5.95363">
        <ele>2361.4260253906</ele>
        <time>2017-05-05T08:45:39Z</time>
      </trkpt>
      <trkpt lat="45.16526" lon="5.95368">
        <ele>2365.4260253906</ele>
        <time>2017-05-05T08:45:44Z</time>
      </trkpt>
      <trkpt lat="45.16524" lon="5.95374">
        <ele>2370.4260253906</ele>
        <time>2017-05-05T08:45:50Z</time>
      </trkpt>
      <trkpt lat="45.16522" lon="5.95382">
        <ele>2368.4270019531</ele>
        <time>2017-05-05T08:45:57Z</time>
      </trkpt>
      <trkpt lat="45.16519" lon="5.95389">
        <ele>2364.4270019531</ele>
        <time>2017-05-05T08:46:02Z</time>
      </trkpt>
      <trkpt lat="45.16518" lon="5.95395">
        <ele>2365.4270019531</ele>
        <time>2017-05-05T08:46:05Z</time>
      </trkpt>
      <trkpt lat="45.16515" lon="5.95402">
        <ele>2367.4270019531</ele>
        <time>2017-05-05T08:46:09Z</time>
      </trkpt>
      <trkpt lat="45.16513" lon="5.95409">
        <ele>2368.4270019531</ele>
        <time>2017-05-05T08:46:13Z</time>
      </trkpt>
      <trkpt lat="45.16511" lon="5.95416">
        <ele>2364.4270019531</ele>
        <time>2017-05-05T08:46:19Z</time>
      </trkpt>
      <trkpt lat="45.16509" lon="5.95422">
        <ele>2365.4270019531</ele>
        <time>2017-05-05T08:46:23Z</time>
      </trkpt>
      <trkpt lat="45.16506" lon="5.95427">
        <ele>2362.4270019531</ele>
        <time>2017-05-05T08:46:30Z</time>
      </trkpt>
      <trkpt lat="45.16506" lon="5.95434">
        <ele>2363.4270019531</ele>
        <time>2017-05-05T08:46:34Z</time>
      </trkpt>
      <trkpt lat="45.16504" lon="5.9544">
        <ele>2363.4270019531</ele>
        <time>2017-05-05T08:46:38Z</time>
      </trkpt>
      <trkpt lat="45.16502" lon="5.95447">
        <ele>2367.4270019531</ele>
        <time>2017-05-05T08:46:42Z</time>
      </trkpt>
      <trkpt lat="45.16501" lon="5.95455">
        <ele>2368.4270019531</ele>
        <time>2017-05-05T08:46:46Z</time>
      </trkpt>
      <trkpt lat="45.16497" lon="5.95458">
        <ele>2368.4270019531</ele>
        <time>2017-05-05T08:46:51Z</time>
      </trkpt>
      <trkpt lat="45.16495" lon="5.95465">
        <ele>2372.4270019531</ele>
        <time>2017-05-05T08:46:55Z</time>
      </trkpt>
      <trkpt lat="45.16494" lon="5.95472">
        <ele>2371.4270019531</ele>
        <time>2017-05-05T08:47:00Z</time>
      </trkpt>
      <trkpt lat="45.16492" lon="5.95479">
        <ele>2374.4270019531</ele>
        <time>2017-05-05T08:47:07Z</time>
      </trkpt>
      <trkpt lat="45.16496" lon="5.95485">
        <ele>2371.4270019531</ele>
        <time>2017-05-05T08:47:12Z</time>
      </trkpt>
      <trkpt lat="45.16497" lon="5.95491">
        <ele>2373.4270019531</ele>
        <time>2017-05-05T08:47:15Z</time>
      </trkpt>
      <trkpt lat="45.16501" lon="5.95497">
        <ele>2373.4270019531</ele>
        <time>2017-05-05T08:47:20Z</time>
      </trkpt>
      <trkpt lat="45.16503" lon="5.95503">
        <ele>2372.4270019531</ele>
        <time>2017-05-05T08:47:27Z</time>
      </trkpt>
      <trkpt lat="45.16506" lon="5.95509">
        <ele>2373.4270019531</ele>
        <time>2017-05-05T08:47:30Z</time>
      </trkpt>
      <trkpt lat="45.1651" lon="5.95513">
        <ele>2367.4270019531</ele>
        <time>2017-05-05T08:47:36Z</time>
      </trkpt>
      <trkpt lat="45.16512" lon="5.95519">
        <ele>2366.4270019531</ele>
        <time>2017-05-05T08:47:41Z</time>
      </trkpt>
      <trkpt lat="45.16513" lon="5.95527">
        <ele>2362.4270019531</ele>
        <time>2017-05-05T08:47:49Z</time>
      </trkpt>
      <trkpt lat="45.16514" lon="5.95534">
        <ele>2363.4270019531</ele>
        <time>2017-05-05T08:47:53Z</time>
      </trkpt>
      <trkpt lat="45.16514" lon="5.95541">
        <ele>2366.4270019531</ele>
        <time>2017-05-05T08:47:57Z</time>
      </trkpt>
      <trkpt lat="45.16514" lon="5.95547">
        <ele>2367.4270019531</ele>
        <time>2017-05-05T08:48:03Z</time>
      </trkpt>
      <trkpt lat="45.16513" lon="5.95555">
        <ele>2371.4270019531</ele>
        <time>2017-05-05T08:48:08Z</time>
      </trkpt>
      <trkpt lat="45.16511" lon="5.95561">
        <ele>2375.4270019531</ele>
        <time>2017-05-05T08:48:13Z</time>
      </trkpt>
      <trkpt lat="45.16511" lon="5.95568">
        <ele>2378.4270019531</ele>
        <time>2017-05-05T08:48:19Z</time>
      </trkpt>
      <trkpt lat="45.16512" lon="5.95575">
        <ele>2378.4270019531</ele>
        <time>2017-05-05T08:48:23Z</time>
      </trkpt>
      <trkpt lat="45.16509" lon="5.95581">
        <ele>2377.4270019531</ele>
        <time>2017-05-05T08:48:33Z</time>
      </trkpt>
      <trkpt lat="45.16509" lon="5.95588">
        <ele>2381.4270019531</ele>
        <time>2017-05-05T08:48:40Z</time>
      </trkpt>
      <trkpt lat="45.16508" lon="5.95595">
        <ele>2376.4270019531</ele>
        <time>2017-05-05T08:48:49Z</time>
      </trkpt>
      <trkpt lat="45.16505" lon="5.95601">
        <ele>2378.4270019531</ele>
        <time>2017-05-05T08:48:54Z</time>
      </trkpt>
      <trkpt lat="45.16503" lon="5.95607">
        <ele>2380.4270019531</ele>
        <time>2017-05-05T08:48:58Z</time>
      </trkpt>
      <trkpt lat="45.16499" lon="5.95611">
        <ele>2387.4270019531</ele>
        <time>2017-05-05T08:54:13Z</time>
      </trkpt>
      <trkpt lat="45.16496" lon="5.95618">
        <ele>2387.4270019531</ele>
        <time>2017-05-05T08:54:21Z</time>
      </trkpt>
      <trkpt lat="45.16497" lon="5.95627">
        <ele>2384.4270019531</ele>
        <time>2017-05-05T08:54:25Z</time>
      </trkpt>
      <trkpt lat="45.16497" lon="5.95637">
        <ele>2382.4270019531</ele>
        <time>2017-05-05T08:54:28Z</time>
      </trkpt>
      <trkpt lat="45.16496" lon="5.95644">
        <ele>2379.4270019531</ele>
        <time>2017-05-05T08:54:31Z</time>
      </trkpt>
      <trkpt lat="45.16495" lon="5.9565">
        <ele>2379.4270019531</ele>
        <time>2017-05-05T08:54:33Z</time>
      </trkpt>
      <trkpt lat="45.16493" lon="5.95658">
        <ele>2377.4270019531</ele>
        <time>2017-05-05T08:54:35Z</time>
      </trkpt>
      <trkpt lat="45.16494" lon="5.95667">
        <ele>2373.4270019531</ele>
        <time>2017-05-05T08:54:38Z</time>
      </trkpt>
      <trkpt lat="45.16495" lon="5.95678">
        <ele>2375.4270019531</ele>
        <time>2017-05-05T08:54:41Z</time>
      </trkpt>
      <trkpt lat="45.16495" lon="5.95685">
        <ele>2377.4270019531</ele>
        <time>2017-05-05T08:54:44Z</time>
      </trkpt>
      <trkpt lat="45.16495" lon="5.95692">
        <ele>2380.4270019531</ele>
        <time>2017-05-05T08:54:47Z</time>
      </trkpt>
      <trkpt lat="45.16496" lon="5.957">
        <ele>2382.4270019531</ele>
        <time>2017-05-05T08:54:50Z</time>
      </trkpt>
      <trkpt lat="45.16495" lon="5.95707">
        <ele>2381.4270019531</ele>
        <time>2017-05-05T08:54:54Z</time>
      </trkpt>
      <trkpt lat="45.165" lon="5.95711">
        <ele>2381.4270019531</ele>
        <time>2017-05-05T08:55:01Z</time>
      </trkpt>
      <trkpt lat="45.16503" lon="5.95716">
        <ele>2383.4270019531</ele>
        <time>2017-05-05T08:55:05Z</time>
      </trkpt>
      <trkpt lat="45.16508" lon="5.95717">
        <ele>2384.4270019531</ele>
        <time>2017-05-05T08:55:09Z</time>
      </trkpt>
      <trkpt lat="45.16513" lon="5.95719">
        <ele>2384.4270019531</ele>
        <time>2017-05-05T08:55:18Z</time>
      </trkpt>
      <trkpt lat="45.16513" lon="5.95725">
        <ele>2386.4270019531</ele>
        <time>2017-05-05T08:55:23Z</time>
      </trkpt>
      <trkpt lat="45.16512" lon="5.95732">
        <ele>2387.4270019531</ele>
        <time>2017-05-05T08:55:29Z</time>
      </trkpt>
      <trkpt lat="45.16513" lon="5.95738">
        <ele>2386.4270019531</ele>
        <time>2017-05-05T08:55:36Z</time>
      </trkpt>
      <trkpt lat="45.16511" lon="5.95744">
        <ele>2387.4270019531</ele>
        <time>2017-05-05T08:55:41Z</time>
      </trkpt>
      <trkpt lat="45.16507" lon="5.95747">
        <ele>2387.4270019531</ele>
        <time>2017-05-05T08:55:47Z</time>
      </trkpt>
      <trkpt lat="45.16503" lon="5.95749">
        <ele>2390.4270019531</ele>
        <time>2017-05-05T08:55:53Z</time>
      </trkpt>
      <trkpt lat="45.16501" lon="5.95757">
        <ele>2394.4270019531</ele>
        <time>2017-05-05T08:55:59Z</time>
      </trkpt>
      <trkpt lat="45.16502" lon="5.95765">
        <ele>2397.4270019531</ele>
        <time>2017-05-05T08:56:07Z</time>
      </trkpt>
      <trkpt lat="45.16501" lon="5.95771">
        <ele>2397.4270019531</ele>
        <time>2017-05-05T08:56:12Z</time>
      </trkpt>
      <trkpt lat="45.16501" lon="5.95778">
        <ele>2400.4270019531</ele>
        <time>2017-05-05T08:56:19Z</time>
      </trkpt>
      <trkpt lat="45.16501" lon="5.95786">
        <ele>2401.4270019531</ele>
        <time>2017-05-05T08:56:22Z</time>
      </trkpt>
      <trkpt lat="45.16501" lon="5.95792">
        <ele>2402.4270019531</ele>
        <time>2017-05-05T08:56:26Z</time>
      </trkpt>
      <trkpt lat="45.16501" lon="5.95799">
        <ele>2401.4270019531</ele>
        <time>2017-05-05T08:56:31Z</time>
      </trkpt>
      <trkpt lat="45.16503" lon="5.95806">
        <ele>2402.4270019531</ele>
        <time>2017-05-05T08:56:37Z</time>
      </trkpt>
      <trkpt lat="45.16504" lon="5.95812">
        <ele>2402.4270019531</ele>
        <time>2017-05-05T08:56:41Z</time>
      </trkpt>
      <trkpt lat="45.16505" lon="5.9582">
        <ele>2403.4270019531</ele>
        <time>2017-05-05T08:56:45Z</time>
      </trkpt>
      <trkpt lat="45.16506" lon="5.95827">
        <ele>2403.4270019531</ele>
        <time>2017-05-05T08:56:48Z</time>
      </trkpt>
      <trkpt lat="45.16506" lon="5.95836">
        <ele>2401.4270019531</ele>
        <time>2017-05-05T08:56:53Z</time>
      </trkpt>
      <trkpt lat="45.16505" lon="5.95843">
        <ele>2399.4270019531</ele>
        <time>2017-05-05T08:56:58Z</time>
      </trkpt>
      <trkpt lat="45.16508" lon="5.95849">
        <ele>2401.4270019531</ele>
        <time>2017-05-05T08:57:04Z</time>
      </trkpt>
      <trkpt lat="45.16508" lon="5.95855">
        <ele>2401.4270019531</ele>
        <time>2017-05-05T08:57:08Z</time>
      </trkpt>
      <trkpt lat="45.16511" lon="5.95861">
        <ele>2403.4270019531</ele>
        <time>2017-05-05T08:57:12Z</time>
      </trkpt>
      <trkpt lat="45.16512" lon="5.95868">
        <ele>2404.4270019531</ele>
        <time>2017-05-05T08:57:17Z</time>
      </trkpt>
      <trkpt lat="45.16513" lon="5.95874">
        <ele>2406.4270019531</ele>
        <time>2017-05-05T08:57:23Z</time>
      </trkpt>
      <trkpt lat="45.16511" lon="5.9588">
        <ele>2405.4270019531</ele>
        <time>2017-05-05T08:57:27Z</time>
      </trkpt>
      <trkpt lat="45.16509" lon="5.95887">
        <ele>2407.4270019531</ele>
        <time>2017-05-05T08:57:33Z</time>
      </trkpt>
      <trkpt lat="45.1651" lon="5.95894">
        <ele>2405.4270019531</ele>
        <time>2017-05-05T08:57:41Z</time>
      </trkpt>
      <trkpt lat="45.16514" lon="5.959">
        <ele>2406.4270019531</ele>
        <time>2017-05-05T08:57:48Z</time>
      </trkpt>
      <trkpt lat="45.16515" lon="5.95907">
        <ele>2406.4270019531</ele>
        <time>2017-05-05T08:57:58Z</time>
      </trkpt>
      <trkpt lat="45.16518" lon="5.95913">
        <ele>2407.4270019531</ele>
        <time>2017-05-05T08:58:06Z</time>
      </trkpt>
      <trkpt lat="45.16521" lon="5.95919">
        <ele>2407.4270019531</ele>
        <time>2017-05-05T08:58:12Z</time>
      </trkpt>
      <trkpt lat="45.16521" lon="5.95926">
        <ele>2408.4270019531</ele>
        <time>2017-05-05T08:58:19Z</time>
      </trkpt>
      <trkpt lat="45.16521" lon="5.95933">
        <ele>2408.4270019531</ele>
        <time>2017-05-05T08:58:29Z</time>
      </trkpt>
      <trkpt lat="45.16525" lon="5.95939">
        <ele>2412.4270019531</ele>
        <time>2017-05-05T08:58:36Z</time>
      </trkpt>
      <trkpt lat="45.16529" lon="5.95941">
        <ele>2414.4270019531</ele>
        <time>2017-05-05T08:58:41Z</time>
      </trkpt>
      <trkpt lat="45.16533" lon="5.95946">
        <ele>2411.4270019531</ele>
        <time>2017-05-05T08:58:50Z</time>
      </trkpt>
      <trkpt lat="45.16537" lon="5.95952">
        <ele>2411.4270019531</ele>
        <time>2017-05-05T08:58:56Z</time>
      </trkpt>
      <trkpt lat="45.1654" lon="5.95958">
        <ele>2412.4270019531</ele>
        <time>2017-05-05T08:59:05Z</time>
      </trkpt>
      <trkpt lat="45.16543" lon="5.95963">
        <ele>2411.4270019531</ele>
        <time>2017-05-05T08:59:13Z</time>
      </trkpt>
      <trkpt lat="45.16545" lon="5.95969">
        <ele>2413.4270019531</ele>
        <time>2017-05-05T08:59:19Z</time>
      </trkpt>
      <trkpt lat="45.16544" lon="5.95976">
        <ele>2419.4270019531</ele>
        <time>2017-05-05T08:59:25Z</time>
      </trkpt>
      <trkpt lat="45.16544" lon="5.95984">
        <ele>2418.4270019531</ele>
        <time>2017-05-05T08:59:35Z</time>
      </trkpt>
      <trkpt lat="45.16542" lon="5.9599">
        <ele>2422.4270019531</ele>
        <time>2017-05-05T08:59:41Z</time>
      </trkpt>
      <trkpt lat="45.16543" lon="5.95997">
        <ele>2424.4270019531</ele>
        <time>2017-05-05T08:59:54Z</time>
      </trkpt>
      <trkpt lat="45.16547" lon="5.96001">
        <ele>2425.4270019531</ele>
        <time>2017-05-05T09:00:00Z</time>
      </trkpt>
      <trkpt lat="45.16549" lon="5.96007">
        <ele>2426.4270019531</ele>
        <time>2017-05-05T09:00:05Z</time>
      </trkpt>
      <trkpt lat="45.16552" lon="5.96012">
        <ele>2428.4270019531</ele>
        <time>2017-05-05T09:00:24Z</time>
      </trkpt>
      <trkpt lat="45.16555" lon="5.96019">
        <ele>2431.4270019531</ele>
        <time>2017-05-05T09:01:05Z</time>
      </trkpt>
      <trkpt lat="45.16557" lon="5.96025">
        <ele>2430.4270019531</ele>
        <time>2017-05-05T09:01:11Z</time>
      </trkpt>
      <trkpt lat="45.16558" lon="5.96032">
        <ele>2430.4270019531</ele>
        <time>2017-05-05T09:01:23Z</time>
      </trkpt>
      <trkpt lat="45.16561" lon="5.96037">
        <ele>2431.4279785156</ele>
        <time>2017-05-05T09:01:26Z</time>
      </trkpt>
      <trkpt lat="45.16563" lon="5.96045">
        <ele>2435.4279785156</ele>
        <time>2017-05-05T09:01:30Z</time>
      </trkpt>
      <trkpt lat="45.16566" lon="5.96049">
        <ele>2435.4279785156</ele>
        <time>2017-05-05T09:01:36Z</time>
      </trkpt>
      <trkpt lat="45.16568" lon="5.9606">
        <ele>2437.4279785156</ele>
        <time>2017-05-05T09:01:42Z</time>
      </trkpt>
      <trkpt lat="45.16568" lon="5.96066">
        <ele>2436.4279785156</ele>
        <time>2017-05-05T09:02:08Z</time>
      </trkpt>
      <trkpt lat="45.16573" lon="5.96069">
        <ele>2433.4279785156</ele>
        <time>2017-05-05T09:04:15Z</time>
      </trkpt>
      <trkpt lat="45.16573" lon="5.96076">
        <ele>2433.4279785156</ele>
        <time>2017-05-05T09:04:20Z</time>
      </trkpt>
      <trkpt lat="45.16575" lon="5.96083">
        <ele>2433.4279785156</ele>
        <time>2017-05-05T09:04:24Z</time>
      </trkpt>
      <trkpt lat="45.16577" lon="5.9609">
        <ele>2436.4279785156</ele>
        <time>2017-05-05T09:04:28Z</time>
      </trkpt>
      <trkpt lat="45.16579" lon="5.96096">
        <ele>2433.4279785156</ele>
        <time>2017-05-05T09:04:32Z</time>
      </trkpt>
      <trkpt lat="45.1658" lon="5.96104">
        <ele>2434.4279785156</ele>
        <time>2017-05-05T09:04:37Z</time>
      </trkpt>
      <trkpt lat="45.16581" lon="5.96111">
        <ele>2431.4279785156</ele>
        <time>2017-05-05T09:04:40Z</time>
      </trkpt>
      <trkpt lat="45.16584" lon="5.96119">
        <ele>2428.4279785156</ele>
        <time>2017-05-05T09:04:44Z</time>
      </trkpt>
      <trkpt lat="45.16584" lon="5.96126">
        <ele>2427.4279785156</ele>
        <time>2017-05-05T09:04:49Z</time>
      </trkpt>
      <trkpt lat="45.16584" lon="5.96133">
        <ele>2427.4279785156</ele>
        <time>2017-05-05T09:04:52Z</time>
      </trkpt>
      <trkpt lat="45.16586" lon="5.96142">
        <ele>2429.4279785156</ele>
        <time>2017-05-05T09:04:56Z</time>
      </trkpt>
      <trkpt lat="45.16585" lon="5.96149">
        <ele>2430.4279785156</ele>
        <time>2017-05-05T09:05:00Z</time>
      </trkpt>
      <trkpt lat="45.16585" lon="5.96156">
        <ele>2429.4279785156</ele>
        <time>2017-05-05T09:05:03Z</time>
      </trkpt>
      <trkpt lat="45.16584" lon="5.96163">
        <ele>2427.4279785156</ele>
        <time>2017-05-05T09:05:05Z</time>
      </trkpt>
      <trkpt lat="45.16582" lon="5.96173">
        <ele>2427.4279785156</ele>
        <time>2017-05-05T09:05:07Z</time>
      </trkpt>
      <trkpt lat="45.16579" lon="5.96187">
        <ele>2425.4279785156</ele>
        <time>2017-05-05T09:05:09Z</time>
      </trkpt>
      <trkpt lat="45.16576" lon="5.96208">
        <ele>2424.4279785156</ele>
        <time>2017-05-05T09:05:11Z</time>
      </trkpt>
      <trkpt lat="45.16573" lon="5.96232">
        <ele>2423.4279785156</ele>
        <time>2017-05-05T09:05:13Z</time>
      </trkpt>
      <trkpt lat="45.16571" lon="5.96254">
        <ele>2424.4279785156</ele>
        <time>2017-05-05T09:05:15Z</time>
      </trkpt>
      <trkpt lat="45.16569" lon="5.96272">
        <ele>2423.4279785156</ele>
        <time>2017-05-05T09:05:17Z</time>
      </trkpt>
      <trkpt lat="45.16566" lon="5.96285">
        <ele>2416.4279785156</ele>
        <time>2017-05-05T09:05:22Z</time>
      </trkpt>
      <trkpt lat="45.16567" lon="5.96292">
        <ele>2413.4279785156</ele>
        <time>2017-05-05T09:05:27Z</time>
      </trkpt>
      <trkpt lat="45.16569" lon="5.96299">
        <ele>2414.4279785156</ele>
        <time>2017-05-05T09:05:30Z</time>
      </trkpt>
      <trkpt lat="45.16568" lon="5.96306">
        <ele>2414.4279785156</ele>
        <time>2017-05-05T09:05:34Z</time>
      </trkpt>
      <trkpt lat="45.16569" lon="5.96313">
        <ele>2413.4279785156</ele>
        <time>2017-05-05T09:05:38Z</time>
      </trkpt>
      <trkpt lat="45.1657" lon="5.96321">
        <ele>2417.4279785156</ele>
        <time>2017-05-05T09:05:43Z</time>
      </trkpt>
      <trkpt lat="45.1657" lon="5.96328">
        <ele>2418.4279785156</ele>
        <time>2017-05-05T09:05:49Z</time>
      </trkpt>
      <trkpt lat="45.16572" lon="5.96336">
        <ele>2415.4279785156</ele>
        <time>2017-05-05T09:05:54Z</time>
      </trkpt>
      <trkpt lat="45.16572" lon="5.96346">
        <ele>2415.4279785156</ele>
        <time>2017-05-05T09:05:57Z</time>
      </trkpt>
      <trkpt lat="45.16573" lon="5.96356">
        <ele>2414.4279785156</ele>
        <time>2017-05-05T09:05:59Z</time>
      </trkpt>
      <trkpt lat="45.16574" lon="5.96375">
        <ele>2412.4279785156</ele>
        <time>2017-05-05T09:06:01Z</time>
      </trkpt>
      <trkpt lat="45.16573" lon="5.96384">
        <ele>2412.4279785156</ele>
        <time>2017-05-05T09:06:02Z</time>
      </trkpt>
      <trkpt lat="45.16574" lon="5.96398">
        <ele>2411.4279785156</ele>
        <time>2017-05-05T09:06:05Z</time>
      </trkpt>
      <trkpt lat="45.16577" lon="5.96403">
        <ele>2408.4279785156</ele>
        <time>2017-05-05T09:06:10Z</time>
      </trkpt>
      <trkpt lat="45.1658" lon="5.9641">
        <ele>2407.4279785156</ele>
        <time>2017-05-05T09:06:14Z</time>
      </trkpt>
      <trkpt lat="45.16584" lon="5.96414">
        <ele>2405.4279785156</ele>
        <time>2017-05-05T09:06:18Z</time>
      </trkpt>
      <trkpt lat="45.16587" lon="5.96421">
        <ele>2405.4279785156</ele>
        <time>2017-05-05T09:06:24Z</time>
      </trkpt>
      <trkpt lat="45.1659" lon="5.96428">
        <ele>2404.4279785156</ele>
        <time>2017-05-05T09:06:30Z</time>
      </trkpt>
      <trkpt lat="45.16594" lon="5.96434">
        <ele>2408.4279785156</ele>
        <time>2017-05-05T09:06:35Z</time>
      </trkpt>
      <trkpt lat="45.16597" lon="5.96439">
        <ele>2408.4279785156</ele>
        <time>2017-05-05T09:06:39Z</time>
      </trkpt>
      <trkpt lat="45.166" lon="5.96444">
        <ele>2411.4279785156</ele>
        <time>2017-05-05T09:06:48Z</time>
      </trkpt>
      <trkpt lat="45.16604" lon="5.96449">
        <ele>2409.4279785156</ele>
        <time>2017-05-05T09:06:52Z</time>
      </trkpt>
      <trkpt lat="45.16605" lon="5.96456">
        <ele>2413.4279785156</ele>
        <time>2017-05-05T09:07:00Z</time>
      </trkpt>
      <trkpt lat="45.16607" lon="5.96463">
        <ele>2410.4279785156</ele>
        <time>2017-05-05T09:07:07Z</time>
      </trkpt>
      <trkpt lat="45.16608" lon="5.96469">
        <ele>2410.4279785156</ele>
        <time>2017-05-05T09:07:12Z</time>
      </trkpt>
      <trkpt lat="45.16609" lon="5.96476">
        <ele>2412.4279785156</ele>
        <time>2017-05-05T09:07:17Z</time>
      </trkpt>
      <trkpt lat="45.1661" lon="5.96484">
        <ele>2414.4279785156</ele>
        <time>2017-05-05T09:07:23Z</time>
      </trkpt>
      <trkpt lat="45.16613" lon="5.9649">
        <ele>2414.4279785156</ele>
        <time>2017-05-05T09:07:28Z</time>
      </trkpt>
      <trkpt lat="45.16615" lon="5.96498">
        <ele>2415.4279785156</ele>
        <time>2017-05-05T09:07:32Z</time>
      </trkpt>
      <trkpt lat="45.16615" lon="5.96505">
        <ele>2413.4279785156</ele>
        <time>2017-05-05T09:07:37Z</time>
      </trkpt>
      <trkpt lat="45.16615" lon="5.96513">
        <ele>2411.4279785156</ele>
        <time>2017-05-05T09:07:41Z</time>
      </trkpt>
      <trkpt lat="45.16616" lon="5.96521">
        <ele>2411.4279785156</ele>
        <time>2017-05-05T09:07:46Z</time>
      </trkpt>
      <trkpt lat="45.16615" lon="5.96527">
        <ele>2411.4279785156</ele>
        <time>2017-05-05T09:07:49Z</time>
      </trkpt>
      <trkpt lat="45.16612" lon="5.96541">
        <ele>2406.4279785156</ele>
        <time>2017-05-05T09:07:54Z</time>
      </trkpt>
      <trkpt lat="45.16614" lon="5.96549">
        <ele>2407.4279785156</ele>
        <time>2017-05-05T09:07:57Z</time>
      </trkpt>
      <trkpt lat="45.16612" lon="5.96556">
        <ele>2407.4279785156</ele>
        <time>2017-05-05T09:08:00Z</time>
      </trkpt>
      <trkpt lat="45.16611" lon="5.96564">
        <ele>2411.4279785156</ele>
        <time>2017-05-05T09:08:03Z</time>
      </trkpt>
      <trkpt lat="45.1661" lon="5.9657">
        <ele>2409.4279785156</ele>
        <time>2017-05-05T09:08:06Z</time>
      </trkpt>
      <trkpt lat="45.1661" lon="5.96578">
        <ele>2410.4279785156</ele>
        <time>2017-05-05T09:08:10Z</time>
      </trkpt>
      <trkpt lat="45.16609" lon="5.96585">
        <ele>2415.4279785156</ele>
        <time>2017-05-05T09:08:13Z</time>
      </trkpt>
      <trkpt lat="45.1661" lon="5.96592">
        <ele>2411.4279785156</ele>
        <time>2017-05-05T09:08:19Z</time>
      </trkpt>
      <trkpt lat="45.16609" lon="5.966">
        <ele>2411.4279785156</ele>
        <time>2017-05-05T09:08:22Z</time>
      </trkpt>
      <trkpt lat="45.16609" lon="5.96608">
        <ele>2412.4279785156</ele>
        <time>2017-05-05T09:08:26Z</time>
      </trkpt>
      <trkpt lat="45.16609" lon="5.96615">
        <ele>2417.4279785156</ele>
        <time>2017-05-05T09:08:30Z</time>
      </trkpt>
      <trkpt lat="45.16611" lon="5.96621">
        <ele>2419.4279785156</ele>
        <time>2017-05-05T09:08:36Z</time>
      </trkpt>
      <trkpt lat="45.16613" lon="5.96628">
        <ele>2418.4279785156</ele>
        <time>2017-05-05T09:08:41Z</time>
      </trkpt>
      <trkpt lat="45.16615" lon="5.96634">
        <ele>2419.4279785156</ele>
        <time>2017-05-05T09:08:46Z</time>
      </trkpt>
      <trkpt lat="45.16619" lon="5.9664">
        <ele>2419.4279785156</ele>
        <time>2017-05-05T09:08:51Z</time>
      </trkpt>
      <trkpt lat="45.16618" lon="5.96648">
        <ele>2425.4279785156</ele>
        <time>2017-05-05T09:09:14Z</time>
      </trkpt>
      <trkpt lat="45.16618" lon="5.96655">
        <ele>2425.4279785156</ele>
        <time>2017-05-05T09:09:18Z</time>
      </trkpt>
      <trkpt lat="45.16619" lon="5.96662">
        <ele>2423.4289550781</ele>
        <time>2017-05-05T09:09:22Z</time>
      </trkpt>
      <trkpt lat="45.1662" lon="5.9667">
        <ele>2424.4289550781</ele>
        <time>2017-05-05T09:09:26Z</time>
      </trkpt>
      <trkpt lat="45.16621" lon="5.96677">
        <ele>2426.4289550781</ele>
        <time>2017-05-05T09:09:31Z</time>
      </trkpt>
      <trkpt lat="45.16622" lon="5.96684">
        <ele>2426.4289550781</ele>
        <time>2017-05-05T09:09:35Z</time>
      </trkpt>
      <trkpt lat="45.16623" lon="5.96691">
        <ele>2424.4289550781</ele>
        <time>2017-05-05T09:09:39Z</time>
      </trkpt>
      <trkpt lat="45.16624" lon="5.96698">
        <ele>2428.4289550781</ele>
        <time>2017-05-05T09:09:43Z</time>
      </trkpt>
      <trkpt lat="45.16625" lon="5.96705">
        <ele>2426.4289550781</ele>
        <time>2017-05-05T09:09:47Z</time>
      </trkpt>
      <trkpt lat="45.16626" lon="5.96712">
        <ele>2426.4289550781</ele>
        <time>2017-05-05T09:09:51Z</time>
      </trkpt>
      <trkpt lat="45.16629" lon="5.96718">
        <ele>2427.4289550781</ele>
        <time>2017-05-05T09:09:55Z</time>
      </trkpt>
      <trkpt lat="45.1663" lon="5.96724">
        <ele>2427.4289550781</ele>
        <time>2017-05-05T09:10:00Z</time>
      </trkpt>
      <trkpt lat="45.16632" lon="5.96731">
        <ele>2432.4289550781</ele>
        <time>2017-05-05T09:10:07Z</time>
      </trkpt>
      <trkpt lat="45.16635" lon="5.96737">
        <ele>2430.4289550781</ele>
        <time>2017-05-05T09:10:11Z</time>
      </trkpt>
      <trkpt lat="45.16637" lon="5.96744">
        <ele>2429.4289550781</ele>
        <time>2017-05-05T09:10:15Z</time>
      </trkpt>
      <trkpt lat="45.16638" lon="5.96751">
        <ele>2432.4289550781</ele>
        <time>2017-05-05T09:10:19Z</time>
      </trkpt>
      <trkpt lat="45.1664" lon="5.96758">
        <ele>2430.4289550781</ele>
        <time>2017-05-05T09:10:24Z</time>
      </trkpt>
      <trkpt lat="45.1664" lon="5.96765">
        <ele>2433.4289550781</ele>
        <time>2017-05-05T09:10:27Z</time>
      </trkpt>
      <trkpt lat="45.16641" lon="5.96772">
        <ele>2434.4289550781</ele>
        <time>2017-05-05T09:10:30Z</time>
      </trkpt>
      <trkpt lat="45.16643" lon="5.96778">
        <ele>2434.4289550781</ele>
        <time>2017-05-05T09:10:34Z</time>
      </trkpt>
      <trkpt lat="45.16645" lon="5.96785">
        <ele>2435.4289550781</ele>
        <time>2017-05-05T09:10:37Z</time>
      </trkpt>
      <trkpt lat="45.16646" lon="5.96793">
        <ele>2432.4289550781</ele>
        <time>2017-05-05T09:10:43Z</time>
      </trkpt>
      <trkpt lat="45.16649" lon="5.96799">
        <ele>2432.4289550781</ele>
        <time>2017-05-05T09:10:48Z</time>
      </trkpt>
      <trkpt lat="45.16653" lon="5.96804">
        <ele>2429.4289550781</ele>
        <time>2017-05-05T09:10:54Z</time>
      </trkpt>
      <trkpt lat="45.16656" lon="5.96809">
        <ele>2430.4289550781</ele>
        <time>2017-05-05T09:11:01Z</time>
      </trkpt>
      <trkpt lat="45.1666" lon="5.96814">
        <ele>2428.4289550781</ele>
        <time>2017-05-05T09:11:07Z</time>
      </trkpt>
      <trkpt lat="45.16664" lon="5.96816">
        <ele>2434.4289550781</ele>
        <time>2017-05-05T09:11:14Z</time>
      </trkpt>
      <trkpt lat="45.16667" lon="5.96822">
        <ele>2437.4289550781</ele>
        <time>2017-05-05T09:11:19Z</time>
      </trkpt>
      <trkpt lat="45.16668" lon="5.96828">
        <ele>2442.4289550781</ele>
        <time>2017-05-05T09:11:24Z</time>
      </trkpt>
      <trkpt lat="45.16671" lon="5.96834">
        <ele>2437.4289550781</ele>
        <time>2017-05-05T09:11:31Z</time>
      </trkpt>
      <trkpt lat="45.16673" lon="5.9684">
        <ele>2437.4289550781</ele>
        <time>2017-05-05T09:11:35Z</time>
      </trkpt>
      <trkpt lat="45.16676" lon="5.96845">
        <ele>2437.4289550781</ele>
        <time>2017-05-05T09:11:45Z</time>
      </trkpt>
      <trkpt lat="45.1668" lon="5.96848">
        <ele>2441.4289550781</ele>
        <time>2017-05-05T09:11:51Z</time>
      </trkpt>
      <trkpt lat="45.16683" lon="5.96853">
        <ele>2443.4289550781</ele>
        <time>2017-05-05T09:11:56Z</time>
      </trkpt>
      <trkpt lat="45.16687" lon="5.96858">
        <ele>2440.4289550781</ele>
        <time>2017-05-05T09:12:03Z</time>
      </trkpt>
      <trkpt lat="45.16691" lon="5.96863">
        <ele>2442.4289550781</ele>
        <time>2017-05-05T09:12:10Z</time>
      </trkpt>
      <trkpt lat="45.16694" lon="5.96868">
        <ele>2444.4289550781</ele>
        <time>2017-05-05T09:12:17Z</time>
      </trkpt>
      <trkpt lat="45.16696" lon="5.96874">
        <ele>2445.4289550781</ele>
        <time>2017-05-05T09:12:24Z</time>
      </trkpt>
      <trkpt lat="45.16701" lon="5.96881">
        <ele>2450.4289550781</ele>
        <time>2017-05-05T09:12:31Z</time>
      </trkpt>
      <trkpt lat="45.16704" lon="5.96885">
        <ele>2448.4289550781</ele>
        <time>2017-05-05T09:12:37Z</time>
      </trkpt>
      <trkpt lat="45.16706" lon="5.96891">
        <ele>2452.4289550781</ele>
        <time>2017-05-05T09:12:45Z</time>
      </trkpt>
      <trkpt lat="45.1671" lon="5.96896">
        <ele>2455.4289550781</ele>
        <time>2017-05-05T09:12:53Z</time>
      </trkpt>
      <trkpt lat="45.16714" lon="5.96899">
        <ele>2453.4289550781</ele>
        <time>2017-05-05T09:12:58Z</time>
      </trkpt>
      <trkpt lat="45.16717" lon="5.96904">
        <ele>2453.4289550781</ele>
        <time>2017-05-05T09:13:02Z</time>
      </trkpt>
      <trkpt lat="45.16719" lon="5.9691">
        <ele>2449.4289550781</ele>
        <time>2017-05-05T09:13:06Z</time>
      </trkpt>
      <trkpt lat="45.16723" lon="5.96915">
        <ele>2449.4289550781</ele>
        <time>2017-05-05T09:13:10Z</time>
      </trkpt>
      <trkpt lat="45.16726" lon="5.9692">
        <ele>2449.4289550781</ele>
        <time>2017-05-05T09:13:13Z</time>
      </trkpt>
      <trkpt lat="45.1673" lon="5.96925">
        <ele>2450.4289550781</ele>
        <time>2017-05-05T09:13:20Z</time>
      </trkpt>
      <trkpt lat="45.16733" lon="5.9693">
        <ele>2449.4289550781</ele>
        <time>2017-05-05T09:13:26Z</time>
      </trkpt>
      <trkpt lat="45.16737" lon="5.96933">
        <ele>2444.4289550781</ele>
        <time>2017-05-05T09:13:31Z</time>
      </trkpt>
      <trkpt lat="45.16742" lon="5.96936">
        <ele>2442.4289550781</ele>
        <time>2017-05-05T09:13:35Z</time>
      </trkpt>
      <trkpt lat="45.16746" lon="5.96941">
        <ele>2445.4289550781</ele>
        <time>2017-05-05T09:13:40Z</time>
      </trkpt>
      <trkpt lat="45.1675" lon="5.96946">
        <ele>2444.4289550781</ele>
        <time>2017-05-05T09:13:50Z</time>
      </trkpt>
      <trkpt lat="45.16754" lon="5.96951">
        <ele>2444.4289550781</ele>
        <time>2017-05-05T09:13:57Z</time>
      </trkpt>
      <trkpt lat="45.16758" lon="5.96952">
        <ele>2447.4289550781</ele>
        <time>2017-05-05T09:14:03Z</time>
      </trkpt>
      <trkpt lat="45.16762" lon="5.96955">
        <ele>2451.4289550781</ele>
        <time>2017-05-05T09:14:09Z</time>
      </trkpt>
      <trkpt lat="45.16767" lon="5.96956">
        <ele>2455.4289550781</ele>
        <time>2017-05-05T09:14:15Z</time>
      </trkpt>
      <trkpt lat="45.16772" lon="5.96959">
        <ele>2459.4289550781</ele>
        <time>2017-05-05T09:14:29Z</time>
      </trkpt>
      <trkpt lat="45.16776" lon="5.96959">
        <ele>2460.4289550781</ele>
        <time>2017-05-05T09:14:43Z</time>
      </trkpt>
      <trkpt lat="45.1678" lon="5.96964">
        <ele>2461.4289550781</ele>
        <time>2017-05-05T09:14:46Z</time>
      </trkpt>
      <trkpt lat="45.16785" lon="5.96964">
        <ele>2463.4289550781</ele>
        <time>2017-05-05T09:14:52Z</time>
      </trkpt>
      <trkpt lat="45.1679" lon="5.96967">
        <ele>2461.4289550781</ele>
        <time>2017-05-05T09:15:02Z</time>
      </trkpt>
      <trkpt lat="45.16794" lon="5.96968">
        <ele>2461.4289550781</ele>
        <time>2017-05-05T09:15:10Z</time>
      </trkpt>
      <trkpt lat="45.16797" lon="5.96974">
        <ele>2464.4289550781</ele>
        <time>2017-05-05T09:15:20Z</time>
      </trkpt>
      <trkpt lat="45.16802" lon="5.96976">
        <ele>2465.4289550781</ele>
        <time>2017-05-05T09:15:29Z</time>
      </trkpt>
      <trkpt lat="45.16807" lon="5.96976">
        <ele>2473.4289550781</ele>
        <time>2017-05-05T09:15:40Z</time>
      </trkpt>
      <trkpt lat="45.16812" lon="5.9698">
        <ele>2472.4289550781</ele>
        <time>2017-05-05T09:15:43Z</time>
      </trkpt>
      <trkpt lat="45.16817" lon="5.96984">
        <ele>2476.4289550781</ele>
        <time>2017-05-05T09:15:49Z</time>
      </trkpt>
      <trkpt lat="45.16821" lon="5.96986">
        <ele>2473.4289550781</ele>
        <time>2017-05-05T09:15:56Z</time>
      </trkpt>
      <trkpt lat="45.16825" lon="5.96991">
        <ele>2476.4289550781</ele>
        <time>2017-05-05T09:16:09Z</time>
      </trkpt>
      <trkpt lat="45.1683" lon="5.96994">
        <ele>2476.4289550781</ele>
        <time>2017-05-05T09:16:13Z</time>
      </trkpt>
      <trkpt lat="45.16835" lon="5.96993">
        <ele>2476.4289550781</ele>
        <time>2017-05-05T09:16:16Z</time>
      </trkpt>
      <trkpt lat="45.16839" lon="5.96997">
        <ele>2477.4289550781</ele>
        <time>2017-05-05T09:16:20Z</time>
      </trkpt>
      <trkpt lat="45.16843" lon="5.97002">
        <ele>2473.4289550781</ele>
        <time>2017-05-05T09:16:27Z</time>
      </trkpt>
      <trkpt lat="45.16848" lon="5.97003">
        <ele>2474.4289550781</ele>
        <time>2017-05-05T09:16:32Z</time>
      </trkpt>
      <trkpt lat="45.16852" lon="5.97006">
        <ele>2476.4289550781</ele>
        <time>2017-05-05T09:16:40Z</time>
      </trkpt>
      <trkpt lat="45.16855" lon="5.97011">
        <ele>2475.4289550781</ele>
        <time>2017-05-05T09:16:48Z</time>
      </trkpt>
      <trkpt lat="45.16858" lon="5.97017">
        <ele>2477.4289550781</ele>
        <time>2017-05-05T09:16:55Z</time>
      </trkpt>
      <trkpt lat="45.16863" lon="5.97016">
        <ele>2480.4299316406</ele>
        <time>2017-05-05T09:17:02Z</time>
      </trkpt>
      <trkpt lat="45.16869" lon="5.97013">
        <ele>2482.4299316406</ele>
        <time>2017-05-05T09:17:08Z</time>
      </trkpt>
      <trkpt lat="45.16873" lon="5.97007">
        <ele>2486.4299316406</ele>
        <time>2017-05-05T09:17:24Z</time>
      </trkpt>
      <trkpt lat="45.16878" lon="5.9701">
        <ele>2484.4299316406</ele>
        <time>2017-05-05T09:17:28Z</time>
      </trkpt>
      <trkpt lat="45.16883" lon="5.9701">
        <ele>2484.4299316406</ele>
        <time>2017-05-05T09:17:34Z</time>
      </trkpt>
      <trkpt lat="45.16888" lon="5.97009">
        <ele>2483.4299316406</ele>
        <time>2017-05-05T09:17:40Z</time>
      </trkpt>
      <trkpt lat="45.16894" lon="5.97007">
        <ele>2486.4299316406</ele>
        <time>2017-05-05T09:17:43Z</time>
      </trkpt>
      <trkpt lat="45.16898" lon="5.97005">
        <ele>2488.4299316406</ele>
        <time>2017-05-05T09:17:50Z</time>
      </trkpt>
      <trkpt lat="45.16904" lon="5.97002">
        <ele>2486.4299316406</ele>
        <time>2017-05-05T09:18:00Z</time>
      </trkpt>
      <trkpt lat="45.16906" lon="5.96997">
        <ele>2489.4299316406</ele>
        <time>2017-05-05T09:18:12Z</time>
      </trkpt>
      <trkpt lat="45.16908" lon="5.97003">
        <ele>2494.4299316406</ele>
        <time>2017-05-05T09:18:26Z</time>
      </trkpt>
      <trkpt lat="45.16911" lon="5.97009">
        <ele>2495.4299316406</ele>
        <time>2017-05-05T09:18:43Z</time>
      </trkpt>
      <trkpt lat="45.16915" lon="5.97014">
        <ele>2491.4299316406</ele>
        <time>2017-05-05T09:18:51Z</time>
      </trkpt>
      <trkpt lat="45.16916" lon="5.97023">
        <ele>2493.4299316406</ele>
        <time>2017-05-05T09:18:58Z</time>
      </trkpt>
      <trkpt lat="45.16919" lon="5.97029">
        <ele>2499.4299316406</ele>
        <time>2017-05-05T09:19:38Z</time>
      </trkpt>
      <trkpt lat="45.16924" lon="5.97034">
        <ele>2502.4299316406</ele>
        <time>2017-05-05T09:19:44Z</time>
      </trkpt>
      <trkpt lat="45.16927" lon="5.97038">
        <ele>2500.4299316406</ele>
        <time>2017-05-05T09:19:49Z</time>
      </trkpt>
      <trkpt lat="45.16924" lon="5.97045">
        <ele>2504.4299316406</ele>
        <time>2017-05-05T09:20:06Z</time>
      </trkpt>
      <trkpt lat="45.16922" lon="5.97051">
        <ele>2506.4299316406</ele>
        <time>2017-05-05T09:20:12Z</time>
      </trkpt>
      <trkpt lat="45.16921" lon="5.97058">
        <ele>2512.4299316406</ele>
        <time>2017-05-05T09:20:29Z</time>
      </trkpt>
      <trkpt lat="45.16923" lon="5.97063">
        <ele>2517.4299316406</ele>
        <time>2017-05-05T09:20:56Z</time>
      </trkpt>
      <trkpt lat="45.16928" lon="5.97062">
        <ele>2519.4299316406</ele>
        <time>2017-05-05T09:21:10Z</time>
      </trkpt>
      <trkpt lat="45.16932" lon="5.97061">
        <ele>2522.4299316406</ele>
        <time>2017-05-05T09:21:17Z</time>
      </trkpt>
      <trkpt lat="45.16937" lon="5.97061">
        <ele>2523.4299316406</ele>
        <time>2017-05-05T09:21:25Z</time>
      </trkpt>
      <trkpt lat="45.16942" lon="5.9706">
        <ele>2526.4299316406</ele>
        <time>2017-05-05T09:21:34Z</time>
      </trkpt>
      <trkpt lat="45.16947" lon="5.97057">
        <ele>2526.4299316406</ele>
        <time>2017-05-05T09:21:43Z</time>
      </trkpt>
      <trkpt lat="45.16952" lon="5.97056">
        <ele>2525.4299316406</ele>
        <time>2017-05-05T09:21:57Z</time>
      </trkpt>
      <trkpt lat="45.16956" lon="5.97052">
        <ele>2523.4299316406</ele>
        <time>2017-05-05T09:22:05Z</time>
      </trkpt>
      <trkpt lat="45.1696" lon="5.9705">
        <ele>2523.4299316406</ele>
        <time>2017-05-05T09:22:11Z</time>
      </trkpt>
      <trkpt lat="45.16964" lon="5.97047">
        <ele>2524.4299316406</ele>
        <time>2017-05-05T09:22:21Z</time>
      </trkpt>
      <trkpt lat="45.16969" lon="5.97045">
        <ele>2523.4299316406</ele>
        <time>2017-05-05T09:22:33Z</time>
      </trkpt>
      <trkpt lat="45.16973" lon="5.97049">
        <ele>2525.4299316406</ele>
        <time>2017-05-05T09:22:37Z</time>
      </trkpt>
      <trkpt lat="45.16977" lon="5.97053">
        <ele>2521.4299316406</ele>
        <time>2017-05-05T09:22:49Z</time>
      </trkpt>
      <trkpt lat="45.16978" lon="5.9706">
        <ele>2524.4299316406</ele>
        <time>2017-05-05T09:22:58Z</time>
      </trkpt>
      <trkpt lat="45.16982" lon="5.97063">
        <ele>2520.4299316406</ele>
        <time>2017-05-05T09:23:06Z</time>
      </trkpt>
      <trkpt lat="45.16983" lon="5.97069">
        <ele>2525.4299316406</ele>
        <time>2017-05-05T09:23:14Z</time>
      </trkpt>
      <trkpt lat="45.16983" lon="5.97077">
        <ele>2530.4299316406</ele>
        <time>2017-05-05T09:23:19Z</time>
      </trkpt>
      <trkpt lat="45.16988" lon="5.97078">
        <ele>2539.4299316406</ele>
        <time>2017-05-05T09:23:53Z</time>
      </trkpt>
      <trkpt lat="45.16992" lon="5.97075">
        <ele>2541.4299316406</ele>
        <time>2017-05-05T09:23:59Z</time>
      </trkpt>
      <trkpt lat="45.16996" lon="5.97071">
        <ele>2542.4299316406</ele>
        <time>2017-05-05T09:24:14Z</time>
      </trkpt>
      <trkpt lat="45.17" lon="5.97075">
        <ele>2539.4299316406</ele>
        <time>2017-05-05T09:24:27Z</time>
      </trkpt>
      <trkpt lat="45.17" lon="5.97082">
        <ele>2544.4299316406</ele>
        <time>2017-05-05T09:24:38Z</time>
      </trkpt>
      <trkpt lat="45.17002" lon="5.97088">
        <ele>2553.4299316406</ele>
        <time>2017-05-05T09:24:55Z</time>
      </trkpt>
      <trkpt lat="45.17001" lon="5.97095">
        <ele>2554.4299316406</ele>
        <time>2017-05-05T09:25:09Z</time>
      </trkpt>
      <trkpt lat="45.17006" lon="5.97096">
        <ele>2557.4299316406</ele>
        <time>2017-05-05T09:25:17Z</time>
      </trkpt>
      <trkpt lat="45.17011" lon="5.97095">
        <ele>2562.4299316406</ele>
        <time>2017-05-05T09:25:46Z</time>
      </trkpt>
      <trkpt lat="45.17016" lon="5.97094">
        <ele>2564.4299316406</ele>
        <time>2017-05-05T09:25:52Z</time>
      </trkpt>
      <trkpt lat="45.1702" lon="5.97097">
        <ele>2563.4299316406</ele>
        <time>2017-05-05T09:26:26Z</time>
      </trkpt>
      <trkpt lat="45.17023" lon="5.97102">
        <ele>2565.4299316406</ele>
        <time>2017-05-05T09:26:43Z</time>
      </trkpt>
      <trkpt lat="45.17019" lon="5.97107">
        <ele>2567.4299316406</ele>
        <time>2017-05-05T09:27:09Z</time>
      </trkpt>
      <trkpt lat="45.17022" lon="5.97113">
        <ele>2569.4299316406</ele>
        <time>2017-05-05T09:27:26Z</time>
      </trkpt>
      <trkpt lat="45.17028" lon="5.97114">
        <ele>2571.4299316406</ele>
        <time>2017-05-05T09:27:32Z</time>
      </trkpt>
      <trkpt lat="45.17032" lon="5.9711">
        <ele>2579.4299316406</ele>
        <time>2017-05-05T09:27:56Z</time>
      </trkpt>
      <trkpt lat="45.17036" lon="5.9711">
        <ele>2583.4299316406</ele>
        <time>2017-05-05T09:28:00Z</time>
      </trkpt>
      <trkpt lat="45.17039" lon="5.97118">
        <ele>2584.4299316406</ele>
        <time>2017-05-05T09:28:23Z</time>
      </trkpt>
      <trkpt lat="45.17044" lon="5.97125">
        <ele>2583.4299316406</ele>
        <time>2017-05-05T09:28:33Z</time>
      </trkpt>
      <trkpt lat="45.17046" lon="5.9713">
        <ele>2589.4299316406</ele>
        <time>2017-05-05T09:29:07Z</time>
      </trkpt>
      <trkpt lat="45.17051" lon="5.97132">
        <ele>2589.4299316406</ele>
        <time>2017-05-05T09:29:32Z</time>
      </trkpt>
      <trkpt lat="45.17056" lon="5.97128">
        <ele>2592.4299316406</ele>
        <time>2017-05-05T09:29:52Z</time>
      </trkpt>
      <trkpt lat="45.17061" lon="5.97128">
        <ele>2595.4299316406</ele>
        <time>2017-05-05T09:29:57Z</time>
      </trkpt>
      <trkpt lat="45.17065" lon="5.97123">
        <ele>2597.4299316406</ele>
        <time>2017-05-05T09:30:15Z</time>
      </trkpt>
      <trkpt lat="45.1707" lon="5.97127">
        <ele>2598.4299316406</ele>
        <time>2017-05-05T09:30:19Z</time>
      </trkpt>
      <trkpt lat="45.17072" lon="5.97132">
        <ele>2594.4299316406</ele>
        <time>2017-05-05T09:30:32Z</time>
      </trkpt>
      <trkpt lat="45.17072" lon="5.9714">
        <ele>2595.4299316406</ele>
        <time>2017-05-05T09:30:49Z</time>
      </trkpt>
      <trkpt lat="45.17072" lon="5.97146">
        <ele>2595.4299316406</ele>
        <time>2017-05-05T09:31:00Z</time>
      </trkpt>
      <trkpt lat="45.17074" lon="5.97154">
        <ele>2599.4299316406</ele>
        <time>2017-05-05T09:31:05Z</time>
      </trkpt>
      <trkpt lat="45.17075" lon="5.97161">
        <ele>2597.4299316406</ele>
        <time>2017-05-05T09:31:11Z</time>
      </trkpt>
      <trkpt lat="45.17075" lon="5.97168">
        <ele>2601.4299316406</ele>
        <time>2017-05-05T09:31:22Z</time>
      </trkpt>
      <trkpt lat="45.17073" lon="5.97174">
        <ele>2602.4299316406</ele>
        <time>2017-05-05T09:31:38Z</time>
      </trkpt>
      <trkpt lat="45.17071" lon="5.9718">
        <ele>2602.4299316406</ele>
        <time>2017-05-05T09:31:51Z</time>
      </trkpt>
      <trkpt lat="45.1707" lon="5.97187">
        <ele>2602.4299316406</ele>
        <time>2017-05-05T09:31:58Z</time>
      </trkpt>
      <trkpt lat="45.17068" lon="5.97193">
        <ele>2602.4299316406</ele>
        <time>2017-05-05T09:32:10Z</time>
      </trkpt>
      <trkpt lat="45.17067" lon="5.97199">
        <ele>2601.4299316406</ele>
        <time>2017-05-05T09:32:24Z</time>
      </trkpt>
      <trkpt lat="45.17064" lon="5.97206">
        <ele>2603.4299316406</ele>
        <time>2017-05-05T09:32:33Z</time>
      </trkpt>
      <trkpt lat="45.17062" lon="5.97212">
        <ele>2614.4299316406</ele>
        <time>2017-05-05T09:32:44Z</time>
      </trkpt>
      <trkpt lat="45.1706" lon="5.97219">
        <ele>2615.4299316406</ele>
        <time>2017-05-05T09:32:53Z</time>
      </trkpt>
      <trkpt lat="45.17056" lon="5.97223">
        <ele>2618.4299316406</ele>
        <time>2017-05-05T09:32:59Z</time>
      </trkpt>
      <trkpt lat="45.17053" lon="5.97227">
        <ele>2620.4299316406</ele>
        <time>2017-05-05T09:33:04Z</time>
      </trkpt>
      <trkpt lat="45.17051" lon="5.97233">
        <ele>2616.4299316406</ele>
        <time>2017-05-05T09:33:18Z</time>
      </trkpt>
      <trkpt lat="45.17049" lon="5.9724">
        <ele>2620.4299316406</ele>
        <time>2017-05-05T09:33:27Z</time>
      </trkpt>
      <trkpt lat="45.17046" lon="5.97246">
        <ele>2620.4299316406</ele>
        <time>2017-05-05T09:33:41Z</time>
      </trkpt>
      <trkpt lat="45.17043" lon="5.97251">
        <ele>2619.4299316406</ele>
        <time>2017-05-05T09:33:58Z</time>
      </trkpt>
      <trkpt lat="45.1704" lon="5.97257">
        <ele>2622.4299316406</ele>
        <time>2017-05-05T09:34:09Z</time>
      </trkpt>
      <trkpt lat="45.17039" lon="5.97264">
        <ele>2624.4299316406</ele>
        <time>2017-05-05T09:34:17Z</time>
      </trkpt>
      <trkpt lat="45.17036" lon="5.97269">
        <ele>2628.4299316406</ele>
        <time>2017-05-05T09:34:28Z</time>
      </trkpt>
      <trkpt lat="45.17032" lon="5.97274">
        <ele>2631.4299316406</ele>
        <time>2017-05-05T09:34:37Z</time>
      </trkpt>
      <trkpt lat="45.17029" lon="5.97279">
        <ele>2630.4299316406</ele>
        <time>2017-05-05T09:34:47Z</time>
      </trkpt>
      <trkpt lat="45.17027" lon="5.97285">
        <ele>2633.4299316406</ele>
        <time>2017-05-05T09:34:55Z</time>
      </trkpt>
      <trkpt lat="45.17024" lon="5.9729">
        <ele>2635.4299316406</ele>
        <time>2017-05-05T09:35:05Z</time>
      </trkpt>
      <trkpt lat="45.17021" lon="5.97296">
        <ele>2636.4299316406</ele>
        <time>2017-05-05T09:35:16Z</time>
      </trkpt>
      <trkpt lat="45.17017" lon="5.97301">
        <ele>2635.4299316406</ele>
        <time>2017-05-05T09:35:31Z</time>
      </trkpt>
      <trkpt lat="45.17015" lon="5.97309">
        <ele>2636.4299316406</ele>
        <time>2017-05-05T09:35:37Z</time>
      </trkpt>
      <trkpt lat="45.17013" lon="5.97314">
        <ele>2637.4299316406</ele>
        <time>2017-05-05T09:35:40Z</time>
      </trkpt>
      <trkpt lat="45.1701" lon="5.9732">
        <ele>2638.4299316406</ele>
        <time>2017-05-05T09:35:52Z</time>
      </trkpt>
      <trkpt lat="45.17007" lon="5.97326">
        <ele>2640.4299316406</ele>
        <time>2017-05-05T09:35:57Z</time>
      </trkpt>
      <trkpt lat="45.17007" lon="5.97332">
        <ele>2642.4299316406</ele>
        <time>2017-05-05T09:36:11Z</time>
      </trkpt>
      <trkpt lat="45.17007" lon="5.9734">
        <ele>2649.4299316406</ele>
        <time>2017-05-05T09:37:08Z</time>
      </trkpt>
      <trkpt lat="45.17008" lon="5.97346">
        <ele>2651.4299316406</ele>
        <time>2017-05-05T09:37:21Z</time>
      </trkpt>
      <trkpt lat="45.17007" lon="5.97355">
        <ele>2649.4299316406</ele>
        <time>2017-05-05T09:37:32Z</time>
      </trkpt>
      <trkpt lat="45.17008" lon="5.97361">
        <ele>2650.4299316406</ele>
        <time>2017-05-05T09:37:45Z</time>
      </trkpt>
      <trkpt lat="45.17007" lon="5.97367">
        <ele>2652.4299316406</ele>
        <time>2017-05-05T09:38:01Z</time>
      </trkpt>
      <trkpt lat="45.1701" lon="5.97373">
        <ele>2661.4299316406</ele>
        <time>2017-05-05T09:39:18Z</time>
      </trkpt>
      <trkpt lat="45.17013" lon="5.97378">
        <ele>2664.4299316406</ele>
        <time>2017-05-05T09:41:26Z</time>
      </trkpt>
      <trkpt lat="45.17016" lon="5.97384">
        <ele>2663.4299316406</ele>
        <time>2017-05-05T09:41:39Z</time>
      </trkpt>
      <trkpt lat="45.17015" lon="5.97391">
        <ele>2665.4299316406</ele>
        <time>2017-05-05T09:41:45Z</time>
      </trkpt>
      <trkpt lat="45.17016" lon="5.97398">
        <ele>2665.4299316406</ele>
        <time>2017-05-05T09:41:56Z</time>
      </trkpt>
      <trkpt lat="45.17017" lon="5.97406">
        <ele>2664.4299316406</ele>
        <time>2017-05-05T09:42:08Z</time>
      </trkpt>
      <trkpt lat="45.17018" lon="5.97412">
        <ele>2663.4299316406</ele>
        <time>2017-05-05T09:42:38Z</time>
      </trkpt>
      <trkpt lat="45.17021" lon="5.97418">
        <ele>2671.4299316406</ele>
        <time>2017-05-05T09:43:18Z</time>
      </trkpt>
      <trkpt lat="45.17025" lon="5.97417">
        <ele>2678.4299316406</ele>
        <time>2017-05-05T09:43:33Z</time>
      </trkpt>
      <trkpt lat="45.17031" lon="5.97416">
        <ele>2681.4299316406</ele>
        <time>2017-05-05T09:44:22Z</time>
      </trkpt>
      <trkpt lat="45.17035" lon="5.97412">
        <ele>2683.4299316406</ele>
        <time>2017-05-05T09:44:30Z</time>
      </trkpt>
      <trkpt lat="45.17037" lon="5.97406">
        <ele>2686.4299316406</ele>
        <time>2017-05-05T09:44:43Z</time>
      </trkpt>
      <trkpt lat="45.17039" lon="5.974">
        <ele>2684.4299316406</ele>
        <time>2017-05-05T09:45:58Z</time>
      </trkpt>
      <trkpt lat="45.17044" lon="5.97398">
        <ele>2684.4299316406</ele>
        <time>2017-05-05T09:46:19Z</time>
      </trkpt>
      <trkpt lat="45.17047" lon="5.97393">
        <ele>2688.4299316406</ele>
        <time>2017-05-05T09:47:31Z</time>
      </trkpt>
      <trkpt lat="45.17045" lon="5.97386">
        <ele>2691.4299316406</ele>
        <time>2017-05-05T09:47:45Z</time>
      </trkpt>
      <trkpt lat="45.1705" lon="5.97387">
        <ele>2691.4299316406</ele>
        <time>2017-05-05T09:48:17Z</time>
      </trkpt>
      <trkpt lat="45.17054" lon="5.97392">
        <ele>2693.4299316406</ele>
        <time>2017-05-05T09:48:27Z</time>
      </trkpt>
      <trkpt lat="45.17057" lon="5.97397">
        <ele>2697.4299316406</ele>
        <time>2017-05-05T09:48:35Z</time>
      </trkpt>
      <trkpt lat="45.17062" lon="5.97401">
        <ele>2698.4299316406</ele>
        <time>2017-05-05T09:49:19Z</time>
      </trkpt>
      <trkpt lat="45.17066" lon="5.97404">
        <ele>2699.4299316406</ele>
        <time>2017-05-05T09:49:36Z</time>
      </trkpt>
      <trkpt lat="45.17071" lon="5.97409">
        <ele>2701.4299316406</ele>
        <time>2017-05-05T09:49:43Z</time>
      </trkpt>
      <trkpt lat="45.17075" lon="5.97412">
        <ele>2707.4299316406</ele>
        <time>2017-05-05T09:50:09Z</time>
      </trkpt>
      <trkpt lat="45.17076" lon="5.97419">
        <ele>2710.4309082031</ele>
        <time>2017-05-05T09:51:00Z</time>
      </trkpt>
      <trkpt lat="45.1708" lon="5.97422">
        <ele>2716.4309082031</ele>
        <time>2017-05-05T09:52:03Z</time>
      </trkpt>
      <trkpt lat="45.17085" lon="5.97425">
        <ele>2719.4309082031</ele>
        <time>2017-05-05T09:52:23Z</time>
      </trkpt>
      <trkpt lat="45.17089" lon="5.97428">
        <ele>2720.4309082031</ele>
        <time>2017-05-05T09:54:14Z</time>
      </trkpt>
      <trkpt lat="45.17093" lon="5.97431">
        <ele>2727.4309082031</ele>
        <time>2017-05-05T09:54:22Z</time>
      </trkpt>
      <trkpt lat="45.17096" lon="5.97436">
        <ele>2727.4309082031</ele>
        <time>2017-05-05T09:55:23Z</time>
      </trkpt>
      <trkpt lat="45.17101" lon="5.97439">
        <ele>2731.4309082031</ele>
        <time>2017-05-05T09:56:03Z</time>
      </trkpt>
      <trkpt lat="45.17107" lon="5.97439">
        <ele>2736.4309082031</ele>
        <time>2017-05-05T09:56:25Z</time>
      </trkpt>
      <trkpt lat="45.17111" lon="5.9744">
        <ele>2736.4309082031</ele>
        <time>2017-05-05T10:01:02Z</time>
      </trkpt>
      <trkpt lat="45.17116" lon="5.97438">
        <ele>2738.4309082031</ele>
        <time>2017-05-05T10:05:20Z</time>
      </trkpt>
      <trkpt lat="45.17121" lon="5.97438">
        <ele>2742.4309082031</ele>
        <time>2017-05-05T10:05:49Z</time>
      </trkpt>
      <trkpt lat="45.17124" lon="5.97443">
        <ele>2747.4309082031</ele>
        <time>2017-05-05T10:06:20Z</time>
      </trkpt>
      <trkpt lat="45.17128" lon="5.97441">
        <ele>2748.4309082031</ele>
        <time>2017-05-05T10:06:58Z</time>
      </trkpt>
      <trkpt lat="45.17132" lon="5.97446">
        <ele>2751.4309082031</ele>
        <time>2017-05-05T10:07:18Z</time>
      </trkpt>
      <trkpt lat="45.17136" lon="5.97441">
        <ele>2753.4309082031</ele>
        <time>2017-05-05T10:07:34Z</time>
      </trkpt>
      <trkpt lat="45.17139" lon="5.97447">
        <ele>2757.4309082031</ele>
        <time>2017-05-05T10:08:20Z</time>
      </trkpt>
      <trkpt lat="45.17143" lon="5.9745">
        <ele>2759.4309082031</ele>
        <time>2017-05-05T10:08:34Z</time>
      </trkpt>
      <trkpt lat="45.17145" lon="5.97456">
        <ele>2765.4309082031</ele>
        <time>2017-05-05T10:10:11Z</time>
      </trkpt>
      <trkpt lat="45.17147" lon="5.97449">
        <ele>2768.4309082031</ele>
        <time>2017-05-05T10:17:36Z</time>
      </trkpt>
      <trkpt lat="45.17147" lon="5.97442">
        <ele>2768.4309082031</ele>
        <time>2017-05-05T10:17:41Z</time>
      </trkpt>
      <trkpt lat="45.17149" lon="5.97436">
        <ele>2764.4309082031</ele>
        <time>2017-05-05T10:18:51Z</time>
      </trkpt>
      <trkpt lat="45.1715" lon="5.9743">
        <ele>2764.4309082031</ele>
        <time>2017-05-05T10:25:10Z</time>
      </trkpt>
      <trkpt lat="45.17147" lon="5.97423">
        <ele>2762.4309082031</ele>
        <time>2017-05-05T10:25:14Z</time>
      </trkpt>
      <trkpt lat="45.17145" lon="5.97417">
        <ele>2760.4309082031</ele>
        <time>2017-05-05T10:25:18Z</time>
      </trkpt>
      <trkpt lat="45.17145" lon="5.97408">
        <ele>2750.4309082031</ele>
        <time>2017-05-05T10:25:32Z</time>
      </trkpt>
      <trkpt lat="45.17147" lon="5.974">
        <ele>2746.4309082031</ele>
        <time>2017-05-05T10:25:35Z</time>
      </trkpt>
      <trkpt lat="45.17146" lon="5.97393">
        <ele>2744.4309082031</ele>
        <time>2017-05-05T10:25:37Z</time>
      </trkpt>
      <trkpt lat="45.17148" lon="5.97387">
        <ele>2742.4309082031</ele>
        <time>2017-05-05T10:25:43Z</time>
      </trkpt>
      <trkpt lat="45.17147" lon="5.97378">
        <ele>2739.4309082031</ele>
        <time>2017-05-05T10:25:48Z</time>
      </trkpt>
      <trkpt lat="45.17147" lon="5.97371">
        <ele>2739.4309082031</ele>
        <time>2017-05-05T10:26:00Z</time>
      </trkpt>
      <trkpt lat="45.17142" lon="5.9737">
        <ele>2735.4309082031</ele>
        <time>2017-05-05T10:26:18Z</time>
      </trkpt>
      <trkpt lat="45.17144" lon="5.97363">
        <ele>2733.4309082031</ele>
        <time>2017-05-05T10:26:21Z</time>
      </trkpt>
      <trkpt lat="45.17146" lon="5.97356">
        <ele>2731.4309082031</ele>
        <time>2017-05-05T10:26:24Z</time>
      </trkpt>
      <trkpt lat="45.17147" lon="5.9735">
        <ele>2731.4309082031</ele>
        <time>2017-05-05T10:26:34Z</time>
      </trkpt>
      <trkpt lat="45.17141" lon="5.97353">
        <ele>2726.4309082031</ele>
        <time>2017-05-05T10:27:57Z</time>
      </trkpt>
      <trkpt lat="45.1714" lon="5.97346">
        <ele>2720.4309082031</ele>
        <time>2017-05-05T10:28:00Z</time>
      </trkpt>
      <trkpt lat="45.17138" lon="5.9734">
        <ele>2717.4309082031</ele>
        <time>2017-05-05T10:28:11Z</time>
      </trkpt>
      <trkpt lat="45.17141" lon="5.97334">
        <ele>2709.4309082031</ele>
        <time>2017-05-05T10:29:51Z</time>
      </trkpt>
      <trkpt lat="45.17144" lon="5.97328">
        <ele>2705.4309082031</ele>
        <time>2017-05-05T10:29:54Z</time>
      </trkpt>
      <trkpt lat="45.17144" lon="5.9732">
        <ele>2703.4309082031</ele>
        <time>2017-05-05T10:29:57Z</time>
      </trkpt>
      <trkpt lat="45.17147" lon="5.97313">
        <ele>2699.4299316406</ele>
        <time>2017-05-05T10:29:59Z</time>
      </trkpt>
      <trkpt lat="45.17152" lon="5.97305">
        <ele>2696.4299316406</ele>
        <time>2017-05-05T10:30:01Z</time>
      </trkpt>
      <trkpt lat="45.17154" lon="5.97299">
        <ele>2695.4299316406</ele>
        <time>2017-05-05T10:30:15Z</time>
      </trkpt>
      <trkpt lat="45.17154" lon="5.97293">
        <ele>2700.4299316406</ele>
        <time>2017-05-05T10:30:40Z</time>
      </trkpt>
      <trkpt lat="45.17159" lon="5.97289">
        <ele>2697.4299316406</ele>
        <time>2017-05-05T10:40:53Z</time>
      </trkpt>
      <trkpt lat="45.17165" lon="5.97294">
        <ele>2696.4309082031</ele>
        <time>2017-05-05T10:41:03Z</time>
      </trkpt>
      <trkpt lat="45.17173" lon="5.9729">
        <ele>2694.4309082031</ele>
        <time>2017-05-05T10:41:06Z</time>
      </trkpt>
      <trkpt lat="45.17179" lon="5.97293">
        <ele>2691.4309082031</ele>
        <time>2017-05-05T10:41:08Z</time>
      </trkpt>
      <trkpt lat="45.17182" lon="5.973">
        <ele>2690.4309082031</ele>
        <time>2017-05-05T10:41:10Z</time>
      </trkpt>
      <trkpt lat="45.17183" lon="5.97309">
        <ele>2690.4309082031</ele>
        <time>2017-05-05T10:42:47Z</time>
      </trkpt>
      <trkpt lat="45.17187" lon="5.97305">
        <ele>2680.4309082031</ele>
        <time>2017-05-05T10:44:00Z</time>
      </trkpt>
      <trkpt lat="45.17188" lon="5.97311">
        <ele>2677.4309082031</ele>
        <time>2017-05-05T10:44:06Z</time>
      </trkpt>
      <trkpt lat="45.17193" lon="5.97307">
        <ele>2670.4309082031</ele>
        <time>2017-05-05T10:44:21Z</time>
      </trkpt>
      <trkpt lat="45.17197" lon="5.97304">
        <ele>2667.4309082031</ele>
        <time>2017-05-05T10:44:54Z</time>
      </trkpt>
      <trkpt lat="45.17193" lon="5.97309">
        <ele>2671.4309082031</ele>
        <time>2017-05-05T10:45:00Z</time>
      </trkpt>
      <trkpt lat="45.17185" lon="5.97308">
        <ele>2670.4309082031</ele>
        <time>2017-05-05T10:45:34Z</time>
      </trkpt>
      <trkpt lat="45.17183" lon="5.97317">
        <ele>2667.4309082031</ele>
        <time>2017-05-05T10:45:37Z</time>
      </trkpt>
      <trkpt lat="45.17189" lon="5.97313">
        <ele>2670.4309082031</ele>
        <time>2017-05-05T10:45:40Z</time>
      </trkpt>
      <trkpt lat="45.17194" lon="5.97309">
        <ele>2669.4309082031</ele>
        <time>2017-05-05T10:45:45Z</time>
      </trkpt>
      <trkpt lat="45.17197" lon="5.97305">
        <ele>2666.4309082031</ele>
        <time>2017-05-05T10:45:49Z</time>
      </trkpt>
      <trkpt lat="45.17201" lon="5.973">
        <ele>2664.4309082031</ele>
        <time>2017-05-05T10:46:00Z</time>
      </trkpt>
      <trkpt lat="45.17205" lon="5.97296">
        <ele>2662.4309082031</ele>
        <time>2017-05-05T10:46:06Z</time>
      </trkpt>
      <trkpt lat="45.17209" lon="5.97292">
        <ele>2662.4309082031</ele>
        <time>2017-05-05T10:46:36Z</time>
      </trkpt>
      <trkpt lat="45.17216" lon="5.9728">
        <ele>2661.4309082031</ele>
        <time>2017-05-05T10:46:37Z</time>
      </trkpt>
      <trkpt lat="45.17223" lon="5.97275">
        <ele>2662.4309082031</ele>
        <time>2017-05-05T10:46:39Z</time>
      </trkpt>
      <trkpt lat="45.17222" lon="5.97282">
        <ele>2662.4309082031</ele>
        <time>2017-05-05T10:46:46Z</time>
      </trkpt>
      <trkpt lat="45.17228" lon="5.97279">
        <ele>2663.4309082031</ele>
        <time>2017-05-05T10:46:47Z</time>
      </trkpt>
      <trkpt lat="45.17223" lon="5.97284">
        <ele>2663.4309082031</ele>
        <time>2017-05-05T10:46:56Z</time>
      </trkpt>
      <trkpt lat="45.17231" lon="5.97283">
        <ele>2660.4309082031</ele>
        <time>2017-05-05T10:46:58Z</time>
      </trkpt>
      <trkpt lat="45.17237" lon="5.97286">
        <ele>2664.4309082031</ele>
        <time>2017-05-05T10:47:01Z</time>
      </trkpt>
      <trkpt lat="45.1723" lon="5.97292">
        <ele>2661.4309082031</ele>
        <time>2017-05-05T10:47:03Z</time>
      </trkpt>
      <trkpt lat="45.17216" lon="5.97294">
        <ele>2655.4309082031</ele>
        <time>2017-05-05T10:47:04Z</time>
      </trkpt>
      <trkpt lat="45.1722" lon="5.973">
        <ele>2653.4309082031</ele>
        <time>2017-05-05T10:47:06Z</time>
      </trkpt>
      <trkpt lat="45.17228" lon="5.97301">
        <ele>2654.4309082031</ele>
        <time>2017-05-05T10:47:08Z</time>
      </trkpt>
      <trkpt lat="45.17224" lon="5.97305">
        <ele>2654.4309082031</ele>
        <time>2017-05-05T10:47:10Z</time>
      </trkpt>
      <trkpt lat="45.17228" lon="5.9731">
        <ele>2652.4309082031</ele>
        <time>2017-05-05T10:47:15Z</time>
      </trkpt>
      <trkpt lat="45.17235" lon="5.97308">
        <ele>2654.4309082031</ele>
        <time>2017-05-05T10:47:20Z</time>
      </trkpt>
      <trkpt lat="45.1724" lon="5.97315">
        <ele>2654.4309082031</ele>
        <time>2017-05-05T10:47:21Z</time>
      </trkpt>
      <trkpt lat="45.17244" lon="5.97311">
        <ele>2653.4309082031</ele>
        <time>2017-05-05T10:47:24Z</time>
      </trkpt>
      <trkpt lat="45.17248" lon="5.97314">
        <ele>2651.4309082031</ele>
        <time>2017-05-05T10:47:29Z</time>
      </trkpt>
      <trkpt lat="45.17244" lon="5.97317">
        <ele>2651.4309082031</ele>
        <time>2017-05-05T10:47:30Z</time>
      </trkpt>
      <trkpt lat="45.17249" lon="5.97321">
        <ele>2646.4309082031</ele>
        <time>2017-05-05T10:47:35Z</time>
      </trkpt>
      <trkpt lat="45.17253" lon="5.97318">
        <ele>2642.4309082031</ele>
        <time>2017-05-05T10:47:38Z</time>
      </trkpt>
      <trkpt lat="45.17267" lon="5.97317">
        <ele>2641.4309082031</ele>
        <time>2017-05-05T10:47:42Z</time>
      </trkpt>
      <trkpt lat="45.17267" lon="5.97332">
        <ele>2639.4309082031</ele>
        <time>2017-05-05T10:47:44Z</time>
      </trkpt>
      <trkpt lat="45.17268" lon="5.97324">
        <ele>2633.4309082031</ele>
        <time>2017-05-05T10:47:45Z</time>
      </trkpt>
      <trkpt lat="45.17278" lon="5.97327">
        <ele>2632.4309082031</ele>
        <time>2017-05-05T10:47:48Z</time>
      </trkpt>
      <trkpt lat="45.1729" lon="5.97331">
        <ele>2632.4309082031</ele>
        <time>2017-05-05T10:47:50Z</time>
      </trkpt>
      <trkpt lat="45.17303" lon="5.97335">
        <ele>2634.4309082031</ele>
        <time>2017-05-05T10:47:52Z</time>
      </trkpt>
      <trkpt lat="45.1731" lon="5.97328">
        <ele>2632.4309082031</ele>
        <time>2017-05-05T10:47:54Z</time>
      </trkpt>
      <trkpt lat="45.1731" lon="5.97337">
        <ele>2631.4309082031</ele>
        <time>2017-05-05T10:47:55Z</time>
      </trkpt>
      <trkpt lat="45.1732" lon="5.97342">
        <ele>2629.4309082031</ele>
        <time>2017-05-05T10:47:57Z</time>
      </trkpt>
      <trkpt lat="45.17321" lon="5.97351">
        <ele>2616.4309082031</ele>
        <time>2017-05-05T10:48:12Z</time>
      </trkpt>
      <trkpt lat="45.17317" lon="5.97352">
        <ele>2618.4309082031</ele>
        <time>2017-05-05T10:49:08Z</time>
      </trkpt>
      <trkpt lat="45.17322" lon="5.97356">
        <ele>2617.4309082031</ele>
        <time>2017-05-05T10:49:49Z</time>
      </trkpt>
      <trkpt lat="45.1733" lon="5.97358">
        <ele>2616.4309082031</ele>
        <time>2017-05-05T10:49:51Z</time>
      </trkpt>
      <trkpt lat="45.17338" lon="5.97366">
        <ele>2616.4309082031</ele>
        <time>2017-05-05T10:49:53Z</time>
      </trkpt>
      <trkpt lat="45.17345" lon="5.97366">
        <ele>2616.4309082031</ele>
        <time>2017-05-05T10:49:55Z</time>
      </trkpt>
      <trkpt lat="45.1736" lon="5.97362">
        <ele>2616.4309082031</ele>
        <time>2017-05-05T10:49:57Z</time>
      </trkpt>
      <trkpt lat="45.17367" lon="5.97364">
        <ele>2614.4309082031</ele>
        <time>2017-05-05T10:49:58Z</time>
      </trkpt>
      <trkpt lat="45.17357" lon="5.97355">
        <ele>2586.4309082031</ele>
        <time>2017-05-05T10:50:01Z</time>
      </trkpt>
      <trkpt lat="45.17362" lon="5.97347">
        <ele>2571.4309082031</ele>
        <time>2017-05-05T10:50:03Z</time>
      </trkpt>
      <trkpt lat="45.17368" lon="5.97347">
        <ele>2565.4309082031</ele>
        <time>2017-05-05T10:50:04Z</time>
      </trkpt>
      <trkpt lat="45.17375" lon="5.97352">
        <ele>2554.4309082031</ele>
        <time>2017-05-05T10:50:06Z</time>
      </trkpt>
      <trkpt lat="45.17389" lon="5.97352">
        <ele>2545.4309082031</ele>
        <time>2017-05-05T10:50:08Z</time>
      </trkpt>
      <trkpt lat="45.17393" lon="5.97365">
        <ele>2542.4309082031</ele>
        <time>2017-05-05T10:50:10Z</time>
      </trkpt>
      <trkpt lat="45.17401" lon="5.97361">
        <ele>2537.4309082031</ele>
        <time>2017-05-05T10:50:12Z</time>
      </trkpt>
      <trkpt lat="45.17416" lon="5.97353">
        <ele>2531.4309082031</ele>
        <time>2017-05-05T10:50:14Z</time>
      </trkpt>
      <trkpt lat="45.17428" lon="5.97358">
        <ele>2522.4309082031</ele>
        <time>2017-05-05T10:50:18Z</time>
      </trkpt>
      <trkpt lat="45.17438" lon="5.97357">
        <ele>2519.4309082031</ele>
        <time>2017-05-05T10:50:20Z</time>
      </trkpt>
      <trkpt lat="45.17433" lon="5.97354">
        <ele>2509.4309082031</ele>
        <time>2017-05-05T10:50:22Z</time>
      </trkpt>
      <trkpt lat="45.17426" lon="5.97352">
        <ele>2502.4309082031</ele>
        <time>2017-05-05T10:50:24Z</time>
      </trkpt>
      <trkpt lat="45.1742" lon="5.97352">
        <ele>2496.4309082031</ele>
        <time>2017-05-05T10:50:29Z</time>
      </trkpt>
      <trkpt lat="45.17416" lon="5.97351">
        <ele>2490.4309082031</ele>
        <time>2017-05-05T10:50:38Z</time>
      </trkpt>
      <trkpt lat="45.1742" lon="5.97346">
        <ele>2481.4309082031</ele>
        <time>2017-05-05T10:50:49Z</time>
      </trkpt>
      <trkpt lat="45.17425" lon="5.97353">
        <ele>2475.4309082031</ele>
        <time>2017-05-05T10:50:51Z</time>
      </trkpt>
      <trkpt lat="45.17432" lon="5.97354">
        <ele>2468.4309082031</ele>
        <time>2017-05-05T10:50:54Z</time>
      </trkpt>
      <trkpt lat="45.1744" lon="5.97347">
        <ele>2465.4309082031</ele>
        <time>2017-05-05T10:50:56Z</time>
      </trkpt>
      <trkpt lat="45.17442" lon="5.97348">
        <ele>2447.4309082031</ele>
        <time>2017-05-05T10:51:01Z</time>
      </trkpt>
      <trkpt lat="45.17447" lon="5.97347">
        <ele>2440.4309082031</ele>
        <time>2017-05-05T10:51:03Z</time>
      </trkpt>
      <trkpt lat="45.17455" lon="5.97359">
        <ele>2434.4309082031</ele>
        <time>2017-05-05T10:51:06Z</time>
      </trkpt>
      <trkpt lat="45.17463" lon="5.97368">
        <ele>2431.4309082031</ele>
        <time>2017-05-05T10:51:08Z</time>
      </trkpt>
      <trkpt lat="45.17466" lon="5.97374">
        <ele>2427.4309082031</ele>
        <time>2017-05-05T10:51:10Z</time>
      </trkpt>
      <trkpt lat="45.17475" lon="5.97373">
        <ele>2424.4309082031</ele>
        <time>2017-05-05T10:51:12Z</time>
      </trkpt>
      <trkpt lat="45.17479" lon="5.97374">
        <ele>2419.4309082031</ele>
        <time>2017-05-05T10:51:13Z</time>
      </trkpt>
      <trkpt lat="45.17482" lon="5.97369">
        <ele>2412.4309082031</ele>
        <time>2017-05-05T10:51:14Z</time>
      </trkpt>
      <trkpt lat="45.17492" lon="5.97363">
        <ele>2403.4309082031</ele>
        <time>2017-05-05T10:51:16Z</time>
      </trkpt>
      <trkpt lat="45.17502" lon="5.97362">
        <ele>2394.4309082031</ele>
        <time>2017-05-05T10:51:18Z</time>
      </trkpt>
      <trkpt lat="45.17512" lon="5.97371">
        <ele>2387.4309082031</ele>
        <time>2017-05-05T10:51:20Z</time>
      </trkpt>
      <trkpt lat="45.1753" lon="5.97373">
        <ele>2382.4309082031</ele>
        <time>2017-05-05T10:51:23Z</time>
      </trkpt>
      <trkpt lat="45.17537" lon="5.97373">
        <ele>2378.4309082031</ele>
        <time>2017-05-05T10:51:24Z</time>
      </trkpt>
      <trkpt lat="45.17551" lon="5.97372">
        <ele>2372.4309082031</ele>
        <time>2017-05-05T10:51:26Z</time>
      </trkpt>
      <trkpt lat="45.17573" lon="5.9737">
        <ele>2365.4309082031</ele>
        <time>2017-05-05T10:51:29Z</time>
      </trkpt>
      <trkpt lat="45.17578" lon="5.97374">
        <ele>2360.4309082031</ele>
        <time>2017-05-05T10:51:30Z</time>
      </trkpt>
      <trkpt lat="45.17594" lon="5.97376">
        <ele>2356.4309082031</ele>
        <time>2017-05-05T10:51:32Z</time>
      </trkpt>
      <trkpt lat="45.17611" lon="5.97379">
        <ele>2351.4318847656</ele>
        <time>2017-05-05T10:51:34Z</time>
      </trkpt>
      <trkpt lat="45.17624" lon="5.97378">
        <ele>2335.4318847656</ele>
        <time>2017-05-05T10:51:37Z</time>
      </trkpt>
      <trkpt lat="45.17636" lon="5.97379">
        <ele>2324.4318847656</ele>
        <time>2017-05-05T10:51:39Z</time>
      </trkpt>
      <trkpt lat="45.17644" lon="5.97382">
        <ele>2311.4318847656</ele>
        <time>2017-05-05T10:51:41Z</time>
      </trkpt>
      <trkpt lat="45.17658" lon="5.97378">
        <ele>2292.4318847656</ele>
        <time>2017-05-05T10:51:44Z</time>
      </trkpt>
      <trkpt lat="45.17667" lon="5.97376">
        <ele>2280.4318847656</ele>
        <time>2017-05-05T10:51:46Z</time>
      </trkpt>
      <trkpt lat="45.17682" lon="5.9737">
        <ele>2267.4318847656</ele>
        <time>2017-05-05T10:51:49Z</time>
      </trkpt>
      <trkpt lat="45.1769" lon="5.9737">
        <ele>2262.4318847656</ele>
        <time>2017-05-05T10:51:50Z</time>
      </trkpt>
      <trkpt lat="45.17694" lon="5.97365">
        <ele>2258.4318847656</ele>
        <time>2017-05-05T10:51:51Z</time>
      </trkpt>
      <trkpt lat="45.17703" lon="5.97364">
        <ele>2249.4318847656</ele>
        <time>2017-05-05T10:51:53Z</time>
      </trkpt>
      <trkpt lat="45.17713" lon="5.9736">
        <ele>2240.4318847656</ele>
        <time>2017-05-05T10:51:55Z</time>
      </trkpt>
      <trkpt lat="45.17724" lon="5.9736">
        <ele>2234.4318847656</ele>
        <time>2017-05-05T10:51:57Z</time>
      </trkpt>
      <trkpt lat="45.17738" lon="5.97352">
        <ele>2224.4318847656</ele>
        <time>2017-05-05T10:52:00Z</time>
      </trkpt>
      <trkpt lat="45.17747" lon="5.97348">
        <ele>2219.4318847656</ele>
        <time>2017-05-05T10:52:02Z</time>
      </trkpt>
      <trkpt lat="45.17756" lon="5.97348">
        <ele>2212.4318847656</ele>
        <time>2017-05-05T10:52:04Z</time>
      </trkpt>
      <trkpt lat="45.17769" lon="5.97346">
        <ele>2201.4318847656</ele>
        <time>2017-05-05T10:52:07Z</time>
      </trkpt>
      <trkpt lat="45.17766" lon="5.97341">
        <ele>2196.4318847656</ele>
        <time>2017-05-05T10:52:12Z</time>
      </trkpt>
      <trkpt lat="45.17762" lon="5.97345">
        <ele>2186.4318847656</ele>
        <time>2017-05-05T10:52:20Z</time>
      </trkpt>
      <trkpt lat="45.1776" lon="5.97338">
        <ele>2177.4318847656</ele>
        <time>2017-05-05T10:53:19Z</time>
      </trkpt>
      <trkpt lat="45.17762" lon="5.97329">
        <ele>2177.4318847656</ele>
        <time>2017-05-05T10:53:23Z</time>
      </trkpt>
      <trkpt lat="45.17763" lon="5.97323">
        <ele>2176.4318847656</ele>
        <time>2017-05-05T10:53:26Z</time>
      </trkpt>
      <trkpt lat="45.17765" lon="5.97316">
        <ele>2175.4318847656</ele>
        <time>2017-05-05T10:53:30Z</time>
      </trkpt>
      <trkpt lat="45.17767" lon="5.97308">
        <ele>2173.4318847656</ele>
        <time>2017-05-05T10:53:33Z</time>
      </trkpt>
      <trkpt lat="45.17766" lon="5.973">
        <ele>2170.4318847656</ele>
        <time>2017-05-05T10:53:36Z</time>
      </trkpt>
      <trkpt lat="45.17767" lon="5.97293">
        <ele>2169.4318847656</ele>
        <time>2017-05-05T10:53:41Z</time>
      </trkpt>
      <trkpt lat="45.17765" lon="5.97287">
        <ele>2166.4318847656</ele>
        <time>2017-05-05T10:53:45Z</time>
      </trkpt>
      <trkpt lat="45.17764" lon="5.97279">
        <ele>2166.4318847656</ele>
        <time>2017-05-05T10:53:49Z</time>
      </trkpt>
      <trkpt lat="45.17764" lon="5.97272">
        <ele>2164.4318847656</ele>
        <time>2017-05-05T10:53:52Z</time>
      </trkpt>
      <trkpt lat="45.17762" lon="5.97266">
        <ele>2165.4318847656</ele>
        <time>2017-05-05T10:53:55Z</time>
      </trkpt>
      <trkpt lat="45.1776" lon="5.9726">
        <ele>2165.4318847656</ele>
        <time>2017-05-05T10:53:57Z</time>
      </trkpt>
      <trkpt lat="45.17759" lon="5.97252">
        <ele>2165.4318847656</ele>
        <time>2017-05-05T10:54:01Z</time>
      </trkpt>
      <trkpt lat="45.17757" lon="5.97244">
        <ele>2166.4318847656</ele>
        <time>2017-05-05T10:54:04Z</time>
      </trkpt>
      <trkpt lat="45.17756" lon="5.97237">
        <ele>2167.4318847656</ele>
        <time>2017-05-05T10:54:08Z</time>
      </trkpt>
      <trkpt lat="45.17753" lon="5.9723">
        <ele>2167.4318847656</ele>
        <time>2017-05-05T10:58:24Z</time>
      </trkpt>
      <trkpt lat="45.17752" lon="5.97222">
        <ele>2170.4318847656</ele>
        <time>2017-05-05T10:58:32Z</time>
      </trkpt>
      <trkpt lat="45.1775" lon="5.97216">
        <ele>2169.4318847656</ele>
        <time>2017-05-05T10:58:37Z</time>
      </trkpt>
      <trkpt lat="45.17748" lon="5.9721">
        <ele>2169.4318847656</ele>
        <time>2017-05-05T10:58:43Z</time>
      </trkpt>
      <trkpt lat="45.17745" lon="5.97204">
        <ele>2169.4318847656</ele>
        <time>2017-05-05T10:58:50Z</time>
      </trkpt>
      <trkpt lat="45.17741" lon="5.97197">
        <ele>2169.4318847656</ele>
        <time>2017-05-05T10:58:56Z</time>
      </trkpt>
      <trkpt lat="45.17739" lon="5.97188">
        <ele>2167.4318847656</ele>
        <time>2017-05-05T10:59:02Z</time>
      </trkpt>
      <trkpt lat="45.17736" lon="5.97182">
        <ele>2165.4309082031</ele>
        <time>2017-05-05T10:59:08Z</time>
      </trkpt>
      <trkpt lat="45.17734" lon="5.97176">
        <ele>2164.4309082031</ele>
        <time>2017-05-05T10:59:12Z</time>
      </trkpt>
      <trkpt lat="45.17733" lon="5.97169">
        <ele>2163.4309082031</ele>
        <time>2017-05-05T10:59:17Z</time>
      </trkpt>
      <trkpt lat="45.1773" lon="5.97164">
        <ele>2164.4309082031</ele>
        <time>2017-05-05T10:59:23Z</time>
      </trkpt>
      <trkpt lat="45.1773" lon="5.97155">
        <ele>2163.4309082031</ele>
        <time>2017-05-05T10:59:28Z</time>
      </trkpt>
      <trkpt lat="45.17729" lon="5.97148">
        <ele>2164.4309082031</ele>
        <time>2017-05-05T10:59:31Z</time>
      </trkpt>
      <trkpt lat="45.17729" lon="5.97141">
        <ele>2167.4309082031</ele>
        <time>2017-05-05T10:59:34Z</time>
      </trkpt>
      <trkpt lat="45.17729" lon="5.97135">
        <ele>2166.4309082031</ele>
        <time>2017-05-05T10:59:40Z</time>
      </trkpt>
      <trkpt lat="45.1773" lon="5.97128">
        <ele>2168.4309082031</ele>
        <time>2017-05-05T10:59:44Z</time>
      </trkpt>
      <trkpt lat="45.17733" lon="5.97121">
        <ele>2169.4309082031</ele>
        <time>2017-05-05T10:59:48Z</time>
      </trkpt>
      <trkpt lat="45.17733" lon="5.97114">
        <ele>2169.4309082031</ele>
        <time>2017-05-05T10:59:52Z</time>
      </trkpt>
      <trkpt lat="45.17735" lon="5.97106">
        <ele>2172.4309082031</ele>
        <time>2017-05-05T10:59:56Z</time>
      </trkpt>
      <trkpt lat="45.17735" lon="5.971">
        <ele>2172.4309082031</ele>
        <time>2017-05-05T11:00:00Z</time>
      </trkpt>
      <trkpt lat="45.17735" lon="5.97093">
        <ele>2172.4309082031</ele>
        <time>2017-05-05T11:00:05Z</time>
      </trkpt>
      <trkpt lat="45.17735" lon="5.97085">
        <ele>2172.4309082031</ele>
        <time>2017-05-05T11:00:08Z</time>
      </trkpt>
      <trkpt lat="45.17736" lon="5.97077">
        <ele>2173.4309082031</ele>
        <time>2017-05-05T11:00:12Z</time>
      </trkpt>
      <trkpt lat="45.17736" lon="5.9707">
        <ele>2174.4309082031</ele>
        <time>2017-05-05T11:00:15Z</time>
      </trkpt>
      <trkpt lat="45.17737" lon="5.97062">
        <ele>2175.4309082031</ele>
        <time>2017-05-05T11:00:20Z</time>
      </trkpt>
      <trkpt lat="45.17736" lon="5.97054">
        <ele>2174.4309082031</ele>
        <time>2017-05-05T11:00:23Z</time>
      </trkpt>
      <trkpt lat="45.17738" lon="5.97048">
        <ele>2173.4309082031</ele>
        <time>2017-05-05T11:00:28Z</time>
      </trkpt>
      <trkpt lat="45.17738" lon="5.97039">
        <ele>2172.4309082031</ele>
        <time>2017-05-05T11:00:32Z</time>
      </trkpt>
      <trkpt lat="45.1774" lon="5.97033">
        <ele>2174.4309082031</ele>
        <time>2017-05-05T11:00:36Z</time>
      </trkpt>
      <trkpt lat="45.1774" lon="5.97025">
        <ele>2172.4309082031</ele>
        <time>2017-05-05T11:00:40Z</time>
      </trkpt>
      <trkpt lat="45.17741" lon="5.97017">
        <ele>2171.4309082031</ele>
        <time>2017-05-05T11:00:45Z</time>
      </trkpt>
      <trkpt lat="45.17744" lon="5.97011">
        <ele>2171.4309082031</ele>
        <time>2017-05-05T11:00:50Z</time>
      </trkpt>
      <trkpt lat="45.17746" lon="5.97004">
        <ele>2168.4309082031</ele>
        <time>2017-05-05T11:00:56Z</time>
      </trkpt>
      <trkpt lat="45.17747" lon="5.96997">
        <ele>2171.4309082031</ele>
        <time>2017-05-05T11:01:00Z</time>
      </trkpt>
      <trkpt lat="45.17748" lon="5.9699">
        <ele>2171.4309082031</ele>
        <time>2017-05-05T11:01:08Z</time>
      </trkpt>
      <trkpt lat="45.17748" lon="5.96983">
        <ele>2173.4309082031</ele>
        <time>2017-05-05T11:01:13Z</time>
      </trkpt>
      <trkpt lat="45.17752" lon="5.96979">
        <ele>2178.4309082031</ele>
        <time>2017-05-05T11:01:20Z</time>
      </trkpt>
      <trkpt lat="45.17755" lon="5.96972">
        <ele>2180.4309082031</ele>
        <time>2017-05-05T11:01:26Z</time>
      </trkpt>
      <trkpt lat="45.17757" lon="5.96965">
        <ele>2177.4309082031</ele>
        <time>2017-05-05T11:01:34Z</time>
      </trkpt>
      <trkpt lat="45.17757" lon="5.96959">
        <ele>2177.4309082031</ele>
        <time>2017-05-05T11:01:42Z</time>
      </trkpt>
      <trkpt lat="45.17755" lon="5.96953">
        <ele>2176.4309082031</ele>
        <time>2017-05-05T11:01:48Z</time>
      </trkpt>
      <trkpt lat="45.17755" lon="5.96946">
        <ele>2178.4309082031</ele>
        <time>2017-05-05T11:01:53Z</time>
      </trkpt>
      <trkpt lat="45.17754" lon="5.96939">
        <ele>2178.4309082031</ele>
        <time>2017-05-05T11:02:02Z</time>
      </trkpt>
      <trkpt lat="45.17752" lon="5.96932">
        <ele>2180.4309082031</ele>
        <time>2017-05-05T11:02:06Z</time>
      </trkpt>
      <trkpt lat="45.1775" lon="5.96926">
        <ele>2179.4309082031</ele>
        <time>2017-05-05T11:02:11Z</time>
      </trkpt>
      <trkpt lat="45.17748" lon="5.96919">
        <ele>2179.4309082031</ele>
        <time>2017-05-05T11:02:19Z</time>
      </trkpt>
      <trkpt lat="45.17747" lon="5.96912">
        <ele>2181.4309082031</ele>
        <time>2017-05-05T11:02:22Z</time>
      </trkpt>
      <trkpt lat="45.17745" lon="5.96906">
        <ele>2182.4309082031</ele>
        <time>2017-05-05T11:02:26Z</time>
      </trkpt>
      <trkpt lat="45.17743" lon="5.96899">
        <ele>2182.4309082031</ele>
        <time>2017-05-05T11:02:32Z</time>
      </trkpt>
      <trkpt lat="45.17744" lon="5.9689">
        <ele>2187.4309082031</ele>
        <time>2017-05-05T11:02:40Z</time>
      </trkpt>
      <trkpt lat="45.17742" lon="5.9688">
        <ele>2189.4309082031</ele>
        <time>2017-05-05T11:02:46Z</time>
      </trkpt>
      <trkpt lat="45.1774" lon="5.96874">
        <ele>2188.4309082031</ele>
        <time>2017-05-05T11:02:50Z</time>
      </trkpt>
      <trkpt lat="45.17739" lon="5.96867">
        <ele>2186.4309082031</ele>
        <time>2017-05-05T11:02:56Z</time>
      </trkpt>
      <trkpt lat="45.17738" lon="5.96861">
        <ele>2186.4309082031</ele>
        <time>2017-05-05T11:03:01Z</time>
      </trkpt>
      <trkpt lat="45.17736" lon="5.96854">
        <ele>2183.4309082031</ele>
        <time>2017-05-05T11:03:06Z</time>
      </trkpt>
      <trkpt lat="45.17733" lon="5.96847">
        <ele>2182.4309082031</ele>
        <time>2017-05-05T11:03:09Z</time>
      </trkpt>
      <trkpt lat="45.1773" lon="5.9684">
        <ele>2178.4309082031</ele>
        <time>2017-05-05T11:03:13Z</time>
      </trkpt>
      <trkpt lat="45.17729" lon="5.96834">
        <ele>2177.4309082031</ele>
        <time>2017-05-05T11:03:16Z</time>
      </trkpt>
      <trkpt lat="45.1773" lon="5.96826">
        <ele>2179.4309082031</ele>
        <time>2017-05-05T11:03:22Z</time>
      </trkpt>
      <trkpt lat="45.17731" lon="5.96817">
        <ele>2178.4309082031</ele>
        <time>2017-05-05T11:03:32Z</time>
      </trkpt>
      <trkpt lat="45.17729" lon="5.9681">
        <ele>2178.4309082031</ele>
        <time>2017-05-05T11:03:35Z</time>
      </trkpt>
      <trkpt lat="45.17729" lon="5.96803">
        <ele>2180.4309082031</ele>
        <time>2017-05-05T11:03:40Z</time>
      </trkpt>
      <trkpt lat="45.17731" lon="5.96795">
        <ele>2183.4309082031</ele>
        <time>2017-05-05T11:03:46Z</time>
      </trkpt>
      <trkpt lat="45.17732" lon="5.96789">
        <ele>2187.4309082031</ele>
        <time>2017-05-05T11:03:51Z</time>
      </trkpt>
      <trkpt lat="45.17733" lon="5.96782">
        <ele>2189.4309082031</ele>
        <time>2017-05-05T11:03:56Z</time>
      </trkpt>
      <trkpt lat="45.17734" lon="5.96775">
        <ele>2190.4309082031</ele>
        <time>2017-05-05T11:04:01Z</time>
      </trkpt>
      <trkpt lat="45.17734" lon="5.96769">
        <ele>2190.4309082031</ele>
        <time>2017-05-05T11:04:05Z</time>
      </trkpt>
      <trkpt lat="45.17735" lon="5.96761">
        <ele>2192.4309082031</ele>
        <time>2017-05-05T11:04:11Z</time>
      </trkpt>
      <trkpt lat="45.17736" lon="5.96754">
        <ele>2194.4309082031</ele>
        <time>2017-05-05T11:04:16Z</time>
      </trkpt>
      <trkpt lat="45.17737" lon="5.96747">
        <ele>2195.4309082031</ele>
        <time>2017-05-05T11:04:21Z</time>
      </trkpt>
      <trkpt lat="45.1774" lon="5.9674">
        <ele>2197.4309082031</ele>
        <time>2017-05-05T11:04:29Z</time>
      </trkpt>
      <trkpt lat="45.17741" lon="5.96733">
        <ele>2199.4309082031</ele>
        <time>2017-05-05T11:04:37Z</time>
      </trkpt>
      <trkpt lat="45.17743" lon="5.96727">
        <ele>2195.4309082031</ele>
        <time>2017-05-05T11:04:44Z</time>
      </trkpt>
      <trkpt lat="45.17744" lon="5.96719">
        <ele>2195.4309082031</ele>
        <time>2017-05-05T11:04:52Z</time>
      </trkpt>
      <trkpt lat="45.17747" lon="5.96713">
        <ele>2199.4309082031</ele>
        <time>2017-05-05T11:04:58Z</time>
      </trkpt>
      <trkpt lat="45.17747" lon="5.96706">
        <ele>2196.4309082031</ele>
        <time>2017-05-05T11:05:04Z</time>
      </trkpt>
      <trkpt lat="45.17748" lon="5.967">
        <ele>2199.4309082031</ele>
        <time>2017-05-05T11:05:08Z</time>
      </trkpt>
      <trkpt lat="45.1775" lon="5.96693">
        <ele>2200.4309082031</ele>
        <time>2017-05-05T11:05:13Z</time>
      </trkpt>
      <trkpt lat="45.17752" lon="5.96686">
        <ele>2202.4309082031</ele>
        <time>2017-05-05T11:05:24Z</time>
      </trkpt>
      <trkpt lat="45.17752" lon="5.96678">
        <ele>2199.4309082031</ele>
        <time>2017-05-05T11:05:30Z</time>
      </trkpt>
      <trkpt lat="45.17754" lon="5.96671">
        <ele>2203.4309082031</ele>
        <time>2017-05-05T11:05:42Z</time>
      </trkpt>
      <trkpt lat="45.17754" lon="5.96664">
        <ele>2209.4309082031</ele>
        <time>2017-05-05T11:05:53Z</time>
      </trkpt>
      <trkpt lat="45.17756" lon="5.96656">
        <ele>2210.4309082031</ele>
        <time>2017-05-05T11:06:00Z</time>
      </trkpt>
      <trkpt lat="45.17755" lon="5.96648">
        <ele>2214.4309082031</ele>
        <time>2017-05-05T11:06:07Z</time>
      </trkpt>
      <trkpt lat="45.17756" lon="5.96641">
        <ele>2217.4309082031</ele>
        <time>2017-05-05T11:06:18Z</time>
      </trkpt>
      <trkpt lat="45.17754" lon="5.96635">
        <ele>2219.4309082031</ele>
        <time>2017-05-05T11:06:25Z</time>
      </trkpt>
      <trkpt lat="45.17749" lon="5.96636">
        <ele>2219.4309082031</ele>
        <time>2017-05-05T11:06:37Z</time>
      </trkpt>
      <trkpt lat="45.17744" lon="5.96634">
        <ele>2219.4309082031</ele>
        <time>2017-05-05T11:06:47Z</time>
      </trkpt>
      <trkpt lat="45.17739" lon="5.96635">
        <ele>2217.4309082031</ele>
        <time>2017-05-05T11:07:03Z</time>
      </trkpt>
      <trkpt lat="45.17736" lon="5.96631">
        <ele>2220.4309082031</ele>
        <time>2017-05-05T11:07:10Z</time>
      </trkpt>
      <trkpt lat="45.17732" lon="5.96627">
        <ele>2222.4309082031</ele>
        <time>2017-05-05T11:07:18Z</time>
      </trkpt>
      <trkpt lat="45.17728" lon="5.96621">
        <ele>2223.4309082031</ele>
        <time>2017-05-05T11:07:25Z</time>
      </trkpt>
      <trkpt lat="45.17726" lon="5.96615">
        <ele>2226.4309082031</ele>
        <time>2017-05-05T11:07:32Z</time>
      </trkpt>
      <trkpt lat="45.17722" lon="5.9661">
        <ele>2229.4309082031</ele>
        <time>2017-05-05T11:07:45Z</time>
      </trkpt>
      <trkpt lat="45.17725" lon="5.96605">
        <ele>2230.4309082031</ele>
        <time>2017-05-05T11:07:57Z</time>
      </trkpt>
      <trkpt lat="45.1772" lon="5.96604">
        <ele>2234.4309082031</ele>
        <time>2017-05-05T11:08:11Z</time>
      </trkpt>
      <trkpt lat="45.17716" lon="5.96607">
        <ele>2240.4309082031</ele>
        <time>2017-05-05T11:08:20Z</time>
      </trkpt>
      <trkpt lat="45.17711" lon="5.96606">
        <ele>2244.4309082031</ele>
        <time>2017-05-05T11:08:31Z</time>
      </trkpt>
      <trkpt lat="45.17706" lon="5.96607">
        <ele>2245.4309082031</ele>
        <time>2017-05-05T11:08:45Z</time>
      </trkpt>
      <trkpt lat="45.17702" lon="5.96603">
        <ele>2237.4309082031</ele>
        <time>2017-05-05T11:08:57Z</time>
      </trkpt>
      <trkpt lat="45.17701" lon="5.96597">
        <ele>2237.4309082031</ele>
        <time>2017-05-05T11:09:09Z</time>
      </trkpt>
      <trkpt lat="45.177" lon="5.9659">
        <ele>2241.4309082031</ele>
        <time>2017-05-05T11:09:15Z</time>
      </trkpt>
      <trkpt lat="45.17698" lon="5.96583">
        <ele>2246.4309082031</ele>
        <time>2017-05-05T11:10:06Z</time>
      </trkpt>
      <trkpt lat="45.17696" lon="5.96575">
        <ele>2252.4309082031</ele>
        <time>2017-05-05T11:10:10Z</time>
      </trkpt>
      <trkpt lat="45.17694" lon="5.96569">
        <ele>2255.4309082031</ele>
        <time>2017-05-05T11:10:22Z</time>
      </trkpt>
      <trkpt lat="45.1769" lon="5.96566">
        <ele>2255.4309082031</ele>
        <time>2017-05-05T11:10:26Z</time>
      </trkpt>
      <trkpt lat="45.17686" lon="5.96569">
        <ele>2254.4309082031</ele>
        <time>2017-05-05T11:10:31Z</time>
      </trkpt>
      <trkpt lat="45.17681" lon="5.96566">
        <ele>2259.4309082031</ele>
        <time>2017-05-05T11:10:39Z</time>
      </trkpt>
      <trkpt lat="45.17679" lon="5.96572">
        <ele>2263.4309082031</ele>
        <time>2017-05-05T11:10:48Z</time>
      </trkpt>
      <trkpt lat="45.17674" lon="5.96571">
        <ele>2266.4309082031</ele>
        <time>2017-05-05T11:11:06Z</time>
      </trkpt>
      <trkpt lat="45.17669" lon="5.96572">
        <ele>2271.4309082031</ele>
        <time>2017-05-05T11:11:17Z</time>
      </trkpt>
      <trkpt lat="45.17662" lon="5.96574">
        <ele>2272.4299316406</ele>
        <time>2017-05-05T11:11:23Z</time>
      </trkpt>
      <trkpt lat="45.17657" lon="5.96571">
        <ele>2272.4299316406</ele>
        <time>2017-05-05T11:11:37Z</time>
      </trkpt>
      <trkpt lat="45.17652" lon="5.9657">
        <ele>2273.4299316406</ele>
        <time>2017-05-05T11:11:44Z</time>
      </trkpt>
      <trkpt lat="45.17647" lon="5.9657">
        <ele>2273.4299316406</ele>
        <time>2017-05-05T11:11:53Z</time>
      </trkpt>
      <trkpt lat="45.17644" lon="5.96565">
        <ele>2275.4299316406</ele>
        <time>2017-05-05T11:12:13Z</time>
      </trkpt>
      <trkpt lat="45.17643" lon="5.96559">
        <ele>2276.4299316406</ele>
        <time>2017-05-05T11:12:19Z</time>
      </trkpt>
      <trkpt lat="45.17643" lon="5.96552">
        <ele>2278.4299316406</ele>
        <time>2017-05-05T11:12:27Z</time>
      </trkpt>
      <trkpt lat="45.17642" lon="5.96544">
        <ele>2282.4299316406</ele>
        <time>2017-05-05T11:12:36Z</time>
      </trkpt>
      <trkpt lat="45.17639" lon="5.96539">
        <ele>2282.4299316406</ele>
        <time>2017-05-05T11:12:42Z</time>
      </trkpt>
      <trkpt lat="45.17638" lon="5.96532">
        <ele>2285.4299316406</ele>
        <time>2017-05-05T11:12:55Z</time>
      </trkpt>
      <trkpt lat="45.17636" lon="5.96526">
        <ele>2286.4299316406</ele>
        <time>2017-05-05T11:13:02Z</time>
      </trkpt>
      <trkpt lat="45.17633" lon="5.96521">
        <ele>2288.4299316406</ele>
        <time>2017-05-05T11:13:08Z</time>
      </trkpt>
      <trkpt lat="45.1763" lon="5.96516">
        <ele>2291.4299316406</ele>
        <time>2017-05-05T11:13:30Z</time>
      </trkpt>
      <trkpt lat="45.17627" lon="5.96521">
        <ele>2291.4299316406</ele>
        <time>2017-05-05T11:13:34Z</time>
      </trkpt>
      <trkpt lat="45.17622" lon="5.96522">
        <ele>2292.4299316406</ele>
        <time>2017-05-05T11:13:43Z</time>
      </trkpt>
      <trkpt lat="45.17618" lon="5.9652">
        <ele>2288.4299316406</ele>
        <time>2017-05-05T11:13:51Z</time>
      </trkpt>
      <trkpt lat="45.17613" lon="5.96523">
        <ele>2287.4299316406</ele>
        <time>2017-05-05T11:13:56Z</time>
      </trkpt>
      <trkpt lat="45.17609" lon="5.96527">
        <ele>2293.4299316406</ele>
        <time>2017-05-05T11:14:09Z</time>
      </trkpt>
      <trkpt lat="45.17605" lon="5.96532">
        <ele>2297.4299316406</ele>
        <time>2017-05-05T11:14:24Z</time>
      </trkpt>
      <trkpt lat="45.17605" lon="5.96525">
        <ele>2302.4299316406</ele>
        <time>2017-05-05T11:14:33Z</time>
      </trkpt>
      <trkpt lat="45.17603" lon="5.96519">
        <ele>2304.4299316406</ele>
        <time>2017-05-05T11:14:44Z</time>
      </trkpt>
      <trkpt lat="45.17602" lon="5.96513">
        <ele>2306.4299316406</ele>
        <time>2017-05-05T11:14:55Z</time>
      </trkpt>
      <trkpt lat="45.17598" lon="5.96508">
        <ele>2303.4299316406</ele>
        <time>2017-05-05T11:15:14Z</time>
      </trkpt>
      <trkpt lat="45.17595" lon="5.96502">
        <ele>2307.4299316406</ele>
        <time>2017-05-05T11:15:25Z</time>
      </trkpt>
      <trkpt lat="45.17593" lon="5.96496">
        <ele>2309.4299316406</ele>
        <time>2017-05-05T11:15:34Z</time>
      </trkpt>
      <trkpt lat="45.17589" lon="5.96492">
        <ele>2311.4299316406</ele>
        <time>2017-05-05T11:15:42Z</time>
      </trkpt>
      <trkpt lat="45.17589" lon="5.96486">
        <ele>2313.4299316406</ele>
        <time>2017-05-05T11:15:51Z</time>
      </trkpt>
      <trkpt lat="45.17587" lon="5.9648">
        <ele>2314.4299316406</ele>
        <time>2017-05-05T11:16:02Z</time>
      </trkpt>
      <trkpt lat="45.17583" lon="5.96474">
        <ele>2317.4299316406</ele>
        <time>2017-05-05T11:16:08Z</time>
      </trkpt>
      <trkpt lat="45.17581" lon="5.96468">
        <ele>2320.4299316406</ele>
        <time>2017-05-05T11:16:17Z</time>
      </trkpt>
      <trkpt lat="45.1758" lon="5.96461">
        <ele>2323.4299316406</ele>
        <time>2017-05-05T11:16:34Z</time>
      </trkpt>
      <trkpt lat="45.17578" lon="5.96454">
        <ele>2324.4299316406</ele>
        <time>2017-05-05T11:16:41Z</time>
      </trkpt>
      <trkpt lat="45.17574" lon="5.96448">
        <ele>2323.4299316406</ele>
        <time>2017-05-05T11:16:45Z</time>
      </trkpt>
      <trkpt lat="45.17572" lon="5.96442">
        <ele>2324.4299316406</ele>
        <time>2017-05-05T11:17:00Z</time>
      </trkpt>
      <trkpt lat="45.17569" lon="5.96437">
        <ele>2324.4299316406</ele>
        <time>2017-05-05T11:17:09Z</time>
      </trkpt>
      <trkpt lat="45.17569" lon="5.9643">
        <ele>2325.4299316406</ele>
        <time>2017-05-05T11:17:15Z</time>
      </trkpt>
      <trkpt lat="45.17569" lon="5.96424">
        <ele>2328.4299316406</ele>
        <time>2017-05-05T11:17:24Z</time>
      </trkpt>
      <trkpt lat="45.17567" lon="5.96417">
        <ele>2331.4299316406</ele>
        <time>2017-05-05T11:17:29Z</time>
      </trkpt>
      <trkpt lat="45.17566" lon="5.96411">
        <ele>2333.4299316406</ele>
        <time>2017-05-05T11:17:38Z</time>
      </trkpt>
      <trkpt lat="45.17564" lon="5.96404">
        <ele>2333.4299316406</ele>
        <time>2017-05-05T11:17:44Z</time>
      </trkpt>
      <trkpt lat="45.17564" lon="5.96397">
        <ele>2335.4299316406</ele>
        <time>2017-05-05T11:17:52Z</time>
      </trkpt>
      <trkpt lat="45.17563" lon="5.9639">
        <ele>2338.4299316406</ele>
        <time>2017-05-05T11:17:59Z</time>
      </trkpt>
      <trkpt lat="45.17561" lon="5.96383">
        <ele>2339.4299316406</ele>
        <time>2017-05-05T11:18:15Z</time>
      </trkpt>
      <trkpt lat="45.17557" lon="5.96378">
        <ele>2339.4299316406</ele>
        <time>2017-05-05T11:18:23Z</time>
      </trkpt>
      <trkpt lat="45.17561" lon="5.96372">
        <ele>2342.4299316406</ele>
        <time>2017-05-05T11:18:31Z</time>
      </trkpt>
      <trkpt lat="45.17558" lon="5.96366">
        <ele>2343.4299316406</ele>
        <time>2017-05-05T11:18:37Z</time>
      </trkpt>
      <trkpt lat="45.17556" lon="5.9636">
        <ele>2341.4299316406</ele>
        <time>2017-05-05T11:18:45Z</time>
      </trkpt>
      <trkpt lat="45.17553" lon="5.96353">
        <ele>2342.4299316406</ele>
        <time>2017-05-05T11:18:52Z</time>
      </trkpt>
      <trkpt lat="45.17552" lon="5.96346">
        <ele>2344.4299316406</ele>
        <time>2017-05-05T11:18:58Z</time>
      </trkpt>
      <trkpt lat="45.17552" lon="5.9634">
        <ele>2348.4299316406</ele>
        <time>2017-05-05T11:19:07Z</time>
      </trkpt>
      <trkpt lat="45.17551" lon="5.96333">
        <ele>2361.4299316406</ele>
        <time>2017-05-05T11:19:35Z</time>
      </trkpt>
      <trkpt lat="45.17548" lon="5.96326">
        <ele>2360.4299316406</ele>
        <time>2017-05-05T11:19:38Z</time>
      </trkpt>
      <trkpt lat="45.17547" lon="5.96319">
        <ele>2355.4299316406</ele>
        <time>2017-05-05T11:20:00Z</time>
      </trkpt>
      <trkpt lat="45.17544" lon="5.96312">
        <ele>2352.4299316406</ele>
        <time>2017-05-05T11:20:06Z</time>
      </trkpt>
      <trkpt lat="45.17542" lon="5.96307">
        <ele>2350.4299316406</ele>
        <time>2017-05-05T11:20:14Z</time>
      </trkpt>
      <trkpt lat="45.1754" lon="5.963">
        <ele>2356.4299316406</ele>
        <time>2017-05-05T11:20:20Z</time>
      </trkpt>
      <trkpt lat="45.1754" lon="5.96294">
        <ele>2359.4299316406</ele>
        <time>2017-05-05T11:20:38Z</time>
      </trkpt>
      <trkpt lat="45.17536" lon="5.9629">
        <ele>2356.4299316406</ele>
        <time>2017-05-05T11:26:33Z</time>
      </trkpt>
      <trkpt lat="45.17533" lon="5.96284">
        <ele>2356.4299316406</ele>
        <time>2017-05-05T11:26:37Z</time>
      </trkpt>
      <trkpt lat="45.17531" lon="5.96277">
        <ele>2358.4299316406</ele>
        <time>2017-05-05T11:26:42Z</time>
      </trkpt>
      <trkpt lat="45.17529" lon="5.96272">
        <ele>2358.4299316406</ele>
        <time>2017-05-05T11:26:47Z</time>
      </trkpt>
      <trkpt lat="45.17528" lon="5.96265">
        <ele>2359.4299316406</ele>
        <time>2017-05-05T11:26:52Z</time>
      </trkpt>
      <trkpt lat="45.17526" lon="5.96259">
        <ele>2361.4299316406</ele>
        <time>2017-05-05T11:26:59Z</time>
      </trkpt>
      <trkpt lat="45.17524" lon="5.96253">
        <ele>2358.4299316406</ele>
        <time>2017-05-05T11:27:12Z</time>
      </trkpt>
      <trkpt lat="45.17524" lon="5.96247">
        <ele>2362.4299316406</ele>
        <time>2017-05-05T11:27:18Z</time>
      </trkpt>
      <trkpt lat="45.17524" lon="5.9624">
        <ele>2365.4299316406</ele>
        <time>2017-05-05T11:27:23Z</time>
      </trkpt>
      <trkpt lat="45.17522" lon="5.96233">
        <ele>2367.4299316406</ele>
        <time>2017-05-05T11:27:31Z</time>
      </trkpt>
      <trkpt lat="45.17522" lon="5.96226">
        <ele>2365.4299316406</ele>
        <time>2017-05-05T11:27:40Z</time>
      </trkpt>
      <trkpt lat="45.17522" lon="5.96218">
        <ele>2369.4299316406</ele>
        <time>2017-05-05T11:27:50Z</time>
      </trkpt>
      <trkpt lat="45.17521" lon="5.96212">
        <ele>2367.4299316406</ele>
        <time>2017-05-05T11:27:56Z</time>
      </trkpt>
      <trkpt lat="45.1752" lon="5.96205">
        <ele>2365.4299316406</ele>
        <time>2017-05-05T11:28:07Z</time>
      </trkpt>
      <trkpt lat="45.1752" lon="5.96198">
        <ele>2364.4299316406</ele>
        <time>2017-05-05T11:28:14Z</time>
      </trkpt>
      <trkpt lat="45.17521" lon="5.96191">
        <ele>2361.4299316406</ele>
        <time>2017-05-05T11:28:21Z</time>
      </trkpt>
      <trkpt lat="45.1752" lon="5.96185">
        <ele>2363.4299316406</ele>
        <time>2017-05-05T11:28:29Z</time>
      </trkpt>
      <trkpt lat="45.17519" lon="5.96178">
        <ele>2364.4299316406</ele>
        <time>2017-05-05T11:28:36Z</time>
      </trkpt>
      <trkpt lat="45.17517" lon="5.96171">
        <ele>2369.4299316406</ele>
        <time>2017-05-05T11:28:45Z</time>
      </trkpt>
      <trkpt lat="45.17518" lon="5.96165">
        <ele>2372.4299316406</ele>
        <time>2017-05-05T11:28:55Z</time>
      </trkpt>
      <trkpt lat="45.17518" lon="5.96157">
        <ele>2372.4299316406</ele>
        <time>2017-05-05T11:29:03Z</time>
      </trkpt>
      <trkpt lat="45.17518" lon="5.96151">
        <ele>2373.4299316406</ele>
        <time>2017-05-05T11:29:11Z</time>
      </trkpt>
      <trkpt lat="45.17516" lon="5.96144">
        <ele>2375.4299316406</ele>
        <time>2017-05-05T11:29:19Z</time>
      </trkpt>
      <trkpt lat="45.17514" lon="5.96138">
        <ele>2377.4299316406</ele>
        <time>2017-05-05T11:29:28Z</time>
      </trkpt>
      <trkpt lat="45.17512" lon="5.96131">
        <ele>2379.4299316406</ele>
        <time>2017-05-05T11:29:38Z</time>
      </trkpt>
      <trkpt lat="45.17511" lon="5.96125">
        <ele>2379.4299316406</ele>
        <time>2017-05-05T11:29:44Z</time>
      </trkpt>
      <trkpt lat="45.1751" lon="5.96118">
        <ele>2381.4299316406</ele>
        <time>2017-05-05T11:29:53Z</time>
      </trkpt>
      <trkpt lat="45.17511" lon="5.96111">
        <ele>2383.4299316406</ele>
        <time>2017-05-05T11:30:02Z</time>
      </trkpt>
      <trkpt lat="45.17509" lon="5.96106">
        <ele>2383.4299316406</ele>
        <time>2017-05-05T11:30:08Z</time>
      </trkpt>
      <trkpt lat="45.17508" lon="5.96099">
        <ele>2382.4299316406</ele>
        <time>2017-05-05T11:30:16Z</time>
      </trkpt>
      <trkpt lat="45.17507" lon="5.96093">
        <ele>2381.4289550781</ele>
        <time>2017-05-05T11:30:39Z</time>
      </trkpt>
      <trkpt lat="45.17506" lon="5.96086">
        <ele>2383.4289550781</ele>
        <time>2017-05-05T11:30:44Z</time>
      </trkpt>
      <trkpt lat="45.17506" lon="5.9608">
        <ele>2382.4289550781</ele>
        <time>2017-05-05T11:30:54Z</time>
      </trkpt>
      <trkpt lat="45.17505" lon="5.96073">
        <ele>2385.4289550781</ele>
        <time>2017-05-05T11:31:01Z</time>
      </trkpt>
      <trkpt lat="45.17505" lon="5.96066">
        <ele>2387.4289550781</ele>
        <time>2017-05-05T11:31:06Z</time>
      </trkpt>
      <trkpt lat="45.17506" lon="5.9606">
        <ele>2387.4289550781</ele>
        <time>2017-05-05T11:31:13Z</time>
      </trkpt>
      <trkpt lat="45.17506" lon="5.96053">
        <ele>2389.4289550781</ele>
        <time>2017-05-05T11:31:21Z</time>
      </trkpt>
      <trkpt lat="45.17503" lon="5.96049">
        <ele>2391.4289550781</ele>
        <time>2017-05-05T11:31:31Z</time>
      </trkpt>
      <trkpt lat="45.17502" lon="5.96042">
        <ele>2390.4289550781</ele>
        <time>2017-05-05T11:31:42Z</time>
      </trkpt>
      <trkpt lat="45.17503" lon="5.96036">
        <ele>2392.4289550781</ele>
        <time>2017-05-05T11:31:49Z</time>
      </trkpt>
      <trkpt lat="45.17502" lon="5.96029">
        <ele>2394.4289550781</ele>
        <time>2017-05-05T11:31:54Z</time>
      </trkpt>
      <trkpt lat="45.17503" lon="5.96022">
        <ele>2397.4289550781</ele>
        <time>2017-05-05T11:32:01Z</time>
      </trkpt>
      <trkpt lat="45.17504" lon="5.96016">
        <ele>2398.4289550781</ele>
        <time>2017-05-05T11:32:18Z</time>
      </trkpt>
      <trkpt lat="45.17504" lon="5.96009">
        <ele>2397.4289550781</ele>
        <time>2017-05-05T11:32:25Z</time>
      </trkpt>
      <trkpt lat="45.17504" lon="5.96001">
        <ele>2397.4289550781</ele>
        <time>2017-05-05T11:32:30Z</time>
      </trkpt>
      <trkpt lat="45.17505" lon="5.95995">
        <ele>2397.4289550781</ele>
        <time>2017-05-05T11:32:41Z</time>
      </trkpt>
      <trkpt lat="45.17505" lon="5.95987">
        <ele>2396.4289550781</ele>
        <time>2017-05-05T11:32:52Z</time>
      </trkpt>
      <trkpt lat="45.17505" lon="5.9598">
        <ele>2395.4289550781</ele>
        <time>2017-05-05T11:32:56Z</time>
      </trkpt>
      <trkpt lat="45.17507" lon="5.95974">
        <ele>2398.4289550781</ele>
        <time>2017-05-05T11:33:11Z</time>
      </trkpt>
      <trkpt lat="45.1751" lon="5.95966">
        <ele>2398.4289550781</ele>
        <time>2017-05-05T11:33:17Z</time>
      </trkpt>
      <trkpt lat="45.17507" lon="5.95961">
        <ele>2397.4289550781</ele>
        <time>2017-05-05T11:33:32Z</time>
      </trkpt>
      <trkpt lat="45.17509" lon="5.95954">
        <ele>2396.4289550781</ele>
        <time>2017-05-05T11:33:55Z</time>
      </trkpt>
      <trkpt lat="45.17512" lon="5.95946">
        <ele>2397.4289550781</ele>
        <time>2017-05-05T11:34:01Z</time>
      </trkpt>
      <trkpt lat="45.17512" lon="5.95939">
        <ele>2395.4289550781</ele>
        <time>2017-05-05T11:34:06Z</time>
      </trkpt>
      <trkpt lat="45.17514" lon="5.95945">
        <ele>2400.4289550781</ele>
        <time>2017-05-05T11:34:10Z</time>
      </trkpt>
      <trkpt lat="45.17511" lon="5.95941">
        <ele>2403.4289550781</ele>
        <time>2017-05-05T11:34:20Z</time>
      </trkpt>
      <trkpt lat="45.17506" lon="5.95941">
        <ele>2412.4289550781</ele>
        <time>2017-05-05T11:34:43Z</time>
      </trkpt>
      <trkpt lat="45.17506" lon="5.95933">
        <ele>2410.4289550781</ele>
        <time>2017-05-05T11:34:50Z</time>
      </trkpt>
      <trkpt lat="45.1751" lon="5.95929">
        <ele>2419.4289550781</ele>
        <time>2017-05-05T11:35:15Z</time>
      </trkpt>
      <trkpt lat="45.17506" lon="5.95932">
        <ele>2426.4289550781</ele>
        <time>2017-05-05T11:35:30Z</time>
      </trkpt>
      <trkpt lat="45.17501" lon="5.95931">
        <ele>2430.4289550781</ele>
        <time>2017-05-05T11:35:40Z</time>
      </trkpt>
      <trkpt lat="45.175" lon="5.95925">
        <ele>2428.4289550781</ele>
        <time>2017-05-05T11:35:56Z</time>
      </trkpt>
      <trkpt lat="45.17503" lon="5.95918">
        <ele>2427.4289550781</ele>
        <time>2017-05-05T11:36:04Z</time>
      </trkpt>
      <trkpt lat="45.17505" lon="5.95912">
        <ele>2430.4289550781</ele>
        <time>2017-05-05T11:36:19Z</time>
      </trkpt>
      <trkpt lat="45.17501" lon="5.95909">
        <ele>2432.4289550781</ele>
        <time>2017-05-05T11:36:28Z</time>
      </trkpt>
      <trkpt lat="45.17496" lon="5.95908">
        <ele>2434.4289550781</ele>
        <time>2017-05-05T11:36:40Z</time>
      </trkpt>
      <trkpt lat="45.17493" lon="5.95903">
        <ele>2433.4289550781</ele>
        <time>2017-05-05T11:36:55Z</time>
      </trkpt>
      <trkpt lat="45.17496" lon="5.95899">
        <ele>2437.4289550781</ele>
        <time>2017-05-05T11:37:06Z</time>
      </trkpt>
      <trkpt lat="45.17493" lon="5.95895">
        <ele>2445.4289550781</ele>
        <time>2017-05-05T11:37:36Z</time>
      </trkpt>
      <trkpt lat="45.17489" lon="5.95892">
        <ele>2446.4289550781</ele>
        <time>2017-05-05T11:38:13Z</time>
      </trkpt>
      <trkpt lat="45.17485" lon="5.95888">
        <ele>2448.4289550781</ele>
        <time>2017-05-05T11:38:38Z</time>
      </trkpt>
      <trkpt lat="45.17484" lon="5.95881">
        <ele>2446.4289550781</ele>
        <time>2017-05-05T11:38:46Z</time>
      </trkpt>
      <trkpt lat="45.17486" lon="5.95875">
        <ele>2456.4289550781</ele>
        <time>2017-05-05T11:39:32Z</time>
      </trkpt>
      <trkpt lat="45.17487" lon="5.95868">
        <ele>2469.4289550781</ele>
        <time>2017-05-05T11:39:59Z</time>
      </trkpt>
      <trkpt lat="45.17487" lon="5.95861">
        <ele>2468.4289550781</ele>
        <time>2017-05-05T11:40:10Z</time>
      </trkpt>
      <trkpt lat="45.17484" lon="5.95866">
        <ele>2474.4289550781</ele>
        <time>2017-05-05T11:40:29Z</time>
      </trkpt>
      <trkpt lat="45.17483" lon="5.95859">
        <ele>2474.4289550781</ele>
        <time>2017-05-05T11:40:45Z</time>
      </trkpt>
      <trkpt lat="45.17484" lon="5.95852">
        <ele>2474.4289550781</ele>
        <time>2017-05-05T11:41:03Z</time>
      </trkpt>
      <trkpt lat="45.17483" lon="5.95843">
        <ele>2476.4289550781</ele>
        <time>2017-05-05T11:41:22Z</time>
      </trkpt>
      <trkpt lat="45.17478" lon="5.95841">
        <ele>2488.4289550781</ele>
        <time>2017-05-05T11:42:23Z</time>
      </trkpt>
      <trkpt lat="45.17483" lon="5.95843">
        <ele>2495.4289550781</ele>
        <time>2017-05-05T11:42:41Z</time>
      </trkpt>
      <trkpt lat="45.17481" lon="5.95836">
        <ele>2491.4289550781</ele>
        <time>2017-05-05T11:42:47Z</time>
      </trkpt>
      <trkpt lat="45.17481" lon="5.95828">
        <ele>2492.4289550781</ele>
        <time>2017-05-05T11:42:59Z</time>
      </trkpt>
      <trkpt lat="45.17478" lon="5.95823">
        <ele>2491.4289550781</ele>
        <time>2017-05-05T11:43:25Z</time>
      </trkpt>
      <trkpt lat="45.17473" lon="5.95824">
        <ele>2491.4289550781</ele>
        <time>2017-05-05T11:43:40Z</time>
      </trkpt>
      <trkpt lat="45.17477" lon="5.95819">
        <ele>2495.4289550781</ele>
        <time>2017-05-05T11:43:54Z</time>
      </trkpt>
      <trkpt lat="45.1748" lon="5.95814">
        <ele>2496.4289550781</ele>
        <time>2017-05-05T11:44:27Z</time>
      </trkpt>
      <trkpt lat="45.17477" lon="5.95806">
        <ele>2495.4289550781</ele>
        <time>2017-05-05T11:44:44Z</time>
      </trkpt>
      <trkpt lat="45.17472" lon="5.9581">
        <ele>2509.4289550781</ele>
        <time>2017-05-05T11:45:16Z</time>
      </trkpt>
      <trkpt lat="45.17468" lon="5.95811">
        <ele>2515.4289550781</ele>
        <time>2017-05-05T11:45:24Z</time>
      </trkpt>
      <trkpt lat="45.17464" lon="5.95807">
        <ele>2517.4289550781</ele>
        <time>2017-05-05T11:45:40Z</time>
      </trkpt>
      <trkpt lat="45.17461" lon="5.95802">
        <ele>2528.4289550781</ele>
        <time>2017-05-05T11:46:34Z</time>
      </trkpt>
      <trkpt lat="45.17457" lon="5.958">
        <ele>2529.4289550781</ele>
        <time>2017-05-05T11:46:43Z</time>
      </trkpt>
      <trkpt lat="45.17454" lon="5.95795">
        <ele>2530.4289550781</ele>
        <time>2017-05-05T11:47:05Z</time>
      </trkpt>
      <trkpt lat="45.17456" lon="5.95788">
        <ele>2532.4289550781</ele>
        <time>2017-05-05T11:47:14Z</time>
      </trkpt>
      <trkpt lat="45.17452" lon="5.95787">
        <ele>2535.4289550781</ele>
        <time>2017-05-05T11:47:39Z</time>
      </trkpt>
      <trkpt lat="45.17447" lon="5.95786">
        <ele>2542.4289550781</ele>
        <time>2017-05-05T11:48:02Z</time>
      </trkpt>
      <trkpt lat="45.17443" lon="5.95783">
        <ele>2541.4289550781</ele>
        <time>2017-05-05T11:48:18Z</time>
      </trkpt>
      <trkpt lat="45.17441" lon="5.95776">
        <ele>2550.4289550781</ele>
        <time>2017-05-05T11:49:31Z</time>
      </trkpt>
      <trkpt lat="45.17444" lon="5.95771">
        <ele>2550.4289550781</ele>
        <time>2017-05-05T11:49:36Z</time>
      </trkpt>
      <trkpt lat="45.17448" lon="5.95769">
        <ele>2555.4289550781</ele>
        <time>2017-05-05T11:50:11Z</time>
      </trkpt>
      <trkpt lat="45.1745" lon="5.95775">
        <ele>2559.4289550781</ele>
        <time>2017-05-05T11:52:05Z</time>
      </trkpt>
      <trkpt lat="45.17446" lon="5.95769">
        <ele>2561.4289550781</ele>
        <time>2017-05-05T11:55:45Z</time>
      </trkpt>
      <trkpt lat="45.17442" lon="5.95773">
        <ele>2559.4289550781</ele>
        <time>2017-05-05T11:58:37Z</time>
      </trkpt>
      <trkpt lat="45.17439" lon="5.95778">
        <ele>2560.4289550781</ele>
        <time>2017-05-05T11:58:54Z</time>
      </trkpt>
      <trkpt lat="45.17436" lon="5.95783">
        <ele>2560.4289550781</ele>
        <time>2017-05-05T11:59:18Z</time>
      </trkpt>
      <trkpt lat="45.17432" lon="5.95783">
        <ele>2556.4289550781</ele>
        <time>2017-05-05T12:00:05Z</time>
      </trkpt>
      <trkpt lat="45.17431" lon="5.95776">
        <ele>2556.4289550781</ele>
        <time>2017-05-05T12:08:56Z</time>
      </trkpt>
      <trkpt lat="45.17432" lon="5.95765">
        <ele>2553.4289550781</ele>
        <time>2017-05-05T12:08:58Z</time>
      </trkpt>
      <trkpt lat="45.17438" lon="5.95749">
        <ele>2551.4289550781</ele>
        <time>2017-05-05T12:09:00Z</time>
      </trkpt>
      <trkpt lat="45.17441" lon="5.95737">
        <ele>2550.4289550781</ele>
        <time>2017-05-05T12:09:01Z</time>
      </trkpt>
      <trkpt lat="45.17438" lon="5.95724">
        <ele>2546.4289550781</ele>
        <time>2017-05-05T12:09:03Z</time>
      </trkpt>
      <trkpt lat="45.17436" lon="5.95718">
        <ele>2546.4289550781</ele>
        <time>2017-05-05T12:09:04Z</time>
      </trkpt>
      <trkpt lat="45.17429" lon="5.95713">
        <ele>2543.4289550781</ele>
        <time>2017-05-05T12:09:06Z</time>
      </trkpt>
      <trkpt lat="45.17417" lon="5.95704">
        <ele>2534.4289550781</ele>
        <time>2017-05-05T12:09:09Z</time>
      </trkpt>
      <trkpt lat="45.17413" lon="5.95695">
        <ele>2531.4289550781</ele>
        <time>2017-05-05T12:09:11Z</time>
      </trkpt>
      <trkpt lat="45.17414" lon="5.95685">
        <ele>2530.4289550781</ele>
        <time>2017-05-05T12:09:13Z</time>
      </trkpt>
      <trkpt lat="45.17421" lon="5.95649">
        <ele>2527.4289550781</ele>
        <time>2017-05-05T12:09:15Z</time>
      </trkpt>
      <trkpt lat="45.1743" lon="5.95631">
        <ele>2524.4289550781</ele>
        <time>2017-05-05T12:09:17Z</time>
      </trkpt>
      <trkpt lat="45.17431" lon="5.95619">
        <ele>2522.4289550781</ele>
        <time>2017-05-05T12:09:19Z</time>
      </trkpt>
      <trkpt lat="45.17429" lon="5.95612">
        <ele>2517.4289550781</ele>
        <time>2017-05-05T12:09:34Z</time>
      </trkpt>
      <trkpt lat="45.17426" lon="5.95606">
        <ele>2517.4289550781</ele>
        <time>2017-05-05T12:09:36Z</time>
      </trkpt>
      <trkpt lat="45.1742" lon="5.95594">
        <ele>2510.4289550781</ele>
        <time>2017-05-05T12:09:37Z</time>
      </trkpt>
      <trkpt lat="45.17412" lon="5.95571">
        <ele>2507.4289550781</ele>
        <time>2017-05-05T12:09:39Z</time>
      </trkpt>
      <trkpt lat="45.17405" lon="5.95552">
        <ele>2506.4289550781</ele>
        <time>2017-05-05T12:09:41Z</time>
      </trkpt>
      <trkpt lat="45.17408" lon="5.95547">
        <ele>2503.4289550781</ele>
        <time>2017-05-05T12:09:45Z</time>
      </trkpt>
      <trkpt lat="45.17412" lon="5.95551">
        <ele>2495.4289550781</ele>
        <time>2017-05-05T12:09:57Z</time>
      </trkpt>
      <trkpt lat="45.17415" lon="5.95558">
        <ele>2492.4289550781</ele>
        <time>2017-05-05T12:10:00Z</time>
      </trkpt>
      <trkpt lat="45.17419" lon="5.95563">
        <ele>2486.4289550781</ele>
        <time>2017-05-05T12:10:05Z</time>
      </trkpt>
      <trkpt lat="45.17429" lon="5.95566">
        <ele>2484.4289550781</ele>
        <time>2017-05-05T12:10:07Z</time>
      </trkpt>
      <trkpt lat="45.17434" lon="5.95565">
        <ele>2481.4289550781</ele>
        <time>2017-05-05T12:10:09Z</time>
      </trkpt>
      <trkpt lat="45.17432" lon="5.95559">
        <ele>2479.4289550781</ele>
        <time>2017-05-05T12:10:11Z</time>
      </trkpt>
      <trkpt lat="45.17437" lon="5.95553">
        <ele>2479.4289550781</ele>
        <time>2017-05-05T12:10:13Z</time>
      </trkpt>
      <trkpt lat="45.17445" lon="5.95543">
        <ele>2477.4289550781</ele>
        <time>2017-05-05T12:10:15Z</time>
      </trkpt>
      <trkpt lat="45.17453" lon="5.95528">
        <ele>2475.4289550781</ele>
        <time>2017-05-05T12:10:17Z</time>
      </trkpt>
      <trkpt lat="45.17465" lon="5.95506">
        <ele>2473.4289550781</ele>
        <time>2017-05-05T12:10:19Z</time>
      </trkpt>
      <trkpt lat="45.17474" lon="5.9549">
        <ele>2471.4289550781</ele>
        <time>2017-05-05T12:10:21Z</time>
      </trkpt>
      <trkpt lat="45.17479" lon="5.95467">
        <ele>2469.4289550781</ele>
        <time>2017-05-05T12:10:23Z</time>
      </trkpt>
      <trkpt lat="45.17485" lon="5.95461">
        <ele>2466.4289550781</ele>
        <time>2017-05-05T12:10:24Z</time>
      </trkpt>
      <trkpt lat="45.17488" lon="5.95446">
        <ele>2460.4289550781</ele>
        <time>2017-05-05T12:10:26Z</time>
      </trkpt>
      <trkpt lat="45.17495" lon="5.95431">
        <ele>2452.4289550781</ele>
        <time>2017-05-05T12:10:28Z</time>
      </trkpt>
      <trkpt lat="45.17504" lon="5.95417">
        <ele>2446.4289550781</ele>
        <time>2017-05-05T12:10:30Z</time>
      </trkpt>
      <trkpt lat="45.17511" lon="5.95397">
        <ele>2443.4289550781</ele>
        <time>2017-05-05T12:10:32Z</time>
      </trkpt>
      <trkpt lat="45.17519" lon="5.95391">
        <ele>2442.4289550781</ele>
        <time>2017-05-05T12:10:33Z</time>
      </trkpt>
      <trkpt lat="45.17529" lon="5.95378">
        <ele>2440.4289550781</ele>
        <time>2017-05-05T12:10:35Z</time>
      </trkpt>
      <trkpt lat="45.17525" lon="5.95365">
        <ele>2411.4289550781</ele>
        <time>2017-05-05T12:10:37Z</time>
      </trkpt>
      <trkpt lat="45.17526" lon="5.95356">
        <ele>2393.4279785156</ele>
        <time>2017-05-05T12:10:39Z</time>
      </trkpt>
      <trkpt lat="45.17525" lon="5.95349">
        <ele>2375.4279785156</ele>
        <time>2017-05-05T12:10:41Z</time>
      </trkpt>
      <trkpt lat="45.17526" lon="5.95337">
        <ele>2355.4279785156</ele>
        <time>2017-05-05T12:10:43Z</time>
      </trkpt>
      <trkpt lat="45.17536" lon="5.95323">
        <ele>2339.4279785156</ele>
        <time>2017-05-05T12:10:46Z</time>
      </trkpt>
      <trkpt lat="45.17542" lon="5.95313">
        <ele>2331.4279785156</ele>
        <time>2017-05-05T12:10:48Z</time>
      </trkpt>
      <trkpt lat="45.17547" lon="5.95304">
        <ele>2327.4279785156</ele>
        <time>2017-05-05T12:10:50Z</time>
      </trkpt>
      <trkpt lat="45.17553" lon="5.95299">
        <ele>2322.4279785156</ele>
        <time>2017-05-05T12:10:51Z</time>
      </trkpt>
      <trkpt lat="45.17556" lon="5.95289">
        <ele>2311.4279785156</ele>
        <time>2017-05-05T12:10:53Z</time>
      </trkpt>
      <trkpt lat="45.17559" lon="5.95275">
        <ele>2297.4279785156</ele>
        <time>2017-05-05T12:10:55Z</time>
      </trkpt>
      <trkpt lat="45.17566" lon="5.95261">
        <ele>2281.4279785156</ele>
        <time>2017-05-05T12:10:58Z</time>
      </trkpt>
      <trkpt lat="45.17572" lon="5.9525">
        <ele>2272.4279785156</ele>
        <time>2017-05-05T12:11:00Z</time>
      </trkpt>
      <trkpt lat="45.17579" lon="5.95242">
        <ele>2268.4279785156</ele>
        <time>2017-05-05T12:11:02Z</time>
      </trkpt>
      <trkpt lat="45.17585" lon="5.95232">
        <ele>2261.4279785156</ele>
        <time>2017-05-05T12:11:04Z</time>
      </trkpt>
      <trkpt lat="45.17594" lon="5.95223">
        <ele>2257.4279785156</ele>
        <time>2017-05-05T12:11:06Z</time>
      </trkpt>
      <trkpt lat="45.17604" lon="5.9521">
        <ele>2249.4279785156</ele>
        <time>2017-05-05T12:11:09Z</time>
      </trkpt>
      <trkpt lat="45.17611" lon="5.952">
        <ele>2245.4279785156</ele>
        <time>2017-05-05T12:11:11Z</time>
      </trkpt>
      <trkpt lat="45.17619" lon="5.95191">
        <ele>2241.4279785156</ele>
        <time>2017-05-05T12:11:13Z</time>
      </trkpt>
      <trkpt lat="45.17627" lon="5.9518">
        <ele>2238.4279785156</ele>
        <time>2017-05-05T12:11:15Z</time>
      </trkpt>
      <trkpt lat="45.17637" lon="5.9517">
        <ele>2231.4279785156</ele>
        <time>2017-05-05T12:11:18Z</time>
      </trkpt>
      <trkpt lat="45.17656" lon="5.95154">
        <ele>2227.4279785156</ele>
        <time>2017-05-05T12:11:22Z</time>
      </trkpt>
      <trkpt lat="45.17663" lon="5.95144">
        <ele>2223.4279785156</ele>
        <time>2017-05-05T12:11:24Z</time>
      </trkpt>
      <trkpt lat="45.17671" lon="5.95133">
        <ele>2222.4279785156</ele>
        <time>2017-05-05T12:11:26Z</time>
      </trkpt>
      <trkpt lat="45.17678" lon="5.95124">
        <ele>2220.4279785156</ele>
        <time>2017-05-05T12:11:28Z</time>
      </trkpt>
      <trkpt lat="45.17683" lon="5.95115">
        <ele>2214.4279785156</ele>
        <time>2017-05-05T12:11:30Z</time>
      </trkpt>
      <trkpt lat="45.17688" lon="5.95107">
        <ele>2210.4279785156</ele>
        <time>2017-05-05T12:11:32Z</time>
      </trkpt>
      <trkpt lat="45.17695" lon="5.95101">
        <ele>2209.4279785156</ele>
        <time>2017-05-05T12:11:34Z</time>
      </trkpt>
      <trkpt lat="45.17696" lon="5.95094">
        <ele>2199.4279785156</ele>
        <time>2017-05-05T12:12:28Z</time>
      </trkpt>
      <trkpt lat="45.17691" lon="5.95094">
        <ele>2197.4279785156</ele>
        <time>2017-05-05T12:12:30Z</time>
      </trkpt>
      <trkpt lat="45.17696" lon="5.95093">
        <ele>2198.4279785156</ele>
        <time>2017-05-05T12:13:48Z</time>
      </trkpt>
      <trkpt lat="45.17696" lon="5.951">
        <ele>2197.4279785156</ele>
        <time>2017-05-05T12:15:19Z</time>
      </trkpt>
      <trkpt lat="45.17696" lon="5.95106">
        <ele>2197.4279785156</ele>
        <time>2017-05-05T12:15:31Z</time>
      </trkpt>
      <trkpt lat="45.17696" lon="5.95114">
        <ele>2198.4279785156</ele>
        <time>2017-05-05T12:15:38Z</time>
      </trkpt>
      <trkpt lat="45.17694" lon="5.95123">
        <ele>2197.4289550781</ele>
        <time>2017-05-05T12:15:44Z</time>
      </trkpt>
      <trkpt lat="45.17694" lon="5.95129">
        <ele>2200.4289550781</ele>
        <time>2017-05-05T12:15:52Z</time>
      </trkpt>
      <trkpt lat="45.17694" lon="5.95136">
        <ele>2201.4289550781</ele>
        <time>2017-05-05T12:16:02Z</time>
      </trkpt>
      <trkpt lat="45.17694" lon="5.95142">
        <ele>2202.4289550781</ele>
        <time>2017-05-05T12:16:13Z</time>
      </trkpt>
      <trkpt lat="45.17693" lon="5.95149">
        <ele>2202.4289550781</ele>
        <time>2017-05-05T12:16:21Z</time>
      </trkpt>
      <trkpt lat="45.17692" lon="5.95155">
        <ele>2201.4289550781</ele>
        <time>2017-05-05T12:16:32Z</time>
      </trkpt>
      <trkpt lat="45.17693" lon="5.95162">
        <ele>2204.4289550781</ele>
        <time>2017-05-05T12:16:42Z</time>
      </trkpt>
      <trkpt lat="45.17693" lon="5.95168">
        <ele>2206.4289550781</ele>
        <time>2017-05-05T12:16:54Z</time>
      </trkpt>
      <trkpt lat="45.17692" lon="5.95175">
        <ele>2209.4289550781</ele>
        <time>2017-05-05T12:17:02Z</time>
      </trkpt>
      <trkpt lat="45.17688" lon="5.95181">
        <ele>2210.4289550781</ele>
        <time>2017-05-05T12:17:12Z</time>
      </trkpt>
      <trkpt lat="45.17683" lon="5.95181">
        <ele>2207.4289550781</ele>
        <time>2017-05-05T12:17:20Z</time>
      </trkpt>
      <trkpt lat="45.17678" lon="5.95182">
        <ele>2203.4289550781</ele>
        <time>2017-05-05T12:17:25Z</time>
      </trkpt>
      <trkpt lat="45.17673" lon="5.95181">
        <ele>2202.4289550781</ele>
        <time>2017-05-05T12:17:31Z</time>
      </trkpt>
      <trkpt lat="45.17668" lon="5.95182">
        <ele>2201.4289550781</ele>
        <time>2017-05-05T12:17:39Z</time>
      </trkpt>
      <trkpt lat="45.17663" lon="5.95183">
        <ele>2206.4289550781</ele>
        <time>2017-05-05T12:17:49Z</time>
      </trkpt>
      <trkpt lat="45.17659" lon="5.95181">
        <ele>2207.4289550781</ele>
        <time>2017-05-05T12:18:00Z</time>
      </trkpt>
      <trkpt lat="45.17654" lon="5.95183">
        <ele>2203.4289550781</ele>
        <time>2017-05-05T12:18:13Z</time>
      </trkpt>
      <trkpt lat="45.17648" lon="5.95184">
        <ele>2203.4279785156</ele>
        <time>2017-05-05T12:18:19Z</time>
      </trkpt>
      <trkpt lat="45.17644" lon="5.95185">
        <ele>2210.4279785156</ele>
        <time>2017-05-05T12:18:39Z</time>
      </trkpt>
      <trkpt lat="45.17639" lon="5.95185">
        <ele>2209.4279785156</ele>
        <time>2017-05-05T12:18:46Z</time>
      </trkpt>
      <trkpt lat="45.17634" lon="5.95186">
        <ele>2211.4279785156</ele>
        <time>2017-05-05T12:18:57Z</time>
      </trkpt>
      <trkpt lat="45.1763" lon="5.95185">
        <ele>2214.4279785156</ele>
        <time>2017-05-05T12:19:05Z</time>
      </trkpt>
      <trkpt lat="45.17625" lon="5.95186">
        <ele>2215.4279785156</ele>
        <time>2017-05-05T12:19:17Z</time>
      </trkpt>
      <trkpt lat="45.1762" lon="5.95187">
        <ele>2221.4279785156</ele>
        <time>2017-05-05T12:19:44Z</time>
      </trkpt>
      <trkpt lat="45.17616" lon="5.95189">
        <ele>2229.4279785156</ele>
        <time>2017-05-05T12:20:00Z</time>
      </trkpt>
      <trkpt lat="45.17611" lon="5.95185">
        <ele>2236.4279785156</ele>
        <time>2017-05-05T12:20:29Z</time>
      </trkpt>
      <trkpt lat="45.17606" lon="5.95186">
        <ele>2243.4279785156</ele>
        <time>2017-05-05T12:20:41Z</time>
      </trkpt>
      <trkpt lat="45.17602" lon="5.95184">
        <ele>2240.4279785156</ele>
        <time>2017-05-05T12:20:48Z</time>
      </trkpt>
      <trkpt lat="45.17597" lon="5.95183">
        <ele>2247.4279785156</ele>
        <time>2017-05-05T12:21:08Z</time>
      </trkpt>
      <trkpt lat="45.17592" lon="5.95183">
        <ele>2245.4279785156</ele>
        <time>2017-05-05T12:21:15Z</time>
      </trkpt>
      <trkpt lat="45.17587" lon="5.95182">
        <ele>2242.4279785156</ele>
        <time>2017-05-05T12:21:21Z</time>
      </trkpt>
      <trkpt lat="45.17582" lon="5.95182">
        <ele>2244.4279785156</ele>
        <time>2017-05-05T12:21:29Z</time>
      </trkpt>
      <trkpt lat="45.17577" lon="5.95178">
        <ele>2242.4279785156</ele>
        <time>2017-05-05T12:21:55Z</time>
      </trkpt>
      <trkpt lat="45.17572" lon="5.95175">
        <ele>2244.4279785156</ele>
        <time>2017-05-05T12:22:03Z</time>
      </trkpt>
      <trkpt lat="45.17568" lon="5.95172">
        <ele>2246.4279785156</ele>
        <time>2017-05-05T12:22:10Z</time>
      </trkpt>
      <trkpt lat="45.17562" lon="5.95167">
        <ele>2248.4279785156</ele>
        <time>2017-05-05T12:22:22Z</time>
      </trkpt>
      <trkpt lat="45.17558" lon="5.95164">
        <ele>2248.4279785156</ele>
        <time>2017-05-05T12:22:34Z</time>
      </trkpt>
      <trkpt lat="45.17554" lon="5.95161">
        <ele>2248.4279785156</ele>
        <time>2017-05-05T12:22:39Z</time>
      </trkpt>
      <trkpt lat="45.1755" lon="5.95155">
        <ele>2248.4279785156</ele>
        <time>2017-05-05T12:23:04Z</time>
      </trkpt>
      <trkpt lat="45.17545" lon="5.95154">
        <ele>2252.4279785156</ele>
        <time>2017-05-05T12:23:19Z</time>
      </trkpt>
      <trkpt lat="45.17541" lon="5.95152">
        <ele>2252.4279785156</ele>
        <time>2017-05-05T12:23:25Z</time>
      </trkpt>
      <trkpt lat="45.17537" lon="5.95147">
        <ele>2254.4279785156</ele>
        <time>2017-05-05T12:23:34Z</time>
      </trkpt>
      <trkpt lat="45.17532" lon="5.95148">
        <ele>2253.4279785156</ele>
        <time>2017-05-05T12:23:58Z</time>
      </trkpt>
      <trkpt lat="45.17528" lon="5.95151">
        <ele>2258.4279785156</ele>
        <time>2017-05-05T12:24:07Z</time>
      </trkpt>
      <trkpt lat="45.17524" lon="5.95157">
        <ele>2262.4279785156</ele>
        <time>2017-05-05T12:24:15Z</time>
      </trkpt>
      <trkpt lat="45.1752" lon="5.95163">
        <ele>2265.4279785156</ele>
        <time>2017-05-05T12:24:27Z</time>
      </trkpt>
      <trkpt lat="45.17518" lon="5.95169">
        <ele>2269.4279785156</ele>
        <time>2017-05-05T12:24:36Z</time>
      </trkpt>
      <trkpt lat="45.17517" lon="5.95175">
        <ele>2274.4279785156</ele>
        <time>2017-05-05T12:25:05Z</time>
      </trkpt>
      <trkpt lat="45.17514" lon="5.9518">
        <ele>2276.4279785156</ele>
        <time>2017-05-05T12:25:10Z</time>
      </trkpt>
      <trkpt lat="45.1751" lon="5.95185">
        <ele>2279.4279785156</ele>
        <time>2017-05-05T12:25:21Z</time>
      </trkpt>
      <trkpt lat="45.17506" lon="5.95184">
        <ele>2279.4279785156</ele>
        <time>2017-05-05T12:25:30Z</time>
      </trkpt>
      <trkpt lat="45.17503" lon="5.95178">
        <ele>2278.4279785156</ele>
        <time>2017-05-05T12:25:39Z</time>
      </trkpt>
      <trkpt lat="45.17499" lon="5.95173">
        <ele>2280.4279785156</ele>
        <time>2017-05-05T12:25:47Z</time>
      </trkpt>
      <trkpt lat="45.17496" lon="5.95167">
        <ele>2285.4279785156</ele>
        <time>2017-05-05T12:25:58Z</time>
      </trkpt>
      <trkpt lat="45.17493" lon="5.95162">
        <ele>2285.4279785156</ele>
        <time>2017-05-05T12:26:05Z</time>
      </trkpt>
      <trkpt lat="45.17489" lon="5.95156">
        <ele>2284.4279785156</ele>
        <time>2017-05-05T12:26:12Z</time>
      </trkpt>
      <trkpt lat="45.17484" lon="5.95151">
        <ele>2283.4279785156</ele>
        <time>2017-05-05T12:26:19Z</time>
      </trkpt>
      <trkpt lat="45.1748" lon="5.95149">
        <ele>2278.4279785156</ele>
        <time>2017-05-05T12:26:23Z</time>
      </trkpt>
      <trkpt lat="45.17477" lon="5.95143">
        <ele>2278.4279785156</ele>
        <time>2017-05-05T12:26:28Z</time>
      </trkpt>
      <trkpt lat="45.17476" lon="5.95135">
        <ele>2283.4279785156</ele>
        <time>2017-05-05T12:26:34Z</time>
      </trkpt>
      <trkpt lat="45.17475" lon="5.95128">
        <ele>2285.4279785156</ele>
        <time>2017-05-05T12:26:41Z</time>
      </trkpt>
      <trkpt lat="45.17473" lon="5.95121">
        <ele>2291.4279785156</ele>
        <time>2017-05-05T12:26:49Z</time>
      </trkpt>
      <trkpt lat="45.17469" lon="5.95116">
        <ele>2288.4279785156</ele>
        <time>2017-05-05T12:26:54Z</time>
      </trkpt>
      <trkpt lat="45.17465" lon="5.95112">
        <ele>2287.4279785156</ele>
        <time>2017-05-05T12:26:59Z</time>
      </trkpt>
      <trkpt lat="45.17462" lon="5.95107">
        <ele>2288.4279785156</ele>
        <time>2017-05-05T12:27:04Z</time>
      </trkpt>
      <trkpt lat="45.17458" lon="5.95104">
        <ele>2286.4279785156</ele>
        <time>2017-05-05T12:27:09Z</time>
      </trkpt>
      <trkpt lat="45.17454" lon="5.95098">
        <ele>2290.4279785156</ele>
        <time>2017-05-05T12:27:17Z</time>
      </trkpt>
      <trkpt lat="45.17451" lon="5.95093">
        <ele>2291.4279785156</ele>
        <time>2017-05-05T12:27:25Z</time>
      </trkpt>
      <trkpt lat="45.17448" lon="5.95087">
        <ele>2292.4279785156</ele>
        <time>2017-05-05T12:27:34Z</time>
      </trkpt>
      <trkpt lat="45.17447" lon="5.9508">
        <ele>2296.4279785156</ele>
        <time>2017-05-05T12:27:38Z</time>
      </trkpt>
      <trkpt lat="45.17445" lon="5.95075">
        <ele>2299.4279785156</ele>
        <time>2017-05-05T12:27:41Z</time>
      </trkpt>
      <trkpt lat="45.17443" lon="5.95069">
        <ele>2302.4279785156</ele>
        <time>2017-05-05T12:27:45Z</time>
      </trkpt>
      <trkpt lat="45.1744" lon="5.95063">
        <ele>2303.4279785156</ele>
        <time>2017-05-05T12:27:50Z</time>
      </trkpt>
      <trkpt lat="45.17438" lon="5.95057">
        <ele>2302.4279785156</ele>
        <time>2017-05-05T12:27:55Z</time>
      </trkpt>
      <trkpt lat="45.17438" lon="5.95049">
        <ele>2302.4279785156</ele>
        <time>2017-05-05T12:28:00Z</time>
      </trkpt>
      <trkpt lat="45.17437" lon="5.95042">
        <ele>2304.4279785156</ele>
        <time>2017-05-05T12:28:09Z</time>
      </trkpt>
      <trkpt lat="45.17436" lon="5.95035">
        <ele>2303.4279785156</ele>
        <time>2017-05-05T12:28:16Z</time>
      </trkpt>
      <trkpt lat="45.17437" lon="5.95029">
        <ele>2303.4279785156</ele>
        <time>2017-05-05T12:28:21Z</time>
      </trkpt>
      <trkpt lat="45.17439" lon="5.95021">
        <ele>2308.4279785156</ele>
        <time>2017-05-05T12:28:31Z</time>
      </trkpt>
      <trkpt lat="45.17441" lon="5.95015">
        <ele>2311.4279785156</ele>
        <time>2017-05-05T12:28:35Z</time>
      </trkpt>
      <trkpt lat="45.17445" lon="5.9501">
        <ele>2315.4279785156</ele>
        <time>2017-05-05T12:28:39Z</time>
      </trkpt>
      <trkpt lat="45.17447" lon="5.95004">
        <ele>2317.4279785156</ele>
        <time>2017-05-05T12:28:46Z</time>
      </trkpt>
      <trkpt lat="45.17447" lon="5.94997">
        <ele>2317.4279785156</ele>
        <time>2017-05-05T12:28:51Z</time>
      </trkpt>
      <trkpt lat="45.17448" lon="5.94989">
        <ele>2318.4279785156</ele>
        <time>2017-05-05T12:28:58Z</time>
      </trkpt>
      <trkpt lat="45.17445" lon="5.94982">
        <ele>2315.4279785156</ele>
        <time>2017-05-05T12:29:08Z</time>
      </trkpt>
      <trkpt lat="45.17444" lon="5.94974">
        <ele>2313.4279785156</ele>
        <time>2017-05-05T12:29:15Z</time>
      </trkpt>
      <trkpt lat="45.17443" lon="5.94966">
        <ele>2310.4279785156</ele>
        <time>2017-05-05T12:29:19Z</time>
      </trkpt>
      <trkpt lat="45.1744" lon="5.94961">
        <ele>2316.4279785156</ele>
        <time>2017-05-05T12:29:26Z</time>
      </trkpt>
      <trkpt lat="45.17435" lon="5.94961">
        <ele>2315.4279785156</ele>
        <time>2017-05-05T12:29:33Z</time>
      </trkpt>
      <trkpt lat="45.17431" lon="5.94964">
        <ele>2317.4279785156</ele>
        <time>2017-05-05T12:29:39Z</time>
      </trkpt>
      <trkpt lat="45.1743" lon="5.94957">
        <ele>2319.4279785156</ele>
        <time>2017-05-05T12:29:48Z</time>
      </trkpt>
      <trkpt lat="45.17429" lon="5.9495">
        <ele>2324.4279785156</ele>
        <time>2017-05-05T12:30:02Z</time>
      </trkpt>
      <trkpt lat="45.17426" lon="5.94946">
        <ele>2325.4279785156</ele>
        <time>2017-05-05T12:30:06Z</time>
      </trkpt>
      <trkpt lat="45.17423" lon="5.94941">
        <ele>2326.4279785156</ele>
        <time>2017-05-05T12:30:14Z</time>
      </trkpt>
      <trkpt lat="45.17417" lon="5.9494">
        <ele>2330.4279785156</ele>
        <time>2017-05-05T12:30:28Z</time>
      </trkpt>
      <trkpt lat="45.17416" lon="5.94933">
        <ele>2334.4279785156</ele>
        <time>2017-05-05T12:30:37Z</time>
      </trkpt>
      <trkpt lat="45.17413" lon="5.94928">
        <ele>2334.4279785156</ele>
        <time>2017-05-05T12:30:42Z</time>
      </trkpt>
      <trkpt lat="45.17409" lon="5.94923">
        <ele>2335.4279785156</ele>
        <time>2017-05-05T12:30:46Z</time>
      </trkpt>
      <trkpt lat="45.17405" lon="5.94917">
        <ele>2332.4279785156</ele>
        <time>2017-05-05T12:30:51Z</time>
      </trkpt>
      <trkpt lat="45.17402" lon="5.94912">
        <ele>2332.4279785156</ele>
        <time>2017-05-05T12:30:58Z</time>
      </trkpt>
      <trkpt lat="45.174" lon="5.94918">
        <ele>2335.4279785156</ele>
        <time>2017-05-05T12:31:09Z</time>
      </trkpt>
      <trkpt lat="45.17394" lon="5.94919">
        <ele>2333.4279785156</ele>
        <time>2017-05-05T12:31:15Z</time>
      </trkpt>
      <trkpt lat="45.17391" lon="5.94913">
        <ele>2333.4279785156</ele>
        <time>2017-05-05T12:31:20Z</time>
      </trkpt>
      <trkpt lat="45.17387" lon="5.94906">
        <ele>2330.4279785156</ele>
        <time>2017-05-05T12:31:27Z</time>
      </trkpt>
      <trkpt lat="45.17387" lon="5.94899">
        <ele>2336.4279785156</ele>
        <time>2017-05-05T12:31:40Z</time>
      </trkpt>
      <trkpt lat="45.17384" lon="5.94893">
        <ele>2338.4279785156</ele>
        <time>2017-05-05T12:31:46Z</time>
      </trkpt>
      <trkpt lat="45.17383" lon="5.94887">
        <ele>2338.4279785156</ele>
        <time>2017-05-05T12:31:51Z</time>
      </trkpt>
      <trkpt lat="45.1738" lon="5.94881">
        <ele>2341.4279785156</ele>
        <time>2017-05-05T12:31:58Z</time>
      </trkpt>
      <trkpt lat="45.17379" lon="5.94873">
        <ele>2342.4279785156</ele>
        <time>2017-05-05T12:32:09Z</time>
      </trkpt>
      <trkpt lat="45.1738" lon="5.94867">
        <ele>2344.4279785156</ele>
        <time>2017-05-05T12:32:14Z</time>
      </trkpt>
      <trkpt lat="45.17377" lon="5.94862">
        <ele>2341.4270019531</ele>
        <time>2017-05-05T12:32:19Z</time>
      </trkpt>
      <trkpt lat="45.17378" lon="5.94855">
        <ele>2347.4270019531</ele>
        <time>2017-05-05T12:32:26Z</time>
      </trkpt>
      <trkpt lat="45.17376" lon="5.94848">
        <ele>2344.4270019531</ele>
        <time>2017-05-05T12:32:32Z</time>
      </trkpt>
      <trkpt lat="45.17377" lon="5.94841">
        <ele>2346.4270019531</ele>
        <time>2017-05-05T12:32:38Z</time>
      </trkpt>
      <trkpt lat="45.17377" lon="5.94835">
        <ele>2347.4270019531</ele>
        <time>2017-05-05T12:32:50Z</time>
      </trkpt>
      <trkpt lat="45.17377" lon="5.94825">
        <ele>2346.4270019531</ele>
        <time>2017-05-05T12:32:55Z</time>
      </trkpt>
      <trkpt lat="45.17377" lon="5.94818">
        <ele>2345.4270019531</ele>
        <time>2017-05-05T12:32:59Z</time>
      </trkpt>
      <trkpt lat="45.17375" lon="5.94812">
        <ele>2346.4270019531</ele>
        <time>2017-05-05T12:33:03Z</time>
      </trkpt>
      <trkpt lat="45.17379" lon="5.94807">
        <ele>2352.4270019531</ele>
        <time>2017-05-05T12:33:09Z</time>
      </trkpt>
      <trkpt lat="45.17384" lon="5.94804">
        <ele>2356.4270019531</ele>
        <time>2017-05-05T12:33:13Z</time>
      </trkpt>
      <trkpt lat="45.17389" lon="5.94802">
        <ele>2361.4270019531</ele>
        <time>2017-05-05T12:33:24Z</time>
      </trkpt>
      <trkpt lat="45.17384" lon="5.94801">
        <ele>2364.4270019531</ele>
        <time>2017-05-05T12:33:47Z</time>
      </trkpt>
      <trkpt lat="45.1738" lon="5.94798">
        <ele>2368.4270019531</ele>
        <time>2017-05-05T12:36:01Z</time>
      </trkpt>
      <trkpt lat="45.17375" lon="5.94796">
        <ele>2368.4270019531</ele>
        <time>2017-05-05T12:37:27Z</time>
      </trkpt>
      <trkpt lat="45.17363" lon="5.94795">
        <ele>2361.4270019531</ele>
        <time>2017-05-05T12:37:29Z</time>
      </trkpt>
      <trkpt lat="45.17353" lon="5.94792">
        <ele>2359.4270019531</ele>
        <time>2017-05-05T12:37:31Z</time>
      </trkpt>
      <trkpt lat="45.17342" lon="5.94784">
        <ele>2354.4270019531</ele>
        <time>2017-05-05T12:37:33Z</time>
      </trkpt>
      <trkpt lat="45.17337" lon="5.94772">
        <ele>2347.4270019531</ele>
        <time>2017-05-05T12:37:35Z</time>
      </trkpt>
      <trkpt lat="45.17332" lon="5.94758">
        <ele>2339.4270019531</ele>
        <time>2017-05-05T12:37:37Z</time>
      </trkpt>
      <trkpt lat="45.17331" lon="5.94741">
        <ele>2330.4270019531</ele>
        <time>2017-05-05T12:37:39Z</time>
      </trkpt>
      <trkpt lat="45.1733" lon="5.94721">
        <ele>2322.4270019531</ele>
        <time>2017-05-05T12:37:41Z</time>
      </trkpt>
      <trkpt lat="45.17315" lon="5.94713">
        <ele>2315.4270019531</ele>
        <time>2017-05-05T12:37:43Z</time>
      </trkpt>
      <trkpt lat="45.17299" lon="5.94699">
        <ele>2310.4270019531</ele>
        <time>2017-05-05T12:37:45Z</time>
      </trkpt>
      <trkpt lat="45.17292" lon="5.94691">
        <ele>2307.4270019531</ele>
        <time>2017-05-05T12:37:46Z</time>
      </trkpt>
      <trkpt lat="45.17278" lon="5.94673">
        <ele>2302.4270019531</ele>
        <time>2017-05-05T12:37:48Z</time>
      </trkpt>
      <trkpt lat="45.17273" lon="5.94654">
        <ele>2295.4270019531</ele>
        <time>2017-05-05T12:37:50Z</time>
      </trkpt>
      <trkpt lat="45.17272" lon="5.94634">
        <ele>2287.4270019531</ele>
        <time>2017-05-05T12:37:52Z</time>
      </trkpt>
      <trkpt lat="45.17273" lon="5.94612">
        <ele>2282.4270019531</ele>
        <time>2017-05-05T12:37:54Z</time>
      </trkpt>
      <trkpt lat="45.17276" lon="5.94607">
        <ele>2279.4270019531</ele>
        <time>2017-05-05T12:37:55Z</time>
      </trkpt>
      <trkpt lat="45.17282" lon="5.94602">
        <ele>2276.4270019531</ele>
        <time>2017-05-05T12:37:56Z</time>
      </trkpt>
      <trkpt lat="45.17296" lon="5.94595">
        <ele>2272.4270019531</ele>
        <time>2017-05-05T12:38:00Z</time>
      </trkpt>
      <trkpt lat="45.17308" lon="5.94587">
        <ele>2268.4270019531</ele>
        <time>2017-05-05T12:38:03Z</time>
      </trkpt>
      <trkpt lat="45.17315" lon="5.94572">
        <ele>2265.4270019531</ele>
        <time>2017-05-05T12:38:05Z</time>
      </trkpt>
      <trkpt lat="45.17323" lon="5.94554">
        <ele>2262.4270019531</ele>
        <time>2017-05-05T12:38:07Z</time>
      </trkpt>
      <trkpt lat="45.17334" lon="5.94516">
        <ele>2258.4270019531</ele>
        <time>2017-05-05T12:38:09Z</time>
      </trkpt>
      <trkpt lat="45.17344" lon="5.94478">
        <ele>2253.4270019531</ele>
        <time>2017-05-05T12:38:11Z</time>
      </trkpt>
      <trkpt lat="45.17344" lon="5.94436">
        <ele>2245.4270019531</ele>
        <time>2017-05-05T12:38:14Z</time>
      </trkpt>
      <trkpt lat="45.17339" lon="5.94415">
        <ele>2241.4270019531</ele>
        <time>2017-05-05T12:38:16Z</time>
      </trkpt>
      <trkpt lat="45.17334" lon="5.94417">
        <ele>2234.4270019531</ele>
        <time>2017-05-05T12:38:24Z</time>
      </trkpt>
      <trkpt lat="45.17334" lon="5.9441">
        <ele>2227.4270019531</ele>
        <time>2017-05-05T12:39:05Z</time>
      </trkpt>
      <trkpt lat="45.17334" lon="5.94402">
        <ele>2225.4270019531</ele>
        <time>2017-05-05T12:39:07Z</time>
      </trkpt>
      <trkpt lat="45.17335" lon="5.94396">
        <ele>2224.4270019531</ele>
        <time>2017-05-05T12:39:08Z</time>
      </trkpt>
      <trkpt lat="45.17343" lon="5.94384">
        <ele>2220.4270019531</ele>
        <time>2017-05-05T12:39:10Z</time>
      </trkpt>
      <trkpt lat="45.17347" lon="5.94375">
        <ele>2216.4270019531</ele>
        <time>2017-05-05T12:39:11Z</time>
      </trkpt>
      <trkpt lat="45.17351" lon="5.94365">
        <ele>2212.4270019531</ele>
        <time>2017-05-05T12:39:12Z</time>
      </trkpt>
      <trkpt lat="45.17357" lon="5.94344">
        <ele>2205.4270019531</ele>
        <time>2017-05-05T12:39:14Z</time>
      </trkpt>
      <trkpt lat="45.17368" lon="5.94331">
        <ele>2200.4270019531</ele>
        <time>2017-05-05T12:39:16Z</time>
      </trkpt>
      <trkpt lat="45.17379" lon="5.94317">
        <ele>2198.4270019531</ele>
        <time>2017-05-05T12:39:18Z</time>
      </trkpt>
      <trkpt lat="45.17391" lon="5.94307">
        <ele>2197.4270019531</ele>
        <time>2017-05-05T12:39:20Z</time>
      </trkpt>
      <trkpt lat="45.17395" lon="5.94301">
        <ele>2196.4270019531</ele>
        <time>2017-05-05T12:39:22Z</time>
      </trkpt>
      <trkpt lat="45.17394" lon="5.94295">
        <ele>2194.4270019531</ele>
        <time>2017-05-05T12:39:29Z</time>
      </trkpt>
      <trkpt lat="45.17398" lon="5.94291">
        <ele>2192.4270019531</ele>
        <time>2017-05-05T12:39:33Z</time>
      </trkpt>
      <trkpt lat="45.17399" lon="5.94277">
        <ele>2188.4270019531</ele>
        <time>2017-05-05T12:39:35Z</time>
      </trkpt>
      <trkpt lat="45.17384" lon="5.94265">
        <ele>2183.4270019531</ele>
        <time>2017-05-05T12:39:38Z</time>
      </trkpt>
      <trkpt lat="45.17374" lon="5.94242">
        <ele>2178.4270019531</ele>
        <time>2017-05-05T12:39:40Z</time>
      </trkpt>
      <trkpt lat="45.17369" lon="5.94223">
        <ele>2171.4270019531</ele>
        <time>2017-05-05T12:39:42Z</time>
      </trkpt>
      <trkpt lat="45.17369" lon="5.94214">
        <ele>2170.4270019531</ele>
        <time>2017-05-05T12:39:43Z</time>
      </trkpt>
      <trkpt lat="45.17369" lon="5.942">
        <ele>2169.4270019531</ele>
        <time>2017-05-05T12:39:45Z</time>
      </trkpt>
      <trkpt lat="45.17369" lon="5.94185">
        <ele>2165.4270019531</ele>
        <time>2017-05-05T12:39:47Z</time>
      </trkpt>
      <trkpt lat="45.17372" lon="5.94165">
        <ele>2160.4270019531</ele>
        <time>2017-05-05T12:39:49Z</time>
      </trkpt>
      <trkpt lat="45.17374" lon="5.94143">
        <ele>2159.4260253906</ele>
        <time>2017-05-05T12:39:51Z</time>
      </trkpt>
      <trkpt lat="45.17371" lon="5.94124">
        <ele>2160.4260253906</ele>
        <time>2017-05-05T12:39:53Z</time>
      </trkpt>
      <trkpt lat="45.17367" lon="5.9411">
        <ele>2158.4260253906</ele>
        <time>2017-05-05T12:39:55Z</time>
      </trkpt>
      <trkpt lat="45.17362" lon="5.94086">
        <ele>2155.4260253906</ele>
        <time>2017-05-05T12:39:59Z</time>
      </trkpt>
      <trkpt lat="45.17356" lon="5.94081">
        <ele>2151.4260253906</ele>
        <time>2017-05-05T12:40:01Z</time>
      </trkpt>
      <trkpt lat="45.17344" lon="5.94064">
        <ele>2142.4260253906</ele>
        <time>2017-05-05T12:40:05Z</time>
      </trkpt>
      <trkpt lat="45.17339" lon="5.94046">
        <ele>2134.4260253906</ele>
        <time>2017-05-05T12:40:07Z</time>
      </trkpt>
      <trkpt lat="45.17338" lon="5.94023">
        <ele>2128.4260253906</ele>
        <time>2017-05-05T12:40:09Z</time>
      </trkpt>
      <trkpt lat="45.17331" lon="5.94003">
        <ele>2120.4260253906</ele>
        <time>2017-05-05T12:40:11Z</time>
      </trkpt>
      <trkpt lat="45.17323" lon="5.93985">
        <ele>2114.4260253906</ele>
        <time>2017-05-05T12:40:13Z</time>
      </trkpt>
      <trkpt lat="45.17314" lon="5.93965">
        <ele>2106.4260253906</ele>
        <time>2017-05-05T12:40:15Z</time>
      </trkpt>
      <trkpt lat="45.17303" lon="5.93943">
        <ele>2100.4260253906</ele>
        <time>2017-05-05T12:40:17Z</time>
      </trkpt>
      <trkpt lat="45.17295" lon="5.93925">
        <ele>2098.4260253906</ele>
        <time>2017-05-05T12:40:19Z</time>
      </trkpt>
      <trkpt lat="45.17288" lon="5.93905">
        <ele>2096.4260253906</ele>
        <time>2017-05-05T12:40:21Z</time>
      </trkpt>
      <trkpt lat="45.17283" lon="5.939">
        <ele>2094.4260253906</ele>
        <time>2017-05-05T12:40:23Z</time>
      </trkpt>
      <trkpt lat="45.17279" lon="5.93895">
        <ele>2092.4260253906</ele>
        <time>2017-05-05T12:40:25Z</time>
      </trkpt>
      <trkpt lat="45.17274" lon="5.93882">
        <ele>2090.4260253906</ele>
        <time>2017-05-05T12:40:27Z</time>
      </trkpt>
      <trkpt lat="45.17269" lon="5.93875">
        <ele>2089.4260253906</ele>
        <time>2017-05-05T12:40:29Z</time>
      </trkpt>
      <trkpt lat="45.17265" lon="5.9387">
        <ele>2088.4260253906</ele>
        <time>2017-05-05T12:40:31Z</time>
      </trkpt>
      <trkpt lat="45.17259" lon="5.93862">
        <ele>2087.4260253906</ele>
        <time>2017-05-05T12:40:33Z</time>
      </trkpt>
      <trkpt lat="45.17255" lon="5.93856">
        <ele>2086.4260253906</ele>
        <time>2017-05-05T12:40:35Z</time>
      </trkpt>
      <trkpt lat="45.17252" lon="5.9385">
        <ele>2084.4260253906</ele>
        <time>2017-05-05T12:40:37Z</time>
      </trkpt>
      <trkpt lat="45.17249" lon="5.93845">
        <ele>2082.4260253906</ele>
        <time>2017-05-05T12:40:39Z</time>
      </trkpt>
      <trkpt lat="45.17244" lon="5.9384">
        <ele>2080.4260253906</ele>
        <time>2017-05-05T12:40:42Z</time>
      </trkpt>
      <trkpt lat="45.17239" lon="5.93837">
        <ele>2078.4260253906</ele>
        <time>2017-05-05T12:40:44Z</time>
      </trkpt>
      <trkpt lat="45.17233" lon="5.93834">
        <ele>2077.4260253906</ele>
        <time>2017-05-05T12:40:46Z</time>
      </trkpt>
      <trkpt lat="45.1723" lon="5.93838">
        <ele>2076.4260253906</ele>
        <time>2017-05-05T12:40:48Z</time>
      </trkpt>
      <trkpt lat="45.17225" lon="5.93838">
        <ele>2077.4260253906</ele>
        <time>2017-05-05T12:40:51Z</time>
      </trkpt>
      <trkpt lat="45.17221" lon="5.93834">
        <ele>2075.4260253906</ele>
        <time>2017-05-05T12:42:02Z</time>
      </trkpt>
      <trkpt lat="45.17217" lon="5.93831">
        <ele>2072.4260253906</ele>
        <time>2017-05-05T12:42:04Z</time>
      </trkpt>
      <trkpt lat="45.17211" lon="5.93819">
        <ele>2067.4260253906</ele>
        <time>2017-05-05T12:42:06Z</time>
      </trkpt>
      <trkpt lat="45.17206" lon="5.93816">
        <ele>2066.4260253906</ele>
        <time>2017-05-05T12:42:07Z</time>
      </trkpt>
      <trkpt lat="45.17196" lon="5.93814">
        <ele>2064.4260253906</ele>
        <time>2017-05-05T12:42:09Z</time>
      </trkpt>
      <trkpt lat="45.1719" lon="5.93801">
        <ele>2058.4260253906</ele>
        <time>2017-05-05T12:42:11Z</time>
      </trkpt>
      <trkpt lat="45.17183" lon="5.93787">
        <ele>2047.4260253906</ele>
        <time>2017-05-05T12:42:14Z</time>
      </trkpt>
      <trkpt lat="45.17173" lon="5.93781">
        <ele>2041.4260253906</ele>
        <time>2017-05-05T12:42:16Z</time>
      </trkpt>
      <trkpt lat="45.17161" lon="5.93781">
        <ele>2039.4260253906</ele>
        <time>2017-05-05T12:42:19Z</time>
      </trkpt>
      <trkpt lat="45.17151" lon="5.93781">
        <ele>2036.4260253906</ele>
        <time>2017-05-05T12:42:21Z</time>
      </trkpt>
      <trkpt lat="45.17143" lon="5.93766">
        <ele>2029.4250488281</ele>
        <time>2017-05-05T12:42:24Z</time>
      </trkpt>
      <trkpt lat="45.17138" lon="5.9376">
        <ele>2027.4250488281</ele>
        <time>2017-05-05T12:42:25Z</time>
      </trkpt>
      <trkpt lat="45.17129" lon="5.93755">
        <ele>2022.4250488281</ele>
        <time>2017-05-05T12:42:27Z</time>
      </trkpt>
      <trkpt lat="45.17135" lon="5.93738">
        <ele>2014.4250488281</ele>
        <time>2017-05-05T12:42:30Z</time>
      </trkpt>
      <trkpt lat="45.1714" lon="5.9373">
        <ele>2012.4250488281</ele>
        <time>2017-05-05T12:42:32Z</time>
      </trkpt>
      <trkpt lat="45.17143" lon="5.93717">
        <ele>2008.4250488281</ele>
        <time>2017-05-05T12:42:34Z</time>
      </trkpt>
      <trkpt lat="45.17148" lon="5.93707">
        <ele>2007.4250488281</ele>
        <time>2017-05-05T12:42:36Z</time>
      </trkpt>
      <trkpt lat="45.17147" lon="5.93695">
        <ele>2006.4250488281</ele>
        <time>2017-05-05T12:42:51Z</time>
      </trkpt>
      <trkpt lat="45.17152" lon="5.93695">
        <ele>2004.4250488281</ele>
        <time>2017-05-05T12:43:26Z</time>
      </trkpt>
      <trkpt lat="45.17152" lon="5.93689">
        <ele>2002.4250488281</ele>
        <time>2017-05-05T12:43:28Z</time>
      </trkpt>
      <trkpt lat="45.17152" lon="5.93681">
        <ele>2000.4250488281</ele>
        <time>2017-05-05T12:43:30Z</time>
      </trkpt>
      <trkpt lat="45.17152" lon="5.93675">
        <ele>1989.4250488281</ele>
        <time>2017-05-05T12:43:42Z</time>
      </trkpt>
      <trkpt lat="45.17157" lon="5.93677">
        <ele>1993.4250488281</ele>
        <time>2017-05-05T12:44:18Z</time>
      </trkpt>
      <trkpt lat="45.17162" lon="5.9368">
        <ele>1992.4250488281</ele>
        <time>2017-05-05T12:44:20Z</time>
      </trkpt>
      <trkpt lat="45.17169" lon="5.93679">
        <ele>1991.4250488281</ele>
        <time>2017-05-05T12:44:23Z</time>
      </trkpt>
      <trkpt lat="45.17175" lon="5.93674">
        <ele>1990.4250488281</ele>
        <time>2017-05-05T12:44:25Z</time>
      </trkpt>
      <trkpt lat="45.17181" lon="5.93669">
        <ele>1988.4250488281</ele>
        <time>2017-05-05T12:44:27Z</time>
      </trkpt>
      <trkpt lat="45.17189" lon="5.93663">
        <ele>1985.4250488281</ele>
        <time>2017-05-05T12:44:29Z</time>
      </trkpt>
      <trkpt lat="45.17197" lon="5.93659">
        <ele>1984.4250488281</ele>
        <time>2017-05-05T12:44:31Z</time>
      </trkpt>
      <trkpt lat="45.17203" lon="5.93657">
        <ele>1984.4250488281</ele>
        <time>2017-05-05T12:44:33Z</time>
      </trkpt>
      <trkpt lat="45.17208" lon="5.93657">
        <ele>1983.4250488281</ele>
        <time>2017-05-05T12:44:35Z</time>
      </trkpt>
      <trkpt lat="45.17215" lon="5.93657">
        <ele>1979.4250488281</ele>
        <time>2017-05-05T12:44:39Z</time>
      </trkpt>
      <trkpt lat="45.17221" lon="5.93653">
        <ele>1979.4250488281</ele>
        <time>2017-05-05T12:44:41Z</time>
      </trkpt>
      <trkpt lat="45.17226" lon="5.93651">
        <ele>1977.4250488281</ele>
        <time>2017-05-05T12:44:43Z</time>
      </trkpt>
      <trkpt lat="45.1723" lon="5.93648">
        <ele>1977.4250488281</ele>
        <time>2017-05-05T12:44:45Z</time>
      </trkpt>
      <trkpt lat="45.17236" lon="5.93644">
        <ele>1977.4250488281</ele>
        <time>2017-05-05T12:44:48Z</time>
      </trkpt>
      <trkpt lat="45.17242" lon="5.93643">
        <ele>1977.4260253906</ele>
        <time>2017-05-05T12:44:52Z</time>
      </trkpt>
      <trkpt lat="45.17247" lon="5.93642">
        <ele>1976.4260253906</ele>
        <time>2017-05-05T12:44:54Z</time>
      </trkpt>
      <trkpt lat="45.17252" lon="5.9364">
        <ele>1977.4260253906</ele>
        <time>2017-05-05T12:44:56Z</time>
      </trkpt>
      <trkpt lat="45.17258" lon="5.93638">
        <ele>1975.4260253906</ele>
        <time>2017-05-05T12:44:58Z</time>
      </trkpt>
      <trkpt lat="45.17266" lon="5.93639">
        <ele>1973.4260253906</ele>
        <time>2017-05-05T12:45:00Z</time>
      </trkpt>
      <trkpt lat="45.17272" lon="5.93634">
        <ele>1974.4260253906</ele>
        <time>2017-05-05T12:45:02Z</time>
      </trkpt>
      <trkpt lat="45.17279" lon="5.93634">
        <ele>1975.4260253906</ele>
        <time>2017-05-05T12:45:04Z</time>
      </trkpt>
      <trkpt lat="45.17282" lon="5.93629">
        <ele>1975.4260253906</ele>
        <time>2017-05-05T12:45:06Z</time>
      </trkpt>
      <trkpt lat="45.17286" lon="5.93624">
        <ele>1973.4260253906</ele>
        <time>2017-05-05T12:45:09Z</time>
      </trkpt>
      <trkpt lat="45.17288" lon="5.93618">
        <ele>1975.4260253906</ele>
        <time>2017-05-05T12:45:15Z</time>
      </trkpt>
      <trkpt lat="45.17296" lon="5.93616">
        <ele>1971.4260253906</ele>
        <time>2017-05-05T12:45:27Z</time>
      </trkpt>
      <trkpt lat="45.17303" lon="5.93616">
        <ele>1970.4260253906</ele>
        <time>2017-05-05T12:45:29Z</time>
      </trkpt>
      <trkpt lat="45.17311" lon="5.93618">
        <ele>1970.4260253906</ele>
        <time>2017-05-05T12:45:31Z</time>
      </trkpt>
      <trkpt lat="45.17319" lon="5.93616">
        <ele>1969.4260253906</ele>
        <time>2017-05-05T12:45:33Z</time>
      </trkpt>
      <trkpt lat="45.17327" lon="5.93616">
        <ele>1967.4260253906</ele>
        <time>2017-05-05T12:45:35Z</time>
      </trkpt>
      <trkpt lat="45.17332" lon="5.93615">
        <ele>1965.4260253906</ele>
        <time>2017-05-05T12:45:36Z</time>
      </trkpt>
      <trkpt lat="45.17345" lon="5.93617">
        <ele>1963.4260253906</ele>
        <time>2017-05-05T12:45:38Z</time>
      </trkpt>
      <trkpt lat="45.17354" lon="5.9361">
        <ele>1957.4260253906</ele>
        <time>2017-05-05T12:45:40Z</time>
      </trkpt>
      <trkpt lat="45.17368" lon="5.93596">
        <ele>1942.4260253906</ele>
        <time>2017-05-05T12:45:43Z</time>
      </trkpt>
      <trkpt lat="45.17371" lon="5.93577">
        <ele>1933.4260253906</ele>
        <time>2017-05-05T12:45:46Z</time>
      </trkpt>
      <trkpt lat="45.17371" lon="5.93557">
        <ele>1930.4260253906</ele>
        <time>2017-05-05T12:45:49Z</time>
      </trkpt>
      <trkpt lat="45.17372" lon="5.9354">
        <ele>1928.4260253906</ele>
        <time>2017-05-05T12:45:51Z</time>
      </trkpt>
      <trkpt lat="45.1737" lon="5.93527">
        <ele>1926.4260253906</ele>
        <time>2017-05-05T12:45:53Z</time>
      </trkpt>
      <trkpt lat="45.17365" lon="5.93521">
        <ele>1924.4260253906</ele>
        <time>2017-05-05T12:45:55Z</time>
      </trkpt>
      <trkpt lat="45.17362" lon="5.93516">
        <ele>1923.4260253906</ele>
        <time>2017-05-05T12:45:57Z</time>
      </trkpt>
      <trkpt lat="45.17358" lon="5.93507">
        <ele>1923.4260253906</ele>
        <time>2017-05-05T12:45:59Z</time>
      </trkpt>
      <trkpt lat="45.17354" lon="5.93499">
        <ele>1922.4260253906</ele>
        <time>2017-05-05T12:46:01Z</time>
      </trkpt>
      <trkpt lat="45.1735" lon="5.93491">
        <ele>1921.4260253906</ele>
        <time>2017-05-05T12:46:03Z</time>
      </trkpt>
      <trkpt lat="45.17347" lon="5.93485">
        <ele>1921.4250488281</ele>
        <time>2017-05-05T12:46:05Z</time>
      </trkpt>
      <trkpt lat="45.17344" lon="5.93476">
        <ele>1922.4250488281</ele>
        <time>2017-05-05T12:46:08Z</time>
      </trkpt>
      <trkpt lat="45.17341" lon="5.93469">
        <ele>1921.4250488281</ele>
        <time>2017-05-05T12:46:13Z</time>
      </trkpt>
      <trkpt lat="45.17338" lon="5.93463">
        <ele>1919.4250488281</ele>
        <time>2017-05-05T12:46:17Z</time>
      </trkpt>
      <trkpt lat="45.17335" lon="5.93458">
        <ele>1916.4250488281</ele>
        <time>2017-05-05T12:46:20Z</time>
      </trkpt>
      <trkpt lat="45.17334" lon="5.9345">
        <ele>1916.4250488281</ele>
        <time>2017-05-05T12:46:23Z</time>
      </trkpt>
      <trkpt lat="45.17327" lon="5.93445">
        <ele>1914.4250488281</ele>
        <time>2017-05-05T12:46:26Z</time>
      </trkpt>
      <trkpt lat="45.17322" lon="5.93436">
        <ele>1912.4250488281</ele>
        <time>2017-05-05T12:46:28Z</time>
      </trkpt>
      <trkpt lat="45.17318" lon="5.93431">
        <ele>1911.4250488281</ele>
        <time>2017-05-05T12:46:29Z</time>
      </trkpt>
      <trkpt lat="45.17315" lon="5.93422">
        <ele>1910.4250488281</ele>
        <time>2017-05-05T12:46:30Z</time>
      </trkpt>
      <trkpt lat="45.1731" lon="5.93403">
        <ele>1909.4250488281</ele>
        <time>2017-05-05T12:46:32Z</time>
      </trkpt>
      <trkpt lat="45.17311" lon="5.93385">
        <ele>1908.4250488281</ele>
        <time>2017-05-05T12:46:35Z</time>
      </trkpt>
      <trkpt lat="45.17312" lon="5.93376">
        <ele>1909.4250488281</ele>
        <time>2017-05-05T12:46:37Z</time>
      </trkpt>
      <trkpt lat="45.17315" lon="5.93367">
        <ele>1909.4250488281</ele>
        <time>2017-05-05T12:46:39Z</time>
      </trkpt>
      <trkpt lat="45.17319" lon="5.93358">
        <ele>1907.4250488281</ele>
        <time>2017-05-05T12:46:41Z</time>
      </trkpt>
      <trkpt lat="45.17326" lon="5.93351">
        <ele>1907.4250488281</ele>
        <time>2017-05-05T12:46:43Z</time>
      </trkpt>
      <trkpt lat="45.17335" lon="5.93342">
        <ele>1907.4250488281</ele>
        <time>2017-05-05T12:46:45Z</time>
      </trkpt>
      <trkpt lat="45.1734" lon="5.93336">
        <ele>1906.4250488281</ele>
        <time>2017-05-05T12:46:46Z</time>
      </trkpt>
      <trkpt lat="45.17348" lon="5.93325">
        <ele>1905.4250488281</ele>
        <time>2017-05-05T12:46:48Z</time>
      </trkpt>
      <trkpt lat="45.17351" lon="5.93314">
        <ele>1902.4250488281</ele>
        <time>2017-05-05T12:46:50Z</time>
      </trkpt>
      <trkpt lat="45.17355" lon="5.93308">
        <ele>1900.4250488281</ele>
        <time>2017-05-05T12:46:52Z</time>
      </trkpt>
      <trkpt lat="45.17359" lon="5.93303">
        <ele>1900.4250488281</ele>
        <time>2017-05-05T12:47:10Z</time>
      </trkpt>
      <trkpt lat="45.17362" lon="5.93297">
        <ele>1902.4250488281</ele>
        <time>2017-05-05T12:47:19Z</time>
      </trkpt>
      <trkpt lat="45.17361" lon="5.9329">
        <ele>1901.4250488281</ele>
        <time>2017-05-05T12:47:22Z</time>
      </trkpt>
      <trkpt lat="45.17361" lon="5.93283">
        <ele>1899.4250488281</ele>
        <time>2017-05-05T12:47:28Z</time>
      </trkpt>
      <trkpt lat="45.17361" lon="5.93272">
        <ele>1896.4250488281</ele>
        <time>2017-05-05T12:47:32Z</time>
      </trkpt>
      <trkpt lat="45.17362" lon="5.93263">
        <ele>1897.4250488281</ele>
        <time>2017-05-05T12:47:34Z</time>
      </trkpt>
      <trkpt lat="45.17364" lon="5.93255">
        <ele>1897.4250488281</ele>
        <time>2017-05-05T12:47:41Z</time>
      </trkpt>
      <trkpt lat="45.17365" lon="5.93245">
        <ele>1895.4250488281</ele>
        <time>2017-05-05T12:47:46Z</time>
      </trkpt>
      <trkpt lat="45.17366" lon="5.93238">
        <ele>1895.4250488281</ele>
        <time>2017-05-05T12:47:48Z</time>
      </trkpt>
      <trkpt lat="45.17364" lon="5.93231">
        <ele>1894.4250488281</ele>
        <time>2017-05-05T12:47:50Z</time>
      </trkpt>
      <trkpt lat="45.17363" lon="5.93223">
        <ele>1894.4250488281</ele>
        <time>2017-05-05T12:47:52Z</time>
      </trkpt>
      <trkpt lat="45.17362" lon="5.93215">
        <ele>1894.4250488281</ele>
        <time>2017-05-05T12:47:54Z</time>
      </trkpt>
      <trkpt lat="45.17362" lon="5.93204">
        <ele>1891.4250488281</ele>
        <time>2017-05-05T12:47:58Z</time>
      </trkpt>
      <trkpt lat="45.17364" lon="5.93193">
        <ele>1891.4250488281</ele>
        <time>2017-05-05T12:48:00Z</time>
      </trkpt>
      <trkpt lat="45.17366" lon="5.93184">
        <ele>1891.4250488281</ele>
        <time>2017-05-05T12:48:02Z</time>
      </trkpt>
      <trkpt lat="45.17365" lon="5.93177">
        <ele>1891.4250488281</ele>
        <time>2017-05-05T12:48:06Z</time>
      </trkpt>
      <trkpt lat="45.17363" lon="5.93171">
        <ele>1892.4250488281</ele>
        <time>2017-05-05T12:48:10Z</time>
      </trkpt>
      <trkpt lat="45.17361" lon="5.93164">
        <ele>1894.4250488281</ele>
        <time>2017-05-05T12:48:17Z</time>
      </trkpt>
      <trkpt lat="45.17359" lon="5.93158">
        <ele>1897.4250488281</ele>
        <time>2017-05-05T12:48:23Z</time>
      </trkpt>
      <trkpt lat="45.17355" lon="5.93154">
        <ele>1898.4250488281</ele>
        <time>2017-05-05T12:48:30Z</time>
      </trkpt>
      <trkpt lat="45.17352" lon="5.93149">
        <ele>1896.4250488281</ele>
        <time>2017-05-05T12:48:36Z</time>
      </trkpt>
      <trkpt lat="45.17348" lon="5.93144">
        <ele>1895.4250488281</ele>
        <time>2017-05-05T12:48:44Z</time>
      </trkpt>
      <trkpt lat="45.17345" lon="5.93139">
        <ele>1894.4250488281</ele>
        <time>2017-05-05T12:48:54Z</time>
      </trkpt>
      <trkpt lat="45.17343" lon="5.93133">
        <ele>1895.4250488281</ele>
        <time>2017-05-05T12:49:00Z</time>
      </trkpt>
      <trkpt lat="45.17341" lon="5.93127">
        <ele>1893.4250488281</ele>
        <time>2017-05-05T12:49:05Z</time>
      </trkpt>
      <trkpt lat="45.17339" lon="5.93122">
        <ele>1892.4250488281</ele>
        <time>2017-05-05T12:49:08Z</time>
      </trkpt>
      <trkpt lat="45.17337" lon="5.93114">
        <ele>1890.4250488281</ele>
        <time>2017-05-05T12:49:12Z</time>
      </trkpt>
      <trkpt lat="45.17334" lon="5.93092">
        <ele>1885.4250488281</ele>
        <time>2017-05-05T12:49:15Z</time>
      </trkpt>
      <trkpt lat="45.17332" lon="5.93086">
        <ele>1886.4250488281</ele>
        <time>2017-05-05T12:49:17Z</time>
      </trkpt>
      <trkpt lat="45.17327" lon="5.93076">
        <ele>1881.4250488281</ele>
        <time>2017-05-05T12:49:24Z</time>
      </trkpt>
      <trkpt lat="45.17324" lon="5.93068">
        <ele>1880.4250488281</ele>
        <time>2017-05-05T12:49:26Z</time>
      </trkpt>
      <trkpt lat="45.17321" lon="5.93058">
        <ele>1881.4250488281</ele>
        <time>2017-05-05T12:49:28Z</time>
      </trkpt>
      <trkpt lat="45.17319" lon="5.93051">
        <ele>1882.4250488281</ele>
        <time>2017-05-05T12:49:34Z</time>
      </trkpt>
      <trkpt lat="45.17317" lon="5.93044">
        <ele>1881.4250488281</ele>
        <time>2017-05-05T12:49:37Z</time>
      </trkpt>
      <trkpt lat="45.17315" lon="5.93038">
        <ele>1881.4250488281</ele>
        <time>2017-05-05T12:49:39Z</time>
      </trkpt>
      <trkpt lat="45.17311" lon="5.9303">
        <ele>1880.4250488281</ele>
        <time>2017-05-05T12:49:41Z</time>
      </trkpt>
      <trkpt lat="45.17308" lon="5.93022">
        <ele>1879.4250488281</ele>
        <time>2017-05-05T12:49:43Z</time>
      </trkpt>
      <trkpt lat="45.17304" lon="5.93012">
        <ele>1878.4250488281</ele>
        <time>2017-05-05T12:49:45Z</time>
      </trkpt>
      <trkpt lat="45.17302" lon="5.93005">
        <ele>1877.4250488281</ele>
        <time>2017-05-05T12:49:47Z</time>
      </trkpt>
      <trkpt lat="45.17299" lon="5.92998">
        <ele>1877.4250488281</ele>
        <time>2017-05-05T12:49:49Z</time>
      </trkpt>
      <trkpt lat="45.17296" lon="5.92993">
        <ele>1874.4250488281</ele>
        <time>2017-05-05T12:49:51Z</time>
      </trkpt>
      <trkpt lat="45.17294" lon="5.92985">
        <ele>1874.4250488281</ele>
        <time>2017-05-05T12:49:54Z</time>
      </trkpt>
      <trkpt lat="45.1729" lon="5.92979">
        <ele>1873.4250488281</ele>
        <time>2017-05-05T12:49:56Z</time>
      </trkpt>
      <trkpt lat="45.17288" lon="5.92973">
        <ele>1868.4250488281</ele>
        <time>2017-05-05T12:49:59Z</time>
      </trkpt>
      <trkpt lat="45.17285" lon="5.92965">
        <ele>1865.4250488281</ele>
        <time>2017-05-05T12:50:01Z</time>
      </trkpt>
      <trkpt lat="45.17282" lon="5.92957">
        <ele>1863.4250488281</ele>
        <time>2017-05-05T12:50:03Z</time>
      </trkpt>
      <trkpt lat="45.17277" lon="5.92947">
        <ele>1862.4250488281</ele>
        <time>2017-05-05T12:50:05Z</time>
      </trkpt>
      <trkpt lat="45.17273" lon="5.92942">
        <ele>1862.4250488281</ele>
        <time>2017-05-05T12:50:06Z</time>
      </trkpt>
      <trkpt lat="45.1727" lon="5.92937">
        <ele>1862.4250488281</ele>
        <time>2017-05-05T12:50:07Z</time>
      </trkpt>
      <trkpt lat="45.17265" lon="5.92931">
        <ele>1861.4250488281</ele>
        <time>2017-05-05T12:50:09Z</time>
      </trkpt>
      <trkpt lat="45.17261" lon="5.92923">
        <ele>1859.4250488281</ele>
        <time>2017-05-05T12:50:11Z</time>
      </trkpt>
      <trkpt lat="45.17256" lon="5.92911">
        <ele>1856.4239501953</ele>
        <time>2017-05-05T12:50:13Z</time>
      </trkpt>
      <trkpt lat="45.17252" lon="5.92898">
        <ele>1854.4239501953</ele>
        <time>2017-05-05T12:50:15Z</time>
      </trkpt>
      <trkpt lat="45.17257" lon="5.92879">
        <ele>1852.4239501953</ele>
        <time>2017-05-05T12:50:17Z</time>
      </trkpt>
      <trkpt lat="45.17255" lon="5.92864">
        <ele>1849.4239501953</ele>
        <time>2017-05-05T12:50:19Z</time>
      </trkpt>
      <trkpt lat="45.17252" lon="5.92857">
        <ele>1846.4239501953</ele>
        <time>2017-05-05T12:50:20Z</time>
      </trkpt>
      <trkpt lat="45.17249" lon="5.92851">
        <ele>1845.4239501953</ele>
        <time>2017-05-05T12:50:21Z</time>
      </trkpt>
      <trkpt lat="45.17248" lon="5.92843">
        <ele>1844.4239501953</ele>
        <time>2017-05-05T12:50:34Z</time>
      </trkpt>
      <trkpt lat="45.17245" lon="5.92836">
        <ele>1842.4239501953</ele>
        <time>2017-05-05T12:50:36Z</time>
      </trkpt>
      <trkpt lat="45.17242" lon="5.92829">
        <ele>1839.4239501953</ele>
        <time>2017-05-05T12:50:38Z</time>
      </trkpt>
      <trkpt lat="45.1724" lon="5.92821">
        <ele>1838.4239501953</ele>
        <time>2017-05-05T12:50:40Z</time>
      </trkpt>
      <trkpt lat="45.17239" lon="5.92814">
        <ele>1836.4239501953</ele>
        <time>2017-05-05T12:50:43Z</time>
      </trkpt>
      <trkpt lat="45.17236" lon="5.92807">
        <ele>1834.4239501953</ele>
        <time>2017-05-05T12:50:46Z</time>
      </trkpt>
      <trkpt lat="45.17236" lon="5.928">
        <ele>1833.4239501953</ele>
        <time>2017-05-05T12:50:56Z</time>
      </trkpt>
      <trkpt lat="45.17239" lon="5.92794">
        <ele>1831.4239501953</ele>
        <time>2017-05-05T12:51:02Z</time>
      </trkpt>
      <trkpt lat="45.17238" lon="5.92787">
        <ele>1828.4239501953</ele>
        <time>2017-05-05T12:51:05Z</time>
      </trkpt>
      <trkpt lat="45.17234" lon="5.9278">
        <ele>1827.4239501953</ele>
        <time>2017-05-05T12:51:07Z</time>
      </trkpt>
      <trkpt lat="45.17232" lon="5.92775">
        <ele>1826.4239501953</ele>
        <time>2017-05-05T12:51:09Z</time>
      </trkpt>
      <trkpt lat="45.17229" lon="5.92769">
        <ele>1827.4239501953</ele>
        <time>2017-05-05T12:51:11Z</time>
      </trkpt>
      <trkpt lat="45.17224" lon="5.92767">
        <ele>1826.4239501953</ele>
        <time>2017-05-05T12:51:21Z</time>
      </trkpt>
      <trkpt lat="45.17222" lon="5.92761">
        <ele>1828.4239501953</ele>
        <time>2017-05-05T12:51:26Z</time>
      </trkpt>
      <trkpt lat="45.17218" lon="5.92754">
        <ele>1824.4239501953</ele>
        <time>2017-05-05T12:51:29Z</time>
      </trkpt>
      <trkpt lat="45.17213" lon="5.92746">
        <ele>1824.4239501953</ele>
        <time>2017-05-05T12:51:31Z</time>
      </trkpt>
      <trkpt lat="45.17208" lon="5.9274">
        <ele>1824.4239501953</ele>
        <time>2017-05-05T12:51:34Z</time>
      </trkpt>
      <trkpt lat="45.17205" lon="5.92734">
        <ele>1823.4239501953</ele>
        <time>2017-05-05T12:51:36Z</time>
      </trkpt>
      <trkpt lat="45.17201" lon="5.92727">
        <ele>1822.4239501953</ele>
        <time>2017-05-05T12:51:38Z</time>
      </trkpt>
      <trkpt lat="45.172" lon="5.92707">
        <ele>1814.4239501953</ele>
        <time>2017-05-05T12:51:42Z</time>
      </trkpt>
      <trkpt lat="45.17198" lon="5.9269">
        <ele>1811.4239501953</ele>
        <time>2017-05-05T12:51:44Z</time>
      </trkpt>
      <trkpt lat="45.17194" lon="5.92676">
        <ele>1804.4239501953</ele>
        <time>2017-05-05T12:52:03Z</time>
      </trkpt>
      <trkpt lat="45.172" lon="5.92663">
        <ele>1802.4239501953</ele>
        <time>2017-05-05T12:52:05Z</time>
      </trkpt>
      <trkpt lat="45.17208" lon="5.92651">
        <ele>1796.4239501953</ele>
        <time>2017-05-05T12:52:07Z</time>
      </trkpt>
      <trkpt lat="45.17216" lon="5.92637">
        <ele>1792.4239501953</ele>
        <time>2017-05-05T12:52:09Z</time>
      </trkpt>
      <trkpt lat="45.17222" lon="5.92625">
        <ele>1791.4239501953</ele>
        <time>2017-05-05T12:52:11Z</time>
      </trkpt>
      <trkpt lat="45.17229" lon="5.92617">
        <ele>1788.4239501953</ele>
        <time>2017-05-05T12:52:13Z</time>
      </trkpt>
      <trkpt lat="45.17236" lon="5.92608">
        <ele>1788.4239501953</ele>
        <time>2017-05-05T12:52:15Z</time>
      </trkpt>
      <trkpt lat="45.17243" lon="5.92598">
        <ele>1785.4239501953</ele>
        <time>2017-05-05T12:52:17Z</time>
      </trkpt>
      <trkpt lat="45.17251" lon="5.92585">
        <ele>1781.4239501953</ele>
        <time>2017-05-05T12:52:19Z</time>
      </trkpt>
      <trkpt lat="45.17258" lon="5.92571">
        <ele>1777.4239501953</ele>
        <time>2017-05-05T12:52:21Z</time>
      </trkpt>
      <trkpt lat="45.17267" lon="5.92558">
        <ele>1776.4239501953</ele>
        <time>2017-05-05T12:52:24Z</time>
      </trkpt>
      <trkpt lat="45.17273" lon="5.92553">
        <ele>1775.4239501953</ele>
        <time>2017-05-05T12:52:26Z</time>
      </trkpt>
      <trkpt lat="45.17276" lon="5.92548">
        <ele>1772.4239501953</ele>
        <time>2017-05-05T12:52:28Z</time>
      </trkpt>
      <trkpt lat="45.1728" lon="5.92542">
        <ele>1768.4239501953</ele>
        <time>2017-05-05T12:52:32Z</time>
      </trkpt>
      <trkpt lat="45.17285" lon="5.92536">
        <ele>1767.4239501953</ele>
        <time>2017-05-05T12:52:35Z</time>
      </trkpt>
      <trkpt lat="45.17291" lon="5.92531">
        <ele>1767.4239501953</ele>
        <time>2017-05-05T12:52:37Z</time>
      </trkpt>
      <trkpt lat="45.17295" lon="5.92526">
        <ele>1766.4239501953</ele>
        <time>2017-05-05T12:52:42Z</time>
      </trkpt>
      <trkpt lat="45.17299" lon="5.9252">
        <ele>1765.4239501953</ele>
        <time>2017-05-05T12:52:46Z</time>
      </trkpt>
      <trkpt lat="45.17303" lon="5.92519">
        <ele>1773.4239501953</ele>
        <time>2017-05-05T12:52:54Z</time>
      </trkpt>
      <trkpt lat="45.17307" lon="5.92528">
        <ele>1771.4239501953</ele>
        <time>2017-05-05T12:52:59Z</time>
      </trkpt>
      <trkpt lat="45.17306" lon="5.9254">
        <ele>1768.4239501953</ele>
        <time>2017-05-05T12:53:01Z</time>
      </trkpt>
      <trkpt lat="45.17306" lon="5.92552">
        <ele>1765.4239501953</ele>
        <time>2017-05-05T12:53:03Z</time>
      </trkpt>
      <trkpt lat="45.17307" lon="5.92562">
        <ele>1763.4239501953</ele>
        <time>2017-05-05T12:53:05Z</time>
      </trkpt>
      <trkpt lat="45.17308" lon="5.92573">
        <ele>1760.4239501953</ele>
        <time>2017-05-05T12:53:07Z</time>
      </trkpt>
      <trkpt lat="45.17312" lon="5.92581">
        <ele>1757.4239501953</ele>
        <time>2017-05-05T12:53:09Z</time>
      </trkpt>
      <trkpt lat="45.17317" lon="5.92574">
        <ele>1755.4239501953</ele>
        <time>2017-05-05T12:53:12Z</time>
      </trkpt>
      <trkpt lat="45.1732" lon="5.92569">
        <ele>1753.4239501953</ele>
        <time>2017-05-05T12:53:15Z</time>
      </trkpt>
      <trkpt lat="45.17324" lon="5.92563">
        <ele>1749.4239501953</ele>
        <time>2017-05-05T12:53:18Z</time>
      </trkpt>
      <trkpt lat="45.17329" lon="5.92561">
        <ele>1748.4239501953</ele>
        <time>2017-05-05T12:53:20Z</time>
      </trkpt>
      <trkpt lat="45.17336" lon="5.92556">
        <ele>1744.4239501953</ele>
        <time>2017-05-05T12:53:22Z</time>
      </trkpt>
      <trkpt lat="45.17339" lon="5.92551">
        <ele>1743.4239501953</ele>
        <time>2017-05-05T12:53:24Z</time>
      </trkpt>
      <trkpt lat="45.17344" lon="5.92545">
        <ele>1742.4239501953</ele>
        <time>2017-05-05T12:53:26Z</time>
      </trkpt>
      <trkpt lat="45.1735" lon="5.92542">
        <ele>1741.4239501953</ele>
        <time>2017-05-05T12:53:27Z</time>
      </trkpt>
      <trkpt lat="45.17358" lon="5.9254">
        <ele>1741.4239501953</ele>
        <time>2017-05-05T12:53:29Z</time>
      </trkpt>
      <trkpt lat="45.17365" lon="5.92529">
        <ele>1739.4239501953</ele>
        <time>2017-05-05T12:53:32Z</time>
      </trkpt>
      <trkpt lat="45.17369" lon="5.92524">
        <ele>1737.4239501953</ele>
        <time>2017-05-05T12:53:34Z</time>
      </trkpt>
      <trkpt lat="45.17374" lon="5.92515">
        <ele>1735.4239501953</ele>
        <time>2017-05-05T12:53:36Z</time>
      </trkpt>
      <trkpt lat="45.1738" lon="5.92509">
        <ele>1733.4239501953</ele>
        <time>2017-05-05T12:53:38Z</time>
      </trkpt>
      <trkpt lat="45.17387" lon="5.92508">
        <ele>1732.4239501953</ele>
        <time>2017-05-05T12:53:40Z</time>
      </trkpt>
      <trkpt lat="45.17394" lon="5.92506">
        <ele>1731.4239501953</ele>
        <time>2017-05-05T12:53:42Z</time>
      </trkpt>
      <trkpt lat="45.17394" lon="5.92499">
        <ele>1724.4239501953</ele>
        <time>2017-05-05T12:53:44Z</time>
      </trkpt>
      <trkpt lat="45.17394" lon="5.9249">
        <ele>1724.4239501953</ele>
        <time>2017-05-05T12:53:46Z</time>
      </trkpt>
      <trkpt lat="45.17397" lon="5.92482">
        <ele>1722.4239501953</ele>
        <time>2017-05-05T12:53:50Z</time>
      </trkpt>
      <trkpt lat="45.17402" lon="5.92477">
        <ele>1721.4239501953</ele>
        <time>2017-05-05T12:53:53Z</time>
      </trkpt>
      <trkpt lat="45.17406" lon="5.92469">
        <ele>1719.4239501953</ele>
        <time>2017-05-05T12:53:56Z</time>
      </trkpt>
      <trkpt lat="45.17408" lon="5.92463">
        <ele>1718.4239501953</ele>
        <time>2017-05-05T12:54:02Z</time>
      </trkpt>
      <trkpt lat="45.17413" lon="5.9246">
        <ele>1716.4239501953</ele>
        <time>2017-05-05T12:54:06Z</time>
      </trkpt>
      <trkpt lat="45.17419" lon="5.92462">
        <ele>1715.4239501953</ele>
        <time>2017-05-05T12:54:11Z</time>
      </trkpt>
      <trkpt lat="45.17425" lon="5.92459">
        <ele>1713.4239501953</ele>
        <time>2017-05-05T12:54:13Z</time>
      </trkpt>
      <trkpt lat="45.17431" lon="5.92456">
        <ele>1712.4239501953</ele>
        <time>2017-05-05T12:54:15Z</time>
      </trkpt>
      <trkpt lat="45.17437" lon="5.92458">
        <ele>1711.4239501953</ele>
        <time>2017-05-05T12:54:17Z</time>
      </trkpt>
      <trkpt lat="45.17442" lon="5.92459">
        <ele>1712.4239501953</ele>
        <time>2017-05-05T12:54:20Z</time>
      </trkpt>
      <trkpt lat="45.17448" lon="5.92459">
        <ele>1711.4239501953</ele>
        <time>2017-05-05T12:54:25Z</time>
      </trkpt>
      <trkpt lat="45.17454" lon="5.92457">
        <ele>1710.4239501953</ele>
        <time>2017-05-05T12:54:28Z</time>
      </trkpt>
      <trkpt lat="45.17459" lon="5.92454">
        <ele>1709.4239501953</ele>
        <time>2017-05-05T12:54:30Z</time>
      </trkpt>
      <trkpt lat="45.17464" lon="5.92448">
        <ele>1705.4239501953</ele>
        <time>2017-05-05T12:54:32Z</time>
      </trkpt>
      <trkpt lat="45.17469" lon="5.92443">
        <ele>1704.4239501953</ele>
        <time>2017-05-05T12:54:34Z</time>
      </trkpt>
      <trkpt lat="45.17473" lon="5.92439">
        <ele>1705.4239501953</ele>
        <time>2017-05-05T12:54:36Z</time>
      </trkpt>
      <trkpt lat="45.17477" lon="5.92434">
        <ele>1704.4239501953</ele>
        <time>2017-05-05T12:54:41Z</time>
      </trkpt>
      <trkpt lat="45.1748" lon="5.92429">
        <ele>1703.4239501953</ele>
        <time>2017-05-05T12:54:43Z</time>
      </trkpt>
      <trkpt lat="45.17483" lon="5.92419">
        <ele>1702.4239501953</ele>
        <time>2017-05-05T12:54:47Z</time>
      </trkpt>
      <trkpt lat="45.17482" lon="5.92409">
        <ele>1701.4239501953</ele>
        <time>2017-05-05T12:54:50Z</time>
      </trkpt>
      <trkpt lat="45.17493" lon="5.92403">
        <ele>1702.4239501953</ele>
        <time>2017-05-05T12:54:52Z</time>
      </trkpt>
      <trkpt lat="45.17497" lon="5.924">
        <ele>1701.4239501953</ele>
        <time>2017-05-05T12:54:54Z</time>
      </trkpt>
      <trkpt lat="45.17504" lon="5.92395">
        <ele>1700.4239501953</ele>
        <time>2017-05-05T12:54:58Z</time>
      </trkpt>
      <trkpt lat="45.17508" lon="5.92391">
        <ele>1701.4239501953</ele>
        <time>2017-05-05T12:58:45Z</time>
      </trkpt>
      <trkpt lat="45.17511" lon="5.92387">
        <ele>1698.4239501953</ele>
        <time>2017-05-05T13:00:22Z</time>
      </trkpt>
      <trkpt lat="45.17517" lon="5.92384">
        <ele>1700.4239501953</ele>
        <time>2017-05-05T13:00:26Z</time>
      </trkpt>
      <trkpt lat="45.17522" lon="5.92383">
        <ele>1700.4239501953</ele>
        <time>2017-05-05T13:00:30Z</time>
      </trkpt>
      <trkpt lat="45.17527" lon="5.92379">
        <ele>1697.4239501953</ele>
        <time>2017-05-05T13:00:35Z</time>
      </trkpt>
      <trkpt lat="45.17532" lon="5.92375">
        <ele>1696.4239501953</ele>
        <time>2017-05-05T13:00:39Z</time>
      </trkpt>
      <trkpt lat="45.17536" lon="5.9237">
        <ele>1696.4239501953</ele>
        <time>2017-05-05T13:00:46Z</time>
      </trkpt>
      <trkpt lat="45.1754" lon="5.92365">
        <ele>1697.4239501953</ele>
        <time>2017-05-05T13:00:50Z</time>
      </trkpt>
      <trkpt lat="45.17541" lon="5.92358">
        <ele>1695.4239501953</ele>
        <time>2017-05-05T13:00:55Z</time>
      </trkpt>
      <trkpt lat="45.17539" lon="5.92352">
        <ele>1695.4239501953</ele>
        <time>2017-05-05T13:00:59Z</time>
      </trkpt>
      <trkpt lat="45.17536" lon="5.92347">
        <ele>1692.4239501953</ele>
        <time>2017-05-05T13:01:03Z</time>
      </trkpt>
      <trkpt lat="45.17536" lon="5.9234">
        <ele>1691.4239501953</ele>
        <time>2017-05-05T13:01:08Z</time>
      </trkpt>
      <trkpt lat="45.1753" lon="5.92336">
        <ele>1690.4239501953</ele>
        <time>2017-05-05T13:01:17Z</time>
      </trkpt>
      <trkpt lat="45.17527" lon="5.92332">
        <ele>1690.4239501953</ele>
        <time>2017-05-05T13:01:20Z</time>
      </trkpt>
      <trkpt lat="45.17523" lon="5.92327">
        <ele>1690.4239501953</ele>
        <time>2017-05-05T13:01:24Z</time>
      </trkpt>
      <trkpt lat="45.17514" lon="5.9232">
        <ele>1685.4239501953</ele>
        <time>2017-05-05T13:01:30Z</time>
      </trkpt>
      <trkpt lat="45.17514" lon="5.92313">
        <ele>1685.4239501953</ele>
        <time>2017-05-05T13:01:35Z</time>
      </trkpt>
      <trkpt lat="45.17516" lon="5.92307">
        <ele>1690.4239501953</ele>
        <time>2017-05-05T13:01:37Z</time>
      </trkpt>
      <trkpt lat="45.17519" lon="5.92301">
        <ele>1692.4239501953</ele>
        <time>2017-05-05T13:01:39Z</time>
      </trkpt>
      <trkpt lat="45.17523" lon="5.92296">
        <ele>1694.4239501953</ele>
        <time>2017-05-05T13:01:42Z</time>
      </trkpt>
      <trkpt lat="45.17526" lon="5.92291">
        <ele>1694.4239501953</ele>
        <time>2017-05-05T13:01:46Z</time>
      </trkpt>
      <trkpt lat="45.17527" lon="5.92283">
        <ele>1693.4239501953</ele>
        <time>2017-05-05T13:01:51Z</time>
      </trkpt>
      <trkpt lat="45.17526" lon="5.92277">
        <ele>1692.4239501953</ele>
        <time>2017-05-05T13:01:59Z</time>
      </trkpt>
      <trkpt lat="45.17528" lon="5.92269">
        <ele>1689.4239501953</ele>
        <time>2017-05-05T13:02:04Z</time>
      </trkpt>
      <trkpt lat="45.1753" lon="5.92263">
        <ele>1689.4239501953</ele>
        <time>2017-05-05T13:02:11Z</time>
      </trkpt>
      <trkpt lat="45.17533" lon="5.92257">
        <ele>1687.4239501953</ele>
        <time>2017-05-05T13:02:15Z</time>
      </trkpt>
      <trkpt lat="45.17535" lon="5.9225">
        <ele>1687.4239501953</ele>
        <time>2017-05-05T13:02:19Z</time>
      </trkpt>
      <trkpt lat="45.17534" lon="5.92243">
        <ele>1688.4239501953</ele>
        <time>2017-05-05T13:02:23Z</time>
      </trkpt>
      <trkpt lat="45.17537" lon="5.92238">
        <ele>1690.4239501953</ele>
        <time>2017-05-05T13:02:27Z</time>
      </trkpt>
      <trkpt lat="45.17539" lon="5.92233">
        <ele>1689.4239501953</ele>
        <time>2017-05-05T13:02:33Z</time>
      </trkpt>
      <trkpt lat="45.17543" lon="5.92228">
        <ele>1689.4239501953</ele>
        <time>2017-05-05T13:02:38Z</time>
      </trkpt>
      <trkpt lat="45.17546" lon="5.92222">
        <ele>1691.4239501953</ele>
        <time>2017-05-05T13:02:42Z</time>
      </trkpt>
      <trkpt lat="45.1755" lon="5.92219">
        <ele>1691.4239501953</ele>
        <time>2017-05-05T13:02:44Z</time>
      </trkpt>
      <trkpt lat="45.17553" lon="5.92214">
        <ele>1691.4239501953</ele>
        <time>2017-05-05T13:02:49Z</time>
      </trkpt>
      <trkpt lat="45.17557" lon="5.9221">
        <ele>1690.4239501953</ele>
        <time>2017-05-05T13:02:54Z</time>
      </trkpt>
      <trkpt lat="45.17562" lon="5.92205">
        <ele>1686.4239501953</ele>
        <time>2017-05-05T13:02:59Z</time>
      </trkpt>
      <trkpt lat="45.17564" lon="5.92199">
        <ele>1687.4239501953</ele>
        <time>2017-05-05T13:03:01Z</time>
      </trkpt>
      <trkpt lat="45.17566" lon="5.92193">
        <ele>1687.4239501953</ele>
        <time>2017-05-05T13:03:07Z</time>
      </trkpt>
      <trkpt lat="45.17568" lon="5.92186">
        <ele>1685.4239501953</ele>
        <time>2017-05-05T13:03:11Z</time>
      </trkpt>
      <trkpt lat="45.17571" lon="5.9218">
        <ele>1687.4239501953</ele>
        <time>2017-05-05T13:03:17Z</time>
      </trkpt>
      <trkpt lat="45.17574" lon="5.92175">
        <ele>1687.4239501953</ele>
        <time>2017-05-05T13:03:22Z</time>
      </trkpt>
      <trkpt lat="45.17576" lon="5.92169">
        <ele>1689.4239501953</ele>
        <time>2017-05-05T13:03:30Z</time>
      </trkpt>
      <trkpt lat="45.17581" lon="5.92165">
        <ele>1689.4239501953</ele>
        <time>2017-05-05T13:03:37Z</time>
      </trkpt>
      <trkpt lat="45.17583" lon="5.92159">
        <ele>1693.4239501953</ele>
        <time>2017-05-05T13:03:47Z</time>
      </trkpt>
      <trkpt lat="45.17587" lon="5.92151">
        <ele>1692.4239501953</ele>
        <time>2017-05-05T13:03:51Z</time>
      </trkpt>
      <trkpt lat="45.17593" lon="5.92148">
        <ele>1691.4239501953</ele>
        <time>2017-05-05T13:03:54Z</time>
      </trkpt>
      <trkpt lat="45.17597" lon="5.92142">
        <ele>1691.4239501953</ele>
        <time>2017-05-05T13:03:58Z</time>
      </trkpt>
      <trkpt lat="45.17603" lon="5.92138">
        <ele>1694.4239501953</ele>
        <time>2017-05-05T13:04:04Z</time>
      </trkpt>
      <trkpt lat="45.17607" lon="5.92133">
        <ele>1696.4239501953</ele>
        <time>2017-05-05T13:04:09Z</time>
      </trkpt>
      <trkpt lat="45.1761" lon="5.92128">
        <ele>1694.4239501953</ele>
        <time>2017-05-05T13:04:14Z</time>
      </trkpt>
      <trkpt lat="45.17613" lon="5.92122">
        <ele>1694.4239501953</ele>
        <time>2017-05-05T13:04:30Z</time>
      </trkpt>
      <trkpt lat="45.17615" lon="5.92114">
        <ele>1695.4239501953</ele>
        <time>2017-05-05T13:04:34Z</time>
      </trkpt>
      <trkpt lat="45.17618" lon="5.92109">
        <ele>1694.4239501953</ele>
        <time>2017-05-05T13:04:37Z</time>
      </trkpt>
      <trkpt lat="45.1762" lon="5.92104">
        <ele>1695.4239501953</ele>
        <time>2017-05-05T13:04:40Z</time>
      </trkpt>
      <trkpt lat="45.17624" lon="5.92099">
        <ele>1697.4239501953</ele>
        <time>2017-05-05T13:04:48Z</time>
      </trkpt>
      <trkpt lat="45.17627" lon="5.92094">
        <ele>1696.4239501953</ele>
        <time>2017-05-05T13:04:54Z</time>
      </trkpt>
      <trkpt lat="45.17631" lon="5.92089">
        <ele>1693.4239501953</ele>
        <time>2017-05-05T13:04:56Z</time>
      </trkpt>
      <trkpt lat="45.17637" lon="5.92087">
        <ele>1695.4239501953</ele>
        <time>2017-05-05T13:04:59Z</time>
      </trkpt>
      <trkpt lat="45.17644" lon="5.92081">
        <ele>1694.4239501953</ele>
        <time>2017-05-05T13:05:02Z</time>
      </trkpt>
      <trkpt lat="45.17648" lon="5.92079">
        <ele>1695.4239501953</ele>
        <time>2017-05-05T13:05:05Z</time>
      </trkpt>
      <trkpt lat="45.17652" lon="5.92075">
        <ele>1694.4239501953</ele>
        <time>2017-05-05T13:05:08Z</time>
      </trkpt>
      <trkpt lat="45.17656" lon="5.92072">
        <ele>1695.4239501953</ele>
        <time>2017-05-05T13:05:12Z</time>
      </trkpt>
      <trkpt lat="45.17657" lon="5.92066">
        <ele>1691.4239501953</ele>
        <time>2017-05-05T13:05:23Z</time>
      </trkpt>
      <trkpt lat="45.1766" lon="5.9206">
        <ele>1689.4239501953</ele>
        <time>2017-05-05T13:05:30Z</time>
      </trkpt>
      <trkpt lat="45.17664" lon="5.92054">
        <ele>1688.4239501953</ele>
        <time>2017-05-05T13:05:34Z</time>
      </trkpt>
      <trkpt lat="45.17666" lon="5.92048">
        <ele>1687.4239501953</ele>
        <time>2017-05-05T13:05:37Z</time>
      </trkpt>
      <trkpt lat="45.17666" lon="5.92041">
        <ele>1687.4239501953</ele>
        <time>2017-05-05T13:05:42Z</time>
      </trkpt>
      <trkpt lat="45.17666" lon="5.92034">
        <ele>1686.4239501953</ele>
        <time>2017-05-05T13:05:49Z</time>
      </trkpt>
      <trkpt lat="45.1767" lon="5.92029">
        <ele>1686.4239501953</ele>
        <time>2017-05-05T13:05:52Z</time>
      </trkpt>
      <trkpt lat="45.17668" lon="5.92023">
        <ele>1685.4239501953</ele>
        <time>2017-05-05T13:05:56Z</time>
      </trkpt>
      <trkpt lat="45.17672" lon="5.92019">
        <ele>1684.4239501953</ele>
        <time>2017-05-05T13:05:59Z</time>
      </trkpt>
      <trkpt lat="45.17676" lon="5.92016">
        <ele>1684.4239501953</ele>
        <time>2017-05-05T13:06:01Z</time>
      </trkpt>
      <trkpt lat="45.1768" lon="5.92011">
        <ele>1686.4239501953</ele>
        <time>2017-05-05T13:06:03Z</time>
      </trkpt>
      <trkpt lat="45.17681" lon="5.92004">
        <ele>1687.4239501953</ele>
        <time>2017-05-05T13:06:09Z</time>
      </trkpt>
      <trkpt lat="45.17686" lon="5.91998">
        <ele>1685.4239501953</ele>
        <time>2017-05-05T13:06:21Z</time>
      </trkpt>
      <trkpt lat="45.1769" lon="5.91995">
        <ele>1686.4239501953</ele>
        <time>2017-05-05T13:06:23Z</time>
      </trkpt>
      <trkpt lat="45.17694" lon="5.91991">
        <ele>1685.4239501953</ele>
        <time>2017-05-05T13:06:27Z</time>
      </trkpt>
      <trkpt lat="45.17698" lon="5.91987">
        <ele>1686.4239501953</ele>
        <time>2017-05-05T13:06:31Z</time>
      </trkpt>
      <trkpt lat="45.17704" lon="5.91984">
        <ele>1686.4239501953</ele>
        <time>2017-05-05T13:06:37Z</time>
      </trkpt>
      <trkpt lat="45.17706" lon="5.91978">
        <ele>1686.4239501953</ele>
        <time>2017-05-05T13:06:42Z</time>
      </trkpt>
      <trkpt lat="45.17707" lon="5.91971">
        <ele>1684.4239501953</ele>
        <time>2017-05-05T13:06:46Z</time>
      </trkpt>
      <trkpt lat="45.17707" lon="5.91964">
        <ele>1683.4239501953</ele>
        <time>2017-05-05T13:06:51Z</time>
      </trkpt>
      <trkpt lat="45.17708" lon="5.91957">
        <ele>1681.4239501953</ele>
        <time>2017-05-05T13:06:54Z</time>
      </trkpt>
      <trkpt lat="45.1771" lon="5.9195">
        <ele>1681.4239501953</ele>
        <time>2017-05-05T13:06:57Z</time>
      </trkpt>
      <trkpt lat="45.17712" lon="5.91942">
        <ele>1679.4239501953</ele>
        <time>2017-05-05T13:07:01Z</time>
      </trkpt>
      <trkpt lat="45.17712" lon="5.91936">
        <ele>1677.4239501953</ele>
        <time>2017-05-05T13:07:05Z</time>
      </trkpt>
      <trkpt lat="45.17712" lon="5.91928">
        <ele>1675.4239501953</ele>
        <time>2017-05-05T13:07:10Z</time>
      </trkpt>
      <trkpt lat="45.1771" lon="5.91922">
        <ele>1673.4239501953</ele>
        <time>2017-05-05T13:07:15Z</time>
      </trkpt>
      <trkpt lat="45.17713" lon="5.91915">
        <ele>1674.4239501953</ele>
        <time>2017-05-05T13:07:21Z</time>
      </trkpt>
      <trkpt lat="45.17715" lon="5.91909">
        <ele>1676.4239501953</ele>
        <time>2017-05-05T13:07:29Z</time>
      </trkpt>
      <trkpt lat="45.17718" lon="5.91904">
        <ele>1673.4239501953</ele>
        <time>2017-05-05T13:07:34Z</time>
      </trkpt>
      <trkpt lat="45.17722" lon="5.919">
        <ele>1673.4239501953</ele>
        <time>2017-05-05T13:07:38Z</time>
      </trkpt>
      <trkpt lat="45.17725" lon="5.91895">
        <ele>1671.4239501953</ele>
        <time>2017-05-05T13:07:42Z</time>
      </trkpt>
      <trkpt lat="45.17729" lon="5.9189">
        <ele>1669.4239501953</ele>
        <time>2017-05-05T13:07:47Z</time>
      </trkpt>
      <trkpt lat="45.17734" lon="5.91886">
        <ele>1667.4239501953</ele>
        <time>2017-05-05T13:07:51Z</time>
      </trkpt>
      <trkpt lat="45.17735" lon="5.9188">
        <ele>1666.4239501953</ele>
        <time>2017-05-05T13:07:54Z</time>
      </trkpt>
      <trkpt lat="45.1774" lon="5.91877">
        <ele>1664.4239501953</ele>
        <time>2017-05-05T13:07:59Z</time>
      </trkpt>
      <trkpt lat="45.17742" lon="5.9187">
        <ele>1663.4239501953</ele>
        <time>2017-05-05T13:08:06Z</time>
      </trkpt>
      <trkpt lat="45.17746" lon="5.91866">
        <ele>1660.4239501953</ele>
        <time>2017-05-05T13:08:10Z</time>
      </trkpt>
      <trkpt lat="45.17751" lon="5.91865">
        <ele>1659.4239501953</ele>
        <time>2017-05-05T13:08:13Z</time>
      </trkpt>
      <trkpt lat="45.17756" lon="5.91862">
        <ele>1657.4239501953</ele>
        <time>2017-05-05T13:08:16Z</time>
      </trkpt>
      <trkpt lat="45.1776" lon="5.91858">
        <ele>1656.4239501953</ele>
        <time>2017-05-05T13:08:23Z</time>
      </trkpt>
      <trkpt lat="45.17765" lon="5.91853">
        <ele>1648.4239501953</ele>
        <time>2017-05-05T13:08:39Z</time>
      </trkpt>
      <trkpt lat="45.17765" lon="5.91845">
        <ele>1649.4239501953</ele>
        <time>2017-05-05T13:08:42Z</time>
      </trkpt>
      <trkpt lat="45.1776" lon="5.91841">
        <ele>1649.4239501953</ele>
        <time>2017-05-05T13:08:47Z</time>
      </trkpt>
      <trkpt lat="45.17757" lon="5.91835">
        <ele>1647.4239501953</ele>
        <time>2017-05-05T13:08:54Z</time>
      </trkpt>
      <trkpt lat="45.17753" lon="5.91832">
        <ele>1646.4239501953</ele>
        <time>2017-05-05T13:08:58Z</time>
      </trkpt>
      <trkpt lat="45.17757" lon="5.91827">
        <ele>1641.4239501953</ele>
        <time>2017-05-05T13:09:06Z</time>
      </trkpt>
      <trkpt lat="45.17762" lon="5.91825">
        <ele>1641.4239501953</ele>
        <time>2017-05-05T13:09:10Z</time>
      </trkpt>
      <trkpt lat="45.17767" lon="5.91825">
        <ele>1643.4239501953</ele>
        <time>2017-05-05T13:09:14Z</time>
      </trkpt>
      <trkpt lat="45.17771" lon="5.91824">
        <ele>1642.4239501953</ele>
        <time>2017-05-05T13:09:18Z</time>
      </trkpt>
      <trkpt lat="45.17776" lon="5.91823">
        <ele>1640.4239501953</ele>
        <time>2017-05-05T13:09:23Z</time>
      </trkpt>
      <trkpt lat="45.17781" lon="5.91823">
        <ele>1639.4239501953</ele>
        <time>2017-05-05T13:09:27Z</time>
      </trkpt>
      <trkpt lat="45.17787" lon="5.91828">
        <ele>1636.4239501953</ele>
        <time>2017-05-05T13:09:32Z</time>
      </trkpt>
      <trkpt lat="45.17791" lon="5.9183">
        <ele>1637.4239501953</ele>
        <time>2017-05-05T13:09:37Z</time>
      </trkpt>
      <trkpt lat="45.1779" lon="5.91822">
        <ele>1637.4239501953</ele>
        <time>2017-05-05T13:09:43Z</time>
      </trkpt>
      <trkpt lat="45.17788" lon="5.91816">
        <ele>1638.4239501953</ele>
        <time>2017-05-05T13:09:46Z</time>
      </trkpt>
      <trkpt lat="45.17785" lon="5.91811">
        <ele>1633.4239501953</ele>
        <time>2017-05-05T13:09:52Z</time>
      </trkpt>
      <trkpt lat="45.1778" lon="5.91809">
        <ele>1632.4239501953</ele>
        <time>2017-05-05T13:09:57Z</time>
      </trkpt>
      <trkpt lat="45.17775" lon="5.91806">
        <ele>1630.4239501953</ele>
        <time>2017-05-05T13:10:06Z</time>
      </trkpt>
      <trkpt lat="45.17771" lon="5.91802">
        <ele>1628.4239501953</ele>
        <time>2017-05-05T13:10:10Z</time>
      </trkpt>
      <trkpt lat="45.17776" lon="5.91801">
        <ele>1622.4239501953</ele>
        <time>2017-05-05T13:10:21Z</time>
      </trkpt>
      <trkpt lat="45.17781" lon="5.91798">
        <ele>1622.4239501953</ele>
        <time>2017-05-05T13:10:27Z</time>
      </trkpt>
      <trkpt lat="45.17787" lon="5.91796">
        <ele>1624.4239501953</ele>
        <time>2017-05-05T13:10:32Z</time>
      </trkpt>
      <trkpt lat="45.17793" lon="5.91797">
        <ele>1623.4239501953</ele>
        <time>2017-05-05T13:10:37Z</time>
      </trkpt>
      <trkpt lat="45.17797" lon="5.91797">
        <ele>1621.4239501953</ele>
        <time>2017-05-05T13:10:41Z</time>
      </trkpt>
      <trkpt lat="45.17802" lon="5.91796">
        <ele>1620.4239501953</ele>
        <time>2017-05-05T13:10:45Z</time>
      </trkpt>
      <trkpt lat="45.17806" lon="5.91794">
        <ele>1620.4239501953</ele>
        <time>2017-05-05T13:10:48Z</time>
      </trkpt>
      <trkpt lat="45.17809" lon="5.91787">
        <ele>1619.4239501953</ele>
        <time>2017-05-05T13:10:53Z</time>
      </trkpt>
      <trkpt lat="45.17804" lon="5.91782">
        <ele>1619.4239501953</ele>
        <time>2017-05-05T13:10:57Z</time>
      </trkpt>
      <trkpt lat="45.178" lon="5.9178">
        <ele>1616.4239501953</ele>
        <time>2017-05-05T13:11:02Z</time>
      </trkpt>
      <trkpt lat="45.17795" lon="5.91777">
        <ele>1617.4239501953</ele>
        <time>2017-05-05T13:11:11Z</time>
      </trkpt>
      <trkpt lat="45.17791" lon="5.9177">
        <ele>1617.4239501953</ele>
        <time>2017-05-05T13:11:17Z</time>
      </trkpt>
      <trkpt lat="45.17787" lon="5.91768">
        <ele>1616.4239501953</ele>
        <time>2017-05-05T13:11:22Z</time>
      </trkpt>
      <trkpt lat="45.17781" lon="5.9177">
        <ele>1613.4239501953</ele>
        <time>2017-05-05T13:11:35Z</time>
      </trkpt>
      <trkpt lat="45.17776" lon="5.91768">
        <ele>1611.4239501953</ele>
        <time>2017-05-05T13:11:38Z</time>
      </trkpt>
      <trkpt lat="45.1777" lon="5.91761">
        <ele>1611.4239501953</ele>
        <time>2017-05-05T13:11:44Z</time>
      </trkpt>
      <trkpt lat="45.17766" lon="5.91758">
        <ele>1609.4239501953</ele>
        <time>2017-05-05T13:11:50Z</time>
      </trkpt>
      <trkpt lat="45.17762" lon="5.91754">
        <ele>1607.4239501953</ele>
        <time>2017-05-05T13:11:55Z</time>
      </trkpt>
      <trkpt lat="45.17758" lon="5.91751">
        <ele>1606.4239501953</ele>
        <time>2017-05-05T13:11:59Z</time>
      </trkpt>
      <trkpt lat="45.17761" lon="5.91745">
        <ele>1602.4239501953</ele>
        <time>2017-05-05T13:12:10Z</time>
      </trkpt>
      <trkpt lat="45.17766" lon="5.91742">
        <ele>1601.4239501953</ele>
        <time>2017-05-05T13:12:16Z</time>
      </trkpt>
      <trkpt lat="45.1777" lon="5.91739">
        <ele>1597.4239501953</ele>
        <time>2017-05-05T13:12:23Z</time>
      </trkpt>
      <trkpt lat="45.17775" lon="5.91735">
        <ele>1595.4239501953</ele>
        <time>2017-05-05T13:12:29Z</time>
      </trkpt>
      <trkpt lat="45.17779" lon="5.91732">
        <ele>1594.4239501953</ele>
        <time>2017-05-05T13:12:32Z</time>
      </trkpt>
      <trkpt lat="45.17782" lon="5.91729">
        <ele>1593.4239501953</ele>
        <time>2017-05-05T13:12:37Z</time>
      </trkpt>
      <trkpt lat="45.17787" lon="5.91728">
        <ele>1593.4239501953</ele>
        <time>2017-05-05T13:12:41Z</time>
      </trkpt>
      <trkpt lat="45.17792" lon="5.91727">
        <ele>1589.4239501953</ele>
        <time>2017-05-05T13:12:46Z</time>
      </trkpt>
      <trkpt lat="45.17796" lon="5.91726">
        <ele>1588.4239501953</ele>
        <time>2017-05-05T13:12:49Z</time>
      </trkpt>
      <trkpt lat="45.17802" lon="5.91724">
        <ele>1586.4239501953</ele>
        <time>2017-05-05T13:12:54Z</time>
      </trkpt>
      <trkpt lat="45.17806" lon="5.9172">
        <ele>1585.4239501953</ele>
        <time>2017-05-05T13:12:58Z</time>
      </trkpt>
      <trkpt lat="45.17811" lon="5.91717">
        <ele>1586.4239501953</ele>
        <time>2017-05-05T13:13:02Z</time>
      </trkpt>
      <trkpt lat="45.17816" lon="5.91716">
        <ele>1588.4239501953</ele>
        <time>2017-05-05T13:13:08Z</time>
      </trkpt>
      <trkpt lat="45.17819" lon="5.91712">
        <ele>1585.4239501953</ele>
        <time>2017-05-05T13:13:12Z</time>
      </trkpt>
      <trkpt lat="45.17824" lon="5.9171">
        <ele>1581.4239501953</ele>
        <time>2017-05-05T13:13:16Z</time>
      </trkpt>
      <trkpt lat="45.1783" lon="5.91707">
        <ele>1581.4239501953</ele>
        <time>2017-05-05T13:13:21Z</time>
      </trkpt>
      <trkpt lat="45.17835" lon="5.91709">
        <ele>1578.4239501953</ele>
        <time>2017-05-05T13:13:25Z</time>
      </trkpt>
      <trkpt lat="45.1784" lon="5.91706">
        <ele>1578.4239501953</ele>
        <time>2017-05-05T13:13:31Z</time>
      </trkpt>
      <trkpt lat="45.17845" lon="5.91704">
        <ele>1577.4239501953</ele>
        <time>2017-05-05T13:13:39Z</time>
      </trkpt>
      <trkpt lat="45.17839" lon="5.91701">
        <ele>1575.4239501953</ele>
        <time>2017-05-05T13:13:44Z</time>
      </trkpt>
      <trkpt lat="45.17836" lon="5.91696">
        <ele>1577.4239501953</ele>
        <time>2017-05-05T13:13:48Z</time>
      </trkpt>
      <trkpt lat="45.17831" lon="5.91692">
        <ele>1575.4239501953</ele>
        <time>2017-05-05T13:13:58Z</time>
      </trkpt>
      <trkpt lat="45.17827" lon="5.91687">
        <ele>1574.4239501953</ele>
        <time>2017-05-05T13:14:01Z</time>
      </trkpt>
      <trkpt lat="45.17822" lon="5.91685">
        <ele>1572.4239501953</ele>
        <time>2017-05-05T13:14:08Z</time>
      </trkpt>
      <trkpt lat="45.17818" lon="5.91682">
        <ele>1569.4239501953</ele>
        <time>2017-05-05T13:14:12Z</time>
      </trkpt>
      <trkpt lat="45.17813" lon="5.91681">
        <ele>1569.4239501953</ele>
        <time>2017-05-05T13:14:15Z</time>
      </trkpt>
      <trkpt lat="45.17808" lon="5.91678">
        <ele>1568.4239501953</ele>
        <time>2017-05-05T13:14:20Z</time>
      </trkpt>
      <trkpt lat="45.17804" lon="5.91674">
        <ele>1568.4239501953</ele>
        <time>2017-05-05T13:14:23Z</time>
      </trkpt>
      <trkpt lat="45.178" lon="5.9167">
        <ele>1567.4239501953</ele>
        <time>2017-05-05T13:14:27Z</time>
      </trkpt>
      <trkpt lat="45.17804" lon="5.91665">
        <ele>1566.4239501953</ele>
        <time>2017-05-05T13:14:31Z</time>
      </trkpt>
      <trkpt lat="45.17809" lon="5.91663">
        <ele>1567.4239501953</ele>
        <time>2017-05-05T13:14:36Z</time>
      </trkpt>
      <trkpt lat="45.17814" lon="5.91664">
        <ele>1566.4239501953</ele>
        <time>2017-05-05T13:14:39Z</time>
      </trkpt>
      <trkpt lat="45.17819" lon="5.91659">
        <ele>1566.4239501953</ele>
        <time>2017-05-05T13:14:45Z</time>
      </trkpt>
      <trkpt lat="45.17824" lon="5.91658">
        <ele>1562.4239501953</ele>
        <time>2017-05-05T13:14:49Z</time>
      </trkpt>
      <trkpt lat="45.17829" lon="5.91658">
        <ele>1558.4239501953</ele>
        <time>2017-05-05T13:14:54Z</time>
      </trkpt>
      <trkpt lat="45.17834" lon="5.91654">
        <ele>1556.4239501953</ele>
        <time>2017-05-05T13:14:59Z</time>
      </trkpt>
      <trkpt lat="45.17839" lon="5.9165">
        <ele>1552.4239501953</ele>
        <time>2017-05-05T13:15:05Z</time>
      </trkpt>
      <trkpt lat="45.17843" lon="5.91646">
        <ele>1550.4239501953</ele>
        <time>2017-05-05T13:15:10Z</time>
      </trkpt>
      <trkpt lat="45.17849" lon="5.91642">
        <ele>1550.4239501953</ele>
        <time>2017-05-05T13:15:13Z</time>
      </trkpt>
      <trkpt lat="45.17853" lon="5.91639">
        <ele>1551.4239501953</ele>
        <time>2017-05-05T13:15:16Z</time>
      </trkpt>
      <trkpt lat="45.17857" lon="5.91635">
        <ele>1551.4239501953</ele>
        <time>2017-05-05T13:15:19Z</time>
      </trkpt>
      <trkpt lat="45.17861" lon="5.91628">
        <ele>1553.4239501953</ele>
        <time>2017-05-05T13:15:22Z</time>
      </trkpt>
      <trkpt lat="45.17865" lon="5.91626">
        <ele>1553.4239501953</ele>
        <time>2017-05-05T13:15:25Z</time>
      </trkpt>
      <trkpt lat="45.17871" lon="5.91622">
        <ele>1552.4239501953</ele>
        <time>2017-05-05T13:15:30Z</time>
      </trkpt>
      <trkpt lat="45.17875" lon="5.91619">
        <ele>1550.4239501953</ele>
        <time>2017-05-05T13:15:37Z</time>
      </trkpt>
      <trkpt lat="45.17879" lon="5.91616">
        <ele>1549.4239501953</ele>
        <time>2017-05-05T13:15:40Z</time>
      </trkpt>
      <trkpt lat="45.17884" lon="5.91614">
        <ele>1549.4239501953</ele>
        <time>2017-05-05T13:15:43Z</time>
      </trkpt>
      <trkpt lat="45.17887" lon="5.9161">
        <ele>1550.4239501953</ele>
        <time>2017-05-05T13:15:48Z</time>
      </trkpt>
      <trkpt lat="45.17892" lon="5.91608">
        <ele>1549.4239501953</ele>
        <time>2017-05-05T13:15:50Z</time>
      </trkpt>
      <trkpt lat="45.17897" lon="5.91608">
        <ele>1548.4239501953</ele>
        <time>2017-05-05T13:15:53Z</time>
      </trkpt>
      <trkpt lat="45.17903" lon="5.91608">
        <ele>1545.4239501953</ele>
        <time>2017-05-05T13:15:57Z</time>
      </trkpt>
      <trkpt lat="45.17907" lon="5.91603">
        <ele>1543.4239501953</ele>
        <time>2017-05-05T13:16:03Z</time>
      </trkpt>
      <trkpt lat="45.1791" lon="5.91599">
        <ele>1542.4239501953</ele>
        <time>2017-05-05T13:16:07Z</time>
      </trkpt>
      <trkpt lat="45.17914" lon="5.916">
        <ele>1538.4239501953</ele>
        <time>2017-05-05T13:16:11Z</time>
      </trkpt>
      <trkpt lat="45.1792" lon="5.91603">
        <ele>1535.4239501953</ele>
        <time>2017-05-05T13:16:16Z</time>
      </trkpt>
      <trkpt lat="45.17925" lon="5.91601">
        <ele>1534.4239501953</ele>
        <time>2017-05-05T13:16:19Z</time>
      </trkpt>
      <trkpt lat="45.17929" lon="5.91605">
        <ele>1531.4239501953</ele>
        <time>2017-05-05T13:16:23Z</time>
      </trkpt>
      <trkpt lat="45.17934" lon="5.91603">
        <ele>1530.4239501953</ele>
        <time>2017-05-05T13:16:28Z</time>
      </trkpt>
      <trkpt lat="45.17938" lon="5.91603">
        <ele>1529.4239501953</ele>
        <time>2017-05-05T13:16:31Z</time>
      </trkpt>
      <trkpt lat="45.17943" lon="5.91601">
        <ele>1529.4239501953</ele>
        <time>2017-05-05T13:16:34Z</time>
      </trkpt>
      <trkpt lat="45.17949" lon="5.91598">
        <ele>1531.4239501953</ele>
        <time>2017-05-05T13:16:37Z</time>
      </trkpt>
      <trkpt lat="45.17953" lon="5.91594">
        <ele>1531.4239501953</ele>
        <time>2017-05-05T13:16:41Z</time>
      </trkpt>
      <trkpt lat="45.17957" lon="5.91598">
        <ele>1527.4239501953</ele>
        <time>2017-05-05T13:16:46Z</time>
      </trkpt>
      <trkpt lat="45.17961" lon="5.91592">
        <ele>1522.4239501953</ele>
        <time>2017-05-05T13:16:56Z</time>
      </trkpt>
      <trkpt lat="45.17966" lon="5.91592">
        <ele>1522.4239501953</ele>
        <time>2017-05-05T13:16:59Z</time>
      </trkpt>
      <trkpt lat="45.17971" lon="5.91589">
        <ele>1523.4239501953</ele>
        <time>2017-05-05T13:17:03Z</time>
      </trkpt>
      <trkpt lat="45.17975" lon="5.91586">
        <ele>1524.4239501953</ele>
        <time>2017-05-05T13:17:08Z</time>
      </trkpt>
      <trkpt lat="45.17982" lon="5.91586">
        <ele>1520.4239501953</ele>
        <time>2017-05-05T13:17:12Z</time>
      </trkpt>
      <trkpt lat="45.17987" lon="5.91584">
        <ele>1521.4239501953</ele>
        <time>2017-05-05T13:17:16Z</time>
      </trkpt>
      <trkpt lat="45.17992" lon="5.91583">
        <ele>1519.4239501953</ele>
        <time>2017-05-05T13:17:20Z</time>
      </trkpt>
      <trkpt lat="45.17998" lon="5.91582">
        <ele>1517.4239501953</ele>
        <time>2017-05-05T13:17:25Z</time>
      </trkpt>
      <trkpt lat="45.18003" lon="5.91582">
        <ele>1515.4239501953</ele>
        <time>2017-05-05T13:17:28Z</time>
      </trkpt>
      <trkpt lat="45.18009" lon="5.91582">
        <ele>1515.4239501953</ele>
        <time>2017-05-05T13:17:34Z</time>
      </trkpt>
      <trkpt lat="45.18014" lon="5.91585">
        <ele>1515.4239501953</ele>
        <time>2017-05-05T13:17:37Z</time>
      </trkpt>
      <trkpt lat="45.18018" lon="5.91588">
        <ele>1514.4239501953</ele>
        <time>2017-05-05T13:17:40Z</time>
      </trkpt>
      <trkpt lat="45.18022" lon="5.91588">
        <ele>1512.4239501953</ele>
        <time>2017-05-05T13:17:44Z</time>
      </trkpt>
      <trkpt lat="45.18027" lon="5.91587">
        <ele>1511.4239501953</ele>
        <time>2017-05-05T13:17:50Z</time>
      </trkpt>
      <trkpt lat="45.18032" lon="5.91585">
        <ele>1508.4239501953</ele>
        <time>2017-05-05T13:17:55Z</time>
      </trkpt>
      <trkpt lat="45.18037" lon="5.91584">
        <ele>1508.4239501953</ele>
        <time>2017-05-05T13:17:59Z</time>
      </trkpt>
      <trkpt lat="45.18042" lon="5.91585">
        <ele>1508.4239501953</ele>
        <time>2017-05-05T13:18:03Z</time>
      </trkpt>
      <trkpt lat="45.18046" lon="5.91585">
        <ele>1507.4239501953</ele>
        <time>2017-05-05T13:18:06Z</time>
      </trkpt>
      <trkpt lat="45.1805" lon="5.91582">
        <ele>1508.4239501953</ele>
        <time>2017-05-05T13:18:09Z</time>
      </trkpt>
      <trkpt lat="45.18055" lon="5.91581">
        <ele>1508.4239501953</ele>
        <time>2017-05-05T13:18:13Z</time>
      </trkpt>
      <trkpt lat="45.18061" lon="5.9158">
        <ele>1510.4239501953</ele>
        <time>2017-05-05T13:18:16Z</time>
      </trkpt>
      <trkpt lat="45.18065" lon="5.9158">
        <ele>1508.4239501953</ele>
        <time>2017-05-05T13:18:23Z</time>
      </trkpt>
      <trkpt lat="45.1807" lon="5.91579">
        <ele>1508.4239501953</ele>
        <time>2017-05-05T13:18:26Z</time>
      </trkpt>
      <trkpt lat="45.18076" lon="5.91577">
        <ele>1508.4239501953</ele>
        <time>2017-05-05T13:18:30Z</time>
      </trkpt>
      <trkpt lat="45.18082" lon="5.91575">
        <ele>1509.4239501953</ele>
        <time>2017-05-05T13:18:32Z</time>
      </trkpt>
      <trkpt lat="45.18086" lon="5.91577">
        <ele>1509.4239501953</ele>
        <time>2017-05-05T13:18:40Z</time>
      </trkpt>
      <trkpt lat="45.18095" lon="5.91574">
        <ele>1509.4239501953</ele>
        <time>2017-05-05T13:18:51Z</time>
      </trkpt>
      <trkpt lat="45.181" lon="5.91571">
        <ele>1506.4239501953</ele>
        <time>2017-05-05T13:18:54Z</time>
      </trkpt>
      <trkpt lat="45.18105" lon="5.9157">
        <ele>1505.4239501953</ele>
        <time>2017-05-05T13:18:59Z</time>
      </trkpt>
      <trkpt lat="45.18109" lon="5.91568">
        <ele>1504.4239501953</ele>
        <time>2017-05-05T13:19:02Z</time>
      </trkpt>
      <trkpt lat="45.18114" lon="5.91564">
        <ele>1502.4239501953</ele>
        <time>2017-05-05T13:19:06Z</time>
      </trkpt>
      <trkpt lat="45.18118" lon="5.9156">
        <ele>1502.4239501953</ele>
        <time>2017-05-05T13:19:09Z</time>
      </trkpt>
      <trkpt lat="45.18121" lon="5.91555">
        <ele>1501.4239501953</ele>
        <time>2017-05-05T13:19:13Z</time>
      </trkpt>
      <trkpt lat="45.18124" lon="5.91548">
        <ele>1499.4239501953</ele>
        <time>2017-05-05T13:19:17Z</time>
      </trkpt>
      <trkpt lat="45.18124" lon="5.91541">
        <ele>1499.4239501953</ele>
        <time>2017-05-05T13:19:19Z</time>
      </trkpt>
      <trkpt lat="45.18128" lon="5.91534">
        <ele>1499.4239501953</ele>
        <time>2017-05-05T13:19:23Z</time>
      </trkpt>
      <trkpt lat="45.18132" lon="5.9153">
        <ele>1502.4239501953</ele>
        <time>2017-05-05T13:19:26Z</time>
      </trkpt>
      <trkpt lat="45.1813" lon="5.91524">
        <ele>1504.4239501953</ele>
        <time>2017-05-05T13:19:32Z</time>
      </trkpt>
      <trkpt lat="45.18127" lon="5.91518">
        <ele>1503.4239501953</ele>
        <time>2017-05-05T13:19:36Z</time>
      </trkpt>
      <trkpt lat="45.18125" lon="5.91512">
        <ele>1501.4239501953</ele>
        <time>2017-05-05T13:19:41Z</time>
      </trkpt>
      <trkpt lat="45.18122" lon="5.91506">
        <ele>1497.4239501953</ele>
        <time>2017-05-05T13:19:46Z</time>
      </trkpt>
      <trkpt lat="45.18121" lon="5.91498">
        <ele>1496.4239501953</ele>
        <time>2017-05-05T13:19:50Z</time>
      </trkpt>
      <trkpt lat="45.1812" lon="5.91491">
        <ele>1495.4239501953</ele>
        <time>2017-05-05T13:19:54Z</time>
      </trkpt>
      <trkpt lat="45.18122" lon="5.91485">
        <ele>1495.4239501953</ele>
        <time>2017-05-05T13:19:58Z</time>
      </trkpt>
      <trkpt lat="45.18124" lon="5.91479">
        <ele>1494.4239501953</ele>
        <time>2017-05-05T13:20:02Z</time>
      </trkpt>
      <trkpt lat="45.18126" lon="5.91473">
        <ele>1495.4239501953</ele>
        <time>2017-05-05T13:20:05Z</time>
      </trkpt>
      <trkpt lat="45.1813" lon="5.91468">
        <ele>1494.4239501953</ele>
        <time>2017-05-05T13:20:10Z</time>
      </trkpt>
      <trkpt lat="45.18134" lon="5.91464">
        <ele>1495.4239501953</ele>
        <time>2017-05-05T13:20:13Z</time>
      </trkpt>
      <trkpt lat="45.18138" lon="5.91461">
        <ele>1493.4239501953</ele>
        <time>2017-05-05T13:20:18Z</time>
      </trkpt>
      <trkpt lat="45.18144" lon="5.91461">
        <ele>1492.4239501953</ele>
        <time>2017-05-05T13:20:22Z</time>
      </trkpt>
      <trkpt lat="45.18151" lon="5.91462">
        <ele>1491.4239501953</ele>
        <time>2017-05-05T13:20:31Z</time>
      </trkpt>
      <trkpt lat="45.18156" lon="5.91459">
        <ele>1492.4239501953</ele>
        <time>2017-05-05T13:20:36Z</time>
      </trkpt>
      <trkpt lat="45.1816" lon="5.91459">
        <ele>1492.4239501953</ele>
        <time>2017-05-05T13:20:40Z</time>
      </trkpt>
      <trkpt lat="45.18165" lon="5.91462">
        <ele>1490.4239501953</ele>
        <time>2017-05-05T13:20:44Z</time>
      </trkpt>
      <trkpt lat="45.1817" lon="5.91461">
        <ele>1491.4239501953</ele>
        <time>2017-05-05T13:20:48Z</time>
      </trkpt>
      <trkpt lat="45.18178" lon="5.91459">
        <ele>1489.4239501953</ele>
        <time>2017-05-05T13:21:00Z</time>
      </trkpt>
      <trkpt lat="45.18182" lon="5.91457">
        <ele>1485.4239501953</ele>
        <time>2017-05-05T13:21:03Z</time>
      </trkpt>
      <trkpt lat="45.18188" lon="5.91454">
        <ele>1483.4239501953</ele>
        <time>2017-05-05T13:21:07Z</time>
      </trkpt>
      <trkpt lat="45.18192" lon="5.9145">
        <ele>1482.4239501953</ele>
        <time>2017-05-05T13:21:10Z</time>
      </trkpt>
      <trkpt lat="45.18196" lon="5.91444">
        <ele>1480.4239501953</ele>
        <time>2017-05-05T13:21:16Z</time>
      </trkpt>
      <trkpt lat="45.182" lon="5.9144">
        <ele>1480.4239501953</ele>
        <time>2017-05-05T13:21:21Z</time>
      </trkpt>
      <trkpt lat="45.18205" lon="5.91435">
        <ele>1482.4239501953</ele>
        <time>2017-05-05T13:21:24Z</time>
      </trkpt>
      <trkpt lat="45.1821" lon="5.91435">
        <ele>1479.4239501953</ele>
        <time>2017-05-05T13:21:30Z</time>
      </trkpt>
      <trkpt lat="45.18214" lon="5.91435">
        <ele>1475.4239501953</ele>
        <time>2017-05-05T13:21:37Z</time>
      </trkpt>
      <trkpt lat="45.1822" lon="5.91433">
        <ele>1474.4239501953</ele>
        <time>2017-05-05T13:21:42Z</time>
      </trkpt>
      <trkpt lat="45.18225" lon="5.91431">
        <ele>1474.4239501953</ele>
        <time>2017-05-05T13:21:46Z</time>
      </trkpt>
      <trkpt lat="45.1823" lon="5.91427">
        <ele>1474.4239501953</ele>
        <time>2017-05-05T13:21:50Z</time>
      </trkpt>
      <trkpt lat="45.18235" lon="5.91422">
        <ele>1472.4239501953</ele>
        <time>2017-05-05T13:21:54Z</time>
      </trkpt>
      <trkpt lat="45.1824" lon="5.91422">
        <ele>1473.4239501953</ele>
        <time>2017-05-05T13:21:58Z</time>
      </trkpt>
      <trkpt lat="45.18245" lon="5.91423">
        <ele>1471.4239501953</ele>
        <time>2017-05-05T13:22:01Z</time>
      </trkpt>
      <trkpt lat="45.18251" lon="5.91422">
        <ele>1471.4239501953</ele>
        <time>2017-05-05T13:22:06Z</time>
      </trkpt>
      <trkpt lat="45.18256" lon="5.91418">
        <ele>1471.4239501953</ele>
        <time>2017-05-05T13:22:11Z</time>
      </trkpt>
      <trkpt lat="45.18261" lon="5.91416">
        <ele>1471.4239501953</ele>
        <time>2017-05-05T13:22:15Z</time>
      </trkpt>
      <trkpt lat="45.18266" lon="5.91418">
        <ele>1466.4239501953</ele>
        <time>2017-05-05T13:22:21Z</time>
      </trkpt>
      <trkpt lat="45.18271" lon="5.91419">
        <ele>1466.4239501953</ele>
        <time>2017-05-05T13:22:25Z</time>
      </trkpt>
      <trkpt lat="45.18276" lon="5.91415">
        <ele>1465.4239501953</ele>
        <time>2017-05-05T13:22:29Z</time>
      </trkpt>
      <trkpt lat="45.18281" lon="5.91413">
        <ele>1466.4239501953</ele>
        <time>2017-05-05T13:22:32Z</time>
      </trkpt>
      <trkpt lat="45.18286" lon="5.91412">
        <ele>1468.4239501953</ele>
        <time>2017-05-05T13:22:37Z</time>
      </trkpt>
      <trkpt lat="45.18292" lon="5.91415">
        <ele>1468.4239501953</ele>
        <time>2017-05-05T13:22:42Z</time>
      </trkpt>
      <trkpt lat="45.18297" lon="5.91414">
        <ele>1466.4250488281</ele>
        <time>2017-05-05T13:22:47Z</time>
      </trkpt>
      <trkpt lat="45.18302" lon="5.91414">
        <ele>1463.4250488281</ele>
        <time>2017-05-05T13:22:52Z</time>
      </trkpt>
      <trkpt lat="45.18309" lon="5.91412">
        <ele>1464.4250488281</ele>
        <time>2017-05-05T13:23:00Z</time>
      </trkpt>
      <trkpt lat="45.18313" lon="5.91409">
        <ele>1463.4250488281</ele>
        <time>2017-05-05T13:23:03Z</time>
      </trkpt>
      <trkpt lat="45.18318" lon="5.91408">
        <ele>1459.4250488281</ele>
        <time>2017-05-05T13:23:07Z</time>
      </trkpt>
      <trkpt lat="45.18323" lon="5.91407">
        <ele>1459.4250488281</ele>
        <time>2017-05-05T13:23:11Z</time>
      </trkpt>
      <trkpt lat="45.18328" lon="5.91403">
        <ele>1457.4250488281</ele>
        <time>2017-05-05T13:23:15Z</time>
      </trkpt>
      <trkpt lat="45.18332" lon="5.914">
        <ele>1455.4250488281</ele>
        <time>2017-05-05T13:23:20Z</time>
      </trkpt>
      <trkpt lat="45.18336" lon="5.91396">
        <ele>1455.4250488281</ele>
        <time>2017-05-05T13:23:23Z</time>
      </trkpt>
      <trkpt lat="45.1834" lon="5.91398">
        <ele>1452.4250488281</ele>
        <time>2017-05-05T13:23:28Z</time>
      </trkpt>
      <trkpt lat="45.18345" lon="5.91398">
        <ele>1454.4250488281</ele>
        <time>2017-05-05T13:23:30Z</time>
      </trkpt>
      <trkpt lat="45.18352" lon="5.91395">
        <ele>1450.4250488281</ele>
        <time>2017-05-05T13:23:37Z</time>
      </trkpt>
      <trkpt lat="45.18357" lon="5.91394">
        <ele>1448.4250488281</ele>
        <time>2017-05-05T13:23:41Z</time>
      </trkpt>
      <trkpt lat="45.18361" lon="5.9139">
        <ele>1445.4250488281</ele>
        <time>2017-05-05T13:23:51Z</time>
      </trkpt>
      <trkpt lat="45.18367" lon="5.91391">
        <ele>1442.4250488281</ele>
        <time>2017-05-05T13:23:55Z</time>
      </trkpt>
      <trkpt lat="45.18372" lon="5.91389">
        <ele>1442.4250488281</ele>
        <time>2017-05-05T13:24:00Z</time>
      </trkpt>
      <trkpt lat="45.18378" lon="5.91386">
        <ele>1440.4250488281</ele>
        <time>2017-05-05T13:24:05Z</time>
      </trkpt>
      <trkpt lat="45.18383" lon="5.91383">
        <ele>1439.4250488281</ele>
        <time>2017-05-05T13:24:08Z</time>
      </trkpt>
      <trkpt lat="45.18387" lon="5.9138">
        <ele>1439.4250488281</ele>
        <time>2017-05-05T13:24:13Z</time>
      </trkpt>
      <trkpt lat="45.18394" lon="5.9138">
        <ele>1438.4250488281</ele>
        <time>2017-05-05T13:24:15Z</time>
      </trkpt>
      <trkpt lat="45.18399" lon="5.91379">
        <ele>1437.4250488281</ele>
        <time>2017-05-05T13:24:17Z</time>
      </trkpt>
      <trkpt lat="45.18404" lon="5.91378">
        <ele>1437.4250488281</ele>
        <time>2017-05-05T13:24:22Z</time>
      </trkpt>
      <trkpt lat="45.1841" lon="5.91377">
        <ele>1436.4250488281</ele>
        <time>2017-05-05T13:24:25Z</time>
      </trkpt>
      <trkpt lat="45.18415" lon="5.91376">
        <ele>1431.4250488281</ele>
        <time>2017-05-05T13:24:36Z</time>
      </trkpt>
      <trkpt lat="45.18419" lon="5.91373">
        <ele>1430.4250488281</ele>
        <time>2017-05-05T13:24:39Z</time>
      </trkpt>
      <trkpt lat="45.18424" lon="5.91372">
        <ele>1426.4250488281</ele>
        <time>2017-05-05T13:24:42Z</time>
      </trkpt>
      <trkpt lat="45.1843" lon="5.91373">
        <ele>1425.4250488281</ele>
        <time>2017-05-05T13:24:46Z</time>
      </trkpt>
      <trkpt lat="45.18434" lon="5.91372">
        <ele>1424.4250488281</ele>
        <time>2017-05-05T13:24:50Z</time>
      </trkpt>
      <trkpt lat="45.1844" lon="5.91374">
        <ele>1424.4250488281</ele>
        <time>2017-05-05T13:24:53Z</time>
      </trkpt>
      <trkpt lat="45.18444" lon="5.91374">
        <ele>1421.4250488281</ele>
        <time>2017-05-05T13:24:56Z</time>
      </trkpt>
      <trkpt lat="45.18449" lon="5.91372">
        <ele>1421.4250488281</ele>
        <time>2017-05-05T13:24:58Z</time>
      </trkpt>
      <trkpt lat="45.18454" lon="5.91371">
        <ele>1421.4250488281</ele>
        <time>2017-05-05T13:25:04Z</time>
      </trkpt>
      <trkpt lat="45.18458" lon="5.91371">
        <ele>1419.4250488281</ele>
        <time>2017-05-05T13:25:07Z</time>
      </trkpt>
      <trkpt lat="45.18464" lon="5.91368">
        <ele>1420.4250488281</ele>
        <time>2017-05-05T13:25:10Z</time>
      </trkpt>
      <trkpt lat="45.18467" lon="5.91373">
        <ele>1417.4250488281</ele>
        <time>2017-05-05T13:25:15Z</time>
      </trkpt>
      <trkpt lat="45.18473" lon="5.91373">
        <ele>1419.4250488281</ele>
        <time>2017-05-05T13:25:18Z</time>
      </trkpt>
      <trkpt lat="45.18479" lon="5.91376">
        <ele>1419.4250488281</ele>
        <time>2017-05-05T13:25:21Z</time>
      </trkpt>
      <trkpt lat="45.18484" lon="5.91378">
        <ele>1420.4250488281</ele>
        <time>2017-05-05T13:25:23Z</time>
      </trkpt>
      <trkpt lat="45.18489" lon="5.91379">
        <ele>1419.4250488281</ele>
        <time>2017-05-05T13:25:27Z</time>
      </trkpt>
      <trkpt lat="45.18493" lon="5.91383">
        <ele>1418.4250488281</ele>
        <time>2017-05-05T13:25:32Z</time>
      </trkpt>
      <trkpt lat="45.18498" lon="5.91386">
        <ele>1413.4250488281</ele>
        <time>2017-05-05T13:25:39Z</time>
      </trkpt>
      <trkpt lat="45.18503" lon="5.91385">
        <ele>1411.4250488281</ele>
        <time>2017-05-05T13:25:44Z</time>
      </trkpt>
      <trkpt lat="45.18508" lon="5.91382">
        <ele>1411.4250488281</ele>
        <time>2017-05-05T13:25:47Z</time>
      </trkpt>
      <trkpt lat="45.18512" lon="5.91378">
        <ele>1414.4250488281</ele>
        <time>2017-05-05T13:25:50Z</time>
      </trkpt>
      <trkpt lat="45.18516" lon="5.91375">
        <ele>1414.4250488281</ele>
        <time>2017-05-05T13:25:53Z</time>
      </trkpt>
      <trkpt lat="45.18521" lon="5.91371">
        <ele>1414.4250488281</ele>
        <time>2017-05-05T13:25:57Z</time>
      </trkpt>
      <trkpt lat="45.18526" lon="5.91368">
        <ele>1411.4250488281</ele>
        <time>2017-05-05T13:26:01Z</time>
      </trkpt>
      <trkpt lat="45.18528" lon="5.91362">
        <ele>1410.4250488281</ele>
        <time>2017-05-05T13:26:05Z</time>
      </trkpt>
      <trkpt lat="45.18534" lon="5.91358">
        <ele>1407.4250488281</ele>
        <time>2017-05-05T13:26:11Z</time>
      </trkpt>
      <trkpt lat="45.18539" lon="5.91355">
        <ele>1406.4250488281</ele>
        <time>2017-05-05T13:26:15Z</time>
      </trkpt>
      <trkpt lat="45.18545" lon="5.91352">
        <ele>1403.4250488281</ele>
        <time>2017-05-05T13:26:18Z</time>
      </trkpt>
      <trkpt lat="45.1855" lon="5.91348">
        <ele>1402.4250488281</ele>
        <time>2017-05-05T13:26:22Z</time>
      </trkpt>
      <trkpt lat="45.18556" lon="5.91345">
        <ele>1403.4250488281</ele>
        <time>2017-05-05T13:26:25Z</time>
      </trkpt>
      <trkpt lat="45.18561" lon="5.91341">
        <ele>1403.4250488281</ele>
        <time>2017-05-05T13:26:29Z</time>
      </trkpt>
      <trkpt lat="45.18564" lon="5.91336">
        <ele>1404.4250488281</ele>
        <time>2017-05-05T13:26:33Z</time>
      </trkpt>
      <trkpt lat="45.18568" lon="5.91331">
        <ele>1403.4250488281</ele>
        <time>2017-05-05T13:26:37Z</time>
      </trkpt>
      <trkpt lat="45.18571" lon="5.91326">
        <ele>1401.4250488281</ele>
        <time>2017-05-05T13:26:41Z</time>
      </trkpt>
      <trkpt lat="45.18575" lon="5.91322">
        <ele>1401.4250488281</ele>
        <time>2017-05-05T13:26:45Z</time>
      </trkpt>
      <trkpt lat="45.18579" lon="5.91317">
        <ele>1399.4250488281</ele>
        <time>2017-05-05T13:26:49Z</time>
      </trkpt>
      <trkpt lat="45.18583" lon="5.91313">
        <ele>1398.4250488281</ele>
        <time>2017-05-05T13:26:52Z</time>
      </trkpt>
      <trkpt lat="45.18588" lon="5.91311">
        <ele>1399.4250488281</ele>
        <time>2017-05-05T13:26:55Z</time>
      </trkpt>
      <trkpt lat="45.18592" lon="5.91304">
        <ele>1399.4250488281</ele>
        <time>2017-05-05T13:27:00Z</time>
      </trkpt>
      <trkpt lat="45.18598" lon="5.91306">
        <ele>1395.4250488281</ele>
        <time>2017-05-05T13:27:05Z</time>
      </trkpt>
      <trkpt lat="45.18603" lon="5.91303">
        <ele>1396.4250488281</ele>
        <time>2017-05-05T13:27:10Z</time>
      </trkpt>
      <trkpt lat="45.18609" lon="5.91302">
        <ele>1393.4250488281</ele>
        <time>2017-05-05T13:27:13Z</time>
      </trkpt>
      <trkpt lat="45.18614" lon="5.913">
        <ele>1394.4250488281</ele>
        <time>2017-05-05T13:27:17Z</time>
      </trkpt>
      <trkpt lat="45.1862" lon="5.91302">
        <ele>1393.4250488281</ele>
        <time>2017-05-05T13:27:21Z</time>
      </trkpt>
      <trkpt lat="45.18626" lon="5.91302">
        <ele>1393.4250488281</ele>
        <time>2017-05-05T13:27:26Z</time>
      </trkpt>
      <trkpt lat="45.18631" lon="5.91302">
        <ele>1392.4250488281</ele>
        <time>2017-05-05T13:27:30Z</time>
      </trkpt>
      <trkpt lat="45.18636" lon="5.91301">
        <ele>1390.4250488281</ele>
        <time>2017-05-05T13:27:34Z</time>
      </trkpt>
      <trkpt lat="45.18642" lon="5.913">
        <ele>1390.4250488281</ele>
        <time>2017-05-05T13:27:38Z</time>
      </trkpt>
      <trkpt lat="45.18646" lon="5.91303">
        <ele>1388.4250488281</ele>
        <time>2017-05-05T13:27:40Z</time>
      </trkpt>
      <trkpt lat="45.1865" lon="5.91301">
        <ele>1385.4250488281</ele>
        <time>2017-05-05T13:27:45Z</time>
      </trkpt>
      <trkpt lat="45.18655" lon="5.91301">
        <ele>1381.4250488281</ele>
        <time>2017-05-05T13:27:49Z</time>
      </trkpt>
      <trkpt lat="45.1866" lon="5.91298">
        <ele>1378.4250488281</ele>
        <time>2017-05-05T13:27:54Z</time>
      </trkpt>
      <trkpt lat="45.18664" lon="5.91294">
        <ele>1371.4250488281</ele>
        <time>2017-05-05T13:28:04Z</time>
      </trkpt>
      <trkpt lat="45.18666" lon="5.91288">
        <ele>1368.4250488281</ele>
        <time>2017-05-05T13:28:08Z</time>
      </trkpt>
      <trkpt lat="45.18666" lon="5.91281">
        <ele>1370.4250488281</ele>
        <time>2017-05-05T13:28:14Z</time>
      </trkpt>
      <trkpt lat="45.18663" lon="5.91275">
        <ele>1367.4250488281</ele>
        <time>2017-05-05T13:28:18Z</time>
      </trkpt>
      <trkpt lat="45.18661" lon="5.9127">
        <ele>1366.4250488281</ele>
        <time>2017-05-05T13:28:23Z</time>
      </trkpt>
      <trkpt lat="45.18657" lon="5.91265">
        <ele>1365.4250488281</ele>
        <time>2017-05-05T13:28:26Z</time>
      </trkpt>
      <trkpt lat="45.18656" lon="5.91259">
        <ele>1369.4250488281</ele>
        <time>2017-05-05T13:29:51Z</time>
      </trkpt>
      <trkpt lat="45.18651" lon="5.91259">
        <ele>1368.4250488281</ele>
        <time>2017-05-05T13:29:56Z</time>
      </trkpt>
      <trkpt lat="45.18655" lon="5.9126">
        <ele>1373.4250488281</ele>
        <time>2017-05-05T13:32:23Z</time>
      </trkpt>
      <trkpt lat="45.1866" lon="5.91261">
        <ele>1375.4250488281</ele>
        <time>2017-05-05T13:32:26Z</time>
      </trkpt>
      <trkpt lat="45.18663" lon="5.91267">
        <ele>1377.4250488281</ele>
        <time>2017-05-05T13:32:54Z</time>
      </trkpt>
      <trkpt lat="45.18666" lon="5.91273">
        <ele>1375.4250488281</ele>
        <time>2017-05-05T13:32:59Z</time>
      </trkpt>
      <trkpt lat="45.18669" lon="5.91278">
        <ele>1373.4250488281</ele>
        <time>2017-05-05T13:33:07Z</time>
      </trkpt>
      <trkpt lat="45.18666" lon="5.91271">
        <ele>1375.4250488281</ele>
        <time>2017-05-05T13:33:22Z</time>
      </trkpt>
      <trkpt lat="45.18662" lon="5.91267">
        <ele>1373.4250488281</ele>
        <time>2017-05-05T13:33:27Z</time>
      </trkpt>
    </trkseg>
  </trk>
</gpx>